<?xml version="1.0" encoding="UTF-8" standalone="no" ?>
<gpx xmlns="http://www.topografix.com/GPX/1/1" xmlns:xsi="http://www.w3.org/2001/XMLSchema-instance" xsi:schemaLocation="http://www.topografix.com/GPX/1/1 http://www.topografix.com/GPX/1/1/gpx.xsd" version="1.1" creator="VisuGPX - https://www.visugpx.com">
  <metadata>
    <name>TRENC Equi\'Tey16 octobre 2011</name>
    <desc><![CDATA[Quelques erreur de parcours, par rapport au trajet prévu... un temps super, 8 chevaux ensembles, une bonne ambiance et un rythme...lent :)]]></desc>
  </metadata>
  <trk>
    <name><![CDATA[Untitled]]></name>
    <trkseg>
      <trkpt lat="48.70723" lon="1.75449">
        <ele>171.60000610352</ele>
        <time>2011-10-16T05:12:22.000Z</time>
      </trkpt>
      <trkpt lat="48.70724" lon="1.75443">
        <ele>171.60000610352</ele>
        <time>2011-10-16T05:12:29.000Z</time>
      </trkpt>
      <trkpt lat="48.70729" lon="1.75435">
        <ele>171.60000610352</ele>
        <time>2011-10-16T05:12:34.000Z</time>
      </trkpt>
      <trkpt lat="48.7073" lon="1.75429">
        <ele>171.60000610352</ele>
        <time>2011-10-16T05:12:37.000Z</time>
      </trkpt>
      <trkpt lat="48.7073" lon="1.75425">
        <ele>171.60000610352</ele>
        <time>2011-10-16T05:12:41.000Z</time>
      </trkpt>
      <trkpt lat="48.7073" lon="1.75424">
        <ele>171.60000610352</ele>
        <time>2011-10-16T05:12:42.000Z</time>
      </trkpt>
      <trkpt lat="48.7073" lon="1.75422">
        <ele>171.60000610352</ele>
        <time>2011-10-16T05:12:45.000Z</time>
      </trkpt>
      <trkpt lat="48.70732" lon="1.75425">
        <ele>171.60000610352</ele>
        <time>2011-10-16T05:12:51.000Z</time>
      </trkpt>
      <trkpt lat="48.70735" lon="1.7542">
        <ele>171.80000305176</ele>
        <time>2011-10-16T05:12:54.000Z</time>
      </trkpt>
      <trkpt lat="48.70736" lon="1.75413">
        <ele>171.80000305176</ele>
        <time>2011-10-16T05:12:57.000Z</time>
      </trkpt>
      <trkpt lat="48.70739" lon="1.754">
        <ele>172</ele>
        <time>2011-10-16T05:13:04.000Z</time>
      </trkpt>
      <trkpt lat="48.70743" lon="1.75388">
        <ele>172.19999694824</ele>
        <time>2011-10-16T05:13:11.000Z</time>
      </trkpt>
      <trkpt lat="48.70745" lon="1.75375">
        <ele>172.39999389648</ele>
        <time>2011-10-16T05:13:18.000Z</time>
      </trkpt>
      <trkpt lat="48.70748" lon="1.75364">
        <ele>172.60000610352</ele>
        <time>2011-10-16T05:13:24.000Z</time>
      </trkpt>
      <trkpt lat="48.70752" lon="1.75356">
        <ele>172.60000610352</ele>
        <time>2011-10-16T05:13:29.000Z</time>
      </trkpt>
      <trkpt lat="48.70757" lon="1.75351">
        <ele>172.80000305176</ele>
        <time>2011-10-16T05:13:34.000Z</time>
      </trkpt>
      <trkpt lat="48.7076" lon="1.75339">
        <ele>173</ele>
        <time>2011-10-16T05:13:41.000Z</time>
      </trkpt>
      <trkpt lat="48.70767" lon="1.75325">
        <ele>173.19999694824</ele>
        <time>2011-10-16T05:13:50.000Z</time>
      </trkpt>
      <trkpt lat="48.7077" lon="1.75316">
        <ele>173.19999694824</ele>
        <time>2011-10-16T05:13:56.000Z</time>
      </trkpt>
      <trkpt lat="48.70771" lon="1.75313">
        <ele>173.19999694824</ele>
        <time>2011-10-16T05:13:58.000Z</time>
      </trkpt>
      <trkpt lat="48.70774" lon="1.75306">
        <ele>173.19999694824</ele>
        <time>2011-10-16T05:14:02.000Z</time>
      </trkpt>
      <trkpt lat="48.70782" lon="1.7529">
        <ele>173.19999694824</ele>
        <time>2011-10-16T05:14:11.000Z</time>
      </trkpt>
      <trkpt lat="48.70788" lon="1.75277">
        <ele>173.39999389648</ele>
        <time>2011-10-16T05:14:19.000Z</time>
      </trkpt>
      <trkpt lat="48.70793" lon="1.75266">
        <ele>173.39999389648</ele>
        <time>2011-10-16T05:14:27.000Z</time>
      </trkpt>
      <trkpt lat="48.70796" lon="1.75259">
        <ele>173.39999389648</ele>
        <time>2011-10-16T05:14:31.000Z</time>
      </trkpt>
      <trkpt lat="48.70801" lon="1.75245">
        <ele>173.60000610352</ele>
        <time>2011-10-16T05:14:39.000Z</time>
      </trkpt>
      <trkpt lat="48.70806" lon="1.75234">
        <ele>173.60000610352</ele>
        <time>2011-10-16T05:14:47.000Z</time>
      </trkpt>
      <trkpt lat="48.70807" lon="1.75231">
        <ele>173.60000610352</ele>
        <time>2011-10-16T05:14:49.000Z</time>
      </trkpt>
      <trkpt lat="48.70811" lon="1.75223">
        <ele>173.60000610352</ele>
        <time>2011-10-16T05:14:54.000Z</time>
      </trkpt>
      <trkpt lat="48.70811" lon="1.75222">
        <ele>173.60000610352</ele>
        <time>2011-10-16T05:14:55.000Z</time>
      </trkpt>
      <trkpt lat="48.70816" lon="1.75213">
        <ele>173.60000610352</ele>
        <time>2011-10-16T05:15:01.000Z</time>
      </trkpt>
      <trkpt lat="48.7082" lon="1.75206">
        <ele>173.80000305176</ele>
        <time>2011-10-16T05:15:07.000Z</time>
      </trkpt>
      <trkpt lat="48.70824" lon="1.75195">
        <ele>173.80000305176</ele>
        <time>2011-10-16T05:15:14.000Z</time>
      </trkpt>
      <trkpt lat="48.70825" lon="1.75192">
        <ele>173.80000305176</ele>
        <time>2011-10-16T05:15:16.000Z</time>
      </trkpt>
      <trkpt lat="48.70829" lon="1.7518">
        <ele>173.80000305176</ele>
        <time>2011-10-16T05:15:23.000Z</time>
      </trkpt>
      <trkpt lat="48.70832" lon="1.75176">
        <ele>173.80000305176</ele>
        <time>2011-10-16T05:15:26.000Z</time>
      </trkpt>
      <trkpt lat="48.70839" lon="1.7516">
        <ele>174</ele>
        <time>2011-10-16T05:15:36.000Z</time>
      </trkpt>
      <trkpt lat="48.7084" lon="1.75157">
        <ele>174</ele>
        <time>2011-10-16T05:15:38.000Z</time>
      </trkpt>
      <trkpt lat="48.70847" lon="1.75146">
        <ele>174</ele>
        <time>2011-10-16T05:15:46.000Z</time>
      </trkpt>
      <trkpt lat="48.70848" lon="1.75139">
        <ele>174</ele>
        <time>2011-10-16T05:15:50.000Z</time>
      </trkpt>
      <trkpt lat="48.70854" lon="1.75124">
        <ele>174</ele>
        <time>2011-10-16T05:15:59.000Z</time>
      </trkpt>
      <trkpt lat="48.70857" lon="1.7512">
        <ele>174</ele>
        <time>2011-10-16T05:16:02.000Z</time>
      </trkpt>
      <trkpt lat="48.70858" lon="1.75116">
        <ele>174</ele>
        <time>2011-10-16T05:16:05.000Z</time>
      </trkpt>
      <trkpt lat="48.70862" lon="1.75103">
        <ele>174</ele>
        <time>2011-10-16T05:16:12.000Z</time>
      </trkpt>
      <trkpt lat="48.70868" lon="1.75092">
        <ele>174</ele>
        <time>2011-10-16T05:16:20.000Z</time>
      </trkpt>
      <trkpt lat="48.70872" lon="1.75083">
        <ele>174</ele>
        <time>2011-10-16T05:16:27.000Z</time>
      </trkpt>
      <trkpt lat="48.70877" lon="1.75072">
        <ele>174</ele>
        <time>2011-10-16T05:16:34.000Z</time>
      </trkpt>
      <trkpt lat="48.70881" lon="1.75062">
        <ele>174.19999694824</ele>
        <time>2011-10-16T05:16:39.000Z</time>
      </trkpt>
      <trkpt lat="48.70886" lon="1.7505">
        <ele>174.39999389648</ele>
        <time>2011-10-16T05:16:47.000Z</time>
      </trkpt>
      <trkpt lat="48.70891" lon="1.7504">
        <ele>174.39999389648</ele>
        <time>2011-10-16T05:16:53.000Z</time>
      </trkpt>
      <trkpt lat="48.70897" lon="1.7503">
        <ele>174.60000610352</ele>
        <time>2011-10-16T05:17:00.000Z</time>
      </trkpt>
      <trkpt lat="48.70902" lon="1.75017">
        <ele>174.60000610352</ele>
        <time>2011-10-16T05:17:09.000Z</time>
      </trkpt>
      <trkpt lat="48.70908" lon="1.75006">
        <ele>174.80000305176</ele>
        <time>2011-10-16T05:17:17.000Z</time>
      </trkpt>
      <trkpt lat="48.70914" lon="1.74993">
        <ele>174.80000305176</ele>
        <time>2011-10-16T05:17:25.000Z</time>
      </trkpt>
      <trkpt lat="48.70918" lon="1.74985">
        <ele>175</ele>
        <time>2011-10-16T05:17:30.000Z</time>
      </trkpt>
      <trkpt lat="48.70923" lon="1.74973">
        <ele>175.19999694824</ele>
        <time>2011-10-16T05:17:37.000Z</time>
      </trkpt>
      <trkpt lat="48.70927" lon="1.74962">
        <ele>175.39999389648</ele>
        <time>2011-10-16T05:17:44.000Z</time>
      </trkpt>
      <trkpt lat="48.70932" lon="1.74952">
        <ele>175.60000610352</ele>
        <time>2011-10-16T05:17:51.000Z</time>
      </trkpt>
      <trkpt lat="48.70941" lon="1.74939">
        <ele>176</ele>
        <time>2011-10-16T05:18:01.000Z</time>
      </trkpt>
      <trkpt lat="48.70943" lon="1.74937">
        <ele>176</ele>
        <time>2011-10-16T05:18:03.000Z</time>
      </trkpt>
      <trkpt lat="48.70945" lon="1.74933">
        <ele>176.19999694824</ele>
        <time>2011-10-16T05:18:07.000Z</time>
      </trkpt>
      <trkpt lat="48.7095" lon="1.74926">
        <ele>176.39999389648</ele>
        <time>2011-10-16T05:18:13.000Z</time>
      </trkpt>
      <trkpt lat="48.70955" lon="1.74923">
        <ele>176.60000610352</ele>
        <time>2011-10-16T05:18:18.000Z</time>
      </trkpt>
      <trkpt lat="48.7096" lon="1.74916">
        <ele>177</ele>
        <time>2011-10-16T05:18:25.000Z</time>
      </trkpt>
      <trkpt lat="48.70967" lon="1.74909">
        <ele>177.39999389648</ele>
        <time>2011-10-16T05:18:31.000Z</time>
      </trkpt>
      <trkpt lat="48.70974" lon="1.74902">
        <ele>177.80000305176</ele>
        <time>2011-10-16T05:18:38.000Z</time>
      </trkpt>
      <trkpt lat="48.70975" lon="1.74901">
        <ele>177.80000305176</ele>
        <time>2011-10-16T05:18:39.000Z</time>
      </trkpt>
      <trkpt lat="48.70984" lon="1.74891">
        <ele>178.39999389648</ele>
        <time>2011-10-16T05:18:48.000Z</time>
      </trkpt>
      <trkpt lat="48.70986" lon="1.7489">
        <ele>178.39999389648</ele>
        <time>2011-10-16T05:18:49.000Z</time>
      </trkpt>
      <trkpt lat="48.70992" lon="1.74879">
        <ele>178.60000610352</ele>
        <time>2011-10-16T05:18:57.000Z</time>
      </trkpt>
      <trkpt lat="48.70998" lon="1.74868">
        <ele>178.80000305176</ele>
        <time>2011-10-16T05:19:05.000Z</time>
      </trkpt>
      <trkpt lat="48.71003" lon="1.74861">
        <ele>178.80000305176</ele>
        <time>2011-10-16T05:19:11.000Z</time>
      </trkpt>
      <trkpt lat="48.71004" lon="1.74859">
        <ele>178.60000610352</ele>
        <time>2011-10-16T05:19:13.000Z</time>
      </trkpt>
      <trkpt lat="48.71006" lon="1.74857">
        <ele>178.60000610352</ele>
        <time>2011-10-16T05:19:15.000Z</time>
      </trkpt>
      <trkpt lat="48.71009" lon="1.74852">
        <ele>178.39999389648</ele>
        <time>2011-10-16T05:19:21.000Z</time>
      </trkpt>
      <trkpt lat="48.71009" lon="1.74852">
        <ele>178.39999389648</ele>
        <time>2011-10-16T05:19:23.000Z</time>
      </trkpt>
      <trkpt lat="48.7101" lon="1.74838">
        <ele>178.39999389648</ele>
        <time>2011-10-16T05:19:42.000Z</time>
      </trkpt>
      <trkpt lat="48.71005" lon="1.74828">
        <ele>178.60000610352</ele>
        <time>2011-10-16T05:19:45.000Z</time>
      </trkpt>
      <trkpt lat="48.71" lon="1.74815">
        <ele>178.60000610352</ele>
        <time>2011-10-16T05:19:51.000Z</time>
      </trkpt>
      <trkpt lat="48.70995" lon="1.74805">
        <ele>178.60000610352</ele>
        <time>2011-10-16T05:19:57.000Z</time>
      </trkpt>
      <trkpt lat="48.70989" lon="1.74792">
        <ele>178.39999389648</ele>
        <time>2011-10-16T05:20:04.000Z</time>
      </trkpt>
      <trkpt lat="48.70981" lon="1.74782">
        <ele>178.19999694824</ele>
        <time>2011-10-16T05:20:12.000Z</time>
      </trkpt>
      <trkpt lat="48.70973" lon="1.74772">
        <ele>178</ele>
        <time>2011-10-16T05:20:20.000Z</time>
      </trkpt>
      <trkpt lat="48.70966" lon="1.74761">
        <ele>178</ele>
        <time>2011-10-16T05:20:28.000Z</time>
      </trkpt>
      <trkpt lat="48.70957" lon="1.74759">
        <ele>178</ele>
        <time>2011-10-16T05:20:36.000Z</time>
      </trkpt>
      <trkpt lat="48.7095" lon="1.74756">
        <ele>178</ele>
        <time>2011-10-16T05:20:42.000Z</time>
      </trkpt>
      <trkpt lat="48.70945" lon="1.7475">
        <ele>177.80000305176</ele>
        <time>2011-10-16T05:20:48.000Z</time>
      </trkpt>
      <trkpt lat="48.70938" lon="1.74744">
        <ele>177.80000305176</ele>
        <time>2011-10-16T05:20:55.000Z</time>
      </trkpt>
      <trkpt lat="48.70932" lon="1.74737">
        <ele>177.60000610352</ele>
        <time>2011-10-16T05:21:02.000Z</time>
      </trkpt>
      <trkpt lat="48.70925" lon="1.74729">
        <ele>177.39999389648</ele>
        <time>2011-10-16T05:21:10.000Z</time>
      </trkpt>
      <trkpt lat="48.70916" lon="1.74721">
        <ele>177.19999694824</ele>
        <time>2011-10-16T05:21:18.000Z</time>
      </trkpt>
      <trkpt lat="48.70912" lon="1.74715">
        <ele>177.19999694824</ele>
        <time>2011-10-16T05:21:22.000Z</time>
      </trkpt>
      <trkpt lat="48.70909" lon="1.7471">
        <ele>177</ele>
        <time>2011-10-16T05:21:26.000Z</time>
      </trkpt>
      <trkpt lat="48.70908" lon="1.74706">
        <ele>177</ele>
        <time>2011-10-16T05:21:30.000Z</time>
      </trkpt>
      <trkpt lat="48.70902" lon="1.74694">
        <ele>176.60000610352</ele>
        <time>2011-10-16T05:21:35.000Z</time>
      </trkpt>
      <trkpt lat="48.70897" lon="1.74688">
        <ele>176.60000610352</ele>
        <time>2011-10-16T05:21:40.000Z</time>
      </trkpt>
      <trkpt lat="48.70896" lon="1.74687">
        <ele>176.39999389648</ele>
        <time>2011-10-16T05:21:41.000Z</time>
      </trkpt>
      <trkpt lat="48.70885" lon="1.74675">
        <ele>176.19999694824</ele>
        <time>2011-10-16T05:21:50.000Z</time>
      </trkpt>
      <trkpt lat="48.70878" lon="1.74667">
        <ele>176</ele>
        <time>2011-10-16T05:21:57.000Z</time>
      </trkpt>
      <trkpt lat="48.70871" lon="1.74654">
        <ele>175.80000305176</ele>
        <time>2011-10-16T05:22:05.000Z</time>
      </trkpt>
      <trkpt lat="48.70865" lon="1.74645">
        <ele>175.80000305176</ele>
        <time>2011-10-16T05:22:13.000Z</time>
      </trkpt>
      <trkpt lat="48.7086" lon="1.7464">
        <ele>175.80000305176</ele>
        <time>2011-10-16T05:22:17.000Z</time>
      </trkpt>
      <trkpt lat="48.70853" lon="1.7463">
        <ele>175.80000305176</ele>
        <time>2011-10-16T05:22:23.000Z</time>
      </trkpt>
      <trkpt lat="48.70847" lon="1.74621">
        <ele>175.80000305176</ele>
        <time>2011-10-16T05:22:30.000Z</time>
      </trkpt>
      <trkpt lat="48.7084" lon="1.74613">
        <ele>175.80000305176</ele>
        <time>2011-10-16T05:22:37.000Z</time>
      </trkpt>
      <trkpt lat="48.70833" lon="1.74602">
        <ele>176</ele>
        <time>2011-10-16T05:22:45.000Z</time>
      </trkpt>
      <trkpt lat="48.70828" lon="1.74596">
        <ele>176</ele>
        <time>2011-10-16T05:22:52.000Z</time>
      </trkpt>
      <trkpt lat="48.70823" lon="1.74591">
        <ele>176</ele>
        <time>2011-10-16T05:22:57.000Z</time>
      </trkpt>
      <trkpt lat="48.70818" lon="1.74583">
        <ele>176</ele>
        <time>2011-10-16T05:23:04.000Z</time>
      </trkpt>
      <trkpt lat="48.70811" lon="1.74574">
        <ele>176.19999694824</ele>
        <time>2011-10-16T05:23:12.000Z</time>
      </trkpt>
      <trkpt lat="48.70804" lon="1.74567">
        <ele>176.19999694824</ele>
        <time>2011-10-16T05:23:18.000Z</time>
      </trkpt>
      <trkpt lat="48.70795" lon="1.74555">
        <ele>176.39999389648</ele>
        <time>2011-10-16T05:23:28.000Z</time>
      </trkpt>
      <trkpt lat="48.70789" lon="1.74546">
        <ele>176.39999389648</ele>
        <time>2011-10-16T05:23:35.000Z</time>
      </trkpt>
      <trkpt lat="48.70782" lon="1.74539">
        <ele>176.60000610352</ele>
        <time>2011-10-16T05:23:42.000Z</time>
      </trkpt>
      <trkpt lat="48.70776" lon="1.74531">
        <ele>176.60000610352</ele>
        <time>2011-10-16T05:23:49.000Z</time>
      </trkpt>
      <trkpt lat="48.70766" lon="1.74519">
        <ele>176.80000305176</ele>
        <time>2011-10-16T05:23:59.000Z</time>
      </trkpt>
      <trkpt lat="48.70764" lon="1.74517">
        <ele>176.80000305176</ele>
        <time>2011-10-16T05:24:01.000Z</time>
      </trkpt>
      <trkpt lat="48.70758" lon="1.7451">
        <ele>176.80000305176</ele>
        <time>2011-10-16T05:24:08.000Z</time>
      </trkpt>
      <trkpt lat="48.70752" lon="1.74502">
        <ele>176.80000305176</ele>
        <time>2011-10-16T05:24:14.000Z</time>
      </trkpt>
      <trkpt lat="48.70748" lon="1.74498">
        <ele>177</ele>
        <time>2011-10-16T05:24:18.000Z</time>
      </trkpt>
      <trkpt lat="48.70742" lon="1.74487">
        <ele>177.39999389648</ele>
        <time>2011-10-16T05:24:24.000Z</time>
      </trkpt>
      <trkpt lat="48.70741" lon="1.74485">
        <ele>177.39999389648</ele>
        <time>2011-10-16T05:24:25.000Z</time>
      </trkpt>
      <trkpt lat="48.70733" lon="1.74478">
        <ele>177.80000305176</ele>
        <time>2011-10-16T05:24:32.000Z</time>
      </trkpt>
      <trkpt lat="48.70732" lon="1.74477">
        <ele>177.80000305176</ele>
        <time>2011-10-16T05:24:33.000Z</time>
      </trkpt>
      <trkpt lat="48.70728" lon="1.74466">
        <ele>178</ele>
        <time>2011-10-16T05:24:40.000Z</time>
      </trkpt>
      <trkpt lat="48.70728" lon="1.74465">
        <ele>178.19999694824</ele>
        <time>2011-10-16T05:24:41.000Z</time>
      </trkpt>
      <trkpt lat="48.70731" lon="1.74459">
        <ele>178</ele>
        <time>2011-10-16T05:24:45.000Z</time>
      </trkpt>
      <trkpt lat="48.70733" lon="1.74458">
        <ele>178</ele>
        <time>2011-10-16T05:24:47.000Z</time>
      </trkpt>
      <trkpt lat="48.70736" lon="1.74454">
        <ele>178</ele>
        <time>2011-10-16T05:24:51.000Z</time>
      </trkpt>
      <trkpt lat="48.70737" lon="1.74454">
        <ele>178</ele>
        <time>2011-10-16T05:24:54.000Z</time>
      </trkpt>
      <trkpt lat="48.70746" lon="1.74446">
        <ele>177.60000610352</ele>
        <time>2011-10-16T05:25:05.000Z</time>
      </trkpt>
      <trkpt lat="48.7075" lon="1.74443">
        <ele>177.60000610352</ele>
        <time>2011-10-16T05:25:08.000Z</time>
      </trkpt>
      <trkpt lat="48.70755" lon="1.74437">
        <ele>177.60000610352</ele>
        <time>2011-10-16T05:25:13.000Z</time>
      </trkpt>
      <trkpt lat="48.70763" lon="1.74435">
        <ele>177.39999389648</ele>
        <time>2011-10-16T05:25:19.000Z</time>
      </trkpt>
      <trkpt lat="48.70769" lon="1.74432">
        <ele>177.39999389648</ele>
        <time>2011-10-16T05:25:24.000Z</time>
      </trkpt>
      <trkpt lat="48.70775" lon="1.74427">
        <ele>177.19999694824</ele>
        <time>2011-10-16T05:25:30.000Z</time>
      </trkpt>
      <trkpt lat="48.70779" lon="1.74423">
        <ele>177.19999694824</ele>
        <time>2011-10-16T05:25:35.000Z</time>
      </trkpt>
      <trkpt lat="48.70785" lon="1.74419">
        <ele>177</ele>
        <time>2011-10-16T05:25:40.000Z</time>
      </trkpt>
      <trkpt lat="48.70792" lon="1.74414">
        <ele>177</ele>
        <time>2011-10-16T05:25:47.000Z</time>
      </trkpt>
      <trkpt lat="48.70799" lon="1.74408">
        <ele>176.80000305176</ele>
        <time>2011-10-16T05:25:53.000Z</time>
      </trkpt>
      <trkpt lat="48.70804" lon="1.74404">
        <ele>176.80000305176</ele>
        <time>2011-10-16T05:25:58.000Z</time>
      </trkpt>
      <trkpt lat="48.70811" lon="1.744">
        <ele>176.80000305176</ele>
        <time>2011-10-16T05:26:04.000Z</time>
      </trkpt>
      <trkpt lat="48.70814" lon="1.74399">
        <ele>176.60000610352</ele>
        <time>2011-10-16T05:26:06.000Z</time>
      </trkpt>
      <trkpt lat="48.7082" lon="1.74394">
        <ele>176.60000610352</ele>
        <time>2011-10-16T05:26:12.000Z</time>
      </trkpt>
      <trkpt lat="48.70829" lon="1.74385">
        <ele>176.39999389648</ele>
        <time>2011-10-16T05:26:20.000Z</time>
      </trkpt>
      <trkpt lat="48.70833" lon="1.74379">
        <ele>176.39999389648</ele>
        <time>2011-10-16T05:26:24.000Z</time>
      </trkpt>
      <trkpt lat="48.70839" lon="1.74371">
        <ele>176.39999389648</ele>
        <time>2011-10-16T05:26:31.000Z</time>
      </trkpt>
      <trkpt lat="48.70843" lon="1.74366">
        <ele>176.39999389648</ele>
        <time>2011-10-16T05:26:35.000Z</time>
      </trkpt>
      <trkpt lat="48.70847" lon="1.74357">
        <ele>176.39999389648</ele>
        <time>2011-10-16T05:26:41.000Z</time>
      </trkpt>
      <trkpt lat="48.7085" lon="1.74355">
        <ele>176.39999389648</ele>
        <time>2011-10-16T05:26:45.000Z</time>
      </trkpt>
      <trkpt lat="48.70854" lon="1.74348">
        <ele>176.39999389648</ele>
        <time>2011-10-16T05:26:50.000Z</time>
      </trkpt>
      <trkpt lat="48.70855" lon="1.74346">
        <ele>176.39999389648</ele>
        <time>2011-10-16T05:26:51.000Z</time>
      </trkpt>
      <trkpt lat="48.7086" lon="1.74336">
        <ele>176.60000610352</ele>
        <time>2011-10-16T05:26:57.000Z</time>
      </trkpt>
      <trkpt lat="48.70863" lon="1.74326">
        <ele>176.80000305176</ele>
        <time>2011-10-16T05:27:04.000Z</time>
      </trkpt>
      <trkpt lat="48.70865" lon="1.74322">
        <ele>177</ele>
        <time>2011-10-16T05:27:06.000Z</time>
      </trkpt>
      <trkpt lat="48.7087" lon="1.74314">
        <ele>177.39999389648</ele>
        <time>2011-10-16T05:27:13.000Z</time>
      </trkpt>
      <trkpt lat="48.70873" lon="1.74303">
        <ele>177.80000305176</ele>
        <time>2011-10-16T05:27:20.000Z</time>
      </trkpt>
      <trkpt lat="48.70874" lon="1.74302">
        <ele>178</ele>
        <time>2011-10-16T05:27:21.000Z</time>
      </trkpt>
      <trkpt lat="48.70879" lon="1.74295">
        <ele>178.19999694824</ele>
        <time>2011-10-16T05:27:27.000Z</time>
      </trkpt>
      <trkpt lat="48.70886" lon="1.74287">
        <ele>178.60000610352</ele>
        <time>2011-10-16T05:27:35.000Z</time>
      </trkpt>
      <trkpt lat="48.7089" lon="1.74284">
        <ele>178.80000305176</ele>
        <time>2011-10-16T05:27:39.000Z</time>
      </trkpt>
      <trkpt lat="48.70892" lon="1.74282">
        <ele>179</ele>
        <time>2011-10-16T05:27:41.000Z</time>
      </trkpt>
      <trkpt lat="48.70896" lon="1.74274">
        <ele>179.39999389648</ele>
        <time>2011-10-16T05:27:46.000Z</time>
      </trkpt>
      <trkpt lat="48.70899" lon="1.74267">
        <ele>179.80000305176</ele>
        <time>2011-10-16T05:27:51.000Z</time>
      </trkpt>
      <trkpt lat="48.70901" lon="1.74263">
        <ele>180</ele>
        <time>2011-10-16T05:27:54.000Z</time>
      </trkpt>
      <trkpt lat="48.70902" lon="1.74252">
        <ele>180.60000610352</ele>
        <time>2011-10-16T05:28:00.000Z</time>
      </trkpt>
      <trkpt lat="48.70903" lon="1.74246">
        <ele>180.80000305176</ele>
        <time>2011-10-16T05:28:04.000Z</time>
      </trkpt>
      <trkpt lat="48.70903" lon="1.74244">
        <ele>180.80000305176</ele>
        <time>2011-10-16T05:28:06.000Z</time>
      </trkpt>
      <trkpt lat="48.70902" lon="1.74242">
        <ele>181</ele>
        <time>2011-10-16T05:28:09.000Z</time>
      </trkpt>
      <trkpt lat="48.70904" lon="1.74222">
        <ele>181.39999389648</ele>
        <time>2011-10-16T05:29:56.000Z</time>
      </trkpt>
      <trkpt lat="48.70905" lon="1.74222">
        <ele>181.39999389648</ele>
        <time>2011-10-16T05:29:57.000Z</time>
      </trkpt>
      <trkpt lat="48.70907" lon="1.74219">
        <ele>181.60000610352</ele>
        <time>2011-10-16T05:30:22.000Z</time>
      </trkpt>
      <trkpt lat="48.70912" lon="1.74206">
        <ele>182</ele>
        <time>2011-10-16T05:30:28.000Z</time>
      </trkpt>
      <trkpt lat="48.70914" lon="1.74199">
        <ele>182.19999694824</ele>
        <time>2011-10-16T05:30:32.000Z</time>
      </trkpt>
      <trkpt lat="48.70913" lon="1.74193">
        <ele>182.19999694824</ele>
        <time>2011-10-16T05:30:35.000Z</time>
      </trkpt>
      <trkpt lat="48.70913" lon="1.74184">
        <ele>182.39999389648</ele>
        <time>2011-10-16T05:30:39.000Z</time>
      </trkpt>
      <trkpt lat="48.70916" lon="1.74177">
        <ele>182.60000610352</ele>
        <time>2011-10-16T05:30:43.000Z</time>
      </trkpt>
      <trkpt lat="48.70921" lon="1.74166">
        <ele>182.80000305176</ele>
        <time>2011-10-16T05:30:50.000Z</time>
      </trkpt>
      <trkpt lat="48.70924" lon="1.74155">
        <ele>182.60000610352</ele>
        <time>2011-10-16T05:30:56.000Z</time>
      </trkpt>
      <trkpt lat="48.70928" lon="1.74141">
        <ele>182.60000610352</ele>
        <time>2011-10-16T05:31:02.000Z</time>
      </trkpt>
      <trkpt lat="48.70932" lon="1.7413">
        <ele>182.60000610352</ele>
        <time>2011-10-16T05:31:09.000Z</time>
      </trkpt>
      <trkpt lat="48.70936" lon="1.74119">
        <ele>182.39999389648</ele>
        <time>2011-10-16T05:31:15.000Z</time>
      </trkpt>
      <trkpt lat="48.70937" lon="1.74106">
        <ele>182.60000610352</ele>
        <time>2011-10-16T05:31:20.000Z</time>
      </trkpt>
      <trkpt lat="48.70941" lon="1.74091">
        <ele>182.60000610352</ele>
        <time>2011-10-16T05:31:27.000Z</time>
      </trkpt>
      <trkpt lat="48.70945" lon="1.74078">
        <ele>182.60000610352</ele>
        <time>2011-10-16T05:31:34.000Z</time>
      </trkpt>
      <trkpt lat="48.70948" lon="1.74064">
        <ele>182.60000610352</ele>
        <time>2011-10-16T05:31:41.000Z</time>
      </trkpt>
      <trkpt lat="48.70951" lon="1.74051">
        <ele>182.39999389648</ele>
        <time>2011-10-16T05:31:47.000Z</time>
      </trkpt>
      <trkpt lat="48.70954" lon="1.74038">
        <ele>182.39999389648</ele>
        <time>2011-10-16T05:31:53.000Z</time>
      </trkpt>
      <trkpt lat="48.70957" lon="1.74029">
        <ele>182.39999389648</ele>
        <time>2011-10-16T05:31:58.000Z</time>
      </trkpt>
      <trkpt lat="48.70959" lon="1.74019">
        <ele>182.39999389648</ele>
        <time>2011-10-16T05:32:02.000Z</time>
      </trkpt>
      <trkpt lat="48.70962" lon="1.74003">
        <ele>182.39999389648</ele>
        <time>2011-10-16T05:32:09.000Z</time>
      </trkpt>
      <trkpt lat="48.70965" lon="1.73988">
        <ele>182.60000610352</ele>
        <time>2011-10-16T05:32:16.000Z</time>
      </trkpt>
      <trkpt lat="48.70966" lon="1.73985">
        <ele>182.60000610352</ele>
        <time>2011-10-16T05:32:18.000Z</time>
      </trkpt>
      <trkpt lat="48.70966" lon="1.73983">
        <ele>182.60000610352</ele>
        <time>2011-10-16T05:32:21.000Z</time>
      </trkpt>
      <trkpt lat="48.70968" lon="1.73974">
        <ele>182.80000305176</ele>
        <time>2011-10-16T05:32:26.000Z</time>
      </trkpt>
      <trkpt lat="48.70971" lon="1.73964">
        <ele>183</ele>
        <time>2011-10-16T05:32:31.000Z</time>
      </trkpt>
      <trkpt lat="48.70971" lon="1.73951">
        <ele>183.39999389648</ele>
        <time>2011-10-16T05:32:36.000Z</time>
      </trkpt>
      <trkpt lat="48.70975" lon="1.73943">
        <ele>183.60000610352</ele>
        <time>2011-10-16T05:32:40.000Z</time>
      </trkpt>
      <trkpt lat="48.70978" lon="1.73925">
        <ele>184.19999694824</ele>
        <time>2011-10-16T05:32:49.000Z</time>
      </trkpt>
      <trkpt lat="48.70981" lon="1.73911">
        <ele>184.39999389648</ele>
        <time>2011-10-16T05:32:57.000Z</time>
      </trkpt>
      <trkpt lat="48.70985" lon="1.73902">
        <ele>184.19999694824</ele>
        <time>2011-10-16T05:33:03.000Z</time>
      </trkpt>
      <trkpt lat="48.70988" lon="1.7389">
        <ele>184</ele>
        <time>2011-10-16T05:33:09.000Z</time>
      </trkpt>
      <trkpt lat="48.70992" lon="1.73878">
        <ele>183.80000305176</ele>
        <time>2011-10-16T05:33:16.000Z</time>
      </trkpt>
      <trkpt lat="48.70994" lon="1.73864">
        <ele>183.39999389648</ele>
        <time>2011-10-16T05:33:22.000Z</time>
      </trkpt>
      <trkpt lat="48.70995" lon="1.73856">
        <ele>183.19999694824</ele>
        <time>2011-10-16T05:33:26.000Z</time>
      </trkpt>
      <trkpt lat="48.70996" lon="1.73837">
        <ele>182.80000305176</ele>
        <time>2011-10-16T05:33:34.000Z</time>
      </trkpt>
      <trkpt lat="48.70997" lon="1.73827">
        <ele>182.60000610352</ele>
        <time>2011-10-16T05:33:38.000Z</time>
      </trkpt>
      <trkpt lat="48.71" lon="1.73813">
        <ele>182.39999389648</ele>
        <time>2011-10-16T05:33:45.000Z</time>
      </trkpt>
      <trkpt lat="48.71004" lon="1.73808">
        <ele>182.19999694824</ele>
        <time>2011-10-16T05:33:48.000Z</time>
      </trkpt>
      <trkpt lat="48.71009" lon="1.73804">
        <ele>182.19999694824</ele>
        <time>2011-10-16T05:33:56.000Z</time>
      </trkpt>
      <trkpt lat="48.71014" lon="1.73797">
        <ele>182</ele>
        <time>2011-10-16T05:34:03.000Z</time>
      </trkpt>
      <trkpt lat="48.7102" lon="1.73787">
        <ele>182</ele>
        <time>2011-10-16T05:34:09.000Z</time>
      </trkpt>
      <trkpt lat="48.71026" lon="1.73779">
        <ele>181.80000305176</ele>
        <time>2011-10-16T05:34:14.000Z</time>
      </trkpt>
      <trkpt lat="48.71031" lon="1.73772">
        <ele>181.80000305176</ele>
        <time>2011-10-16T05:34:19.000Z</time>
      </trkpt>
      <trkpt lat="48.71037" lon="1.73766">
        <ele>182</ele>
        <time>2011-10-16T05:34:25.000Z</time>
      </trkpt>
      <trkpt lat="48.71043" lon="1.73758">
        <ele>182</ele>
        <time>2011-10-16T05:34:31.000Z</time>
      </trkpt>
      <trkpt lat="48.71052" lon="1.73747">
        <ele>182</ele>
        <time>2011-10-16T05:34:39.000Z</time>
      </trkpt>
      <trkpt lat="48.71059" lon="1.73742">
        <ele>182</ele>
        <time>2011-10-16T05:34:45.000Z</time>
      </trkpt>
      <trkpt lat="48.71068" lon="1.73734">
        <ele>181.80000305176</ele>
        <time>2011-10-16T05:34:52.000Z</time>
      </trkpt>
      <trkpt lat="48.71079" lon="1.73724">
        <ele>181.60000610352</ele>
        <time>2011-10-16T05:35:00.000Z</time>
      </trkpt>
      <trkpt lat="48.71085" lon="1.73716">
        <ele>181.39999389648</ele>
        <time>2011-10-16T05:35:06.000Z</time>
      </trkpt>
      <trkpt lat="48.7109" lon="1.73712">
        <ele>181.19999694824</ele>
        <time>2011-10-16T05:35:10.000Z</time>
      </trkpt>
      <trkpt lat="48.71099" lon="1.73704">
        <ele>181.19999694824</ele>
        <time>2011-10-16T05:35:18.000Z</time>
      </trkpt>
      <trkpt lat="48.711" lon="1.73702">
        <ele>181.19999694824</ele>
        <time>2011-10-16T05:35:19.000Z</time>
      </trkpt>
      <trkpt lat="48.71102" lon="1.737">
        <ele>181.19999694824</ele>
        <time>2011-10-16T05:35:21.000Z</time>
      </trkpt>
      <trkpt lat="48.7111" lon="1.73691">
        <ele>181</ele>
        <time>2011-10-16T05:35:28.000Z</time>
      </trkpt>
      <trkpt lat="48.71115" lon="1.73685">
        <ele>181</ele>
        <time>2011-10-16T05:35:32.000Z</time>
      </trkpt>
      <trkpt lat="48.71125" lon="1.73675">
        <ele>181.19999694824</ele>
        <time>2011-10-16T05:35:40.000Z</time>
      </trkpt>
      <trkpt lat="48.71127" lon="1.73674">
        <ele>181.19999694824</ele>
        <time>2011-10-16T05:35:41.000Z</time>
      </trkpt>
      <trkpt lat="48.71133" lon="1.73666">
        <ele>181.19999694824</ele>
        <time>2011-10-16T05:35:47.000Z</time>
      </trkpt>
      <trkpt lat="48.71141" lon="1.73657">
        <ele>181.39999389648</ele>
        <time>2011-10-16T05:35:53.000Z</time>
      </trkpt>
      <trkpt lat="48.7115" lon="1.73652">
        <ele>181.60000610352</ele>
        <time>2011-10-16T05:35:59.000Z</time>
      </trkpt>
      <trkpt lat="48.71154" lon="1.73648">
        <ele>181.60000610352</ele>
        <time>2011-10-16T05:36:02.000Z</time>
      </trkpt>
      <trkpt lat="48.71162" lon="1.73639">
        <ele>181.60000610352</ele>
        <time>2011-10-16T05:36:10.000Z</time>
      </trkpt>
      <trkpt lat="48.71165" lon="1.73633">
        <ele>181.60000610352</ele>
        <time>2011-10-16T05:36:14.000Z</time>
      </trkpt>
      <trkpt lat="48.71169" lon="1.73628">
        <ele>181.60000610352</ele>
        <time>2011-10-16T05:36:20.000Z</time>
      </trkpt>
      <trkpt lat="48.71176" lon="1.73621">
        <ele>181.60000610352</ele>
        <time>2011-10-16T05:36:26.000Z</time>
      </trkpt>
      <trkpt lat="48.71182" lon="1.73616">
        <ele>181.60000610352</ele>
        <time>2011-10-16T05:36:31.000Z</time>
      </trkpt>
      <trkpt lat="48.71193" lon="1.73607">
        <ele>181.80000305176</ele>
        <time>2011-10-16T05:36:38.000Z</time>
      </trkpt>
      <trkpt lat="48.71197" lon="1.73604">
        <ele>182</ele>
        <time>2011-10-16T05:36:40.000Z</time>
      </trkpt>
      <trkpt lat="48.71203" lon="1.73605">
        <ele>182.19999694824</ele>
        <time>2011-10-16T05:36:44.000Z</time>
      </trkpt>
      <trkpt lat="48.71205" lon="1.73606">
        <ele>182.39999389648</ele>
        <time>2011-10-16T05:36:45.000Z</time>
      </trkpt>
      <trkpt lat="48.71213" lon="1.73608">
        <ele>182.80000305176</ele>
        <time>2011-10-16T05:36:54.000Z</time>
      </trkpt>
      <trkpt lat="48.71223" lon="1.7361">
        <ele>183.19999694824</ele>
        <time>2011-10-16T05:37:02.000Z</time>
      </trkpt>
      <trkpt lat="48.71226" lon="1.73612">
        <ele>183.19999694824</ele>
        <time>2011-10-16T05:37:04.000Z</time>
      </trkpt>
      <trkpt lat="48.71235" lon="1.73612">
        <ele>183.60000610352</ele>
        <time>2011-10-16T05:37:11.000Z</time>
      </trkpt>
      <trkpt lat="48.71243" lon="1.73613">
        <ele>184</ele>
        <time>2011-10-16T05:37:17.000Z</time>
      </trkpt>
      <trkpt lat="48.71244" lon="1.73613">
        <ele>184</ele>
        <time>2011-10-16T05:37:20.000Z</time>
      </trkpt>
      <trkpt lat="48.71245" lon="1.7361">
        <ele>184</ele>
        <time>2011-10-16T05:37:27.000Z</time>
      </trkpt>
      <trkpt lat="48.7125" lon="1.73602">
        <ele>184.39999389648</ele>
        <time>2011-10-16T05:37:38.000Z</time>
      </trkpt>
      <trkpt lat="48.71252" lon="1.73601">
        <ele>184</ele>
        <time>2011-10-16T05:37:40.000Z</time>
      </trkpt>
      <trkpt lat="48.71262" lon="1.73602">
        <ele>182.39999389648</ele>
        <time>2011-10-16T05:37:48.000Z</time>
      </trkpt>
      <trkpt lat="48.7127" lon="1.73601">
        <ele>181.19999694824</ele>
        <time>2011-10-16T05:37:55.000Z</time>
      </trkpt>
      <trkpt lat="48.71277" lon="1.73593">
        <ele>180.19999694824</ele>
        <time>2011-10-16T05:38:02.000Z</time>
      </trkpt>
      <trkpt lat="48.71283" lon="1.73588">
        <ele>179.19999694824</ele>
        <time>2011-10-16T05:38:08.000Z</time>
      </trkpt>
      <trkpt lat="48.71288" lon="1.73582">
        <ele>178.60000610352</ele>
        <time>2011-10-16T05:38:13.000Z</time>
      </trkpt>
      <trkpt lat="48.71292" lon="1.73572">
        <ele>178</ele>
        <time>2011-10-16T05:38:19.000Z</time>
      </trkpt>
      <trkpt lat="48.71295" lon="1.73566">
        <ele>177.80000305176</ele>
        <time>2011-10-16T05:38:25.000Z</time>
      </trkpt>
      <trkpt lat="48.71296" lon="1.73564">
        <ele>177.60000610352</ele>
        <time>2011-10-16T05:38:29.000Z</time>
      </trkpt>
      <trkpt lat="48.71297" lon="1.73559">
        <ele>177.60000610352</ele>
        <time>2011-10-16T05:38:33.000Z</time>
      </trkpt>
      <trkpt lat="48.713" lon="1.73551">
        <ele>177.39999389648</ele>
        <time>2011-10-16T05:38:35.000Z</time>
      </trkpt>
      <trkpt lat="48.71306" lon="1.73544">
        <ele>177</ele>
        <time>2011-10-16T05:38:42.000Z</time>
      </trkpt>
      <trkpt lat="48.71309" lon="1.73543">
        <ele>176.60000610352</ele>
        <time>2011-10-16T05:38:45.000Z</time>
      </trkpt>
      <trkpt lat="48.71318" lon="1.73534">
        <ele>176</ele>
        <time>2011-10-16T05:38:52.000Z</time>
      </trkpt>
      <trkpt lat="48.71328" lon="1.73526">
        <ele>175.60000610352</ele>
        <time>2011-10-16T05:39:00.000Z</time>
      </trkpt>
      <trkpt lat="48.71329" lon="1.73526">
        <ele>175.39999389648</ele>
        <time>2011-10-16T05:39:01.000Z</time>
      </trkpt>
      <trkpt lat="48.7134" lon="1.73533">
        <ele>173.80000305176</ele>
        <time>2011-10-16T05:39:08.000Z</time>
      </trkpt>
      <trkpt lat="48.71347" lon="1.73536">
        <ele>172.60000610352</ele>
        <time>2011-10-16T05:39:15.000Z</time>
      </trkpt>
      <trkpt lat="48.71348" lon="1.73536">
        <ele>172.60000610352</ele>
        <time>2011-10-16T05:39:16.000Z</time>
      </trkpt>
      <trkpt lat="48.71353" lon="1.73539">
        <ele>171.80000305176</ele>
        <time>2011-10-16T05:39:20.000Z</time>
      </trkpt>
      <trkpt lat="48.71363" lon="1.73549">
        <ele>170</ele>
        <time>2011-10-16T05:39:28.000Z</time>
      </trkpt>
      <trkpt lat="48.71364" lon="1.7355">
        <ele>169.80000305176</ele>
        <time>2011-10-16T05:39:29.000Z</time>
      </trkpt>
      <trkpt lat="48.71373" lon="1.73559">
        <ele>168.19999694824</ele>
        <time>2011-10-16T05:39:37.000Z</time>
      </trkpt>
      <trkpt lat="48.71377" lon="1.73566">
        <ele>167.19999694824</ele>
        <time>2011-10-16T05:39:40.000Z</time>
      </trkpt>
      <trkpt lat="48.71385" lon="1.7357">
        <ele>166.19999694824</ele>
        <time>2011-10-16T05:39:47.000Z</time>
      </trkpt>
      <trkpt lat="48.71392" lon="1.7357">
        <ele>165.39999389648</ele>
        <time>2011-10-16T05:39:54.000Z</time>
      </trkpt>
      <trkpt lat="48.714" lon="1.7357">
        <ele>164.39999389648</ele>
        <time>2011-10-16T05:39:58.000Z</time>
      </trkpt>
      <trkpt lat="48.71401" lon="1.73569">
        <ele>164.39999389648</ele>
        <time>2011-10-16T05:39:59.000Z</time>
      </trkpt>
      <trkpt lat="48.71407" lon="1.73569">
        <ele>163.60000610352</ele>
        <time>2011-10-16T05:40:03.000Z</time>
      </trkpt>
      <trkpt lat="48.71414" lon="1.73564">
        <ele>163.19999694824</ele>
        <time>2011-10-16T05:40:09.000Z</time>
      </trkpt>
      <trkpt lat="48.71422" lon="1.73561">
        <ele>162.39999389648</ele>
        <time>2011-10-16T05:40:14.000Z</time>
      </trkpt>
      <trkpt lat="48.7143" lon="1.73559">
        <ele>161.60000610352</ele>
        <time>2011-10-16T05:40:20.000Z</time>
      </trkpt>
      <trkpt lat="48.71443" lon="1.73552">
        <ele>160.39999389648</ele>
        <time>2011-10-16T05:40:28.000Z</time>
      </trkpt>
      <trkpt lat="48.71451" lon="1.73547">
        <ele>159.39999389648</ele>
        <time>2011-10-16T05:40:34.000Z</time>
      </trkpt>
      <trkpt lat="48.71453" lon="1.73547">
        <ele>159.19999694824</ele>
        <time>2011-10-16T05:40:35.000Z</time>
      </trkpt>
      <trkpt lat="48.7146" lon="1.7355">
        <ele>158.39999389648</ele>
        <time>2011-10-16T05:40:41.000Z</time>
      </trkpt>
      <trkpt lat="48.71469" lon="1.73553">
        <ele>157.39999389648</ele>
        <time>2011-10-16T05:40:47.000Z</time>
      </trkpt>
      <trkpt lat="48.71479" lon="1.73552">
        <ele>156.19999694824</ele>
        <time>2011-10-16T05:40:54.000Z</time>
      </trkpt>
      <trkpt lat="48.71484" lon="1.73551">
        <ele>155.60000610352</ele>
        <time>2011-10-16T05:40:58.000Z</time>
      </trkpt>
      <trkpt lat="48.71494" lon="1.73547">
        <ele>154.39999389648</ele>
        <time>2011-10-16T05:41:05.000Z</time>
      </trkpt>
      <trkpt lat="48.715" lon="1.73549">
        <ele>153.60000610352</ele>
        <time>2011-10-16T05:41:09.000Z</time>
      </trkpt>
      <trkpt lat="48.71506" lon="1.73548">
        <ele>153</ele>
        <time>2011-10-16T05:41:13.000Z</time>
      </trkpt>
      <trkpt lat="48.71519" lon="1.73546">
        <ele>151.60000610352</ele>
        <time>2011-10-16T05:41:21.000Z</time>
      </trkpt>
      <trkpt lat="48.71531" lon="1.73544">
        <ele>150.19999694824</ele>
        <time>2011-10-16T05:41:28.000Z</time>
      </trkpt>
      <trkpt lat="48.71537" lon="1.73544">
        <ele>149.39999389648</ele>
        <time>2011-10-16T05:41:32.000Z</time>
      </trkpt>
      <trkpt lat="48.71548" lon="1.7354">
        <ele>148.19999694824</ele>
        <time>2011-10-16T05:41:40.000Z</time>
      </trkpt>
      <trkpt lat="48.71559" lon="1.7354">
        <ele>147</ele>
        <time>2011-10-16T05:41:48.000Z</time>
      </trkpt>
      <trkpt lat="48.71567" lon="1.73535">
        <ele>146</ele>
        <time>2011-10-16T05:41:54.000Z</time>
      </trkpt>
      <trkpt lat="48.71576" lon="1.73532">
        <ele>145</ele>
        <time>2011-10-16T05:42:00.000Z</time>
      </trkpt>
      <trkpt lat="48.71584" lon="1.73529">
        <ele>144.19999694824</ele>
        <time>2011-10-16T05:42:06.000Z</time>
      </trkpt>
      <trkpt lat="48.71593" lon="1.73526">
        <ele>143.80000305176</ele>
        <time>2011-10-16T05:42:13.000Z</time>
      </trkpt>
      <trkpt lat="48.71604" lon="1.73524">
        <ele>143.19999694824</ele>
        <time>2011-10-16T05:42:20.000Z</time>
      </trkpt>
      <trkpt lat="48.71617" lon="1.73524">
        <ele>142.39999389648</ele>
        <time>2011-10-16T05:42:29.000Z</time>
      </trkpt>
      <trkpt lat="48.71626" lon="1.73522">
        <ele>142</ele>
        <time>2011-10-16T05:42:36.000Z</time>
      </trkpt>
      <trkpt lat="48.71636" lon="1.73519">
        <ele>141.39999389648</ele>
        <time>2011-10-16T05:42:43.000Z</time>
      </trkpt>
      <trkpt lat="48.71649" lon="1.73516">
        <ele>140.80000305176</ele>
        <time>2011-10-16T05:42:52.000Z</time>
      </trkpt>
      <trkpt lat="48.71658" lon="1.73512">
        <ele>140.39999389648</ele>
        <time>2011-10-16T05:42:59.000Z</time>
      </trkpt>
      <trkpt lat="48.71667" lon="1.73512">
        <ele>139.80000305176</ele>
        <time>2011-10-16T05:43:06.000Z</time>
      </trkpt>
      <trkpt lat="48.71676" lon="1.73509">
        <ele>139.60000610352</ele>
        <time>2011-10-16T05:43:13.000Z</time>
      </trkpt>
      <trkpt lat="48.71688" lon="1.73506">
        <ele>139.19999694824</ele>
        <time>2011-10-16T05:43:23.000Z</time>
      </trkpt>
      <trkpt lat="48.71699" lon="1.73505">
        <ele>138.80000305176</ele>
        <time>2011-10-16T05:43:31.000Z</time>
      </trkpt>
      <trkpt lat="48.71708" lon="1.73503">
        <ele>138.39999389648</ele>
        <time>2011-10-16T05:43:38.000Z</time>
      </trkpt>
      <trkpt lat="48.71721" lon="1.735">
        <ele>138</ele>
        <time>2011-10-16T05:43:48.000Z</time>
      </trkpt>
      <trkpt lat="48.7173" lon="1.73497">
        <ele>137.60000610352</ele>
        <time>2011-10-16T05:43:55.000Z</time>
      </trkpt>
      <trkpt lat="48.71742" lon="1.73494">
        <ele>137.19999694824</ele>
        <time>2011-10-16T05:44:03.000Z</time>
      </trkpt>
      <trkpt lat="48.71753" lon="1.73493">
        <ele>136.80000305176</ele>
        <time>2011-10-16T05:44:11.000Z</time>
      </trkpt>
      <trkpt lat="48.71765" lon="1.73491">
        <ele>136.39999389648</ele>
        <time>2011-10-16T05:44:18.000Z</time>
      </trkpt>
      <trkpt lat="48.71775" lon="1.73492">
        <ele>136</ele>
        <time>2011-10-16T05:44:25.000Z</time>
      </trkpt>
      <trkpt lat="48.71785" lon="1.73484">
        <ele>135.39999389648</ele>
        <time>2011-10-16T05:44:32.000Z</time>
      </trkpt>
      <trkpt lat="48.71795" lon="1.7348">
        <ele>135</ele>
        <time>2011-10-16T05:44:39.000Z</time>
      </trkpt>
      <trkpt lat="48.71805" lon="1.73474">
        <ele>134.60000610352</ele>
        <time>2011-10-16T05:44:47.000Z</time>
      </trkpt>
      <trkpt lat="48.71814" lon="1.73471">
        <ele>134</ele>
        <time>2011-10-16T05:44:53.000Z</time>
      </trkpt>
      <trkpt lat="48.71822" lon="1.73469">
        <ele>133.60000610352</ele>
        <time>2011-10-16T05:44:59.000Z</time>
      </trkpt>
      <trkpt lat="48.71833" lon="1.73471">
        <ele>133.19999694824</ele>
        <time>2011-10-16T05:45:06.000Z</time>
      </trkpt>
      <trkpt lat="48.7184" lon="1.73469">
        <ele>133</ele>
        <time>2011-10-16T05:45:12.000Z</time>
      </trkpt>
      <trkpt lat="48.71846" lon="1.73466">
        <ele>132.80000305176</ele>
        <time>2011-10-16T05:45:16.000Z</time>
      </trkpt>
      <trkpt lat="48.71855" lon="1.73463">
        <ele>132.60000610352</ele>
        <time>2011-10-16T05:45:23.000Z</time>
      </trkpt>
      <trkpt lat="48.71856" lon="1.73463">
        <ele>132.39999389648</ele>
        <time>2011-10-16T05:45:24.000Z</time>
      </trkpt>
      <trkpt lat="48.71862" lon="1.73464">
        <ele>132.39999389648</ele>
        <time>2011-10-16T05:45:28.000Z</time>
      </trkpt>
      <trkpt lat="48.7187" lon="1.73465">
        <ele>132.19999694824</ele>
        <time>2011-10-16T05:45:34.000Z</time>
      </trkpt>
      <trkpt lat="48.7188" lon="1.7346">
        <ele>131.80000305176</ele>
        <time>2011-10-16T05:45:41.000Z</time>
      </trkpt>
      <trkpt lat="48.7189" lon="1.73459">
        <ele>131.60000610352</ele>
        <time>2011-10-16T05:45:48.000Z</time>
      </trkpt>
      <trkpt lat="48.71892" lon="1.7346">
        <ele>131.60000610352</ele>
        <time>2011-10-16T05:45:49.000Z</time>
      </trkpt>
      <trkpt lat="48.71902" lon="1.73456">
        <ele>131.19999694824</ele>
        <time>2011-10-16T05:45:55.000Z</time>
      </trkpt>
      <trkpt lat="48.71912" lon="1.73452">
        <ele>130.80000305176</ele>
        <time>2011-10-16T05:46:02.000Z</time>
      </trkpt>
      <trkpt lat="48.71921" lon="1.73448">
        <ele>130.60000610352</ele>
        <time>2011-10-16T05:46:10.000Z</time>
      </trkpt>
      <trkpt lat="48.71928" lon="1.73446">
        <ele>130.60000610352</ele>
        <time>2011-10-16T05:46:16.000Z</time>
      </trkpt>
      <trkpt lat="48.71939" lon="1.73449">
        <ele>130.60000610352</ele>
        <time>2011-10-16T05:46:21.000Z</time>
      </trkpt>
      <trkpt lat="48.7194" lon="1.73448">
        <ele>130.60000610352</ele>
        <time>2011-10-16T05:46:22.000Z</time>
      </trkpt>
      <trkpt lat="48.71948" lon="1.73445">
        <ele>130.60000610352</ele>
        <time>2011-10-16T05:46:28.000Z</time>
      </trkpt>
      <trkpt lat="48.71953" lon="1.73443">
        <ele>130.60000610352</ele>
        <time>2011-10-16T05:46:31.000Z</time>
      </trkpt>
      <trkpt lat="48.7196" lon="1.73438">
        <ele>130.39999389648</ele>
        <time>2011-10-16T05:46:36.000Z</time>
      </trkpt>
      <trkpt lat="48.7197" lon="1.73436">
        <ele>130.39999389648</ele>
        <time>2011-10-16T05:46:43.000Z</time>
      </trkpt>
      <trkpt lat="48.71982" lon="1.73432">
        <ele>130.19999694824</ele>
        <time>2011-10-16T05:46:51.000Z</time>
      </trkpt>
      <trkpt lat="48.71993" lon="1.7343">
        <ele>130.19999694824</ele>
        <time>2011-10-16T05:46:59.000Z</time>
      </trkpt>
      <trkpt lat="48.72004" lon="1.73426">
        <ele>130.19999694824</ele>
        <time>2011-10-16T05:47:07.000Z</time>
      </trkpt>
      <trkpt lat="48.72014" lon="1.73429">
        <ele>130.19999694824</ele>
        <time>2011-10-16T05:47:12.000Z</time>
      </trkpt>
      <trkpt lat="48.72017" lon="1.7343">
        <ele>130.19999694824</ele>
        <time>2011-10-16T05:47:14.000Z</time>
      </trkpt>
      <trkpt lat="48.72025" lon="1.73423">
        <ele>130</ele>
        <time>2011-10-16T05:47:21.000Z</time>
      </trkpt>
      <trkpt lat="48.72042" lon="1.73417">
        <ele>130</ele>
        <time>2011-10-16T05:47:30.000Z</time>
      </trkpt>
      <trkpt lat="48.72051" lon="1.73419">
        <ele>130</ele>
        <time>2011-10-16T05:47:35.000Z</time>
      </trkpt>
      <trkpt lat="48.72056" lon="1.73416">
        <ele>129.80000305176</ele>
        <time>2011-10-16T05:47:40.000Z</time>
      </trkpt>
      <trkpt lat="48.72059" lon="1.73415">
        <ele>129.80000305176</ele>
        <time>2011-10-16T05:47:43.000Z</time>
      </trkpt>
      <trkpt lat="48.72065" lon="1.73411">
        <ele>129.80000305176</ele>
        <time>2011-10-16T05:47:49.000Z</time>
      </trkpt>
      <trkpt lat="48.72068" lon="1.73409">
        <ele>129.80000305176</ele>
        <time>2011-10-16T05:47:51.000Z</time>
      </trkpt>
      <trkpt lat="48.72073" lon="1.73405">
        <ele>129.60000610352</ele>
        <time>2011-10-16T05:47:55.000Z</time>
      </trkpt>
      <trkpt lat="48.72083" lon="1.73399">
        <ele>129.39999389648</ele>
        <time>2011-10-16T05:48:03.000Z</time>
      </trkpt>
      <trkpt lat="48.72093" lon="1.73397">
        <ele>129</ele>
        <time>2011-10-16T05:48:11.000Z</time>
      </trkpt>
      <trkpt lat="48.72103" lon="1.73395">
        <ele>128.60000610352</ele>
        <time>2011-10-16T05:48:17.000Z</time>
      </trkpt>
      <trkpt lat="48.72108" lon="1.73393">
        <ele>128.39999389648</ele>
        <time>2011-10-16T05:48:21.000Z</time>
      </trkpt>
      <trkpt lat="48.72117" lon="1.73393">
        <ele>128.19999694824</ele>
        <time>2011-10-16T05:48:27.000Z</time>
      </trkpt>
      <trkpt lat="48.7213" lon="1.73392">
        <ele>127.59999847412</ele>
        <time>2011-10-16T05:48:34.000Z</time>
      </trkpt>
      <trkpt lat="48.72139" lon="1.73391">
        <ele>127.19999694824</ele>
        <time>2011-10-16T05:48:41.000Z</time>
      </trkpt>
      <trkpt lat="48.72142" lon="1.7339">
        <ele>127.19999694824</ele>
        <time>2011-10-16T05:48:43.000Z</time>
      </trkpt>
      <trkpt lat="48.72153" lon="1.7339">
        <ele>126.80000305176</ele>
        <time>2011-10-16T05:48:50.000Z</time>
      </trkpt>
      <trkpt lat="48.72159" lon="1.73388">
        <ele>126.40000152588</ele>
        <time>2011-10-16T05:48:53.000Z</time>
      </trkpt>
      <trkpt lat="48.72166" lon="1.73393">
        <ele>126.40000152588</ele>
        <time>2011-10-16T05:48:56.000Z</time>
      </trkpt>
      <trkpt lat="48.72176" lon="1.73392">
        <ele>126.40000152588</ele>
        <time>2011-10-16T05:49:03.000Z</time>
      </trkpt>
      <trkpt lat="48.72184" lon="1.73387">
        <ele>126.59999847412</ele>
        <time>2011-10-16T05:49:08.000Z</time>
      </trkpt>
      <trkpt lat="48.72194" lon="1.73385">
        <ele>126.80000305176</ele>
        <time>2011-10-16T05:49:12.000Z</time>
      </trkpt>
      <trkpt lat="48.722" lon="1.73385">
        <ele>126.80000305176</ele>
        <time>2011-10-16T05:49:17.000Z</time>
      </trkpt>
      <trkpt lat="48.72206" lon="1.73384">
        <ele>127</ele>
        <time>2011-10-16T05:49:22.000Z</time>
      </trkpt>
      <trkpt lat="48.72213" lon="1.73381">
        <ele>127</ele>
        <time>2011-10-16T05:49:28.000Z</time>
      </trkpt>
      <trkpt lat="48.72225" lon="1.73377">
        <ele>127.40000152588</ele>
        <time>2011-10-16T05:49:37.000Z</time>
      </trkpt>
      <trkpt lat="48.72233" lon="1.73381">
        <ele>127.59999847412</ele>
        <time>2011-10-16T05:49:41.000Z</time>
      </trkpt>
      <trkpt lat="48.72247" lon="1.73385">
        <ele>127.80000305176</ele>
        <time>2011-10-16T05:49:48.000Z</time>
      </trkpt>
      <trkpt lat="48.72253" lon="1.73387">
        <ele>127.80000305176</ele>
        <time>2011-10-16T05:49:52.000Z</time>
      </trkpt>
      <trkpt lat="48.72261" lon="1.73386">
        <ele>127.80000305176</ele>
        <time>2011-10-16T05:49:59.000Z</time>
      </trkpt>
      <trkpt lat="48.72279" lon="1.73394">
        <ele>127.80000305176</ele>
        <time>2011-10-16T05:50:06.000Z</time>
      </trkpt>
      <trkpt lat="48.72288" lon="1.73391">
        <ele>127.80000305176</ele>
        <time>2011-10-16T05:50:11.000Z</time>
      </trkpt>
      <trkpt lat="48.72295" lon="1.73396">
        <ele>127.80000305176</ele>
        <time>2011-10-16T05:50:16.000Z</time>
      </trkpt>
      <trkpt lat="48.72305" lon="1.73398">
        <ele>127.80000305176</ele>
        <time>2011-10-16T05:50:23.000Z</time>
      </trkpt>
      <trkpt lat="48.72306" lon="1.73397">
        <ele>127.80000305176</ele>
        <time>2011-10-16T05:50:24.000Z</time>
      </trkpt>
      <trkpt lat="48.72308" lon="1.73396">
        <ele>127.80000305176</ele>
        <time>2011-10-16T05:50:26.000Z</time>
      </trkpt>
      <trkpt lat="48.72316" lon="1.73402">
        <ele>127.80000305176</ele>
        <time>2011-10-16T05:50:31.000Z</time>
      </trkpt>
      <trkpt lat="48.72323" lon="1.73404">
        <ele>127.80000305176</ele>
        <time>2011-10-16T05:50:36.000Z</time>
      </trkpt>
      <trkpt lat="48.72325" lon="1.73403">
        <ele>127.80000305176</ele>
        <time>2011-10-16T05:50:38.000Z</time>
      </trkpt>
      <trkpt lat="48.72336" lon="1.73398">
        <ele>127.59999847412</ele>
        <time>2011-10-16T05:50:45.000Z</time>
      </trkpt>
      <trkpt lat="48.72346" lon="1.73404">
        <ele>127.40000152588</ele>
        <time>2011-10-16T05:50:51.000Z</time>
      </trkpt>
      <trkpt lat="48.72353" lon="1.73408">
        <ele>127.19999694824</ele>
        <time>2011-10-16T05:50:55.000Z</time>
      </trkpt>
      <trkpt lat="48.72363" lon="1.73409">
        <ele>127</ele>
        <time>2011-10-16T05:51:01.000Z</time>
      </trkpt>
      <trkpt lat="48.72369" lon="1.7341">
        <ele>127</ele>
        <time>2011-10-16T05:51:06.000Z</time>
      </trkpt>
      <trkpt lat="48.72378" lon="1.73414">
        <ele>126.80000305176</ele>
        <time>2011-10-16T05:51:11.000Z</time>
      </trkpt>
      <trkpt lat="48.72383" lon="1.73416">
        <ele>126.59999847412</ele>
        <time>2011-10-16T05:51:14.000Z</time>
      </trkpt>
      <trkpt lat="48.72389" lon="1.73423">
        <ele>126.59999847412</ele>
        <time>2011-10-16T05:51:19.000Z</time>
      </trkpt>
      <trkpt lat="48.72394" lon="1.73424">
        <ele>126.40000152588</ele>
        <time>2011-10-16T05:51:22.000Z</time>
      </trkpt>
      <trkpt lat="48.72409" lon="1.73425">
        <ele>126</ele>
        <time>2011-10-16T05:51:30.000Z</time>
      </trkpt>
      <trkpt lat="48.72412" lon="1.73426">
        <ele>126</ele>
        <time>2011-10-16T05:51:32.000Z</time>
      </trkpt>
      <trkpt lat="48.72424" lon="1.73428">
        <ele>126.19999694824</ele>
        <time>2011-10-16T05:51:39.000Z</time>
      </trkpt>
      <trkpt lat="48.7243" lon="1.7343">
        <ele>126.40000152588</ele>
        <time>2011-10-16T05:51:43.000Z</time>
      </trkpt>
      <trkpt lat="48.72445" lon="1.73434">
        <ele>127</ele>
        <time>2011-10-16T05:51:49.000Z</time>
      </trkpt>
      <trkpt lat="48.72457" lon="1.73436">
        <ele>127.40000152588</ele>
        <time>2011-10-16T05:51:55.000Z</time>
      </trkpt>
      <trkpt lat="48.72466" lon="1.73438">
        <ele>127.59999847412</ele>
        <time>2011-10-16T05:52:00.000Z</time>
      </trkpt>
      <trkpt lat="48.7247" lon="1.73439">
        <ele>127.80000305176</ele>
        <time>2011-10-16T05:52:03.000Z</time>
      </trkpt>
      <trkpt lat="48.72474" lon="1.73439">
        <ele>128</ele>
        <time>2011-10-16T05:52:08.000Z</time>
      </trkpt>
      <trkpt lat="48.72485" lon="1.73438">
        <ele>128.39999389648</ele>
        <time>2011-10-16T05:52:15.000Z</time>
      </trkpt>
      <trkpt lat="48.72489" lon="1.73439">
        <ele>128.60000610352</ele>
        <time>2011-10-16T05:52:18.000Z</time>
      </trkpt>
      <trkpt lat="48.72499" lon="1.73441">
        <ele>128.80000305176</ele>
        <time>2011-10-16T05:52:26.000Z</time>
      </trkpt>
      <trkpt lat="48.72508" lon="1.73443">
        <ele>128.80000305176</ele>
        <time>2011-10-16T05:52:32.000Z</time>
      </trkpt>
      <trkpt lat="48.72516" lon="1.73443">
        <ele>128.80000305176</ele>
        <time>2011-10-16T05:52:38.000Z</time>
      </trkpt>
      <trkpt lat="48.72523" lon="1.73445">
        <ele>128.80000305176</ele>
        <time>2011-10-16T05:52:44.000Z</time>
      </trkpt>
      <trkpt lat="48.72532" lon="1.73448">
        <ele>128.60000610352</ele>
        <time>2011-10-16T05:52:51.000Z</time>
      </trkpt>
      <trkpt lat="48.72542" lon="1.73457">
        <ele>128.39999389648</ele>
        <time>2011-10-16T05:52:58.000Z</time>
      </trkpt>
      <trkpt lat="48.72549" lon="1.73463">
        <ele>128.19999694824</ele>
        <time>2011-10-16T05:53:03.000Z</time>
      </trkpt>
      <trkpt lat="48.7256" lon="1.73473">
        <ele>128</ele>
        <time>2011-10-16T05:53:11.000Z</time>
      </trkpt>
      <trkpt lat="48.72568" lon="1.7348">
        <ele>127.59999847412</ele>
        <time>2011-10-16T05:53:17.000Z</time>
      </trkpt>
      <trkpt lat="48.72571" lon="1.73483">
        <ele>127.59999847412</ele>
        <time>2011-10-16T05:53:20.000Z</time>
      </trkpt>
      <trkpt lat="48.72575" lon="1.7349">
        <ele>127.40000152588</ele>
        <time>2011-10-16T05:53:25.000Z</time>
      </trkpt>
      <trkpt lat="48.7258" lon="1.73496">
        <ele>127</ele>
        <time>2011-10-16T05:53:30.000Z</time>
      </trkpt>
      <trkpt lat="48.72585" lon="1.73503">
        <ele>127</ele>
        <time>2011-10-16T05:53:35.000Z</time>
      </trkpt>
      <trkpt lat="48.72594" lon="1.73517">
        <ele>127.19999694824</ele>
        <time>2011-10-16T05:53:43.000Z</time>
      </trkpt>
      <trkpt lat="48.72599" lon="1.73524">
        <ele>127.40000152588</ele>
        <time>2011-10-16T05:53:49.000Z</time>
      </trkpt>
      <trkpt lat="48.72605" lon="1.73533">
        <ele>127.40000152588</ele>
        <time>2011-10-16T05:53:54.000Z</time>
      </trkpt>
      <trkpt lat="48.72613" lon="1.73537">
        <ele>127.59999847412</ele>
        <time>2011-10-16T05:53:59.000Z</time>
      </trkpt>
      <trkpt lat="48.72623" lon="1.73553">
        <ele>127.80000305176</ele>
        <time>2011-10-16T05:54:07.000Z</time>
      </trkpt>
      <trkpt lat="48.72629" lon="1.73559">
        <ele>127.80000305176</ele>
        <time>2011-10-16T05:54:11.000Z</time>
      </trkpt>
      <trkpt lat="48.72645" lon="1.73565">
        <ele>127.80000305176</ele>
        <time>2011-10-16T05:54:20.000Z</time>
      </trkpt>
      <trkpt lat="48.72653" lon="1.73571">
        <ele>127.80000305176</ele>
        <time>2011-10-16T05:54:26.000Z</time>
      </trkpt>
      <trkpt lat="48.72657" lon="1.73575">
        <ele>127.80000305176</ele>
        <time>2011-10-16T05:54:30.000Z</time>
      </trkpt>
      <trkpt lat="48.72665" lon="1.73584">
        <ele>128</ele>
        <time>2011-10-16T05:54:37.000Z</time>
      </trkpt>
      <trkpt lat="48.72673" lon="1.73591">
        <ele>128</ele>
        <time>2011-10-16T05:54:42.000Z</time>
      </trkpt>
      <trkpt lat="48.72679" lon="1.73596">
        <ele>128.19999694824</ele>
        <time>2011-10-16T05:54:47.000Z</time>
      </trkpt>
      <trkpt lat="48.7268" lon="1.73596">
        <ele>128.19999694824</ele>
        <time>2011-10-16T05:54:48.000Z</time>
      </trkpt>
      <trkpt lat="48.72682" lon="1.73598">
        <ele>128.19999694824</ele>
        <time>2011-10-16T05:54:52.000Z</time>
      </trkpt>
      <trkpt lat="48.72684" lon="1.736">
        <ele>128.39999389648</ele>
        <time>2011-10-16T05:54:55.000Z</time>
      </trkpt>
      <trkpt lat="48.72685" lon="1.73601">
        <ele>128.39999389648</ele>
        <time>2011-10-16T05:54:56.000Z</time>
      </trkpt>
      <trkpt lat="48.72689" lon="1.73606">
        <ele>128.60000610352</ele>
        <time>2011-10-16T05:54:59.000Z</time>
      </trkpt>
      <trkpt lat="48.72694" lon="1.73614">
        <ele>128.80000305176</ele>
        <time>2011-10-16T05:55:06.000Z</time>
      </trkpt>
      <trkpt lat="48.72698" lon="1.73619">
        <ele>129</ele>
        <time>2011-10-16T05:55:11.000Z</time>
      </trkpt>
      <trkpt lat="48.72706" lon="1.73628">
        <ele>129.19999694824</ele>
        <time>2011-10-16T05:55:19.000Z</time>
      </trkpt>
      <trkpt lat="48.72714" lon="1.73635">
        <ele>129.60000610352</ele>
        <time>2011-10-16T05:55:25.000Z</time>
      </trkpt>
      <trkpt lat="48.72723" lon="1.73645">
        <ele>129.80000305176</ele>
        <time>2011-10-16T05:55:32.000Z</time>
      </trkpt>
      <trkpt lat="48.72732" lon="1.73655">
        <ele>130.39999389648</ele>
        <time>2011-10-16T05:55:40.000Z</time>
      </trkpt>
      <trkpt lat="48.72742" lon="1.73666">
        <ele>130.80000305176</ele>
        <time>2011-10-16T05:55:48.000Z</time>
      </trkpt>
      <trkpt lat="48.72753" lon="1.73677">
        <ele>131</ele>
        <time>2011-10-16T05:55:57.000Z</time>
      </trkpt>
      <trkpt lat="48.7276" lon="1.73684">
        <ele>131</ele>
        <time>2011-10-16T05:56:03.000Z</time>
      </trkpt>
      <trkpt lat="48.72766" lon="1.73688">
        <ele>131</ele>
        <time>2011-10-16T05:56:08.000Z</time>
      </trkpt>
      <trkpt lat="48.72769" lon="1.7369">
        <ele>131</ele>
        <time>2011-10-16T05:56:10.000Z</time>
      </trkpt>
      <trkpt lat="48.72774" lon="1.73699">
        <ele>131.19999694824</ele>
        <time>2011-10-16T05:56:17.000Z</time>
      </trkpt>
      <trkpt lat="48.72776" lon="1.737">
        <ele>131.19999694824</ele>
        <time>2011-10-16T05:56:18.000Z</time>
      </trkpt>
      <trkpt lat="48.72784" lon="1.73708">
        <ele>131.39999389648</ele>
        <time>2011-10-16T05:56:25.000Z</time>
      </trkpt>
      <trkpt lat="48.72794" lon="1.73717">
        <ele>131.60000610352</ele>
        <time>2011-10-16T05:56:33.000Z</time>
      </trkpt>
      <trkpt lat="48.72803" lon="1.73727">
        <ele>132</ele>
        <time>2011-10-16T05:56:41.000Z</time>
      </trkpt>
      <trkpt lat="48.72813" lon="1.73738">
        <ele>132.19999694824</ele>
        <time>2011-10-16T05:56:50.000Z</time>
      </trkpt>
      <trkpt lat="48.7282" lon="1.73745">
        <ele>132.60000610352</ele>
        <time>2011-10-16T05:56:57.000Z</time>
      </trkpt>
      <trkpt lat="48.72827" lon="1.73752">
        <ele>132.80000305176</ele>
        <time>2011-10-16T05:57:03.000Z</time>
      </trkpt>
      <trkpt lat="48.72831" lon="1.73757">
        <ele>133</ele>
        <time>2011-10-16T05:57:07.000Z</time>
      </trkpt>
      <trkpt lat="48.72838" lon="1.73765">
        <ele>133.39999389648</ele>
        <time>2011-10-16T05:57:14.000Z</time>
      </trkpt>
      <trkpt lat="48.72847" lon="1.73775">
        <ele>133.60000610352</ele>
        <time>2011-10-16T05:57:22.000Z</time>
      </trkpt>
      <trkpt lat="48.72854" lon="1.73783">
        <ele>133.80000305176</ele>
        <time>2011-10-16T05:57:29.000Z</time>
      </trkpt>
      <trkpt lat="48.72862" lon="1.73792">
        <ele>134</ele>
        <time>2011-10-16T05:57:36.000Z</time>
      </trkpt>
      <trkpt lat="48.72865" lon="1.73795">
        <ele>134.19999694824</ele>
        <time>2011-10-16T05:57:38.000Z</time>
      </trkpt>
      <trkpt lat="48.72873" lon="1.73805">
        <ele>134.39999389648</ele>
        <time>2011-10-16T05:57:46.000Z</time>
      </trkpt>
      <trkpt lat="48.72879" lon="1.73809">
        <ele>134.39999389648</ele>
        <time>2011-10-16T05:57:51.000Z</time>
      </trkpt>
      <trkpt lat="48.7289" lon="1.73819">
        <ele>134.60000610352</ele>
        <time>2011-10-16T05:58:00.000Z</time>
      </trkpt>
      <trkpt lat="48.72897" lon="1.73827">
        <ele>134.80000305176</ele>
        <time>2011-10-16T05:58:07.000Z</time>
      </trkpt>
      <trkpt lat="48.72905" lon="1.73836">
        <ele>135</ele>
        <time>2011-10-16T05:58:14.000Z</time>
      </trkpt>
      <trkpt lat="48.72915" lon="1.73846">
        <ele>135.19999694824</ele>
        <time>2011-10-16T05:58:22.000Z</time>
      </trkpt>
      <trkpt lat="48.72923" lon="1.73855">
        <ele>135.39999389648</ele>
        <time>2011-10-16T05:58:29.000Z</time>
      </trkpt>
      <trkpt lat="48.72933" lon="1.73866">
        <ele>135.80000305176</ele>
        <time>2011-10-16T05:58:38.000Z</time>
      </trkpt>
      <trkpt lat="48.72938" lon="1.73871">
        <ele>136</ele>
        <time>2011-10-16T05:58:42.000Z</time>
      </trkpt>
      <trkpt lat="48.72947" lon="1.73879">
        <ele>136.39999389648</ele>
        <time>2011-10-16T05:58:50.000Z</time>
      </trkpt>
      <trkpt lat="48.72954" lon="1.73884">
        <ele>136.60000610352</ele>
        <time>2011-10-16T05:58:56.000Z</time>
      </trkpt>
      <trkpt lat="48.72958" lon="1.73888">
        <ele>136.80000305176</ele>
        <time>2011-10-16T05:59:00.000Z</time>
      </trkpt>
      <trkpt lat="48.72964" lon="1.73893">
        <ele>137</ele>
        <time>2011-10-16T05:59:06.000Z</time>
      </trkpt>
      <trkpt lat="48.72975" lon="1.73898">
        <ele>137.19999694824</ele>
        <time>2011-10-16T05:59:12.000Z</time>
      </trkpt>
      <trkpt lat="48.72982" lon="1.73905">
        <ele>137.39999389648</ele>
        <time>2011-10-16T05:59:17.000Z</time>
      </trkpt>
      <trkpt lat="48.72987" lon="1.73913">
        <ele>137.60000610352</ele>
        <time>2011-10-16T05:59:23.000Z</time>
      </trkpt>
      <trkpt lat="48.72994" lon="1.73919">
        <ele>137.80000305176</ele>
        <time>2011-10-16T05:59:29.000Z</time>
      </trkpt>
      <trkpt lat="48.72998" lon="1.7393">
        <ele>137.80000305176</ele>
        <time>2011-10-16T05:59:33.000Z</time>
      </trkpt>
      <trkpt lat="48.73003" lon="1.73944">
        <ele>137.80000305176</ele>
        <time>2011-10-16T05:59:40.000Z</time>
      </trkpt>
      <trkpt lat="48.73006" lon="1.73956">
        <ele>137.80000305176</ele>
        <time>2011-10-16T05:59:45.000Z</time>
      </trkpt>
      <trkpt lat="48.73008" lon="1.73967">
        <ele>137.60000610352</ele>
        <time>2011-10-16T05:59:49.000Z</time>
      </trkpt>
      <trkpt lat="48.73008" lon="1.73971">
        <ele>137.60000610352</ele>
        <time>2011-10-16T05:59:51.000Z</time>
      </trkpt>
      <trkpt lat="48.73011" lon="1.73987">
        <ele>137.80000305176</ele>
        <time>2011-10-16T05:59:59.000Z</time>
      </trkpt>
      <trkpt lat="48.73012" lon="1.73998">
        <ele>137.80000305176</ele>
        <time>2011-10-16T06:00:05.000Z</time>
      </trkpt>
      <trkpt lat="48.7301" lon="1.7401">
        <ele>138</ele>
        <time>2011-10-16T06:00:11.000Z</time>
      </trkpt>
      <trkpt lat="48.7301" lon="1.74014">
        <ele>138</ele>
        <time>2011-10-16T06:00:13.000Z</time>
      </trkpt>
      <trkpt lat="48.73009" lon="1.74028">
        <ele>138.19999694824</ele>
        <time>2011-10-16T06:00:19.000Z</time>
      </trkpt>
      <trkpt lat="48.73009" lon="1.74033">
        <ele>138.19999694824</ele>
        <time>2011-10-16T06:00:22.000Z</time>
      </trkpt>
      <trkpt lat="48.73009" lon="1.74048">
        <ele>138.39999389648</ele>
        <time>2011-10-16T06:00:29.000Z</time>
      </trkpt>
      <trkpt lat="48.73011" lon="1.7406">
        <ele>138.39999389648</ele>
        <time>2011-10-16T06:00:34.000Z</time>
      </trkpt>
      <trkpt lat="48.73011" lon="1.74062">
        <ele>138.60000610352</ele>
        <time>2011-10-16T06:00:35.000Z</time>
      </trkpt>
      <trkpt lat="48.73012" lon="1.74074">
        <ele>138.60000610352</ele>
        <time>2011-10-16T06:00:41.000Z</time>
      </trkpt>
      <trkpt lat="48.73012" lon="1.74078">
        <ele>138.60000610352</ele>
        <time>2011-10-16T06:00:43.000Z</time>
      </trkpt>
      <trkpt lat="48.73012" lon="1.74089">
        <ele>139</ele>
        <time>2011-10-16T06:00:49.000Z</time>
      </trkpt>
      <trkpt lat="48.73014" lon="1.74103">
        <ele>139.19999694824</ele>
        <time>2011-10-16T06:00:54.000Z</time>
      </trkpt>
      <trkpt lat="48.73013" lon="1.7412">
        <ele>139.60000610352</ele>
        <time>2011-10-16T06:01:01.000Z</time>
      </trkpt>
      <trkpt lat="48.73012" lon="1.74136">
        <ele>140</ele>
        <time>2011-10-16T06:01:09.000Z</time>
      </trkpt>
      <trkpt lat="48.73011" lon="1.74149">
        <ele>140.39999389648</ele>
        <time>2011-10-16T06:01:15.000Z</time>
      </trkpt>
      <trkpt lat="48.73012" lon="1.74159">
        <ele>140.60000610352</ele>
        <time>2011-10-16T06:01:20.000Z</time>
      </trkpt>
      <trkpt lat="48.73016" lon="1.74177">
        <ele>140.80000305176</ele>
        <time>2011-10-16T06:01:28.000Z</time>
      </trkpt>
      <trkpt lat="48.73019" lon="1.74197">
        <ele>141</ele>
        <time>2011-10-16T06:01:37.000Z</time>
      </trkpt>
      <trkpt lat="48.73019" lon="1.74199">
        <ele>141</ele>
        <time>2011-10-16T06:01:38.000Z</time>
      </trkpt>
      <trkpt lat="48.7302" lon="1.74205">
        <ele>141.19999694824</ele>
        <time>2011-10-16T06:01:42.000Z</time>
      </trkpt>
      <trkpt lat="48.7302" lon="1.74208">
        <ele>141.19999694824</ele>
        <time>2011-10-16T06:01:44.000Z</time>
      </trkpt>
      <trkpt lat="48.7302" lon="1.74212">
        <ele>141.19999694824</ele>
        <time>2011-10-16T06:01:46.000Z</time>
      </trkpt>
      <trkpt lat="48.73023" lon="1.74229">
        <ele>141.39999389648</ele>
        <time>2011-10-16T06:01:54.000Z</time>
      </trkpt>
      <trkpt lat="48.73027" lon="1.74244">
        <ele>141.39999389648</ele>
        <time>2011-10-16T06:02:01.000Z</time>
      </trkpt>
      <trkpt lat="48.73029" lon="1.7426">
        <ele>141.60000610352</ele>
        <time>2011-10-16T06:02:08.000Z</time>
      </trkpt>
      <trkpt lat="48.73029" lon="1.74262">
        <ele>141.60000610352</ele>
        <time>2011-10-16T06:02:09.000Z</time>
      </trkpt>
      <trkpt lat="48.73031" lon="1.74276">
        <ele>141.39999389648</ele>
        <time>2011-10-16T06:02:16.000Z</time>
      </trkpt>
      <trkpt lat="48.73033" lon="1.74295">
        <ele>141.19999694824</ele>
        <time>2011-10-16T06:02:24.000Z</time>
      </trkpt>
      <trkpt lat="48.73035" lon="1.74306">
        <ele>141.19999694824</ele>
        <time>2011-10-16T06:02:29.000Z</time>
      </trkpt>
      <trkpt lat="48.73035" lon="1.74314">
        <ele>141.19999694824</ele>
        <time>2011-10-16T06:02:33.000Z</time>
      </trkpt>
      <trkpt lat="48.73036" lon="1.74324">
        <ele>141</ele>
        <time>2011-10-16T06:02:38.000Z</time>
      </trkpt>
      <trkpt lat="48.73038" lon="1.74334">
        <ele>141</ele>
        <time>2011-10-16T06:02:42.000Z</time>
      </trkpt>
      <trkpt lat="48.7304" lon="1.74343">
        <ele>140.80000305176</ele>
        <time>2011-10-16T06:02:45.000Z</time>
      </trkpt>
      <trkpt lat="48.73042" lon="1.74354">
        <ele>140.80000305176</ele>
        <time>2011-10-16T06:02:50.000Z</time>
      </trkpt>
      <trkpt lat="48.73042" lon="1.74359">
        <ele>140.80000305176</ele>
        <time>2011-10-16T06:02:53.000Z</time>
      </trkpt>
      <trkpt lat="48.73039" lon="1.74376">
        <ele>140.60000610352</ele>
        <time>2011-10-16T06:02:59.000Z</time>
      </trkpt>
      <trkpt lat="48.73039" lon="1.74384">
        <ele>140.60000610352</ele>
        <time>2011-10-16T06:03:02.000Z</time>
      </trkpt>
      <trkpt lat="48.73043" lon="1.74393">
        <ele>140.60000610352</ele>
        <time>2011-10-16T06:03:08.000Z</time>
      </trkpt>
      <trkpt lat="48.73044" lon="1.74402">
        <ele>140.39999389648</ele>
        <time>2011-10-16T06:03:12.000Z</time>
      </trkpt>
      <trkpt lat="48.73045" lon="1.74421">
        <ele>140.39999389648</ele>
        <time>2011-10-16T06:03:20.000Z</time>
      </trkpt>
      <trkpt lat="48.73048" lon="1.74431">
        <ele>140.39999389648</ele>
        <time>2011-10-16T06:03:26.000Z</time>
      </trkpt>
      <trkpt lat="48.73048" lon="1.7444">
        <ele>140.39999389648</ele>
        <time>2011-10-16T06:03:30.000Z</time>
      </trkpt>
      <trkpt lat="48.7305" lon="1.74451">
        <ele>140.39999389648</ele>
        <time>2011-10-16T06:03:35.000Z</time>
      </trkpt>
      <trkpt lat="48.73045" lon="1.74459">
        <ele>140.60000610352</ele>
        <time>2011-10-16T06:03:42.000Z</time>
      </trkpt>
      <trkpt lat="48.73032" lon="1.74469">
        <ele>140.80000305176</ele>
        <time>2011-10-16T06:03:50.000Z</time>
      </trkpt>
      <trkpt lat="48.73026" lon="1.74474">
        <ele>141</ele>
        <time>2011-10-16T06:03:55.000Z</time>
      </trkpt>
      <trkpt lat="48.73018" lon="1.74482">
        <ele>141.19999694824</ele>
        <time>2011-10-16T06:04:02.000Z</time>
      </trkpt>
      <trkpt lat="48.7301" lon="1.74489">
        <ele>141.60000610352</ele>
        <time>2011-10-16T06:04:08.000Z</time>
      </trkpt>
      <trkpt lat="48.72999" lon="1.74497">
        <ele>141.80000305176</ele>
        <time>2011-10-16T06:04:16.000Z</time>
      </trkpt>
      <trkpt lat="48.72993" lon="1.74505">
        <ele>142.19999694824</ele>
        <time>2011-10-16T06:04:21.000Z</time>
      </trkpt>
      <trkpt lat="48.72986" lon="1.74516">
        <ele>142.60000610352</ele>
        <time>2011-10-16T06:04:28.000Z</time>
      </trkpt>
      <trkpt lat="48.72979" lon="1.74525">
        <ele>142.80000305176</ele>
        <time>2011-10-16T06:04:34.000Z</time>
      </trkpt>
      <trkpt lat="48.72978" lon="1.74526">
        <ele>142.80000305176</ele>
        <time>2011-10-16T06:04:35.000Z</time>
      </trkpt>
      <trkpt lat="48.72968" lon="1.74535">
        <ele>143</ele>
        <time>2011-10-16T06:04:44.000Z</time>
      </trkpt>
      <trkpt lat="48.72967" lon="1.74544">
        <ele>143.19999694824</ele>
        <time>2011-10-16T06:04:50.000Z</time>
      </trkpt>
      <trkpt lat="48.72971" lon="1.74556">
        <ele>143.19999694824</ele>
        <time>2011-10-16T06:04:56.000Z</time>
      </trkpt>
      <trkpt lat="48.72972" lon="1.74562">
        <ele>143.39999389648</ele>
        <time>2011-10-16T06:04:59.000Z</time>
      </trkpt>
      <trkpt lat="48.72974" lon="1.74576">
        <ele>143.60000610352</ele>
        <time>2011-10-16T06:05:06.000Z</time>
      </trkpt>
      <trkpt lat="48.72975" lon="1.74578">
        <ele>143.60000610352</ele>
        <time>2011-10-16T06:05:07.000Z</time>
      </trkpt>
      <trkpt lat="48.72979" lon="1.7459">
        <ele>143.80000305176</ele>
        <time>2011-10-16T06:05:14.000Z</time>
      </trkpt>
      <trkpt lat="48.72985" lon="1.746">
        <ele>144.19999694824</ele>
        <time>2011-10-16T06:05:22.000Z</time>
      </trkpt>
      <trkpt lat="48.72989" lon="1.74609">
        <ele>144.60000610352</ele>
        <time>2011-10-16T06:05:28.000Z</time>
      </trkpt>
      <trkpt lat="48.72993" lon="1.74613">
        <ele>144.80000305176</ele>
        <time>2011-10-16T06:05:32.000Z</time>
      </trkpt>
      <trkpt lat="48.73001" lon="1.74624">
        <ele>145.39999389648</ele>
        <time>2011-10-16T06:05:40.000Z</time>
      </trkpt>
      <trkpt lat="48.73004" lon="1.74627">
        <ele>145.39999389648</ele>
        <time>2011-10-16T06:05:42.000Z</time>
      </trkpt>
      <trkpt lat="48.7301" lon="1.74636">
        <ele>145.60000610352</ele>
        <time>2011-10-16T06:05:49.000Z</time>
      </trkpt>
      <trkpt lat="48.73012" lon="1.7464">
        <ele>145.60000610352</ele>
        <time>2011-10-16T06:05:51.000Z</time>
      </trkpt>
      <trkpt lat="48.7302" lon="1.74653">
        <ele>145.80000305176</ele>
        <time>2011-10-16T06:06:00.000Z</time>
      </trkpt>
      <trkpt lat="48.73021" lon="1.74657">
        <ele>146</ele>
        <time>2011-10-16T06:06:02.000Z</time>
      </trkpt>
      <trkpt lat="48.73026" lon="1.7467">
        <ele>146.39999389648</ele>
        <time>2011-10-16T06:06:10.000Z</time>
      </trkpt>
      <trkpt lat="48.73027" lon="1.74672">
        <ele>146.39999389648</ele>
        <time>2011-10-16T06:06:12.000Z</time>
      </trkpt>
      <trkpt lat="48.73032" lon="1.74678">
        <ele>146.39999389648</ele>
        <time>2011-10-16T06:06:18.000Z</time>
      </trkpt>
      <trkpt lat="48.73035" lon="1.74687">
        <ele>146.39999389648</ele>
        <time>2011-10-16T06:06:23.000Z</time>
      </trkpt>
      <trkpt lat="48.73038" lon="1.74697">
        <ele>146.60000610352</ele>
        <time>2011-10-16T06:06:27.000Z</time>
      </trkpt>
      <trkpt lat="48.73043" lon="1.74709">
        <ele>146.60000610352</ele>
        <time>2011-10-16T06:06:33.000Z</time>
      </trkpt>
      <trkpt lat="48.73046" lon="1.74725">
        <ele>146.80000305176</ele>
        <time>2011-10-16T06:06:41.000Z</time>
      </trkpt>
      <trkpt lat="48.73048" lon="1.7473">
        <ele>147</ele>
        <time>2011-10-16T06:06:44.000Z</time>
      </trkpt>
      <trkpt lat="48.73048" lon="1.74733">
        <ele>147</ele>
        <time>2011-10-16T06:06:46.000Z</time>
      </trkpt>
      <trkpt lat="48.73048" lon="1.74742">
        <ele>147.19999694824</ele>
        <time>2011-10-16T06:06:51.000Z</time>
      </trkpt>
      <trkpt lat="48.73049" lon="1.74749">
        <ele>147.19999694824</ele>
        <time>2011-10-16T06:06:55.000Z</time>
      </trkpt>
      <trkpt lat="48.73052" lon="1.74763">
        <ele>147.19999694824</ele>
        <time>2011-10-16T06:07:01.000Z</time>
      </trkpt>
      <trkpt lat="48.73052" lon="1.74768">
        <ele>147.19999694824</ele>
        <time>2011-10-16T06:07:03.000Z</time>
      </trkpt>
      <trkpt lat="48.73055" lon="1.74783">
        <ele>147.19999694824</ele>
        <time>2011-10-16T06:07:10.000Z</time>
      </trkpt>
      <trkpt lat="48.73056" lon="1.74793">
        <ele>147.19999694824</ele>
        <time>2011-10-16T06:07:15.000Z</time>
      </trkpt>
      <trkpt lat="48.7306" lon="1.74815">
        <ele>147.19999694824</ele>
        <time>2011-10-16T06:07:24.000Z</time>
      </trkpt>
      <trkpt lat="48.73061" lon="1.7482">
        <ele>147.19999694824</ele>
        <time>2011-10-16T06:07:26.000Z</time>
      </trkpt>
      <trkpt lat="48.73065" lon="1.74837">
        <ele>147.19999694824</ele>
        <time>2011-10-16T06:07:33.000Z</time>
      </trkpt>
      <trkpt lat="48.73066" lon="1.74846">
        <ele>147.60000610352</ele>
        <time>2011-10-16T06:07:39.000Z</time>
      </trkpt>
      <trkpt lat="48.73066" lon="1.74847">
        <ele>147.60000610352</ele>
        <time>2011-10-16T06:07:40.000Z</time>
      </trkpt>
      <trkpt lat="48.73063" lon="1.74863">
        <ele>148.19999694824</ele>
        <time>2011-10-16T06:07:46.000Z</time>
      </trkpt>
      <trkpt lat="48.73062" lon="1.74878">
        <ele>148.60000610352</ele>
        <time>2011-10-16T06:07:54.000Z</time>
      </trkpt>
      <trkpt lat="48.7306" lon="1.74887">
        <ele>148.80000305176</ele>
        <time>2011-10-16T06:07:59.000Z</time>
      </trkpt>
      <trkpt lat="48.73059" lon="1.74894">
        <ele>149</ele>
        <time>2011-10-16T06:08:03.000Z</time>
      </trkpt>
      <trkpt lat="48.7306" lon="1.749">
        <ele>149.19999694824</ele>
        <time>2011-10-16T06:08:07.000Z</time>
      </trkpt>
      <trkpt lat="48.73065" lon="1.74913">
        <ele>149.80000305176</ele>
        <time>2011-10-16T06:08:14.000Z</time>
      </trkpt>
      <trkpt lat="48.73065" lon="1.74916">
        <ele>150</ele>
        <time>2011-10-16T06:08:16.000Z</time>
      </trkpt>
      <trkpt lat="48.73068" lon="1.74927">
        <ele>150.39999389648</ele>
        <time>2011-10-16T06:08:21.000Z</time>
      </trkpt>
      <trkpt lat="48.73069" lon="1.74937">
        <ele>150.80000305176</ele>
        <time>2011-10-16T06:08:26.000Z</time>
      </trkpt>
      <trkpt lat="48.7307" lon="1.74949">
        <ele>151.39999389648</ele>
        <time>2011-10-16T06:08:32.000Z</time>
      </trkpt>
      <trkpt lat="48.73072" lon="1.74951">
        <ele>151.39999389648</ele>
        <time>2011-10-16T06:08:34.000Z</time>
      </trkpt>
      <trkpt lat="48.73074" lon="1.74957">
        <ele>151.80000305176</ele>
        <time>2011-10-16T06:08:38.000Z</time>
      </trkpt>
      <trkpt lat="48.73074" lon="1.74965">
        <ele>152</ele>
        <time>2011-10-16T06:08:42.000Z</time>
      </trkpt>
      <trkpt lat="48.73072" lon="1.74981">
        <ele>152.39999389648</ele>
        <time>2011-10-16T06:08:48.000Z</time>
      </trkpt>
      <trkpt lat="48.73072" lon="1.7499">
        <ele>152.80000305176</ele>
        <time>2011-10-16T06:08:52.000Z</time>
      </trkpt>
      <trkpt lat="48.7307" lon="1.75004">
        <ele>153</ele>
        <time>2011-10-16T06:09:00.000Z</time>
      </trkpt>
      <trkpt lat="48.73069" lon="1.75019">
        <ele>153.60000610352</ele>
        <time>2011-10-16T06:09:08.000Z</time>
      </trkpt>
      <trkpt lat="48.73071" lon="1.75034">
        <ele>154.19999694824</ele>
        <time>2011-10-16T06:09:13.000Z</time>
      </trkpt>
      <trkpt lat="48.7307" lon="1.75049">
        <ele>154.80000305176</ele>
        <time>2011-10-16T06:09:19.000Z</time>
      </trkpt>
      <trkpt lat="48.73069" lon="1.75063">
        <ele>155.19999694824</ele>
        <time>2011-10-16T06:09:25.000Z</time>
      </trkpt>
      <trkpt lat="48.73069" lon="1.75067">
        <ele>155.39999389648</ele>
        <time>2011-10-16T06:09:27.000Z</time>
      </trkpt>
      <trkpt lat="48.73069" lon="1.75075">
        <ele>155.60000610352</ele>
        <time>2011-10-16T06:09:30.000Z</time>
      </trkpt>
      <trkpt lat="48.73072" lon="1.75084">
        <ele>156.19999694824</ele>
        <time>2011-10-16T06:09:36.000Z</time>
      </trkpt>
      <trkpt lat="48.73072" lon="1.75093">
        <ele>157</ele>
        <time>2011-10-16T06:09:41.000Z</time>
      </trkpt>
      <trkpt lat="48.73072" lon="1.75105">
        <ele>157.80000305176</ele>
        <time>2011-10-16T06:09:47.000Z</time>
      </trkpt>
      <trkpt lat="48.7307" lon="1.75119">
        <ele>159</ele>
        <time>2011-10-16T06:09:54.000Z</time>
      </trkpt>
      <trkpt lat="48.7307" lon="1.75126">
        <ele>159.39999389648</ele>
        <time>2011-10-16T06:09:58.000Z</time>
      </trkpt>
      <trkpt lat="48.73072" lon="1.75138">
        <ele>160.60000610352</ele>
        <time>2011-10-16T06:10:05.000Z</time>
      </trkpt>
      <trkpt lat="48.73073" lon="1.75141">
        <ele>160.80000305176</ele>
        <time>2011-10-16T06:10:07.000Z</time>
      </trkpt>
      <trkpt lat="48.73072" lon="1.75158">
        <ele>162</ele>
        <time>2011-10-16T06:10:15.000Z</time>
      </trkpt>
      <trkpt lat="48.73071" lon="1.75161">
        <ele>162.19999694824</ele>
        <time>2011-10-16T06:10:17.000Z</time>
      </trkpt>
      <trkpt lat="48.73068" lon="1.75178">
        <ele>163.19999694824</ele>
        <time>2011-10-16T06:10:25.000Z</time>
      </trkpt>
      <trkpt lat="48.73067" lon="1.75181">
        <ele>163.39999389648</ele>
        <time>2011-10-16T06:10:27.000Z</time>
      </trkpt>
      <trkpt lat="48.73068" lon="1.75191">
        <ele>164.19999694824</ele>
        <time>2011-10-16T06:10:34.000Z</time>
      </trkpt>
      <trkpt lat="48.73066" lon="1.75196">
        <ele>164.39999389648</ele>
        <time>2011-10-16T06:10:36.000Z</time>
      </trkpt>
      <trkpt lat="48.73065" lon="1.75208">
        <ele>165.19999694824</ele>
        <time>2011-10-16T06:10:41.000Z</time>
      </trkpt>
      <trkpt lat="48.73065" lon="1.75213">
        <ele>165.60000610352</ele>
        <time>2011-10-16T06:10:43.000Z</time>
      </trkpt>
      <trkpt lat="48.73065" lon="1.75226">
        <ele>166.39999389648</ele>
        <time>2011-10-16T06:10:49.000Z</time>
      </trkpt>
      <trkpt lat="48.73066" lon="1.7524">
        <ele>167.60000610352</ele>
        <time>2011-10-16T06:10:54.000Z</time>
      </trkpt>
      <trkpt lat="48.73067" lon="1.7525">
        <ele>168.39999389648</ele>
        <time>2011-10-16T06:10:58.000Z</time>
      </trkpt>
      <trkpt lat="48.73065" lon="1.75261">
        <ele>169</ele>
        <time>2011-10-16T06:11:04.000Z</time>
      </trkpt>
      <trkpt lat="48.73066" lon="1.75266">
        <ele>169.39999389648</ele>
        <time>2011-10-16T06:11:07.000Z</time>
      </trkpt>
      <trkpt lat="48.73065" lon="1.75273">
        <ele>169.80000305176</ele>
        <time>2011-10-16T06:11:11.000Z</time>
      </trkpt>
      <trkpt lat="48.73067" lon="1.75282">
        <ele>170.80000305176</ele>
        <time>2011-10-16T06:11:15.000Z</time>
      </trkpt>
      <trkpt lat="48.73068" lon="1.75289">
        <ele>171.19999694824</ele>
        <time>2011-10-16T06:11:18.000Z</time>
      </trkpt>
      <trkpt lat="48.73069" lon="1.75293">
        <ele>171.60000610352</ele>
        <time>2011-10-16T06:11:20.000Z</time>
      </trkpt>
      <trkpt lat="48.7307" lon="1.75308">
        <ele>172.80000305176</ele>
        <time>2011-10-16T06:11:28.000Z</time>
      </trkpt>
      <trkpt lat="48.73069" lon="1.75314">
        <ele>173</ele>
        <time>2011-10-16T06:11:32.000Z</time>
      </trkpt>
      <trkpt lat="48.73065" lon="1.75332">
        <ele>173.80000305176</ele>
        <time>2011-10-16T06:11:41.000Z</time>
      </trkpt>
      <trkpt lat="48.73065" lon="1.75334">
        <ele>174</ele>
        <time>2011-10-16T06:11:42.000Z</time>
      </trkpt>
      <trkpt lat="48.73067" lon="1.75342">
        <ele>174.60000610352</ele>
        <time>2011-10-16T06:11:46.000Z</time>
      </trkpt>
      <trkpt lat="48.73068" lon="1.75359">
        <ele>175.60000610352</ele>
        <time>2011-10-16T06:11:54.000Z</time>
      </trkpt>
      <trkpt lat="48.7307" lon="1.7537">
        <ele>176.39999389648</ele>
        <time>2011-10-16T06:12:02.000Z</time>
      </trkpt>
      <trkpt lat="48.73069" lon="1.7538">
        <ele>176.80000305176</ele>
        <time>2011-10-16T06:12:08.000Z</time>
      </trkpt>
      <trkpt lat="48.73068" lon="1.75395">
        <ele>177.39999389648</ele>
        <time>2011-10-16T06:12:15.000Z</time>
      </trkpt>
      <trkpt lat="48.73068" lon="1.75409">
        <ele>178.19999694824</ele>
        <time>2011-10-16T06:12:23.000Z</time>
      </trkpt>
      <trkpt lat="48.73068" lon="1.75411">
        <ele>178.19999694824</ele>
        <time>2011-10-16T06:12:24.000Z</time>
      </trkpt>
      <trkpt lat="48.73068" lon="1.75423">
        <ele>179</ele>
        <time>2011-10-16T06:12:31.000Z</time>
      </trkpt>
      <trkpt lat="48.73065" lon="1.75438">
        <ele>179.39999389648</ele>
        <time>2011-10-16T06:12:38.000Z</time>
      </trkpt>
      <trkpt lat="48.73064" lon="1.75448">
        <ele>179.80000305176</ele>
        <time>2011-10-16T06:12:44.000Z</time>
      </trkpt>
      <trkpt lat="48.73064" lon="1.75449">
        <ele>180</ele>
        <time>2011-10-16T06:12:45.000Z</time>
      </trkpt>
      <trkpt lat="48.73065" lon="1.75465">
        <ele>180.80000305176</ele>
        <time>2011-10-16T06:12:53.000Z</time>
      </trkpt>
      <trkpt lat="48.73066" lon="1.75484">
        <ele>181.80000305176</ele>
        <time>2011-10-16T06:13:02.000Z</time>
      </trkpt>
      <trkpt lat="48.73066" lon="1.75486">
        <ele>182</ele>
        <time>2011-10-16T06:13:03.000Z</time>
      </trkpt>
      <trkpt lat="48.73065" lon="1.75497">
        <ele>182.39999389648</ele>
        <time>2011-10-16T06:13:07.000Z</time>
      </trkpt>
      <trkpt lat="48.73064" lon="1.75512">
        <ele>182.60000610352</ele>
        <time>2011-10-16T06:13:14.000Z</time>
      </trkpt>
      <trkpt lat="48.73064" lon="1.75524">
        <ele>182.60000610352</ele>
        <time>2011-10-16T06:13:20.000Z</time>
      </trkpt>
      <trkpt lat="48.73063" lon="1.75532">
        <ele>182.60000610352</ele>
        <time>2011-10-16T06:13:24.000Z</time>
      </trkpt>
      <trkpt lat="48.73064" lon="1.75544">
        <ele>182.80000305176</ele>
        <time>2011-10-16T06:13:30.000Z</time>
      </trkpt>
      <trkpt lat="48.73064" lon="1.75547">
        <ele>182.80000305176</ele>
        <time>2011-10-16T06:13:31.000Z</time>
      </trkpt>
      <trkpt lat="48.73063" lon="1.75555">
        <ele>182.80000305176</ele>
        <time>2011-10-16T06:13:37.000Z</time>
      </trkpt>
      <trkpt lat="48.73061" lon="1.75566">
        <ele>182.80000305176</ele>
        <time>2011-10-16T06:13:43.000Z</time>
      </trkpt>
      <trkpt lat="48.73058" lon="1.75581">
        <ele>182.60000610352</ele>
        <time>2011-10-16T06:13:50.000Z</time>
      </trkpt>
      <trkpt lat="48.73058" lon="1.75588">
        <ele>182.60000610352</ele>
        <time>2011-10-16T06:13:54.000Z</time>
      </trkpt>
      <trkpt lat="48.73059" lon="1.75599">
        <ele>182.39999389648</ele>
        <time>2011-10-16T06:14:00.000Z</time>
      </trkpt>
      <trkpt lat="48.73058" lon="1.75609">
        <ele>182.19999694824</ele>
        <time>2011-10-16T06:14:04.000Z</time>
      </trkpt>
      <trkpt lat="48.73059" lon="1.75618">
        <ele>182.19999694824</ele>
        <time>2011-10-16T06:14:08.000Z</time>
      </trkpt>
      <trkpt lat="48.73059" lon="1.75634">
        <ele>181.80000305176</ele>
        <time>2011-10-16T06:14:16.000Z</time>
      </trkpt>
      <trkpt lat="48.73057" lon="1.75638">
        <ele>181.80000305176</ele>
        <time>2011-10-16T06:14:18.000Z</time>
      </trkpt>
      <trkpt lat="48.73055" lon="1.75655">
        <ele>181.39999389648</ele>
        <time>2011-10-16T06:14:25.000Z</time>
      </trkpt>
      <trkpt lat="48.73053" lon="1.75666">
        <ele>181.19999694824</ele>
        <time>2011-10-16T06:14:30.000Z</time>
      </trkpt>
      <trkpt lat="48.73052" lon="1.75668">
        <ele>181.19999694824</ele>
        <time>2011-10-16T06:14:31.000Z</time>
      </trkpt>
      <trkpt lat="48.73052" lon="1.75677">
        <ele>181.19999694824</ele>
        <time>2011-10-16T06:14:36.000Z</time>
      </trkpt>
      <trkpt lat="48.73053" lon="1.75695">
        <ele>181</ele>
        <time>2011-10-16T06:14:44.000Z</time>
      </trkpt>
      <trkpt lat="48.73052" lon="1.75706">
        <ele>181</ele>
        <time>2011-10-16T06:14:50.000Z</time>
      </trkpt>
      <trkpt lat="48.73051" lon="1.7571">
        <ele>181</ele>
        <time>2011-10-16T06:14:52.000Z</time>
      </trkpt>
      <trkpt lat="48.73049" lon="1.75721">
        <ele>181</ele>
        <time>2011-10-16T06:14:57.000Z</time>
      </trkpt>
      <trkpt lat="48.73047" lon="1.7574">
        <ele>181</ele>
        <time>2011-10-16T06:15:06.000Z</time>
      </trkpt>
      <trkpt lat="48.73045" lon="1.75757">
        <ele>181</ele>
        <time>2011-10-16T06:15:14.000Z</time>
      </trkpt>
      <trkpt lat="48.73043" lon="1.75773">
        <ele>181.19999694824</ele>
        <time>2011-10-16T06:15:21.000Z</time>
      </trkpt>
      <trkpt lat="48.73042" lon="1.75786">
        <ele>181.39999389648</ele>
        <time>2011-10-16T06:15:28.000Z</time>
      </trkpt>
      <trkpt lat="48.73042" lon="1.75796">
        <ele>181.39999389648</ele>
        <time>2011-10-16T06:15:35.000Z</time>
      </trkpt>
      <trkpt lat="48.73044" lon="1.75805">
        <ele>181.60000610352</ele>
        <time>2011-10-16T06:15:41.000Z</time>
      </trkpt>
      <trkpt lat="48.73043" lon="1.75812">
        <ele>181.60000610352</ele>
        <time>2011-10-16T06:15:46.000Z</time>
      </trkpt>
      <trkpt lat="48.73043" lon="1.75818">
        <ele>181.60000610352</ele>
        <time>2011-10-16T06:15:51.000Z</time>
      </trkpt>
      <trkpt lat="48.73042" lon="1.75823">
        <ele>181.80000305176</ele>
        <time>2011-10-16T06:15:54.000Z</time>
      </trkpt>
      <trkpt lat="48.73042" lon="1.75847">
        <ele>181.80000305176</ele>
        <time>2011-10-16T06:16:00.000Z</time>
      </trkpt>
      <trkpt lat="48.73043" lon="1.75861">
        <ele>181.80000305176</ele>
        <time>2011-10-16T06:16:05.000Z</time>
      </trkpt>
      <trkpt lat="48.73042" lon="1.75884">
        <ele>182</ele>
        <time>2011-10-16T06:16:12.000Z</time>
      </trkpt>
      <trkpt lat="48.73044" lon="1.75893">
        <ele>182</ele>
        <time>2011-10-16T06:16:16.000Z</time>
      </trkpt>
      <trkpt lat="48.73045" lon="1.75898">
        <ele>182</ele>
        <time>2011-10-16T06:16:18.000Z</time>
      </trkpt>
      <trkpt lat="48.73044" lon="1.75908">
        <ele>182</ele>
        <time>2011-10-16T06:16:23.000Z</time>
      </trkpt>
      <trkpt lat="48.73042" lon="1.75918">
        <ele>181.80000305176</ele>
        <time>2011-10-16T06:16:28.000Z</time>
      </trkpt>
      <trkpt lat="48.7304" lon="1.75927">
        <ele>181.60000610352</ele>
        <time>2011-10-16T06:16:34.000Z</time>
      </trkpt>
      <trkpt lat="48.73039" lon="1.75938">
        <ele>181.39999389648</ele>
        <time>2011-10-16T06:16:41.000Z</time>
      </trkpt>
      <trkpt lat="48.73041" lon="1.75942">
        <ele>181.39999389648</ele>
        <time>2011-10-16T06:16:47.000Z</time>
      </trkpt>
      <trkpt lat="48.73041" lon="1.75941">
        <ele>181.39999389648</ele>
        <time>2011-10-16T06:16:50.000Z</time>
      </trkpt>
      <trkpt lat="48.73042" lon="1.75941">
        <ele>181.39999389648</ele>
        <time>2011-10-16T06:16:53.000Z</time>
      </trkpt>
      <trkpt lat="48.7305" lon="1.75936">
        <ele>181.80000305176</ele>
        <time>2011-10-16T06:16:59.000Z</time>
      </trkpt>
      <trkpt lat="48.73057" lon="1.75932">
        <ele>182</ele>
        <time>2011-10-16T06:17:06.000Z</time>
      </trkpt>
      <trkpt lat="48.7306" lon="1.75928">
        <ele>182.19999694824</ele>
        <time>2011-10-16T06:17:09.000Z</time>
      </trkpt>
      <trkpt lat="48.73067" lon="1.75922">
        <ele>182.39999389648</ele>
        <time>2011-10-16T06:17:16.000Z</time>
      </trkpt>
      <trkpt lat="48.73069" lon="1.75918">
        <ele>182.60000610352</ele>
        <time>2011-10-16T06:17:19.000Z</time>
      </trkpt>
      <trkpt lat="48.73079" lon="1.7591">
        <ele>182.60000610352</ele>
        <time>2011-10-16T06:17:27.000Z</time>
      </trkpt>
      <trkpt lat="48.73085" lon="1.75907">
        <ele>182.80000305176</ele>
        <time>2011-10-16T06:17:31.000Z</time>
      </trkpt>
      <trkpt lat="48.73093" lon="1.75899">
        <ele>182.80000305176</ele>
        <time>2011-10-16T06:17:38.000Z</time>
      </trkpt>
      <trkpt lat="48.73096" lon="1.75898">
        <ele>182.80000305176</ele>
        <time>2011-10-16T06:17:41.000Z</time>
      </trkpt>
      <trkpt lat="48.73102" lon="1.75893">
        <ele>182.80000305176</ele>
        <time>2011-10-16T06:17:46.000Z</time>
      </trkpt>
      <trkpt lat="48.73112" lon="1.75884">
        <ele>182.80000305176</ele>
        <time>2011-10-16T06:17:54.000Z</time>
      </trkpt>
      <trkpt lat="48.73119" lon="1.7588">
        <ele>182.80000305176</ele>
        <time>2011-10-16T06:18:01.000Z</time>
      </trkpt>
      <trkpt lat="48.73128" lon="1.75876">
        <ele>183</ele>
        <time>2011-10-16T06:18:07.000Z</time>
      </trkpt>
      <trkpt lat="48.73136" lon="1.75872">
        <ele>183</ele>
        <time>2011-10-16T06:18:12.000Z</time>
      </trkpt>
      <trkpt lat="48.73141" lon="1.75869">
        <ele>183.19999694824</ele>
        <time>2011-10-16T06:18:19.000Z</time>
      </trkpt>
      <trkpt lat="48.73146" lon="1.75865">
        <ele>183.19999694824</ele>
        <time>2011-10-16T06:18:27.000Z</time>
      </trkpt>
      <trkpt lat="48.73153" lon="1.75862">
        <ele>183.19999694824</ele>
        <time>2011-10-16T06:18:33.000Z</time>
      </trkpt>
      <trkpt lat="48.7316" lon="1.75857">
        <ele>183.39999389648</ele>
        <time>2011-10-16T06:18:40.000Z</time>
      </trkpt>
      <trkpt lat="48.73164" lon="1.75852">
        <ele>183.19999694824</ele>
        <time>2011-10-16T06:18:44.000Z</time>
      </trkpt>
      <trkpt lat="48.73168" lon="1.7585">
        <ele>183.19999694824</ele>
        <time>2011-10-16T06:18:51.000Z</time>
      </trkpt>
      <trkpt lat="48.73168" lon="1.7585">
        <ele>183.19999694824</ele>
        <time>2011-10-16T06:18:52.000Z</time>
      </trkpt>
      <trkpt lat="48.73174" lon="1.75864">
        <ele>183.60000610352</ele>
        <time>2011-10-16T06:19:05.000Z</time>
      </trkpt>
      <trkpt lat="48.7318" lon="1.75871">
        <ele>183.60000610352</ele>
        <time>2011-10-16T06:19:09.000Z</time>
      </trkpt>
      <trkpt lat="48.73186" lon="1.75875">
        <ele>183.60000610352</ele>
        <time>2011-10-16T06:19:14.000Z</time>
      </trkpt>
      <trkpt lat="48.73192" lon="1.7588">
        <ele>183.60000610352</ele>
        <time>2011-10-16T06:19:19.000Z</time>
      </trkpt>
      <trkpt lat="48.73202" lon="1.75884">
        <ele>183.39999389648</ele>
        <time>2011-10-16T06:19:26.000Z</time>
      </trkpt>
      <trkpt lat="48.73209" lon="1.75887">
        <ele>183.39999389648</ele>
        <time>2011-10-16T06:19:32.000Z</time>
      </trkpt>
      <trkpt lat="48.73211" lon="1.75888">
        <ele>183.39999389648</ele>
        <time>2011-10-16T06:19:34.000Z</time>
      </trkpt>
      <trkpt lat="48.7322" lon="1.7589">
        <ele>183.19999694824</ele>
        <time>2011-10-16T06:19:43.000Z</time>
      </trkpt>
      <trkpt lat="48.73227" lon="1.75896">
        <ele>183.19999694824</ele>
        <time>2011-10-16T06:19:50.000Z</time>
      </trkpt>
      <trkpt lat="48.73233" lon="1.75906">
        <ele>183.19999694824</ele>
        <time>2011-10-16T06:19:57.000Z</time>
      </trkpt>
      <trkpt lat="48.73237" lon="1.75923">
        <ele>183.19999694824</ele>
        <time>2011-10-16T06:20:06.000Z</time>
      </trkpt>
      <trkpt lat="48.73243" lon="1.75932">
        <ele>183.19999694824</ele>
        <time>2011-10-16T06:20:12.000Z</time>
      </trkpt>
      <trkpt lat="48.73251" lon="1.75943">
        <ele>183.19999694824</ele>
        <time>2011-10-16T06:20:20.000Z</time>
      </trkpt>
      <trkpt lat="48.73258" lon="1.75955">
        <ele>183.39999389648</ele>
        <time>2011-10-16T06:20:26.000Z</time>
      </trkpt>
      <trkpt lat="48.73262" lon="1.75969">
        <ele>183.60000610352</ele>
        <time>2011-10-16T06:20:32.000Z</time>
      </trkpt>
      <trkpt lat="48.73264" lon="1.75972">
        <ele>183.60000610352</ele>
        <time>2011-10-16T06:20:36.000Z</time>
      </trkpt>
      <trkpt lat="48.73312" lon="1.75727">
        <ele>184.80000305176</ele>
        <time>2011-10-16T08:59:21.000Z</time>
      </trkpt>
      <trkpt lat="48.73319" lon="1.75736">
        <ele>184.80000305176</ele>
        <time>2011-10-16T08:59:25.000Z</time>
      </trkpt>
      <trkpt lat="48.73325" lon="1.75736">
        <ele>185</ele>
        <time>2011-10-16T08:59:31.000Z</time>
      </trkpt>
      <trkpt lat="48.73333" lon="1.75727">
        <ele>185.19999694824</ele>
        <time>2011-10-16T08:59:37.000Z</time>
      </trkpt>
      <trkpt lat="48.73335" lon="1.75725">
        <ele>185.19999694824</ele>
        <time>2011-10-16T08:59:39.000Z</time>
      </trkpt>
      <trkpt lat="48.73346" lon="1.75717">
        <ele>185.39999389648</ele>
        <time>2011-10-16T08:59:47.000Z</time>
      </trkpt>
      <trkpt lat="48.7335" lon="1.75715">
        <ele>185.60000610352</ele>
        <time>2011-10-16T08:59:51.000Z</time>
      </trkpt>
      <trkpt lat="48.73357" lon="1.75708">
        <ele>185.60000610352</ele>
        <time>2011-10-16T08:59:57.000Z</time>
      </trkpt>
      <trkpt lat="48.73366" lon="1.75703">
        <ele>185.80000305176</ele>
        <time>2011-10-16T09:00:03.000Z</time>
      </trkpt>
      <trkpt lat="48.7337" lon="1.757">
        <ele>186</ele>
        <time>2011-10-16T09:00:07.000Z</time>
      </trkpt>
      <trkpt lat="48.73376" lon="1.75695">
        <ele>186</ele>
        <time>2011-10-16T09:00:13.000Z</time>
      </trkpt>
      <trkpt lat="48.73385" lon="1.75689">
        <ele>186.19999694824</ele>
        <time>2011-10-16T09:00:20.000Z</time>
      </trkpt>
      <trkpt lat="48.73393" lon="1.75682">
        <ele>186.39999389648</ele>
        <time>2011-10-16T09:00:27.000Z</time>
      </trkpt>
      <trkpt lat="48.73399" lon="1.75678">
        <ele>186.60000610352</ele>
        <time>2011-10-16T09:00:33.000Z</time>
      </trkpt>
      <trkpt lat="48.7341" lon="1.75671">
        <ele>186.80000305176</ele>
        <time>2011-10-16T09:00:41.000Z</time>
      </trkpt>
      <trkpt lat="48.7342" lon="1.75665">
        <ele>187</ele>
        <time>2011-10-16T09:00:48.000Z</time>
      </trkpt>
      <trkpt lat="48.73431" lon="1.75658">
        <ele>187</ele>
        <time>2011-10-16T09:00:56.000Z</time>
      </trkpt>
      <trkpt lat="48.73435" lon="1.75656">
        <ele>187</ele>
        <time>2011-10-16T09:00:59.000Z</time>
      </trkpt>
      <trkpt lat="48.73444" lon="1.75647">
        <ele>187</ele>
        <time>2011-10-16T09:01:07.000Z</time>
      </trkpt>
      <trkpt lat="48.73452" lon="1.75639">
        <ele>187</ele>
        <time>2011-10-16T09:01:14.000Z</time>
      </trkpt>
      <trkpt lat="48.73461" lon="1.75634">
        <ele>187</ele>
        <time>2011-10-16T09:01:21.000Z</time>
      </trkpt>
      <trkpt lat="48.73473" lon="1.75627">
        <ele>187</ele>
        <time>2011-10-16T09:01:30.000Z</time>
      </trkpt>
      <trkpt lat="48.73486" lon="1.75622">
        <ele>187.19999694824</ele>
        <time>2011-10-16T09:01:39.000Z</time>
      </trkpt>
      <trkpt lat="48.73497" lon="1.75617">
        <ele>187.19999694824</ele>
        <time>2011-10-16T09:01:46.000Z</time>
      </trkpt>
      <trkpt lat="48.73498" lon="1.75616">
        <ele>187.19999694824</ele>
        <time>2011-10-16T09:01:47.000Z</time>
      </trkpt>
      <trkpt lat="48.735" lon="1.75612">
        <ele>187.19999694824</ele>
        <time>2011-10-16T09:01:50.000Z</time>
      </trkpt>
      <trkpt lat="48.73506" lon="1.75603">
        <ele>187.39999389648</ele>
        <time>2011-10-16T09:01:57.000Z</time>
      </trkpt>
      <trkpt lat="48.7351" lon="1.75598">
        <ele>187.39999389648</ele>
        <time>2011-10-16T09:02:00.000Z</time>
      </trkpt>
      <trkpt lat="48.73518" lon="1.75589">
        <ele>187.60000610352</ele>
        <time>2011-10-16T09:02:08.000Z</time>
      </trkpt>
      <trkpt lat="48.7353" lon="1.75579">
        <ele>187.80000305176</ele>
        <time>2011-10-16T09:02:17.000Z</time>
      </trkpt>
      <trkpt lat="48.73539" lon="1.75571">
        <ele>187.80000305176</ele>
        <time>2011-10-16T09:02:24.000Z</time>
      </trkpt>
      <trkpt lat="48.73548" lon="1.75567">
        <ele>187.80000305176</ele>
        <time>2011-10-16T09:02:31.000Z</time>
      </trkpt>
      <trkpt lat="48.73557" lon="1.75563">
        <ele>187.80000305176</ele>
        <time>2011-10-16T09:02:38.000Z</time>
      </trkpt>
      <trkpt lat="48.73567" lon="1.75558">
        <ele>187.80000305176</ele>
        <time>2011-10-16T09:02:45.000Z</time>
      </trkpt>
      <trkpt lat="48.73577" lon="1.75554">
        <ele>187.60000610352</ele>
        <time>2011-10-16T09:02:52.000Z</time>
      </trkpt>
      <trkpt lat="48.73587" lon="1.75552">
        <ele>187.39999389648</ele>
        <time>2011-10-16T09:02:59.000Z</time>
      </trkpt>
      <trkpt lat="48.73595" lon="1.7555">
        <ele>187.19999694824</ele>
        <time>2011-10-16T09:03:05.000Z</time>
      </trkpt>
      <trkpt lat="48.73605" lon="1.75545">
        <ele>186.60000610352</ele>
        <time>2011-10-16T09:03:13.000Z</time>
      </trkpt>
      <trkpt lat="48.73616" lon="1.75543">
        <ele>186.19999694824</ele>
        <time>2011-10-16T09:03:21.000Z</time>
      </trkpt>
      <trkpt lat="48.73627" lon="1.7554">
        <ele>185.80000305176</ele>
        <time>2011-10-16T09:03:28.000Z</time>
      </trkpt>
      <trkpt lat="48.7364" lon="1.75538">
        <ele>185.60000610352</ele>
        <time>2011-10-16T09:03:38.000Z</time>
      </trkpt>
      <trkpt lat="48.73655" lon="1.75536">
        <ele>185.19999694824</ele>
        <time>2011-10-16T09:03:48.000Z</time>
      </trkpt>
      <trkpt lat="48.73663" lon="1.75534">
        <ele>185.19999694824</ele>
        <time>2011-10-16T09:03:54.000Z</time>
      </trkpt>
      <trkpt lat="48.73672" lon="1.75534">
        <ele>185</ele>
        <time>2011-10-16T09:04:01.000Z</time>
      </trkpt>
      <trkpt lat="48.73683" lon="1.75539">
        <ele>184.60000610352</ele>
        <time>2011-10-16T09:04:09.000Z</time>
      </trkpt>
      <trkpt lat="48.73691" lon="1.75543">
        <ele>184.39999389648</ele>
        <time>2011-10-16T09:04:14.000Z</time>
      </trkpt>
      <trkpt lat="48.73698" lon="1.75546">
        <ele>184.19999694824</ele>
        <time>2011-10-16T09:04:21.000Z</time>
      </trkpt>
      <trkpt lat="48.73703" lon="1.75548">
        <ele>184.19999694824</ele>
        <time>2011-10-16T09:04:26.000Z</time>
      </trkpt>
      <trkpt lat="48.73713" lon="1.7555">
        <ele>184</ele>
        <time>2011-10-16T09:04:34.000Z</time>
      </trkpt>
      <trkpt lat="48.73723" lon="1.75554">
        <ele>183.60000610352</ele>
        <time>2011-10-16T09:04:42.000Z</time>
      </trkpt>
      <trkpt lat="48.73733" lon="1.75557">
        <ele>183.39999389648</ele>
        <time>2011-10-16T09:04:49.000Z</time>
      </trkpt>
      <trkpt lat="48.73741" lon="1.75561">
        <ele>183.39999389648</ele>
        <time>2011-10-16T09:04:54.000Z</time>
      </trkpt>
      <trkpt lat="48.73748" lon="1.7556">
        <ele>183.19999694824</ele>
        <time>2011-10-16T09:05:00.000Z</time>
      </trkpt>
      <trkpt lat="48.73758" lon="1.75564">
        <ele>183.19999694824</ele>
        <time>2011-10-16T09:05:07.000Z</time>
      </trkpt>
      <trkpt lat="48.73767" lon="1.75567">
        <ele>183.19999694824</ele>
        <time>2011-10-16T09:05:13.000Z</time>
      </trkpt>
      <trkpt lat="48.7378" lon="1.75572">
        <ele>183.19999694824</ele>
        <time>2011-10-16T09:05:22.000Z</time>
      </trkpt>
      <trkpt lat="48.73788" lon="1.75577">
        <ele>183.39999389648</ele>
        <time>2011-10-16T09:05:28.000Z</time>
      </trkpt>
      <trkpt lat="48.73802" lon="1.75589">
        <ele>183.39999389648</ele>
        <time>2011-10-16T09:05:35.000Z</time>
      </trkpt>
      <trkpt lat="48.73806" lon="1.75586">
        <ele>183.60000610352</ele>
        <time>2011-10-16T09:05:38.000Z</time>
      </trkpt>
      <trkpt lat="48.73817" lon="1.75584">
        <ele>183.80000305176</ele>
        <time>2011-10-16T09:05:46.000Z</time>
      </trkpt>
      <trkpt lat="48.73831" lon="1.75587">
        <ele>183.80000305176</ele>
        <time>2011-10-16T09:05:55.000Z</time>
      </trkpt>
      <trkpt lat="48.7384" lon="1.75588">
        <ele>183.80000305176</ele>
        <time>2011-10-16T09:06:02.000Z</time>
      </trkpt>
      <trkpt lat="48.73853" lon="1.75593">
        <ele>183.60000610352</ele>
        <time>2011-10-16T09:06:12.000Z</time>
      </trkpt>
      <trkpt lat="48.73868" lon="1.75597">
        <ele>183.39999389648</ele>
        <time>2011-10-16T09:06:23.000Z</time>
      </trkpt>
      <trkpt lat="48.73881" lon="1.75603">
        <ele>183.39999389648</ele>
        <time>2011-10-16T09:06:32.000Z</time>
      </trkpt>
      <trkpt lat="48.73895" lon="1.75608">
        <ele>183.19999694824</ele>
        <time>2011-10-16T09:06:41.000Z</time>
      </trkpt>
      <trkpt lat="48.73906" lon="1.75612">
        <ele>183</ele>
        <time>2011-10-16T09:06:50.000Z</time>
      </trkpt>
      <trkpt lat="48.73914" lon="1.75615">
        <ele>183</ele>
        <time>2011-10-16T09:06:55.000Z</time>
      </trkpt>
      <trkpt lat="48.73922" lon="1.75619">
        <ele>182.60000610352</ele>
        <time>2011-10-16T09:07:01.000Z</time>
      </trkpt>
      <trkpt lat="48.7393" lon="1.7562">
        <ele>182.19999694824</ele>
        <time>2011-10-16T09:07:06.000Z</time>
      </trkpt>
      <trkpt lat="48.73939" lon="1.75622">
        <ele>181.80000305176</ele>
        <time>2011-10-16T09:07:12.000Z</time>
      </trkpt>
      <trkpt lat="48.73947" lon="1.75621">
        <ele>181.19999694824</ele>
        <time>2011-10-16T09:07:17.000Z</time>
      </trkpt>
      <trkpt lat="48.73957" lon="1.75617">
        <ele>180.80000305176</ele>
        <time>2011-10-16T09:07:24.000Z</time>
      </trkpt>
      <trkpt lat="48.73961" lon="1.75609">
        <ele>180.60000610352</ele>
        <time>2011-10-16T09:07:29.000Z</time>
      </trkpt>
      <trkpt lat="48.73966" lon="1.75594">
        <ele>180.39999389648</ele>
        <time>2011-10-16T09:07:37.000Z</time>
      </trkpt>
      <trkpt lat="48.73973" lon="1.75575">
        <ele>180.39999389648</ele>
        <time>2011-10-16T09:07:46.000Z</time>
      </trkpt>
      <trkpt lat="48.73976" lon="1.75563">
        <ele>180.60000610352</ele>
        <time>2011-10-16T09:07:51.000Z</time>
      </trkpt>
      <trkpt lat="48.73981" lon="1.75546">
        <ele>181</ele>
        <time>2011-10-16T09:07:59.000Z</time>
      </trkpt>
      <trkpt lat="48.73983" lon="1.75533">
        <ele>181.19999694824</ele>
        <time>2011-10-16T09:08:06.000Z</time>
      </trkpt>
      <trkpt lat="48.73989" lon="1.75517">
        <ele>181.60000610352</ele>
        <time>2011-10-16T09:08:13.000Z</time>
      </trkpt>
      <trkpt lat="48.7399" lon="1.75515">
        <ele>181.60000610352</ele>
        <time>2011-10-16T09:08:14.000Z</time>
      </trkpt>
      <trkpt lat="48.73995" lon="1.75501">
        <ele>182</ele>
        <time>2011-10-16T09:08:20.000Z</time>
      </trkpt>
      <trkpt lat="48.74" lon="1.75486">
        <ele>181.80000305176</ele>
        <time>2011-10-16T09:08:27.000Z</time>
      </trkpt>
      <trkpt lat="48.74006" lon="1.75471">
        <ele>181.39999389648</ele>
        <time>2011-10-16T09:08:34.000Z</time>
      </trkpt>
      <trkpt lat="48.7401" lon="1.75459">
        <ele>181.19999694824</ele>
        <time>2011-10-16T09:08:40.000Z</time>
      </trkpt>
      <trkpt lat="48.74011" lon="1.75451">
        <ele>181</ele>
        <time>2011-10-16T09:08:44.000Z</time>
      </trkpt>
      <trkpt lat="48.74017" lon="1.75432">
        <ele>180.80000305176</ele>
        <time>2011-10-16T09:08:53.000Z</time>
      </trkpt>
      <trkpt lat="48.74021" lon="1.75419">
        <ele>180.60000610352</ele>
        <time>2011-10-16T09:09:00.000Z</time>
      </trkpt>
      <trkpt lat="48.74021" lon="1.75418">
        <ele>180.60000610352</ele>
        <time>2011-10-16T09:09:01.000Z</time>
      </trkpt>
      <trkpt lat="48.74024" lon="1.7541">
        <ele>180.80000305176</ele>
        <time>2011-10-16T09:09:07.000Z</time>
      </trkpt>
      <trkpt lat="48.74025" lon="1.75408">
        <ele>180.80000305176</ele>
        <time>2011-10-16T09:09:08.000Z</time>
      </trkpt>
      <trkpt lat="48.74028" lon="1.75397">
        <ele>181.19999694824</ele>
        <time>2011-10-16T09:09:13.000Z</time>
      </trkpt>
      <trkpt lat="48.7403" lon="1.75389">
        <ele>181.19999694824</ele>
        <time>2011-10-16T09:09:18.000Z</time>
      </trkpt>
      <trkpt lat="48.74035" lon="1.75372">
        <ele>181.60000610352</ele>
        <time>2011-10-16T09:09:27.000Z</time>
      </trkpt>
      <trkpt lat="48.74042" lon="1.75349">
        <ele>182</ele>
        <time>2011-10-16T09:09:37.000Z</time>
      </trkpt>
      <trkpt lat="48.74045" lon="1.75334">
        <ele>182.19999694824</ele>
        <time>2011-10-16T09:09:44.000Z</time>
      </trkpt>
      <trkpt lat="48.7405" lon="1.75318">
        <ele>182.60000610352</ele>
        <time>2011-10-16T09:09:52.000Z</time>
      </trkpt>
      <trkpt lat="48.74055" lon="1.75304">
        <ele>182.80000305176</ele>
        <time>2011-10-16T09:09:59.000Z</time>
      </trkpt>
      <trkpt lat="48.7406" lon="1.75289">
        <ele>183.19999694824</ele>
        <time>2011-10-16T09:10:06.000Z</time>
      </trkpt>
      <trkpt lat="48.74067" lon="1.7527">
        <ele>183.39999389648</ele>
        <time>2011-10-16T09:10:15.000Z</time>
      </trkpt>
      <trkpt lat="48.74072" lon="1.75257">
        <ele>183.39999389648</ele>
        <time>2011-10-16T09:10:22.000Z</time>
      </trkpt>
      <trkpt lat="48.74076" lon="1.7524">
        <ele>183.60000610352</ele>
        <time>2011-10-16T09:10:29.000Z</time>
      </trkpt>
      <trkpt lat="48.7408" lon="1.75225">
        <ele>183.60000610352</ele>
        <time>2011-10-16T09:10:38.000Z</time>
      </trkpt>
      <trkpt lat="48.74086" lon="1.7521">
        <ele>183.80000305176</ele>
        <time>2011-10-16T09:10:57.000Z</time>
      </trkpt>
      <trkpt lat="48.7409" lon="1.75196">
        <ele>183.80000305176</ele>
        <time>2011-10-16T09:11:04.000Z</time>
      </trkpt>
      <trkpt lat="48.74094" lon="1.75187">
        <ele>183.80000305176</ele>
        <time>2011-10-16T09:11:09.000Z</time>
      </trkpt>
      <trkpt lat="48.74098" lon="1.75175">
        <ele>184</ele>
        <time>2011-10-16T09:11:15.000Z</time>
      </trkpt>
      <trkpt lat="48.74102" lon="1.75159">
        <ele>184.19999694824</ele>
        <time>2011-10-16T09:11:23.000Z</time>
      </trkpt>
      <trkpt lat="48.74103" lon="1.75157">
        <ele>184.19999694824</ele>
        <time>2011-10-16T09:11:24.000Z</time>
      </trkpt>
      <trkpt lat="48.74107" lon="1.75145">
        <ele>184.39999389648</ele>
        <time>2011-10-16T09:11:30.000Z</time>
      </trkpt>
      <trkpt lat="48.74112" lon="1.75132">
        <ele>184.39999389648</ele>
        <time>2011-10-16T09:11:38.000Z</time>
      </trkpt>
      <trkpt lat="48.74113" lon="1.75132">
        <ele>184.39999389648</ele>
        <time>2011-10-16T09:11:39.000Z</time>
      </trkpt>
      <trkpt lat="48.74125" lon="1.75133">
        <ele>184</ele>
        <time>2011-10-16T09:11:47.000Z</time>
      </trkpt>
      <trkpt lat="48.74129" lon="1.75132">
        <ele>183.80000305176</ele>
        <time>2011-10-16T09:11:50.000Z</time>
      </trkpt>
      <trkpt lat="48.7414" lon="1.75131">
        <ele>183.39999389648</ele>
        <time>2011-10-16T09:11:58.000Z</time>
      </trkpt>
      <trkpt lat="48.74151" lon="1.75127">
        <ele>183</ele>
        <time>2011-10-16T09:12:07.000Z</time>
      </trkpt>
      <trkpt lat="48.74153" lon="1.75127">
        <ele>183</ele>
        <time>2011-10-16T09:12:08.000Z</time>
      </trkpt>
      <trkpt lat="48.74158" lon="1.75127">
        <ele>182.80000305176</ele>
        <time>2011-10-16T09:12:12.000Z</time>
      </trkpt>
      <trkpt lat="48.74168" lon="1.75128">
        <ele>182.19999694824</ele>
        <time>2011-10-16T09:12:18.000Z</time>
      </trkpt>
      <trkpt lat="48.74182" lon="1.75127">
        <ele>181.80000305176</ele>
        <time>2011-10-16T09:12:27.000Z</time>
      </trkpt>
      <trkpt lat="48.74195" lon="1.75126">
        <ele>181.19999694824</ele>
        <time>2011-10-16T09:12:36.000Z</time>
      </trkpt>
      <trkpt lat="48.74212" lon="1.75125">
        <ele>180.39999389648</ele>
        <time>2011-10-16T09:12:48.000Z</time>
      </trkpt>
      <trkpt lat="48.74226" lon="1.75124">
        <ele>180</ele>
        <time>2011-10-16T09:12:58.000Z</time>
      </trkpt>
      <trkpt lat="48.74239" lon="1.75123">
        <ele>179.39999389648</ele>
        <time>2011-10-16T09:13:07.000Z</time>
      </trkpt>
      <trkpt lat="48.74253" lon="1.75121">
        <ele>179</ele>
        <time>2011-10-16T09:13:17.000Z</time>
      </trkpt>
      <trkpt lat="48.74263" lon="1.75121">
        <ele>178.80000305176</ele>
        <time>2011-10-16T09:13:24.000Z</time>
      </trkpt>
      <trkpt lat="48.74276" lon="1.75119">
        <ele>178.60000610352</ele>
        <time>2011-10-16T09:13:33.000Z</time>
      </trkpt>
      <trkpt lat="48.74282" lon="1.75119">
        <ele>178.60000610352</ele>
        <time>2011-10-16T09:13:37.000Z</time>
      </trkpt>
      <trkpt lat="48.7429" lon="1.75118">
        <ele>178.60000610352</ele>
        <time>2011-10-16T09:13:42.000Z</time>
      </trkpt>
      <trkpt lat="48.74291" lon="1.75117">
        <ele>178.39999389648</ele>
        <time>2011-10-16T09:13:43.000Z</time>
      </trkpt>
      <trkpt lat="48.74301" lon="1.75116">
        <ele>178.39999389648</ele>
        <time>2011-10-16T09:13:51.000Z</time>
      </trkpt>
      <trkpt lat="48.74302" lon="1.75116">
        <ele>178.39999389648</ele>
        <time>2011-10-16T09:13:52.000Z</time>
      </trkpt>
      <trkpt lat="48.74314" lon="1.75115">
        <ele>178.19999694824</ele>
        <time>2011-10-16T09:14:00.000Z</time>
      </trkpt>
      <trkpt lat="48.74321" lon="1.75117">
        <ele>178</ele>
        <time>2011-10-16T09:14:05.000Z</time>
      </trkpt>
      <trkpt lat="48.74324" lon="1.75127">
        <ele>178</ele>
        <time>2011-10-16T09:14:11.000Z</time>
      </trkpt>
      <trkpt lat="48.74324" lon="1.75135">
        <ele>178</ele>
        <time>2011-10-16T09:14:17.000Z</time>
      </trkpt>
      <trkpt lat="48.74324" lon="1.75135">
        <ele>178</ele>
        <time>2011-10-16T09:14:18.000Z</time>
      </trkpt>
      <trkpt lat="48.74324" lon="1.75144">
        <ele>178</ele>
        <time>2011-10-16T09:14:30.000Z</time>
      </trkpt>
      <trkpt lat="48.74323" lon="1.75151">
        <ele>178</ele>
        <time>2011-10-16T09:14:34.000Z</time>
      </trkpt>
      <trkpt lat="48.74321" lon="1.75156">
        <ele>178</ele>
        <time>2011-10-16T09:14:39.000Z</time>
      </trkpt>
      <trkpt lat="48.74322" lon="1.75166">
        <ele>178</ele>
        <time>2011-10-16T09:14:44.000Z</time>
      </trkpt>
      <trkpt lat="48.74317" lon="1.75183">
        <ele>177.60000610352</ele>
        <time>2011-10-16T09:14:51.000Z</time>
      </trkpt>
      <trkpt lat="48.74315" lon="1.75199">
        <ele>177.19999694824</ele>
        <time>2011-10-16T09:14:58.000Z</time>
      </trkpt>
      <trkpt lat="48.74313" lon="1.75215">
        <ele>176.80000305176</ele>
        <time>2011-10-16T09:15:05.000Z</time>
      </trkpt>
      <trkpt lat="48.74311" lon="1.75231">
        <ele>176.60000610352</ele>
        <time>2011-10-16T09:15:12.000Z</time>
      </trkpt>
      <trkpt lat="48.7431" lon="1.75248">
        <ele>176.19999694824</ele>
        <time>2011-10-16T09:15:19.000Z</time>
      </trkpt>
      <trkpt lat="48.74304" lon="1.75262">
        <ele>176.19999694824</ele>
        <time>2011-10-16T09:15:27.000Z</time>
      </trkpt>
      <trkpt lat="48.74298" lon="1.75274">
        <ele>176.19999694824</ele>
        <time>2011-10-16T09:15:34.000Z</time>
      </trkpt>
      <trkpt lat="48.74294" lon="1.75281">
        <ele>176.19999694824</ele>
        <time>2011-10-16T09:15:39.000Z</time>
      </trkpt>
      <trkpt lat="48.74291" lon="1.75293">
        <ele>176.19999694824</ele>
        <time>2011-10-16T09:15:45.000Z</time>
      </trkpt>
      <trkpt lat="48.7429" lon="1.75296">
        <ele>176.19999694824</ele>
        <time>2011-10-16T09:15:46.000Z</time>
      </trkpt>
      <trkpt lat="48.74286" lon="1.75313">
        <ele>176.19999694824</ele>
        <time>2011-10-16T09:15:54.000Z</time>
      </trkpt>
      <trkpt lat="48.74285" lon="1.75333">
        <ele>176.19999694824</ele>
        <time>2011-10-16T09:16:03.000Z</time>
      </trkpt>
      <trkpt lat="48.7428" lon="1.7535">
        <ele>176.39999389648</ele>
        <time>2011-10-16T09:16:12.000Z</time>
      </trkpt>
      <trkpt lat="48.74279" lon="1.75361">
        <ele>176.19999694824</ele>
        <time>2011-10-16T09:16:18.000Z</time>
      </trkpt>
      <trkpt lat="48.74278" lon="1.75375">
        <ele>176.19999694824</ele>
        <time>2011-10-16T09:16:25.000Z</time>
      </trkpt>
      <trkpt lat="48.74274" lon="1.75391">
        <ele>176.19999694824</ele>
        <time>2011-10-16T09:16:33.000Z</time>
      </trkpt>
      <trkpt lat="48.74272" lon="1.75402">
        <ele>176.19999694824</ele>
        <time>2011-10-16T09:16:39.000Z</time>
      </trkpt>
      <trkpt lat="48.74266" lon="1.75425">
        <ele>176.19999694824</ele>
        <time>2011-10-16T09:16:50.000Z</time>
      </trkpt>
      <trkpt lat="48.7426" lon="1.75439">
        <ele>176.39999389648</ele>
        <time>2011-10-16T09:16:58.000Z</time>
      </trkpt>
      <trkpt lat="48.74257" lon="1.75453">
        <ele>176.60000610352</ele>
        <time>2011-10-16T09:17:05.000Z</time>
      </trkpt>
      <trkpt lat="48.74252" lon="1.75467">
        <ele>176.80000305176</ele>
        <time>2011-10-16T09:17:13.000Z</time>
      </trkpt>
      <trkpt lat="48.74249" lon="1.75488">
        <ele>176.80000305176</ele>
        <time>2011-10-16T09:17:23.000Z</time>
      </trkpt>
      <trkpt lat="48.74244" lon="1.75503">
        <ele>176.80000305176</ele>
        <time>2011-10-16T09:17:31.000Z</time>
      </trkpt>
      <trkpt lat="48.74243" lon="1.75512">
        <ele>177</ele>
        <time>2011-10-16T09:17:36.000Z</time>
      </trkpt>
      <trkpt lat="48.74239" lon="1.75521">
        <ele>177</ele>
        <time>2011-10-16T09:17:42.000Z</time>
      </trkpt>
      <trkpt lat="48.74238" lon="1.75526">
        <ele>177</ele>
        <time>2011-10-16T09:17:45.000Z</time>
      </trkpt>
      <trkpt lat="48.74231" lon="1.75543">
        <ele>177</ele>
        <time>2011-10-16T09:17:54.000Z</time>
      </trkpt>
      <trkpt lat="48.74227" lon="1.75559">
        <ele>177.19999694824</ele>
        <time>2011-10-16T09:18:01.000Z</time>
      </trkpt>
      <trkpt lat="48.74226" lon="1.75579">
        <ele>177.19999694824</ele>
        <time>2011-10-16T09:18:09.000Z</time>
      </trkpt>
      <trkpt lat="48.74222" lon="1.75598">
        <ele>177.19999694824</ele>
        <time>2011-10-16T09:18:17.000Z</time>
      </trkpt>
      <trkpt lat="48.74219" lon="1.75614">
        <ele>177</ele>
        <time>2011-10-16T09:18:24.000Z</time>
      </trkpt>
      <trkpt lat="48.74216" lon="1.75625">
        <ele>176.80000305176</ele>
        <time>2011-10-16T09:18:30.000Z</time>
      </trkpt>
      <trkpt lat="48.74217" lon="1.7563">
        <ele>176.80000305176</ele>
        <time>2011-10-16T09:18:35.000Z</time>
      </trkpt>
      <trkpt lat="48.74217" lon="1.7563">
        <ele>176.80000305176</ele>
        <time>2011-10-16T09:18:37.000Z</time>
      </trkpt>
      <trkpt lat="48.74228" lon="1.75637">
        <ele>177</ele>
        <time>2011-10-16T09:19:01.000Z</time>
      </trkpt>
      <trkpt lat="48.74237" lon="1.75635">
        <ele>177</ele>
        <time>2011-10-16T09:19:08.000Z</time>
      </trkpt>
      <trkpt lat="48.74244" lon="1.75634">
        <ele>177.19999694824</ele>
        <time>2011-10-16T09:19:14.000Z</time>
      </trkpt>
      <trkpt lat="48.74253" lon="1.75633">
        <ele>177.19999694824</ele>
        <time>2011-10-16T09:19:21.000Z</time>
      </trkpt>
      <trkpt lat="48.74259" lon="1.7563">
        <ele>177</ele>
        <time>2011-10-16T09:19:27.000Z</time>
      </trkpt>
      <trkpt lat="48.74269" lon="1.75631">
        <ele>176.80000305176</ele>
        <time>2011-10-16T09:19:33.000Z</time>
      </trkpt>
      <trkpt lat="48.74278" lon="1.75633">
        <ele>176.39999389648</ele>
        <time>2011-10-16T09:19:40.000Z</time>
      </trkpt>
      <trkpt lat="48.74286" lon="1.75636">
        <ele>176.19999694824</ele>
        <time>2011-10-16T09:19:48.000Z</time>
      </trkpt>
      <trkpt lat="48.74296" lon="1.75637">
        <ele>176</ele>
        <time>2011-10-16T09:19:56.000Z</time>
      </trkpt>
      <trkpt lat="48.743" lon="1.75638">
        <ele>175.80000305176</ele>
        <time>2011-10-16T09:20:00.000Z</time>
      </trkpt>
      <trkpt lat="48.74306" lon="1.75641">
        <ele>175.60000610352</ele>
        <time>2011-10-16T09:20:04.000Z</time>
      </trkpt>
      <trkpt lat="48.74313" lon="1.75643">
        <ele>175.60000610352</ele>
        <time>2011-10-16T09:20:09.000Z</time>
      </trkpt>
      <trkpt lat="48.74323" lon="1.75643">
        <ele>175.39999389648</ele>
        <time>2011-10-16T09:20:17.000Z</time>
      </trkpt>
      <trkpt lat="48.74331" lon="1.75642">
        <ele>175</ele>
        <time>2011-10-16T09:20:24.000Z</time>
      </trkpt>
      <trkpt lat="48.74338" lon="1.75649">
        <ele>174.80000305176</ele>
        <time>2011-10-16T09:20:30.000Z</time>
      </trkpt>
      <trkpt lat="48.74338" lon="1.75651">
        <ele>174.80000305176</ele>
        <time>2011-10-16T09:20:31.000Z</time>
      </trkpt>
      <trkpt lat="48.7434" lon="1.75666">
        <ele>175.19999694824</ele>
        <time>2011-10-16T09:20:38.000Z</time>
      </trkpt>
      <trkpt lat="48.74344" lon="1.75674">
        <ele>174.60000610352</ele>
        <time>2011-10-16T09:20:44.000Z</time>
      </trkpt>
      <trkpt lat="48.74344" lon="1.75678">
        <ele>174.39999389648</ele>
        <time>2011-10-16T09:20:46.000Z</time>
      </trkpt>
      <trkpt lat="48.74349" lon="1.75694">
        <ele>173.19999694824</ele>
        <time>2011-10-16T09:20:52.000Z</time>
      </trkpt>
      <trkpt lat="48.74354" lon="1.75704">
        <ele>172.39999389648</ele>
        <time>2011-10-16T09:20:57.000Z</time>
      </trkpt>
      <trkpt lat="48.74358" lon="1.75714">
        <ele>171.60000610352</ele>
        <time>2011-10-16T09:21:02.000Z</time>
      </trkpt>
      <trkpt lat="48.7436" lon="1.75721">
        <ele>171.19999694824</ele>
        <time>2011-10-16T09:21:05.000Z</time>
      </trkpt>
      <trkpt lat="48.74362" lon="1.75731">
        <ele>170.60000610352</ele>
        <time>2011-10-16T09:21:09.000Z</time>
      </trkpt>
      <trkpt lat="48.74364" lon="1.75738">
        <ele>170.19999694824</ele>
        <time>2011-10-16T09:21:12.000Z</time>
      </trkpt>
      <trkpt lat="48.74367" lon="1.75747">
        <ele>169.60000610352</ele>
        <time>2011-10-16T09:21:16.000Z</time>
      </trkpt>
      <trkpt lat="48.74367" lon="1.75755">
        <ele>169.39999389648</ele>
        <time>2011-10-16T09:21:19.000Z</time>
      </trkpt>
      <trkpt lat="48.74369" lon="1.75765">
        <ele>169</ele>
        <time>2011-10-16T09:21:23.000Z</time>
      </trkpt>
      <trkpt lat="48.74369" lon="1.75769">
        <ele>168.80000305176</ele>
        <time>2011-10-16T09:21:25.000Z</time>
      </trkpt>
      <trkpt lat="48.7437" lon="1.75773">
        <ele>168.60000610352</ele>
        <time>2011-10-16T09:21:27.000Z</time>
      </trkpt>
      <trkpt lat="48.7438" lon="1.75791">
        <ele>167.60000610352</ele>
        <time>2011-10-16T09:21:34.000Z</time>
      </trkpt>
      <trkpt lat="48.74383" lon="1.75798">
        <ele>167.39999389648</ele>
        <time>2011-10-16T09:21:37.000Z</time>
      </trkpt>
      <trkpt lat="48.74384" lon="1.75808">
        <ele>167.19999694824</ele>
        <time>2011-10-16T09:21:41.000Z</time>
      </trkpt>
      <trkpt lat="48.74387" lon="1.75817">
        <ele>166.80000305176</ele>
        <time>2011-10-16T09:21:45.000Z</time>
      </trkpt>
      <trkpt lat="48.74384" lon="1.75826">
        <ele>166.80000305176</ele>
        <time>2011-10-16T09:21:50.000Z</time>
      </trkpt>
      <trkpt lat="48.74383" lon="1.75833">
        <ele>166.80000305176</ele>
        <time>2011-10-16T09:21:54.000Z</time>
      </trkpt>
      <trkpt lat="48.74386" lon="1.75847">
        <ele>166.19999694824</ele>
        <time>2011-10-16T09:22:00.000Z</time>
      </trkpt>
      <trkpt lat="48.74387" lon="1.7586">
        <ele>165.60000610352</ele>
        <time>2011-10-16T09:22:07.000Z</time>
      </trkpt>
      <trkpt lat="48.74388" lon="1.75866">
        <ele>165.39999389648</ele>
        <time>2011-10-16T09:22:10.000Z</time>
      </trkpt>
      <trkpt lat="48.74387" lon="1.75872">
        <ele>165.19999694824</ele>
        <time>2011-10-16T09:22:13.000Z</time>
      </trkpt>
      <trkpt lat="48.74388" lon="1.75884">
        <ele>164.80000305176</ele>
        <time>2011-10-16T09:22:18.000Z</time>
      </trkpt>
      <trkpt lat="48.74387" lon="1.75892">
        <ele>164.39999389648</ele>
        <time>2011-10-16T09:22:21.000Z</time>
      </trkpt>
      <trkpt lat="48.74388" lon="1.75899">
        <ele>164.19999694824</ele>
        <time>2011-10-16T09:22:25.000Z</time>
      </trkpt>
      <trkpt lat="48.74387" lon="1.7591">
        <ele>163.80000305176</ele>
        <time>2011-10-16T09:22:30.000Z</time>
      </trkpt>
      <trkpt lat="48.74386" lon="1.75919">
        <ele>163.39999389648</ele>
        <time>2011-10-16T09:22:34.000Z</time>
      </trkpt>
      <trkpt lat="48.74386" lon="1.75923">
        <ele>163.19999694824</ele>
        <time>2011-10-16T09:22:36.000Z</time>
      </trkpt>
      <trkpt lat="48.74386" lon="1.75934">
        <ele>162.39999389648</ele>
        <time>2011-10-16T09:22:41.000Z</time>
      </trkpt>
      <trkpt lat="48.74383" lon="1.75943">
        <ele>161.80000305176</ele>
        <time>2011-10-16T09:22:45.000Z</time>
      </trkpt>
      <trkpt lat="48.7438" lon="1.75949">
        <ele>161.19999694824</ele>
        <time>2011-10-16T09:22:48.000Z</time>
      </trkpt>
      <trkpt lat="48.74378" lon="1.75956">
        <ele>160.80000305176</ele>
        <time>2011-10-16T09:22:51.000Z</time>
      </trkpt>
      <trkpt lat="48.74381" lon="1.75972">
        <ele>159.80000305176</ele>
        <time>2011-10-16T09:22:58.000Z</time>
      </trkpt>
      <trkpt lat="48.74381" lon="1.75984">
        <ele>159</ele>
        <time>2011-10-16T09:23:04.000Z</time>
      </trkpt>
      <trkpt lat="48.7438" lon="1.75984">
        <ele>159</ele>
        <time>2011-10-16T09:23:08.000Z</time>
      </trkpt>
      <trkpt lat="48.7438" lon="1.75993">
        <ele>158.39999389648</ele>
        <time>2011-10-16T09:23:17.000Z</time>
      </trkpt>
      <trkpt lat="48.74376" lon="1.76013">
        <ele>157.39999389648</ele>
        <time>2011-10-16T09:23:25.000Z</time>
      </trkpt>
      <trkpt lat="48.74377" lon="1.76023">
        <ele>157</ele>
        <time>2011-10-16T09:23:30.000Z</time>
      </trkpt>
      <trkpt lat="48.74379" lon="1.76036">
        <ele>156.39999389648</ele>
        <time>2011-10-16T09:23:35.000Z</time>
      </trkpt>
      <trkpt lat="48.74379" lon="1.76057">
        <ele>155.39999389648</ele>
        <time>2011-10-16T09:23:43.000Z</time>
      </trkpt>
      <trkpt lat="48.74384" lon="1.76077">
        <ele>154.60000610352</ele>
        <time>2011-10-16T09:23:50.000Z</time>
      </trkpt>
      <trkpt lat="48.74386" lon="1.76094">
        <ele>154</ele>
        <time>2011-10-16T09:23:56.000Z</time>
      </trkpt>
      <trkpt lat="48.74386" lon="1.76096">
        <ele>154</ele>
        <time>2011-10-16T09:23:57.000Z</time>
      </trkpt>
      <trkpt lat="48.74382" lon="1.7611">
        <ele>153.60000610352</ele>
        <time>2011-10-16T09:24:04.000Z</time>
      </trkpt>
      <trkpt lat="48.74378" lon="1.76121">
        <ele>153.39999389648</ele>
        <time>2011-10-16T09:24:10.000Z</time>
      </trkpt>
      <trkpt lat="48.74377" lon="1.76126">
        <ele>153.39999389648</ele>
        <time>2011-10-16T09:24:14.000Z</time>
      </trkpt>
      <trkpt lat="48.74383" lon="1.76142">
        <ele>152.80000305176</ele>
        <time>2011-10-16T09:24:20.000Z</time>
      </trkpt>
      <trkpt lat="48.74381" lon="1.76146">
        <ele>152.80000305176</ele>
        <time>2011-10-16T09:24:22.000Z</time>
      </trkpt>
      <trkpt lat="48.74373" lon="1.76168">
        <ele>152.39999389648</ele>
        <time>2011-10-16T09:24:32.000Z</time>
      </trkpt>
      <trkpt lat="48.74377" lon="1.76174">
        <ele>152.19999694824</ele>
        <time>2011-10-16T09:24:37.000Z</time>
      </trkpt>
      <trkpt lat="48.74377" lon="1.76174">
        <ele>152.19999694824</ele>
        <time>2011-10-16T09:24:39.000Z</time>
      </trkpt>
      <trkpt lat="48.74388" lon="1.76161">
        <ele>152.39999389648</ele>
        <time>2011-10-16T09:25:00.000Z</time>
      </trkpt>
      <trkpt lat="48.74393" lon="1.76153">
        <ele>152.60000610352</ele>
        <time>2011-10-16T09:25:05.000Z</time>
      </trkpt>
      <trkpt lat="48.74399" lon="1.76149">
        <ele>152.60000610352</ele>
        <time>2011-10-16T09:25:10.000Z</time>
      </trkpt>
      <trkpt lat="48.74406" lon="1.76142">
        <ele>152.60000610352</ele>
        <time>2011-10-16T09:25:16.000Z</time>
      </trkpt>
      <trkpt lat="48.74417" lon="1.76138">
        <ele>152.60000610352</ele>
        <time>2011-10-16T09:25:23.000Z</time>
      </trkpt>
      <trkpt lat="48.74425" lon="1.76134">
        <ele>152.80000305176</ele>
        <time>2011-10-16T09:25:28.000Z</time>
      </trkpt>
      <trkpt lat="48.74433" lon="1.76133">
        <ele>152.80000305176</ele>
        <time>2011-10-16T09:25:33.000Z</time>
      </trkpt>
      <trkpt lat="48.74434" lon="1.76133">
        <ele>152.80000305176</ele>
        <time>2011-10-16T09:25:34.000Z</time>
      </trkpt>
      <trkpt lat="48.74439" lon="1.76134">
        <ele>152.80000305176</ele>
        <time>2011-10-16T09:25:40.000Z</time>
      </trkpt>
      <trkpt lat="48.74447" lon="1.76136">
        <ele>153</ele>
        <time>2011-10-16T09:25:46.000Z</time>
      </trkpt>
      <trkpt lat="48.74461" lon="1.76131">
        <ele>153.19999694824</ele>
        <time>2011-10-16T09:25:55.000Z</time>
      </trkpt>
      <trkpt lat="48.74472" lon="1.76128">
        <ele>153.39999389648</ele>
        <time>2011-10-16T09:26:02.000Z</time>
      </trkpt>
      <trkpt lat="48.74484" lon="1.76123">
        <ele>153.80000305176</ele>
        <time>2011-10-16T09:26:10.000Z</time>
      </trkpt>
      <trkpt lat="48.74495" lon="1.76121">
        <ele>154</ele>
        <time>2011-10-16T09:26:17.000Z</time>
      </trkpt>
      <trkpt lat="48.74502" lon="1.76116">
        <ele>154.39999389648</ele>
        <time>2011-10-16T09:26:22.000Z</time>
      </trkpt>
      <trkpt lat="48.74511" lon="1.76111">
        <ele>154.39999389648</ele>
        <time>2011-10-16T09:26:27.000Z</time>
      </trkpt>
      <trkpt lat="48.74518" lon="1.76111">
        <ele>154.19999694824</ele>
        <time>2011-10-16T09:26:32.000Z</time>
      </trkpt>
      <trkpt lat="48.74526" lon="1.76113">
        <ele>154.19999694824</ele>
        <time>2011-10-16T09:26:37.000Z</time>
      </trkpt>
      <trkpt lat="48.74532" lon="1.76106">
        <ele>154.19999694824</ele>
        <time>2011-10-16T09:26:43.000Z</time>
      </trkpt>
      <trkpt lat="48.74534" lon="1.76103">
        <ele>154</ele>
        <time>2011-10-16T09:26:45.000Z</time>
      </trkpt>
      <trkpt lat="48.74536" lon="1.76097">
        <ele>154</ele>
        <time>2011-10-16T09:26:48.000Z</time>
      </trkpt>
      <trkpt lat="48.74539" lon="1.76096">
        <ele>154</ele>
        <time>2011-10-16T09:26:50.000Z</time>
      </trkpt>
      <trkpt lat="48.74551" lon="1.76101">
        <ele>153.60000610352</ele>
        <time>2011-10-16T09:26:58.000Z</time>
      </trkpt>
      <trkpt lat="48.74562" lon="1.76101">
        <ele>153.39999389648</ele>
        <time>2011-10-16T09:27:05.000Z</time>
      </trkpt>
      <trkpt lat="48.74566" lon="1.76097">
        <ele>153.19999694824</ele>
        <time>2011-10-16T09:27:09.000Z</time>
      </trkpt>
      <trkpt lat="48.74568" lon="1.76094">
        <ele>153</ele>
        <time>2011-10-16T09:27:11.000Z</time>
      </trkpt>
      <trkpt lat="48.74577" lon="1.76088">
        <ele>152.39999389648</ele>
        <time>2011-10-16T09:27:16.000Z</time>
      </trkpt>
      <trkpt lat="48.74582" lon="1.76086">
        <ele>152</ele>
        <time>2011-10-16T09:27:20.000Z</time>
      </trkpt>
      <trkpt lat="48.74591" lon="1.76084">
        <ele>152</ele>
        <time>2011-10-16T09:27:25.000Z</time>
      </trkpt>
      <trkpt lat="48.74599" lon="1.76081">
        <ele>152</ele>
        <time>2011-10-16T09:27:31.000Z</time>
      </trkpt>
      <trkpt lat="48.74609" lon="1.76078">
        <ele>152</ele>
        <time>2011-10-16T09:27:37.000Z</time>
      </trkpt>
      <trkpt lat="48.74615" lon="1.76077">
        <ele>152</ele>
        <time>2011-10-16T09:27:42.000Z</time>
      </trkpt>
      <trkpt lat="48.74623" lon="1.76072">
        <ele>152</ele>
        <time>2011-10-16T09:27:49.000Z</time>
      </trkpt>
      <trkpt lat="48.7463" lon="1.76068">
        <ele>152</ele>
        <time>2011-10-16T09:27:55.000Z</time>
      </trkpt>
      <trkpt lat="48.74635" lon="1.76064">
        <ele>152</ele>
        <time>2011-10-16T09:28:00.000Z</time>
      </trkpt>
      <trkpt lat="48.74638" lon="1.76062">
        <ele>152</ele>
        <time>2011-10-16T09:28:05.000Z</time>
      </trkpt>
      <trkpt lat="48.74643" lon="1.7606">
        <ele>152</ele>
        <time>2011-10-16T09:28:09.000Z</time>
      </trkpt>
      <trkpt lat="48.7465" lon="1.76052">
        <ele>152</ele>
        <time>2011-10-16T09:28:16.000Z</time>
      </trkpt>
      <trkpt lat="48.74657" lon="1.76051">
        <ele>152</ele>
        <time>2011-10-16T09:28:21.000Z</time>
      </trkpt>
      <trkpt lat="48.74666" lon="1.76046">
        <ele>152</ele>
        <time>2011-10-16T09:28:27.000Z</time>
      </trkpt>
      <trkpt lat="48.74675" lon="1.7604">
        <ele>152.19999694824</ele>
        <time>2011-10-16T09:28:33.000Z</time>
      </trkpt>
      <trkpt lat="48.74676" lon="1.76039">
        <ele>152.19999694824</ele>
        <time>2011-10-16T09:28:34.000Z</time>
      </trkpt>
      <trkpt lat="48.74679" lon="1.76037">
        <ele>152.19999694824</ele>
        <time>2011-10-16T09:28:36.000Z</time>
      </trkpt>
      <trkpt lat="48.74687" lon="1.76033">
        <ele>152.39999389648</ele>
        <time>2011-10-16T09:28:42.000Z</time>
      </trkpt>
      <trkpt lat="48.747" lon="1.76024">
        <ele>152.39999389648</ele>
        <time>2011-10-16T09:28:50.000Z</time>
      </trkpt>
      <trkpt lat="48.74708" lon="1.76019">
        <ele>152.19999694824</ele>
        <time>2011-10-16T09:28:56.000Z</time>
      </trkpt>
      <trkpt lat="48.74709" lon="1.76018">
        <ele>152.19999694824</ele>
        <time>2011-10-16T09:28:57.000Z</time>
      </trkpt>
      <trkpt lat="48.74719" lon="1.7601">
        <ele>151.80000305176</ele>
        <time>2011-10-16T09:29:05.000Z</time>
      </trkpt>
      <trkpt lat="48.74725" lon="1.76006">
        <ele>151.60000610352</ele>
        <time>2011-10-16T09:29:09.000Z</time>
      </trkpt>
      <trkpt lat="48.74734" lon="1.75999">
        <ele>151.19999694824</ele>
        <time>2011-10-16T09:29:15.000Z</time>
      </trkpt>
      <trkpt lat="48.74743" lon="1.75989">
        <ele>151.19999694824</ele>
        <time>2011-10-16T09:29:22.000Z</time>
      </trkpt>
      <trkpt lat="48.74751" lon="1.75976">
        <ele>151.39999389648</ele>
        <time>2011-10-16T09:29:29.000Z</time>
      </trkpt>
      <trkpt lat="48.74757" lon="1.75966">
        <ele>152</ele>
        <time>2011-10-16T09:29:35.000Z</time>
      </trkpt>
      <trkpt lat="48.74764" lon="1.75956">
        <ele>152.80000305176</ele>
        <time>2011-10-16T09:29:41.000Z</time>
      </trkpt>
      <trkpt lat="48.7477" lon="1.75938">
        <ele>153.39999389648</ele>
        <time>2011-10-16T09:29:50.000Z</time>
      </trkpt>
      <trkpt lat="48.74773" lon="1.75917">
        <ele>153.60000610352</ele>
        <time>2011-10-16T09:29:59.000Z</time>
      </trkpt>
      <trkpt lat="48.74775" lon="1.75901">
        <ele>153.80000305176</ele>
        <time>2011-10-16T09:30:06.000Z</time>
      </trkpt>
      <trkpt lat="48.74775" lon="1.75884">
        <ele>154</ele>
        <time>2011-10-16T09:30:14.000Z</time>
      </trkpt>
      <trkpt lat="48.74776" lon="1.75871">
        <ele>154.19999694824</ele>
        <time>2011-10-16T09:30:20.000Z</time>
      </trkpt>
      <trkpt lat="48.74775" lon="1.75859">
        <ele>154.39999389648</ele>
        <time>2011-10-16T09:30:25.000Z</time>
      </trkpt>
      <trkpt lat="48.74777" lon="1.75847">
        <ele>154.80000305176</ele>
        <time>2011-10-16T09:30:31.000Z</time>
      </trkpt>
      <trkpt lat="48.74776" lon="1.75839">
        <ele>154.80000305176</ele>
        <time>2011-10-16T09:30:36.000Z</time>
      </trkpt>
      <trkpt lat="48.74776" lon="1.75839">
        <ele>154.60000610352</ele>
        <time>2011-10-16T09:30:38.000Z</time>
      </trkpt>
      <trkpt lat="48.74775" lon="1.75833">
        <ele>154.60000610352</ele>
        <time>2011-10-16T09:30:43.000Z</time>
      </trkpt>
      <trkpt lat="48.74775" lon="1.75828">
        <ele>154.60000610352</ele>
        <time>2011-10-16T09:30:44.000Z</time>
      </trkpt>
      <trkpt lat="48.74776" lon="1.75823">
        <ele>154.60000610352</ele>
        <time>2011-10-16T09:30:47.000Z</time>
      </trkpt>
      <trkpt lat="48.74775" lon="1.7581">
        <ele>154.39999389648</ele>
        <time>2011-10-16T09:30:52.000Z</time>
      </trkpt>
      <trkpt lat="48.7477" lon="1.75794">
        <ele>153.80000305176</ele>
        <time>2011-10-16T09:30:58.000Z</time>
      </trkpt>
      <trkpt lat="48.74768" lon="1.75782">
        <ele>153.39999389648</ele>
        <time>2011-10-16T09:31:03.000Z</time>
      </trkpt>
      <trkpt lat="48.74761" lon="1.75762">
        <ele>152.39999389648</ele>
        <time>2011-10-16T09:31:12.000Z</time>
      </trkpt>
      <trkpt lat="48.74757" lon="1.75748">
        <ele>151.60000610352</ele>
        <time>2011-10-16T09:31:19.000Z</time>
      </trkpt>
      <trkpt lat="48.74752" lon="1.75729">
        <ele>151.39999389648</ele>
        <time>2011-10-16T09:31:26.000Z</time>
      </trkpt>
      <trkpt lat="48.74751" lon="1.75711">
        <ele>151.60000610352</ele>
        <time>2011-10-16T09:31:33.000Z</time>
      </trkpt>
      <trkpt lat="48.74755" lon="1.75701">
        <ele>152.39999389648</ele>
        <time>2011-10-16T09:31:38.000Z</time>
      </trkpt>
      <trkpt lat="48.74761" lon="1.75693">
        <ele>153.39999389648</ele>
        <time>2011-10-16T09:31:42.000Z</time>
      </trkpt>
      <trkpt lat="48.74761" lon="1.75684">
        <ele>153.60000610352</ele>
        <time>2011-10-16T09:31:46.000Z</time>
      </trkpt>
      <trkpt lat="48.74763" lon="1.75669">
        <ele>154.19999694824</ele>
        <time>2011-10-16T09:31:52.000Z</time>
      </trkpt>
      <trkpt lat="48.74763" lon="1.75655">
        <ele>154.39999389648</ele>
        <time>2011-10-16T09:31:58.000Z</time>
      </trkpt>
      <trkpt lat="48.74767" lon="1.75639">
        <ele>155.19999694824</ele>
        <time>2011-10-16T09:32:06.000Z</time>
      </trkpt>
      <trkpt lat="48.74771" lon="1.75624">
        <ele>156.19999694824</ele>
        <time>2011-10-16T09:32:13.000Z</time>
      </trkpt>
      <trkpt lat="48.74775" lon="1.75606">
        <ele>157</ele>
        <time>2011-10-16T09:32:21.000Z</time>
      </trkpt>
      <trkpt lat="48.74781" lon="1.75592">
        <ele>158</ele>
        <time>2011-10-16T09:32:28.000Z</time>
      </trkpt>
      <trkpt lat="48.74784" lon="1.75579">
        <ele>158.39999389648</ele>
        <time>2011-10-16T09:32:34.000Z</time>
      </trkpt>
      <trkpt lat="48.74788" lon="1.75564">
        <ele>158</ele>
        <time>2011-10-16T09:32:41.000Z</time>
      </trkpt>
      <trkpt lat="48.74792" lon="1.75548">
        <ele>157.39999389648</ele>
        <time>2011-10-16T09:32:48.000Z</time>
      </trkpt>
      <trkpt lat="48.748" lon="1.75533">
        <ele>157.19999694824</ele>
        <time>2011-10-16T09:32:55.000Z</time>
      </trkpt>
      <trkpt lat="48.74807" lon="1.75521">
        <ele>156.80000305176</ele>
        <time>2011-10-16T09:33:01.000Z</time>
      </trkpt>
      <trkpt lat="48.74811" lon="1.75509">
        <ele>156.19999694824</ele>
        <time>2011-10-16T09:33:07.000Z</time>
      </trkpt>
      <trkpt lat="48.74817" lon="1.75501">
        <ele>155.80000305176</ele>
        <time>2011-10-16T09:33:14.000Z</time>
      </trkpt>
      <trkpt lat="48.74817" lon="1.75493">
        <ele>155.60000610352</ele>
        <time>2011-10-16T09:33:18.000Z</time>
      </trkpt>
      <trkpt lat="48.74818" lon="1.75478">
        <ele>155.39999389648</ele>
        <time>2011-10-16T09:33:23.000Z</time>
      </trkpt>
      <trkpt lat="48.7482" lon="1.75474">
        <ele>155.60000610352</ele>
        <time>2011-10-16T09:33:25.000Z</time>
      </trkpt>
      <trkpt lat="48.74826" lon="1.75457">
        <ele>155.60000610352</ele>
        <time>2011-10-16T09:33:33.000Z</time>
      </trkpt>
      <trkpt lat="48.74827" lon="1.75438">
        <ele>155.19999694824</ele>
        <time>2011-10-16T09:33:40.000Z</time>
      </trkpt>
      <trkpt lat="48.74828" lon="1.75418">
        <ele>154.80000305176</ele>
        <time>2011-10-16T09:33:47.000Z</time>
      </trkpt>
      <trkpt lat="48.74828" lon="1.75398">
        <ele>154</ele>
        <time>2011-10-16T09:33:53.000Z</time>
      </trkpt>
      <trkpt lat="48.74824" lon="1.75376">
        <ele>152.80000305176</ele>
        <time>2011-10-16T09:33:58.000Z</time>
      </trkpt>
      <trkpt lat="48.74819" lon="1.75355">
        <ele>152</ele>
        <time>2011-10-16T09:34:03.000Z</time>
      </trkpt>
      <trkpt lat="48.74812" lon="1.75334">
        <ele>151.19999694824</ele>
        <time>2011-10-16T09:34:08.000Z</time>
      </trkpt>
      <trkpt lat="48.74807" lon="1.75303">
        <ele>151.39999389648</ele>
        <time>2011-10-16T09:34:14.000Z</time>
      </trkpt>
      <trkpt lat="48.74805" lon="1.75283">
        <ele>151.60000610352</ele>
        <time>2011-10-16T09:34:18.000Z</time>
      </trkpt>
      <trkpt lat="48.74796" lon="1.75256">
        <ele>151.80000305176</ele>
        <time>2011-10-16T09:34:24.000Z</time>
      </trkpt>
      <trkpt lat="48.74792" lon="1.7524">
        <ele>152.39999389648</ele>
        <time>2011-10-16T09:34:28.000Z</time>
      </trkpt>
      <trkpt lat="48.74784" lon="1.75221">
        <ele>153</ele>
        <time>2011-10-16T09:34:33.000Z</time>
      </trkpt>
      <trkpt lat="48.74776" lon="1.75199">
        <ele>153.39999389648</ele>
        <time>2011-10-16T09:34:38.000Z</time>
      </trkpt>
      <trkpt lat="48.74767" lon="1.7518">
        <ele>153.19999694824</ele>
        <time>2011-10-16T09:34:42.000Z</time>
      </trkpt>
      <trkpt lat="48.7476" lon="1.75169">
        <ele>152.80000305176</ele>
        <time>2011-10-16T09:34:45.000Z</time>
      </trkpt>
      <trkpt lat="48.74759" lon="1.75159">
        <ele>152.60000610352</ele>
        <time>2011-10-16T09:34:49.000Z</time>
      </trkpt>
      <trkpt lat="48.74759" lon="1.7514">
        <ele>152.19999694824</ele>
        <time>2011-10-16T09:34:55.000Z</time>
      </trkpt>
      <trkpt lat="48.74756" lon="1.75112">
        <ele>151.39999389648</ele>
        <time>2011-10-16T09:35:01.000Z</time>
      </trkpt>
      <trkpt lat="48.74765" lon="1.75081">
        <ele>152.19999694824</ele>
        <time>2011-10-16T09:35:07.000Z</time>
      </trkpt>
      <trkpt lat="48.74776" lon="1.75047">
        <ele>153.19999694824</ele>
        <time>2011-10-16T09:35:14.000Z</time>
      </trkpt>
      <trkpt lat="48.74783" lon="1.75015">
        <ele>153.60000610352</ele>
        <time>2011-10-16T09:35:20.000Z</time>
      </trkpt>
      <trkpt lat="48.74793" lon="1.75003">
        <ele>154.60000610352</ele>
        <time>2011-10-16T09:35:24.000Z</time>
      </trkpt>
      <trkpt lat="48.74801" lon="1.74992">
        <ele>155.39999389648</ele>
        <time>2011-10-16T09:35:29.000Z</time>
      </trkpt>
      <trkpt lat="48.74803" lon="1.74991">
        <ele>155.60000610352</ele>
        <time>2011-10-16T09:35:30.000Z</time>
      </trkpt>
      <trkpt lat="48.74811" lon="1.74987">
        <ele>156.39999389648</ele>
        <time>2011-10-16T09:35:34.000Z</time>
      </trkpt>
      <trkpt lat="48.7482" lon="1.74975">
        <ele>156.39999389648</ele>
        <time>2011-10-16T09:35:42.000Z</time>
      </trkpt>
      <trkpt lat="48.74823" lon="1.74966">
        <ele>156</ele>
        <time>2011-10-16T09:35:46.000Z</time>
      </trkpt>
      <trkpt lat="48.74826" lon="1.74955">
        <ele>155.19999694824</ele>
        <time>2011-10-16T09:35:52.000Z</time>
      </trkpt>
      <trkpt lat="48.74824" lon="1.74943">
        <ele>154.19999694824</ele>
        <time>2011-10-16T09:35:57.000Z</time>
      </trkpt>
      <trkpt lat="48.74825" lon="1.7493">
        <ele>153.19999694824</ele>
        <time>2011-10-16T09:36:03.000Z</time>
      </trkpt>
      <trkpt lat="48.74827" lon="1.74915">
        <ele>152</ele>
        <time>2011-10-16T09:36:10.000Z</time>
      </trkpt>
      <trkpt lat="48.74831" lon="1.74899">
        <ele>151.39999389648</ele>
        <time>2011-10-16T09:36:18.000Z</time>
      </trkpt>
      <trkpt lat="48.74837" lon="1.74884">
        <ele>151.19999694824</ele>
        <time>2011-10-16T09:36:26.000Z</time>
      </trkpt>
      <trkpt lat="48.74841" lon="1.74872">
        <ele>151.39999389648</ele>
        <time>2011-10-16T09:36:32.000Z</time>
      </trkpt>
      <trkpt lat="48.74844" lon="1.74858">
        <ele>151.60000610352</ele>
        <time>2011-10-16T09:36:40.000Z</time>
      </trkpt>
      <trkpt lat="48.74858" lon="1.74849">
        <ele>153.80000305176</ele>
        <time>2011-10-16T09:36:47.000Z</time>
      </trkpt>
      <trkpt lat="48.74862" lon="1.74835">
        <ele>154.19999694824</ele>
        <time>2011-10-16T09:36:54.000Z</time>
      </trkpt>
      <trkpt lat="48.74865" lon="1.74821">
        <ele>154.19999694824</ele>
        <time>2011-10-16T09:37:01.000Z</time>
      </trkpt>
      <trkpt lat="48.74868" lon="1.74808">
        <ele>154.39999389648</ele>
        <time>2011-10-16T09:37:08.000Z</time>
      </trkpt>
      <trkpt lat="48.74873" lon="1.74795">
        <ele>154.39999389648</ele>
        <time>2011-10-16T09:37:15.000Z</time>
      </trkpt>
      <trkpt lat="48.74877" lon="1.74784">
        <ele>154.60000610352</ele>
        <time>2011-10-16T09:37:21.000Z</time>
      </trkpt>
      <trkpt lat="48.74884" lon="1.7477">
        <ele>154.80000305176</ele>
        <time>2011-10-16T09:37:28.000Z</time>
      </trkpt>
      <trkpt lat="48.74885" lon="1.74756">
        <ele>154.19999694824</ele>
        <time>2011-10-16T09:37:34.000Z</time>
      </trkpt>
      <trkpt lat="48.74887" lon="1.74748">
        <ele>154</ele>
        <time>2011-10-16T09:37:38.000Z</time>
      </trkpt>
      <trkpt lat="48.74889" lon="1.74739">
        <ele>153.80000305176</ele>
        <time>2011-10-16T09:37:42.000Z</time>
      </trkpt>
      <trkpt lat="48.74894" lon="1.74724">
        <ele>153.60000610352</ele>
        <time>2011-10-16T09:37:50.000Z</time>
      </trkpt>
      <trkpt lat="48.74894" lon="1.74714">
        <ele>153</ele>
        <time>2011-10-16T09:37:55.000Z</time>
      </trkpt>
      <trkpt lat="48.74896" lon="1.74701">
        <ele>152.60000610352</ele>
        <time>2011-10-16T09:38:03.000Z</time>
      </trkpt>
      <trkpt lat="48.74901" lon="1.747">
        <ele>152.80000305176</ele>
        <time>2011-10-16T09:38:08.000Z</time>
      </trkpt>
      <trkpt lat="48.74904" lon="1.747">
        <ele>152.80000305176</ele>
        <time>2011-10-16T09:38:14.000Z</time>
      </trkpt>
      <trkpt lat="48.74905" lon="1.747">
        <ele>152.80000305176</ele>
        <time>2011-10-16T09:38:17.000Z</time>
      </trkpt>
      <trkpt lat="48.74908" lon="1.74699">
        <ele>153</ele>
        <time>2011-10-16T09:38:18.000Z</time>
      </trkpt>
      <trkpt lat="48.74903" lon="1.74695">
        <ele>152.60000610352</ele>
        <time>2011-10-16T09:38:25.000Z</time>
      </trkpt>
      <trkpt lat="48.749" lon="1.7469">
        <ele>152.19999694824</ele>
        <time>2011-10-16T09:38:36.000Z</time>
      </trkpt>
      <trkpt lat="48.74902" lon="1.74684">
        <ele>151.80000305176</ele>
        <time>2011-10-16T09:38:40.000Z</time>
      </trkpt>
      <trkpt lat="48.74903" lon="1.74669">
        <ele>151</ele>
        <time>2011-10-16T09:38:47.000Z</time>
      </trkpt>
      <trkpt lat="48.74907" lon="1.74652">
        <ele>150.80000305176</ele>
        <time>2011-10-16T09:38:55.000Z</time>
      </trkpt>
      <trkpt lat="48.74908" lon="1.74643">
        <ele>150.80000305176</ele>
        <time>2011-10-16T09:38:59.000Z</time>
      </trkpt>
      <trkpt lat="48.74911" lon="1.74638">
        <ele>150.60000610352</ele>
        <time>2011-10-16T09:39:02.000Z</time>
      </trkpt>
      <trkpt lat="48.74919" lon="1.74626">
        <ele>150.60000610352</ele>
        <time>2011-10-16T09:39:09.000Z</time>
      </trkpt>
      <trkpt lat="48.74919" lon="1.74624">
        <ele>150.80000305176</ele>
        <time>2011-10-16T09:39:10.000Z</time>
      </trkpt>
      <trkpt lat="48.7492" lon="1.74618">
        <ele>150.80000305176</ele>
        <time>2011-10-16T09:39:13.000Z</time>
      </trkpt>
      <trkpt lat="48.7493" lon="1.74609">
        <ele>152</ele>
        <time>2011-10-16T09:39:19.000Z</time>
      </trkpt>
      <trkpt lat="48.74937" lon="1.74601">
        <ele>152.80000305176</ele>
        <time>2011-10-16T09:39:24.000Z</time>
      </trkpt>
      <trkpt lat="48.74939" lon="1.74589">
        <ele>153</ele>
        <time>2011-10-16T09:39:30.000Z</time>
      </trkpt>
      <trkpt lat="48.74939" lon="1.74586">
        <ele>153</ele>
        <time>2011-10-16T09:39:32.000Z</time>
      </trkpt>
      <trkpt lat="48.74943" lon="1.74577">
        <ele>153.19999694824</ele>
        <time>2011-10-16T09:39:37.000Z</time>
      </trkpt>
      <trkpt lat="48.74945" lon="1.74573">
        <ele>153.39999389648</ele>
        <time>2011-10-16T09:39:39.000Z</time>
      </trkpt>
      <trkpt lat="48.74949" lon="1.74562">
        <ele>153.60000610352</ele>
        <time>2011-10-16T09:39:44.000Z</time>
      </trkpt>
      <trkpt lat="48.74955" lon="1.74548">
        <ele>154</ele>
        <time>2011-10-16T09:39:51.000Z</time>
      </trkpt>
      <trkpt lat="48.74965" lon="1.74535">
        <ele>154.60000610352</ele>
        <time>2011-10-16T09:39:58.000Z</time>
      </trkpt>
      <trkpt lat="48.74968" lon="1.74529">
        <ele>154.80000305176</ele>
        <time>2011-10-16T09:40:01.000Z</time>
      </trkpt>
      <trkpt lat="48.74974" lon="1.74522">
        <ele>155.19999694824</ele>
        <time>2011-10-16T09:40:05.000Z</time>
      </trkpt>
      <trkpt lat="48.74983" lon="1.74511">
        <ele>155.60000610352</ele>
        <time>2011-10-16T09:40:12.000Z</time>
      </trkpt>
      <trkpt lat="48.74986" lon="1.74498">
        <ele>155.39999389648</ele>
        <time>2011-10-16T09:40:18.000Z</time>
      </trkpt>
      <trkpt lat="48.74989" lon="1.74492">
        <ele>155.39999389648</ele>
        <time>2011-10-16T09:40:22.000Z</time>
      </trkpt>
      <trkpt lat="48.74995" lon="1.74479">
        <ele>155</ele>
        <time>2011-10-16T09:40:29.000Z</time>
      </trkpt>
      <trkpt lat="48.75001" lon="1.74468">
        <ele>154.80000305176</ele>
        <time>2011-10-16T09:40:35.000Z</time>
      </trkpt>
      <trkpt lat="48.75007" lon="1.74455">
        <ele>154.80000305176</ele>
        <time>2011-10-16T09:40:42.000Z</time>
      </trkpt>
      <trkpt lat="48.75011" lon="1.74444">
        <ele>154.60000610352</ele>
        <time>2011-10-16T09:40:48.000Z</time>
      </trkpt>
      <trkpt lat="48.75012" lon="1.74434">
        <ele>154.19999694824</ele>
        <time>2011-10-16T09:40:53.000Z</time>
      </trkpt>
      <trkpt lat="48.7501" lon="1.74422">
        <ele>152.80000305176</ele>
        <time>2011-10-16T09:40:58.000Z</time>
      </trkpt>
      <trkpt lat="48.75011" lon="1.74416">
        <ele>152.60000610352</ele>
        <time>2011-10-16T09:41:01.000Z</time>
      </trkpt>
      <trkpt lat="48.75007" lon="1.74397">
        <ele>151</ele>
        <time>2011-10-16T09:41:09.000Z</time>
      </trkpt>
      <trkpt lat="48.75004" lon="1.74385">
        <ele>150</ele>
        <time>2011-10-16T09:41:14.000Z</time>
      </trkpt>
      <trkpt lat="48.75009" lon="1.74371">
        <ele>150</ele>
        <time>2011-10-16T09:41:21.000Z</time>
      </trkpt>
      <trkpt lat="48.75021" lon="1.74359">
        <ele>150.80000305176</ele>
        <time>2011-10-16T09:41:28.000Z</time>
      </trkpt>
      <trkpt lat="48.75025" lon="1.74345">
        <ele>150.60000610352</ele>
        <time>2011-10-16T09:41:35.000Z</time>
      </trkpt>
      <trkpt lat="48.75027" lon="1.7434">
        <ele>150.39999389648</ele>
        <time>2011-10-16T09:41:38.000Z</time>
      </trkpt>
      <trkpt lat="48.75026" lon="1.74331">
        <ele>150</ele>
        <time>2011-10-16T09:41:42.000Z</time>
      </trkpt>
      <trkpt lat="48.75032" lon="1.7432">
        <ele>150.60000610352</ele>
        <time>2011-10-16T09:41:47.000Z</time>
      </trkpt>
      <trkpt lat="48.75035" lon="1.74308">
        <ele>150.80000305176</ele>
        <time>2011-10-16T09:41:53.000Z</time>
      </trkpt>
      <trkpt lat="48.75034" lon="1.74294">
        <ele>150.39999389648</ele>
        <time>2011-10-16T09:41:59.000Z</time>
      </trkpt>
      <trkpt lat="48.75034" lon="1.74291">
        <ele>150.39999389648</ele>
        <time>2011-10-16T09:42:00.000Z</time>
      </trkpt>
      <trkpt lat="48.7504" lon="1.7428">
        <ele>150.80000305176</ele>
        <time>2011-10-16T09:42:06.000Z</time>
      </trkpt>
      <trkpt lat="48.75045" lon="1.74268">
        <ele>151</ele>
        <time>2011-10-16T09:42:12.000Z</time>
      </trkpt>
      <trkpt lat="48.75048" lon="1.74256">
        <ele>151</ele>
        <time>2011-10-16T09:42:18.000Z</time>
      </trkpt>
      <trkpt lat="48.75052" lon="1.74247">
        <ele>151</ele>
        <time>2011-10-16T09:42:23.000Z</time>
      </trkpt>
      <trkpt lat="48.75053" lon="1.74238">
        <ele>150.80000305176</ele>
        <time>2011-10-16T09:42:28.000Z</time>
      </trkpt>
      <trkpt lat="48.75061" lon="1.74232">
        <ele>151</ele>
        <time>2011-10-16T09:42:33.000Z</time>
      </trkpt>
      <trkpt lat="48.75061" lon="1.74219">
        <ele>150.60000610352</ele>
        <time>2011-10-16T09:42:41.000Z</time>
      </trkpt>
      <trkpt lat="48.7506" lon="1.74214">
        <ele>150.39999389648</ele>
        <time>2011-10-16T09:42:43.000Z</time>
      </trkpt>
      <trkpt lat="48.75062" lon="1.74203">
        <ele>150.19999694824</ele>
        <time>2011-10-16T09:42:49.000Z</time>
      </trkpt>
      <trkpt lat="48.75063" lon="1.74202">
        <ele>150.19999694824</ele>
        <time>2011-10-16T09:42:50.000Z</time>
      </trkpt>
      <trkpt lat="48.75065" lon="1.74193">
        <ele>150</ele>
        <time>2011-10-16T09:42:55.000Z</time>
      </trkpt>
      <trkpt lat="48.75067" lon="1.74189">
        <ele>150</ele>
        <time>2011-10-16T09:42:57.000Z</time>
      </trkpt>
      <trkpt lat="48.75069" lon="1.7418">
        <ele>149.80000305176</ele>
        <time>2011-10-16T09:43:01.000Z</time>
      </trkpt>
      <trkpt lat="48.75071" lon="1.74169">
        <ele>149.60000610352</ele>
        <time>2011-10-16T09:43:06.000Z</time>
      </trkpt>
      <trkpt lat="48.75079" lon="1.74156">
        <ele>149.39999389648</ele>
        <time>2011-10-16T09:43:14.000Z</time>
      </trkpt>
      <trkpt lat="48.75084" lon="1.74145">
        <ele>149.60000610352</ele>
        <time>2011-10-16T09:43:20.000Z</time>
      </trkpt>
      <trkpt lat="48.75087" lon="1.74134">
        <ele>149.60000610352</ele>
        <time>2011-10-16T09:43:26.000Z</time>
      </trkpt>
      <trkpt lat="48.75088" lon="1.74119">
        <ele>149.60000610352</ele>
        <time>2011-10-16T09:43:33.000Z</time>
      </trkpt>
      <trkpt lat="48.75088" lon="1.74109">
        <ele>149.39999389648</ele>
        <time>2011-10-16T09:43:38.000Z</time>
      </trkpt>
      <trkpt lat="48.75089" lon="1.74108">
        <ele>149.39999389648</ele>
        <time>2011-10-16T09:43:40.000Z</time>
      </trkpt>
      <trkpt lat="48.7509" lon="1.74097">
        <ele>149.39999389648</ele>
        <time>2011-10-16T09:43:48.000Z</time>
      </trkpt>
      <trkpt lat="48.75091" lon="1.74083">
        <ele>149.19999694824</ele>
        <time>2011-10-16T09:43:54.000Z</time>
      </trkpt>
      <trkpt lat="48.75092" lon="1.74076">
        <ele>149.19999694824</ele>
        <time>2011-10-16T09:43:57.000Z</time>
      </trkpt>
      <trkpt lat="48.75091" lon="1.74062">
        <ele>148.60000610352</ele>
        <time>2011-10-16T09:44:03.000Z</time>
      </trkpt>
      <trkpt lat="48.7509" lon="1.74045">
        <ele>148</ele>
        <time>2011-10-16T09:44:11.000Z</time>
      </trkpt>
      <trkpt lat="48.75089" lon="1.74032">
        <ele>147.60000610352</ele>
        <time>2011-10-16T09:44:16.000Z</time>
      </trkpt>
      <trkpt lat="48.75089" lon="1.74018">
        <ele>147.19999694824</ele>
        <time>2011-10-16T09:44:23.000Z</time>
      </trkpt>
      <trkpt lat="48.75092" lon="1.74004">
        <ele>147.19999694824</ele>
        <time>2011-10-16T09:44:30.000Z</time>
      </trkpt>
      <trkpt lat="48.75098" lon="1.73994">
        <ele>147.39999389648</ele>
        <time>2011-10-16T09:44:37.000Z</time>
      </trkpt>
      <trkpt lat="48.75101" lon="1.73984">
        <ele>147.39999389648</ele>
        <time>2011-10-16T09:44:43.000Z</time>
      </trkpt>
      <trkpt lat="48.75105" lon="1.73975">
        <ele>147.19999694824</ele>
        <time>2011-10-16T09:44:49.000Z</time>
      </trkpt>
      <trkpt lat="48.75111" lon="1.73967">
        <ele>147.39999389648</ele>
        <time>2011-10-16T09:44:55.000Z</time>
      </trkpt>
      <trkpt lat="48.75115" lon="1.73962">
        <ele>147.39999389648</ele>
        <time>2011-10-16T09:44:59.000Z</time>
      </trkpt>
      <trkpt lat="48.75124" lon="1.73955">
        <ele>147.80000305176</ele>
        <time>2011-10-16T09:45:06.000Z</time>
      </trkpt>
      <trkpt lat="48.75133" lon="1.7395">
        <ele>148.19999694824</ele>
        <time>2011-10-16T09:45:13.000Z</time>
      </trkpt>
      <trkpt lat="48.75136" lon="1.73946">
        <ele>148.19999694824</ele>
        <time>2011-10-16T09:45:17.000Z</time>
      </trkpt>
      <trkpt lat="48.75143" lon="1.73939">
        <ele>148.19999694824</ele>
        <time>2011-10-16T09:45:24.000Z</time>
      </trkpt>
      <trkpt lat="48.75151" lon="1.73934">
        <ele>148.39999389648</ele>
        <time>2011-10-16T09:45:30.000Z</time>
      </trkpt>
      <trkpt lat="48.75162" lon="1.73928">
        <ele>148.60000610352</ele>
        <time>2011-10-16T09:45:38.000Z</time>
      </trkpt>
      <trkpt lat="48.75173" lon="1.73922">
        <ele>148.60000610352</ele>
        <time>2011-10-16T09:45:44.000Z</time>
      </trkpt>
      <trkpt lat="48.75183" lon="1.73917">
        <ele>148.80000305176</ele>
        <time>2011-10-16T09:45:50.000Z</time>
      </trkpt>
      <trkpt lat="48.75191" lon="1.73914">
        <ele>148.80000305176</ele>
        <time>2011-10-16T09:45:54.000Z</time>
      </trkpt>
      <trkpt lat="48.75198" lon="1.73911">
        <ele>149</ele>
        <time>2011-10-16T09:45:59.000Z</time>
      </trkpt>
      <trkpt lat="48.7521" lon="1.73905">
        <ele>149</ele>
        <time>2011-10-16T09:46:09.000Z</time>
      </trkpt>
      <trkpt lat="48.75215" lon="1.73901">
        <ele>149</ele>
        <time>2011-10-16T09:46:15.000Z</time>
      </trkpt>
      <trkpt lat="48.75215" lon="1.73899">
        <ele>148.80000305176</ele>
        <time>2011-10-16T09:46:16.000Z</time>
      </trkpt>
      <trkpt lat="48.7522" lon="1.73892">
        <ele>148.39999389648</ele>
        <time>2011-10-16T09:46:23.000Z</time>
      </trkpt>
      <trkpt lat="48.75227" lon="1.73883">
        <ele>147.80000305176</ele>
        <time>2011-10-16T09:46:30.000Z</time>
      </trkpt>
      <trkpt lat="48.75234" lon="1.73881">
        <ele>147.60000610352</ele>
        <time>2011-10-16T09:46:34.000Z</time>
      </trkpt>
      <trkpt lat="48.75242" lon="1.73878">
        <ele>147.60000610352</ele>
        <time>2011-10-16T09:46:41.000Z</time>
      </trkpt>
      <trkpt lat="48.75246" lon="1.73876">
        <ele>147.39999389648</ele>
        <time>2011-10-16T09:46:46.000Z</time>
      </trkpt>
      <trkpt lat="48.75253" lon="1.73875">
        <ele>147.19999694824</ele>
        <time>2011-10-16T09:46:50.000Z</time>
      </trkpt>
      <trkpt lat="48.75261" lon="1.7387">
        <ele>146</ele>
        <time>2011-10-16T09:46:58.000Z</time>
      </trkpt>
      <trkpt lat="48.7527" lon="1.7387">
        <ele>145.19999694824</ele>
        <time>2011-10-16T09:47:03.000Z</time>
      </trkpt>
      <trkpt lat="48.75277" lon="1.73874">
        <ele>144.80000305176</ele>
        <time>2011-10-16T09:47:09.000Z</time>
      </trkpt>
      <trkpt lat="48.75282" lon="1.73874">
        <ele>144.39999389648</ele>
        <time>2011-10-16T09:47:15.000Z</time>
      </trkpt>
      <trkpt lat="48.75283" lon="1.73865">
        <ele>143.60000610352</ele>
        <time>2011-10-16T09:47:22.000Z</time>
      </trkpt>
      <trkpt lat="48.75283" lon="1.73859">
        <ele>143</ele>
        <time>2011-10-16T09:47:24.000Z</time>
      </trkpt>
      <trkpt lat="48.75283" lon="1.73856">
        <ele>142.60000610352</ele>
        <time>2011-10-16T09:47:26.000Z</time>
      </trkpt>
      <trkpt lat="48.7528" lon="1.7385">
        <ele>142.39999389648</ele>
        <time>2011-10-16T09:47:30.000Z</time>
      </trkpt>
      <trkpt lat="48.75274" lon="1.73842">
        <ele>142</ele>
        <time>2011-10-16T09:47:36.000Z</time>
      </trkpt>
      <trkpt lat="48.75274" lon="1.73839">
        <ele>141.60000610352</ele>
        <time>2011-10-16T09:47:39.000Z</time>
      </trkpt>
      <trkpt lat="48.75275" lon="1.73831">
        <ele>141</ele>
        <time>2011-10-16T09:47:44.000Z</time>
      </trkpt>
      <trkpt lat="48.75276" lon="1.7382">
        <ele>140.39999389648</ele>
        <time>2011-10-16T09:47:50.000Z</time>
      </trkpt>
      <trkpt lat="48.75275" lon="1.73814">
        <ele>140.19999694824</ele>
        <time>2011-10-16T09:47:57.000Z</time>
      </trkpt>
      <trkpt lat="48.75272" lon="1.73811">
        <ele>140.19999694824</ele>
        <time>2011-10-16T09:48:02.000Z</time>
      </trkpt>
      <trkpt lat="48.75273" lon="1.73811">
        <ele>140.19999694824</ele>
        <time>2011-10-16T09:48:06.000Z</time>
      </trkpt>
      <trkpt lat="48.75274" lon="1.73818">
        <ele>140.39999389648</ele>
        <time>2011-10-16T09:48:18.000Z</time>
      </trkpt>
      <trkpt lat="48.75278" lon="1.73818">
        <ele>140.19999694824</ele>
        <time>2011-10-16T09:48:20.000Z</time>
      </trkpt>
      <trkpt lat="48.75278" lon="1.73818">
        <ele>140.19999694824</ele>
        <time>2011-10-16T09:48:23.000Z</time>
      </trkpt>
      <trkpt lat="48.75273" lon="1.73818">
        <ele>140.60000610352</ele>
        <time>2011-10-16T09:48:28.000Z</time>
      </trkpt>
      <trkpt lat="48.75268" lon="1.73816">
        <ele>140.80000305176</ele>
        <time>2011-10-16T09:48:37.000Z</time>
      </trkpt>
      <trkpt lat="48.75276" lon="1.73818">
        <ele>140.39999389648</ele>
        <time>2011-10-16T09:48:49.000Z</time>
      </trkpt>
      <trkpt lat="48.75277" lon="1.73816">
        <ele>140.19999694824</ele>
        <time>2011-10-16T09:48:58.000Z</time>
      </trkpt>
      <trkpt lat="48.75278" lon="1.73816">
        <ele>140.19999694824</ele>
        <time>2011-10-16T09:48:59.000Z</time>
      </trkpt>
      <trkpt lat="48.7527" lon="1.73815">
        <ele>140.60000610352</ele>
        <time>2011-10-16T09:49:10.000Z</time>
      </trkpt>
      <trkpt lat="48.7527" lon="1.73815">
        <ele>140.60000610352</ele>
        <time>2011-10-16T09:49:11.000Z</time>
      </trkpt>
      <trkpt lat="48.75275" lon="1.73821">
        <ele>140.60000610352</ele>
        <time>2011-10-16T09:49:43.000Z</time>
      </trkpt>
      <trkpt lat="48.75277" lon="1.73821">
        <ele>140.39999389648</ele>
        <time>2011-10-16T09:49:48.000Z</time>
      </trkpt>
      <trkpt lat="48.75275" lon="1.73822">
        <ele>140.60000610352</ele>
        <time>2011-10-16T09:49:54.000Z</time>
      </trkpt>
      <trkpt lat="48.75272" lon="1.73821">
        <ele>140.80000305176</ele>
        <time>2011-10-16T09:50:06.000Z</time>
      </trkpt>
      <trkpt lat="48.75275" lon="1.73818">
        <ele>140.39999389648</ele>
        <time>2011-10-16T09:50:13.000Z</time>
      </trkpt>
      <trkpt lat="48.75287" lon="1.73821">
        <ele>139.80000305176</ele>
        <time>2011-10-16T09:50:21.000Z</time>
      </trkpt>
      <trkpt lat="48.75291" lon="1.73822">
        <ele>139.39999389648</ele>
        <time>2011-10-16T09:50:29.000Z</time>
      </trkpt>
      <trkpt lat="48.753" lon="1.73817">
        <ele>138.60000610352</ele>
        <time>2011-10-16T09:50:33.000Z</time>
      </trkpt>
      <trkpt lat="48.75303" lon="1.73814">
        <ele>138.39999389648</ele>
        <time>2011-10-16T09:50:35.000Z</time>
      </trkpt>
      <trkpt lat="48.75298" lon="1.73815">
        <ele>138.60000610352</ele>
        <time>2011-10-16T09:50:43.000Z</time>
      </trkpt>
      <trkpt lat="48.75296" lon="1.73818">
        <ele>139</ele>
        <time>2011-10-16T09:50:46.000Z</time>
      </trkpt>
      <trkpt lat="48.75292" lon="1.73826">
        <ele>139.60000610352</ele>
        <time>2011-10-16T09:50:50.000Z</time>
      </trkpt>
      <trkpt lat="48.75286" lon="1.73835">
        <ele>140.39999389648</ele>
        <time>2011-10-16T09:50:56.000Z</time>
      </trkpt>
      <trkpt lat="48.75285" lon="1.73839">
        <ele>140.80000305176</ele>
        <time>2011-10-16T09:51:08.000Z</time>
      </trkpt>
      <trkpt lat="48.75289" lon="1.73846">
        <ele>141.19999694824</ele>
        <time>2011-10-16T09:51:13.000Z</time>
      </trkpt>
      <trkpt lat="48.7529" lon="1.73854">
        <ele>142</ele>
        <time>2011-10-16T09:51:17.000Z</time>
      </trkpt>
      <trkpt lat="48.75289" lon="1.73857">
        <ele>142.19999694824</ele>
        <time>2011-10-16T09:51:19.000Z</time>
      </trkpt>
      <trkpt lat="48.7529" lon="1.73871">
        <ele>143.39999389648</ele>
        <time>2011-10-16T09:51:26.000Z</time>
      </trkpt>
      <trkpt lat="48.75292" lon="1.73873">
        <ele>143.39999389648</ele>
        <time>2011-10-16T09:51:30.000Z</time>
      </trkpt>
      <trkpt lat="48.75302" lon="1.73886">
        <ele>143.60000610352</ele>
        <time>2011-10-16T09:51:48.000Z</time>
      </trkpt>
      <trkpt lat="48.75306" lon="1.7389">
        <ele>143.60000610352</ele>
        <time>2011-10-16T09:51:52.000Z</time>
      </trkpt>
      <trkpt lat="48.75311" lon="1.73894">
        <ele>143.39999389648</ele>
        <time>2011-10-16T09:51:56.000Z</time>
      </trkpt>
      <trkpt lat="48.75316" lon="1.739">
        <ele>143.39999389648</ele>
        <time>2011-10-16T09:52:01.000Z</time>
      </trkpt>
      <trkpt lat="48.75325" lon="1.73909">
        <ele>143.19999694824</ele>
        <time>2011-10-16T09:52:08.000Z</time>
      </trkpt>
      <trkpt lat="48.7533" lon="1.73915">
        <ele>143</ele>
        <time>2011-10-16T09:52:12.000Z</time>
      </trkpt>
      <trkpt lat="48.75338" lon="1.73926">
        <ele>143</ele>
        <time>2011-10-16T09:52:18.000Z</time>
      </trkpt>
      <trkpt lat="48.75346" lon="1.7394">
        <ele>143.19999694824</ele>
        <time>2011-10-16T09:52:24.000Z</time>
      </trkpt>
      <trkpt lat="48.75351" lon="1.73951">
        <ele>143.39999389648</ele>
        <time>2011-10-16T09:52:29.000Z</time>
      </trkpt>
      <trkpt lat="48.75352" lon="1.73966">
        <ele>144.19999694824</ele>
        <time>2011-10-16T09:52:35.000Z</time>
      </trkpt>
      <trkpt lat="48.75353" lon="1.73973">
        <ele>144.39999389648</ele>
        <time>2011-10-16T09:52:38.000Z</time>
      </trkpt>
      <trkpt lat="48.75354" lon="1.73975">
        <ele>144.39999389648</ele>
        <time>2011-10-16T09:52:39.000Z</time>
      </trkpt>
      <trkpt lat="48.75351" lon="1.73993">
        <ele>145.39999389648</ele>
        <time>2011-10-16T09:52:48.000Z</time>
      </trkpt>
      <trkpt lat="48.75353" lon="1.73998">
        <ele>145.60000610352</ele>
        <time>2011-10-16T09:52:50.000Z</time>
      </trkpt>
      <trkpt lat="48.75352" lon="1.74001">
        <ele>145.80000305176</ele>
        <time>2011-10-16T09:52:52.000Z</time>
      </trkpt>
      <trkpt lat="48.75354" lon="1.74012">
        <ele>146.39999389648</ele>
        <time>2011-10-16T09:52:59.000Z</time>
      </trkpt>
      <trkpt lat="48.75358" lon="1.74016">
        <ele>146.60000610352</ele>
        <time>2011-10-16T09:53:04.000Z</time>
      </trkpt>
      <trkpt lat="48.7536" lon="1.74021">
        <ele>146.80000305176</ele>
        <time>2011-10-16T09:53:09.000Z</time>
      </trkpt>
      <trkpt lat="48.75364" lon="1.74028">
        <ele>147.19999694824</ele>
        <time>2011-10-16T09:53:13.000Z</time>
      </trkpt>
      <trkpt lat="48.75369" lon="1.7403">
        <ele>147.19999694824</ele>
        <time>2011-10-16T09:53:15.000Z</time>
      </trkpt>
      <trkpt lat="48.75379" lon="1.74037">
        <ele>147.60000610352</ele>
        <time>2011-10-16T09:53:19.000Z</time>
      </trkpt>
      <trkpt lat="48.75386" lon="1.74041">
        <ele>147.80000305176</ele>
        <time>2011-10-16T09:53:22.000Z</time>
      </trkpt>
      <trkpt lat="48.754" lon="1.7405">
        <ele>148</ele>
        <time>2011-10-16T09:53:28.000Z</time>
      </trkpt>
      <trkpt lat="48.75401" lon="1.74049">
        <ele>148</ele>
        <time>2011-10-16T09:53:34.000Z</time>
      </trkpt>
      <trkpt lat="48.75407" lon="1.74054">
        <ele>148.19999694824</ele>
        <time>2011-10-16T09:53:39.000Z</time>
      </trkpt>
      <trkpt lat="48.75414" lon="1.74066">
        <ele>149</ele>
        <time>2011-10-16T09:53:46.000Z</time>
      </trkpt>
      <trkpt lat="48.75422" lon="1.74077">
        <ele>149.60000610352</ele>
        <time>2011-10-16T09:53:53.000Z</time>
      </trkpt>
      <trkpt lat="48.75424" lon="1.74083">
        <ele>150.19999694824</ele>
        <time>2011-10-16T09:53:57.000Z</time>
      </trkpt>
      <trkpt lat="48.75439" lon="1.74092">
        <ele>151.39999389648</ele>
        <time>2011-10-16T09:54:05.000Z</time>
      </trkpt>
      <trkpt lat="48.75446" lon="1.741">
        <ele>152.19999694824</ele>
        <time>2011-10-16T09:54:12.000Z</time>
      </trkpt>
      <trkpt lat="48.75444" lon="1.74105">
        <ele>152.60000610352</ele>
        <time>2011-10-16T09:54:17.000Z</time>
      </trkpt>
      <trkpt lat="48.7545" lon="1.74113">
        <ele>153.19999694824</ele>
        <time>2011-10-16T09:54:23.000Z</time>
      </trkpt>
      <trkpt lat="48.75462" lon="1.7412">
        <ele>153.80000305176</ele>
        <time>2011-10-16T09:54:27.000Z</time>
      </trkpt>
      <trkpt lat="48.75473" lon="1.7413">
        <ele>154.60000610352</ele>
        <time>2011-10-16T09:54:34.000Z</time>
      </trkpt>
      <trkpt lat="48.75477" lon="1.74134">
        <ele>154.80000305176</ele>
        <time>2011-10-16T09:54:39.000Z</time>
      </trkpt>
      <trkpt lat="48.75484" lon="1.7414">
        <ele>155</ele>
        <time>2011-10-16T09:54:42.000Z</time>
      </trkpt>
      <trkpt lat="48.75488" lon="1.74157">
        <ele>155.80000305176</ele>
        <time>2011-10-16T09:54:50.000Z</time>
      </trkpt>
      <trkpt lat="48.75481" lon="1.74173">
        <ele>156.80000305176</ele>
        <time>2011-10-16T09:54:58.000Z</time>
      </trkpt>
      <trkpt lat="48.7548" lon="1.74183">
        <ele>157.80000305176</ele>
        <time>2011-10-16T09:55:04.000Z</time>
      </trkpt>
      <trkpt lat="48.75481" lon="1.74196">
        <ele>158.60000610352</ele>
        <time>2011-10-16T09:55:10.000Z</time>
      </trkpt>
      <trkpt lat="48.75475" lon="1.74203">
        <ele>159.60000610352</ele>
        <time>2011-10-16T09:55:15.000Z</time>
      </trkpt>
      <trkpt lat="48.75474" lon="1.74222">
        <ele>161.39999389648</ele>
        <time>2011-10-16T09:55:24.000Z</time>
      </trkpt>
      <trkpt lat="48.75472" lon="1.74232">
        <ele>162.39999389648</ele>
        <time>2011-10-16T09:55:28.000Z</time>
      </trkpt>
      <trkpt lat="48.75469" lon="1.74251">
        <ele>164.39999389648</ele>
        <time>2011-10-16T09:55:36.000Z</time>
      </trkpt>
      <trkpt lat="48.75466" lon="1.74269">
        <ele>165.80000305176</ele>
        <time>2011-10-16T09:55:45.000Z</time>
      </trkpt>
      <trkpt lat="48.75468" lon="1.74277">
        <ele>166.19999694824</ele>
        <time>2011-10-16T09:55:50.000Z</time>
      </trkpt>
      <trkpt lat="48.75466" lon="1.74282">
        <ele>166.60000610352</ele>
        <time>2011-10-16T09:55:52.000Z</time>
      </trkpt>
      <trkpt lat="48.75465" lon="1.74299">
        <ele>168</ele>
        <time>2011-10-16T09:56:01.000Z</time>
      </trkpt>
      <trkpt lat="48.75466" lon="1.74313">
        <ele>168.80000305176</ele>
        <time>2011-10-16T09:56:08.000Z</time>
      </trkpt>
      <trkpt lat="48.75469" lon="1.74323">
        <ele>169.19999694824</ele>
        <time>2011-10-16T09:56:13.000Z</time>
      </trkpt>
      <trkpt lat="48.75466" lon="1.74336">
        <ele>170.39999389648</ele>
        <time>2011-10-16T09:56:19.000Z</time>
      </trkpt>
      <trkpt lat="48.75465" lon="1.74349">
        <ele>171.60000610352</ele>
        <time>2011-10-16T09:56:25.000Z</time>
      </trkpt>
      <trkpt lat="48.75465" lon="1.74351">
        <ele>171.60000610352</ele>
        <time>2011-10-16T09:56:26.000Z</time>
      </trkpt>
      <trkpt lat="48.75471" lon="1.7437">
        <ele>172.80000305176</ele>
        <time>2011-10-16T09:56:35.000Z</time>
      </trkpt>
      <trkpt lat="48.75471" lon="1.7438">
        <ele>173.60000610352</ele>
        <time>2011-10-16T09:56:39.000Z</time>
      </trkpt>
      <trkpt lat="48.75468" lon="1.74396">
        <ele>175</ele>
        <time>2011-10-16T09:56:46.000Z</time>
      </trkpt>
      <trkpt lat="48.75465" lon="1.74411">
        <ele>176.39999389648</ele>
        <time>2011-10-16T09:56:53.000Z</time>
      </trkpt>
      <trkpt lat="48.75465" lon="1.7442">
        <ele>177</ele>
        <time>2011-10-16T09:56:58.000Z</time>
      </trkpt>
      <trkpt lat="48.75475" lon="1.74434">
        <ele>178.19999694824</ele>
        <time>2011-10-16T09:57:04.000Z</time>
      </trkpt>
      <trkpt lat="48.75477" lon="1.74438">
        <ele>178.60000610352</ele>
        <time>2011-10-16T09:57:06.000Z</time>
      </trkpt>
      <trkpt lat="48.75476" lon="1.74456">
        <ele>180.39999389648</ele>
        <time>2011-10-16T09:57:14.000Z</time>
      </trkpt>
      <trkpt lat="48.75478" lon="1.7447">
        <ele>181.60000610352</ele>
        <time>2011-10-16T09:57:20.000Z</time>
      </trkpt>
      <trkpt lat="48.75476" lon="1.74485">
        <ele>183.19999694824</ele>
        <time>2011-10-16T09:57:26.000Z</time>
      </trkpt>
      <trkpt lat="48.75481" lon="1.74498">
        <ele>184.39999389648</ele>
        <time>2011-10-16T09:57:32.000Z</time>
      </trkpt>
      <trkpt lat="48.75486" lon="1.74512">
        <ele>185.19999694824</ele>
        <time>2011-10-16T09:57:39.000Z</time>
      </trkpt>
      <trkpt lat="48.75487" lon="1.74519">
        <ele>185.60000610352</ele>
        <time>2011-10-16T09:57:43.000Z</time>
      </trkpt>
      <trkpt lat="48.75482" lon="1.74528">
        <ele>185.80000305176</ele>
        <time>2011-10-16T09:57:49.000Z</time>
      </trkpt>
      <trkpt lat="48.75485" lon="1.7453">
        <ele>186</ele>
        <time>2011-10-16T09:57:55.000Z</time>
      </trkpt>
      <trkpt lat="48.75482" lon="1.74534">
        <ele>186.19999694824</ele>
        <time>2011-10-16T09:58:01.000Z</time>
      </trkpt>
      <trkpt lat="48.75469" lon="1.74542">
        <ele>186.60000610352</ele>
        <time>2011-10-16T09:58:07.000Z</time>
      </trkpt>
      <trkpt lat="48.75454" lon="1.74551">
        <ele>187.19999694824</ele>
        <time>2011-10-16T09:58:13.000Z</time>
      </trkpt>
      <trkpt lat="48.75444" lon="1.74561">
        <ele>188</ele>
        <time>2011-10-16T09:58:19.000Z</time>
      </trkpt>
      <trkpt lat="48.75443" lon="1.7457">
        <ele>188.39999389648</ele>
        <time>2011-10-16T09:58:24.000Z</time>
      </trkpt>
      <trkpt lat="48.75436" lon="1.74579">
        <ele>189.19999694824</ele>
        <time>2011-10-16T09:58:30.000Z</time>
      </trkpt>
      <trkpt lat="48.75433" lon="1.74582">
        <ele>189.39999389648</ele>
        <time>2011-10-16T09:58:34.000Z</time>
      </trkpt>
      <trkpt lat="48.75428" lon="1.74588">
        <ele>189.80000305176</ele>
        <time>2011-10-16T09:58:39.000Z</time>
      </trkpt>
      <trkpt lat="48.75426" lon="1.7459">
        <ele>190</ele>
        <time>2011-10-16T09:58:41.000Z</time>
      </trkpt>
      <trkpt lat="48.75421" lon="1.746">
        <ele>190.39999389648</ele>
        <time>2011-10-16T09:58:47.000Z</time>
      </trkpt>
      <trkpt lat="48.75422" lon="1.74612">
        <ele>190.80000305176</ele>
        <time>2011-10-16T09:58:53.000Z</time>
      </trkpt>
      <trkpt lat="48.7541" lon="1.74623">
        <ele>191</ele>
        <time>2011-10-16T09:59:00.000Z</time>
      </trkpt>
      <trkpt lat="48.75407" lon="1.74635">
        <ele>191.19999694824</ele>
        <time>2011-10-16T09:59:06.000Z</time>
      </trkpt>
      <trkpt lat="48.75409" lon="1.74643">
        <ele>191.60000610352</ele>
        <time>2011-10-16T09:59:11.000Z</time>
      </trkpt>
      <trkpt lat="48.75413" lon="1.74654">
        <ele>192.19999694824</ele>
        <time>2011-10-16T09:59:17.000Z</time>
      </trkpt>
      <trkpt lat="48.7542" lon="1.74665">
        <ele>192.80000305176</ele>
        <time>2011-10-16T09:59:21.000Z</time>
      </trkpt>
      <trkpt lat="48.75417" lon="1.74675">
        <ele>192.80000305176</ele>
        <time>2011-10-16T09:59:26.000Z</time>
      </trkpt>
      <trkpt lat="48.7541" lon="1.74687">
        <ele>192.39999389648</ele>
        <time>2011-10-16T09:59:31.000Z</time>
      </trkpt>
      <trkpt lat="48.75405" lon="1.74693">
        <ele>192</ele>
        <time>2011-10-16T09:59:34.000Z</time>
      </trkpt>
      <trkpt lat="48.75391" lon="1.74703">
        <ele>191.39999389648</ele>
        <time>2011-10-16T09:59:39.000Z</time>
      </trkpt>
      <trkpt lat="48.75384" lon="1.74712">
        <ele>191.19999694824</ele>
        <time>2011-10-16T09:59:44.000Z</time>
      </trkpt>
      <trkpt lat="48.75372" lon="1.74723">
        <ele>191</ele>
        <time>2011-10-16T09:59:50.000Z</time>
      </trkpt>
      <trkpt lat="48.75366" lon="1.74728">
        <ele>191</ele>
        <time>2011-10-16T09:59:53.000Z</time>
      </trkpt>
      <trkpt lat="48.75365" lon="1.7474">
        <ele>191</ele>
        <time>2011-10-16T09:59:58.000Z</time>
      </trkpt>
      <trkpt lat="48.75364" lon="1.74754">
        <ele>191.19999694824</ele>
        <time>2011-10-16T10:00:05.000Z</time>
      </trkpt>
      <trkpt lat="48.75364" lon="1.74768">
        <ele>191</ele>
        <time>2011-10-16T10:00:12.000Z</time>
      </trkpt>
      <trkpt lat="48.75362" lon="1.74776">
        <ele>191</ele>
        <time>2011-10-16T10:00:16.000Z</time>
      </trkpt>
      <trkpt lat="48.75365" lon="1.74786">
        <ele>190.80000305176</ele>
        <time>2011-10-16T10:00:21.000Z</time>
      </trkpt>
      <trkpt lat="48.75357" lon="1.748">
        <ele>190.60000610352</ele>
        <time>2011-10-16T10:00:27.000Z</time>
      </trkpt>
      <trkpt lat="48.75357" lon="1.74815">
        <ele>190.39999389648</ele>
        <time>2011-10-16T10:00:34.000Z</time>
      </trkpt>
      <trkpt lat="48.75353" lon="1.74829">
        <ele>190.19999694824</ele>
        <time>2011-10-16T10:00:40.000Z</time>
      </trkpt>
      <trkpt lat="48.75345" lon="1.74847">
        <ele>189.80000305176</ele>
        <time>2011-10-16T10:00:47.000Z</time>
      </trkpt>
      <trkpt lat="48.75341" lon="1.74864">
        <ele>189.60000610352</ele>
        <time>2011-10-16T10:00:54.000Z</time>
      </trkpt>
      <trkpt lat="48.75333" lon="1.74882">
        <ele>189.39999389648</ele>
        <time>2011-10-16T10:01:02.000Z</time>
      </trkpt>
      <trkpt lat="48.7533" lon="1.74897">
        <ele>189.19999694824</ele>
        <time>2011-10-16T10:01:09.000Z</time>
      </trkpt>
      <trkpt lat="48.7532" lon="1.74913">
        <ele>189</ele>
        <time>2011-10-16T10:01:16.000Z</time>
      </trkpt>
      <trkpt lat="48.75314" lon="1.74919">
        <ele>189.19999694824</ele>
        <time>2011-10-16T10:01:22.000Z</time>
      </trkpt>
      <trkpt lat="48.75312" lon="1.74919">
        <ele>189.19999694824</ele>
        <time>2011-10-16T10:01:27.000Z</time>
      </trkpt>
      <trkpt lat="48.75313" lon="1.74922">
        <ele>189.19999694824</ele>
        <time>2011-10-16T10:01:32.000Z</time>
      </trkpt>
      <trkpt lat="48.75314" lon="1.74928">
        <ele>189.19999694824</ele>
        <time>2011-10-16T10:01:37.000Z</time>
      </trkpt>
      <trkpt lat="48.75315" lon="1.74932">
        <ele>189.19999694824</ele>
        <time>2011-10-16T10:01:38.000Z</time>
      </trkpt>
      <trkpt lat="48.75323" lon="1.74948">
        <ele>189</ele>
        <time>2011-10-16T10:01:45.000Z</time>
      </trkpt>
      <trkpt lat="48.75319" lon="1.74962">
        <ele>189.19999694824</ele>
        <time>2011-10-16T10:01:52.000Z</time>
      </trkpt>
      <trkpt lat="48.75309" lon="1.74977">
        <ele>189.39999389648</ele>
        <time>2011-10-16T10:02:00.000Z</time>
      </trkpt>
      <trkpt lat="48.75309" lon="1.74988">
        <ele>189.39999389648</ele>
        <time>2011-10-16T10:02:05.000Z</time>
      </trkpt>
      <trkpt lat="48.75309" lon="1.74992">
        <ele>189.39999389648</ele>
        <time>2011-10-16T10:02:07.000Z</time>
      </trkpt>
      <trkpt lat="48.75301" lon="1.75005">
        <ele>189.60000610352</ele>
        <time>2011-10-16T10:02:13.000Z</time>
      </trkpt>
      <trkpt lat="48.753" lon="1.75007">
        <ele>189.60000610352</ele>
        <time>2011-10-16T10:02:14.000Z</time>
      </trkpt>
      <trkpt lat="48.75297" lon="1.75013">
        <ele>189.60000610352</ele>
        <time>2011-10-16T10:02:17.000Z</time>
      </trkpt>
      <trkpt lat="48.7529" lon="1.75025">
        <ele>189.80000305176</ele>
        <time>2011-10-16T10:02:23.000Z</time>
      </trkpt>
      <trkpt lat="48.75281" lon="1.75044">
        <ele>189.80000305176</ele>
        <time>2011-10-16T10:02:31.000Z</time>
      </trkpt>
      <trkpt lat="48.75276" lon="1.75056">
        <ele>189.80000305176</ele>
        <time>2011-10-16T10:02:37.000Z</time>
      </trkpt>
      <trkpt lat="48.75274" lon="1.75074">
        <ele>189.60000610352</ele>
        <time>2011-10-16T10:02:45.000Z</time>
      </trkpt>
      <trkpt lat="48.75268" lon="1.75088">
        <ele>189.80000305176</ele>
        <time>2011-10-16T10:02:52.000Z</time>
      </trkpt>
      <trkpt lat="48.75266" lon="1.751">
        <ele>190</ele>
        <time>2011-10-16T10:02:58.000Z</time>
      </trkpt>
      <trkpt lat="48.75264" lon="1.75115">
        <ele>190.19999694824</ele>
        <time>2011-10-16T10:03:04.000Z</time>
      </trkpt>
      <trkpt lat="48.75261" lon="1.75135">
        <ele>190.39999389648</ele>
        <time>2011-10-16T10:03:12.000Z</time>
      </trkpt>
      <trkpt lat="48.75253" lon="1.7515">
        <ele>190.60000610352</ele>
        <time>2011-10-16T10:03:20.000Z</time>
      </trkpt>
      <trkpt lat="48.75247" lon="1.75167">
        <ele>190.80000305176</ele>
        <time>2011-10-16T10:03:27.000Z</time>
      </trkpt>
      <trkpt lat="48.75238" lon="1.7518">
        <ele>190.60000610352</ele>
        <time>2011-10-16T10:03:33.000Z</time>
      </trkpt>
      <trkpt lat="48.75229" lon="1.75199">
        <ele>190.39999389648</ele>
        <time>2011-10-16T10:03:42.000Z</time>
      </trkpt>
      <trkpt lat="48.75229" lon="1.75203">
        <ele>190.39999389648</ele>
        <time>2011-10-16T10:03:47.000Z</time>
      </trkpt>
      <trkpt lat="48.75229" lon="1.75205">
        <ele>190.39999389648</ele>
        <time>2011-10-16T10:03:51.000Z</time>
      </trkpt>
      <trkpt lat="48.7523" lon="1.75212">
        <ele>190.19999694824</ele>
        <time>2011-10-16T10:03:59.000Z</time>
      </trkpt>
      <trkpt lat="48.75229" lon="1.75214">
        <ele>190.19999694824</ele>
        <time>2011-10-16T10:04:03.000Z</time>
      </trkpt>
      <trkpt lat="48.75226" lon="1.75219">
        <ele>190.19999694824</ele>
        <time>2011-10-16T10:04:11.000Z</time>
      </trkpt>
      <trkpt lat="48.7522" lon="1.75232">
        <ele>190</ele>
        <time>2011-10-16T10:04:17.000Z</time>
      </trkpt>
      <trkpt lat="48.75217" lon="1.75244">
        <ele>190</ele>
        <time>2011-10-16T10:04:23.000Z</time>
      </trkpt>
      <trkpt lat="48.75214" lon="1.75254">
        <ele>190</ele>
        <time>2011-10-16T10:04:28.000Z</time>
      </trkpt>
      <trkpt lat="48.75211" lon="1.75267">
        <ele>190</ele>
        <time>2011-10-16T10:04:35.000Z</time>
      </trkpt>
      <trkpt lat="48.75215" lon="1.75281">
        <ele>190.19999694824</ele>
        <time>2011-10-16T10:04:41.000Z</time>
      </trkpt>
      <trkpt lat="48.75213" lon="1.75289">
        <ele>190.19999694824</ele>
        <time>2011-10-16T10:04:46.000Z</time>
      </trkpt>
      <trkpt lat="48.75213" lon="1.75291">
        <ele>190.19999694824</ele>
        <time>2011-10-16T10:04:47.000Z</time>
      </trkpt>
      <trkpt lat="48.75209" lon="1.753">
        <ele>190.19999694824</ele>
        <time>2011-10-16T10:04:52.000Z</time>
      </trkpt>
      <trkpt lat="48.75215" lon="1.75323">
        <ele>190.39999389648</ele>
        <time>2011-10-16T10:05:02.000Z</time>
      </trkpt>
      <trkpt lat="48.75216" lon="1.7534">
        <ele>190.60000610352</ele>
        <time>2011-10-16T10:05:10.000Z</time>
      </trkpt>
      <trkpt lat="48.75213" lon="1.75344">
        <ele>190.60000610352</ele>
        <time>2011-10-16T10:05:12.000Z</time>
      </trkpt>
      <trkpt lat="48.752" lon="1.7536">
        <ele>190.39999389648</ele>
        <time>2011-10-16T10:05:20.000Z</time>
      </trkpt>
      <trkpt lat="48.75187" lon="1.75372">
        <ele>190.19999694824</ele>
        <time>2011-10-16T10:05:26.000Z</time>
      </trkpt>
      <trkpt lat="48.75184" lon="1.75375">
        <ele>190.19999694824</ele>
        <time>2011-10-16T10:05:31.000Z</time>
      </trkpt>
      <trkpt lat="48.75185" lon="1.75384">
        <ele>190.19999694824</ele>
        <time>2011-10-16T10:05:40.000Z</time>
      </trkpt>
      <trkpt lat="48.75186" lon="1.75385">
        <ele>190.19999694824</ele>
        <time>2011-10-16T10:05:41.000Z</time>
      </trkpt>
      <trkpt lat="48.75187" lon="1.75392">
        <ele>190.39999389648</ele>
        <time>2011-10-16T10:05:44.000Z</time>
      </trkpt>
      <trkpt lat="48.75181" lon="1.75394">
        <ele>190.19999694824</ele>
        <time>2011-10-16T10:05:51.000Z</time>
      </trkpt>
      <trkpt lat="48.75178" lon="1.75396">
        <ele>190.19999694824</ele>
        <time>2011-10-16T10:05:58.000Z</time>
      </trkpt>
      <trkpt lat="48.75179" lon="1.75398">
        <ele>190.19999694824</ele>
        <time>2011-10-16T10:06:03.000Z</time>
      </trkpt>
      <trkpt lat="48.75182" lon="1.75395">
        <ele>190.19999694824</ele>
        <time>2011-10-16T10:06:13.000Z</time>
      </trkpt>
      <trkpt lat="48.75191" lon="1.75395">
        <ele>190.39999389648</ele>
        <time>2011-10-16T10:06:20.000Z</time>
      </trkpt>
      <trkpt lat="48.75199" lon="1.75395">
        <ele>190.60000610352</ele>
        <time>2011-10-16T10:06:27.000Z</time>
      </trkpt>
      <trkpt lat="48.75209" lon="1.75392">
        <ele>190.80000305176</ele>
        <time>2011-10-16T10:06:33.000Z</time>
      </trkpt>
      <trkpt lat="48.75204" lon="1.75395">
        <ele>190.60000610352</ele>
        <time>2011-10-16T10:06:37.000Z</time>
      </trkpt>
      <trkpt lat="48.75204" lon="1.75396">
        <ele>190.60000610352</ele>
        <time>2011-10-16T10:06:40.000Z</time>
      </trkpt>
      <trkpt lat="48.75208" lon="1.75398">
        <ele>190.80000305176</ele>
        <time>2011-10-16T10:06:48.000Z</time>
      </trkpt>
      <trkpt lat="48.75214" lon="1.75402">
        <ele>191</ele>
        <time>2011-10-16T10:06:52.000Z</time>
      </trkpt>
      <trkpt lat="48.75219" lon="1.75404">
        <ele>191</ele>
        <time>2011-10-16T10:06:57.000Z</time>
      </trkpt>
      <trkpt lat="48.75228" lon="1.75406">
        <ele>191.19999694824</ele>
        <time>2011-10-16T10:07:04.000Z</time>
      </trkpt>
      <trkpt lat="48.75239" lon="1.75407">
        <ele>191.60000610352</ele>
        <time>2011-10-16T10:07:10.000Z</time>
      </trkpt>
      <trkpt lat="48.75247" lon="1.7541">
        <ele>191.80000305176</ele>
        <time>2011-10-16T10:07:16.000Z</time>
      </trkpt>
      <trkpt lat="48.75261" lon="1.75415">
        <ele>191.80000305176</ele>
        <time>2011-10-16T10:07:22.000Z</time>
      </trkpt>
      <trkpt lat="48.75276" lon="1.75416">
        <ele>191.60000610352</ele>
        <time>2011-10-16T10:07:28.000Z</time>
      </trkpt>
      <trkpt lat="48.7529" lon="1.75419">
        <ele>191.39999389648</ele>
        <time>2011-10-16T10:07:34.000Z</time>
      </trkpt>
      <trkpt lat="48.75299" lon="1.75422">
        <ele>191.39999389648</ele>
        <time>2011-10-16T10:07:40.000Z</time>
      </trkpt>
      <trkpt lat="48.75298" lon="1.75425">
        <ele>191.39999389648</ele>
        <time>2011-10-16T10:07:43.000Z</time>
      </trkpt>
      <trkpt lat="48.75294" lon="1.75428">
        <ele>191.39999389648</ele>
        <time>2011-10-16T10:07:47.000Z</time>
      </trkpt>
      <trkpt lat="48.75298" lon="1.75432">
        <ele>191.39999389648</ele>
        <time>2011-10-16T10:07:51.000Z</time>
      </trkpt>
      <trkpt lat="48.75299" lon="1.75436">
        <ele>191.39999389648</ele>
        <time>2011-10-16T10:07:55.000Z</time>
      </trkpt>
      <trkpt lat="48.75304" lon="1.75439">
        <ele>191.39999389648</ele>
        <time>2011-10-16T10:08:00.000Z</time>
      </trkpt>
      <trkpt lat="48.75309" lon="1.75441">
        <ele>191.39999389648</ele>
        <time>2011-10-16T10:08:05.000Z</time>
      </trkpt>
      <trkpt lat="48.7531" lon="1.75443">
        <ele>191.39999389648</ele>
        <time>2011-10-16T10:08:10.000Z</time>
      </trkpt>
      <trkpt lat="48.75319" lon="1.75447">
        <ele>191.39999389648</ele>
        <time>2011-10-16T10:08:16.000Z</time>
      </trkpt>
      <trkpt lat="48.75323" lon="1.7545">
        <ele>191.39999389648</ele>
        <time>2011-10-16T10:08:20.000Z</time>
      </trkpt>
      <trkpt lat="48.75325" lon="1.75454">
        <ele>191.39999389648</ele>
        <time>2011-10-16T10:08:25.000Z</time>
      </trkpt>
      <trkpt lat="48.75328" lon="1.75457">
        <ele>191.39999389648</ele>
        <time>2011-10-16T10:08:29.000Z</time>
      </trkpt>
      <trkpt lat="48.75334" lon="1.75459">
        <ele>191.39999389648</ele>
        <time>2011-10-16T10:08:33.000Z</time>
      </trkpt>
      <trkpt lat="48.75343" lon="1.75459">
        <ele>191.60000610352</ele>
        <time>2011-10-16T10:08:37.000Z</time>
      </trkpt>
      <trkpt lat="48.75353" lon="1.75459">
        <ele>191.80000305176</ele>
        <time>2011-10-16T10:08:41.000Z</time>
      </trkpt>
      <trkpt lat="48.75356" lon="1.75459">
        <ele>191.80000305176</ele>
        <time>2011-10-16T10:08:42.000Z</time>
      </trkpt>
      <trkpt lat="48.75372" lon="1.7546">
        <ele>192.19999694824</ele>
        <time>2011-10-16T10:08:49.000Z</time>
      </trkpt>
      <trkpt lat="48.7538" lon="1.75465">
        <ele>192.39999389648</ele>
        <time>2011-10-16T10:08:55.000Z</time>
      </trkpt>
      <trkpt lat="48.75386" lon="1.75468">
        <ele>192.60000610352</ele>
        <time>2011-10-16T10:09:00.000Z</time>
      </trkpt>
      <trkpt lat="48.75394" lon="1.75473">
        <ele>192.80000305176</ele>
        <time>2011-10-16T10:09:05.000Z</time>
      </trkpt>
      <trkpt lat="48.754" lon="1.75473">
        <ele>193</ele>
        <time>2011-10-16T10:09:08.000Z</time>
      </trkpt>
      <trkpt lat="48.75406" lon="1.75475">
        <ele>193</ele>
        <time>2011-10-16T10:09:14.000Z</time>
      </trkpt>
      <trkpt lat="48.75421" lon="1.75477">
        <ele>193.19999694824</ele>
        <time>2011-10-16T10:09:20.000Z</time>
      </trkpt>
      <trkpt lat="48.75425" lon="1.75481">
        <ele>193.19999694824</ele>
        <time>2011-10-16T10:09:25.000Z</time>
      </trkpt>
      <trkpt lat="48.75427" lon="1.75481">
        <ele>193.19999694824</ele>
        <time>2011-10-16T10:09:27.000Z</time>
      </trkpt>
      <trkpt lat="48.75436" lon="1.75488">
        <ele>193.19999694824</ele>
        <time>2011-10-16T10:09:35.000Z</time>
      </trkpt>
      <trkpt lat="48.7544" lon="1.75491">
        <ele>193.19999694824</ele>
        <time>2011-10-16T10:09:40.000Z</time>
      </trkpt>
      <trkpt lat="48.75445" lon="1.75494">
        <ele>193.19999694824</ele>
        <time>2011-10-16T10:09:47.000Z</time>
      </trkpt>
      <trkpt lat="48.7545" lon="1.75498">
        <ele>193</ele>
        <time>2011-10-16T10:09:54.000Z</time>
      </trkpt>
      <trkpt lat="48.75454" lon="1.75501">
        <ele>193</ele>
        <time>2011-10-16T10:09:57.000Z</time>
      </trkpt>
      <trkpt lat="48.75457" lon="1.75504">
        <ele>193</ele>
        <time>2011-10-16T10:10:02.000Z</time>
      </trkpt>
      <trkpt lat="48.75465" lon="1.75507">
        <ele>192.80000305176</ele>
        <time>2011-10-16T10:10:06.000Z</time>
      </trkpt>
      <trkpt lat="48.7548" lon="1.75508">
        <ele>192.60000610352</ele>
        <time>2011-10-16T10:10:12.000Z</time>
      </trkpt>
      <trkpt lat="48.75489" lon="1.7551">
        <ele>192.39999389648</ele>
        <time>2011-10-16T10:10:18.000Z</time>
      </trkpt>
      <trkpt lat="48.75498" lon="1.75512">
        <ele>192.19999694824</ele>
        <time>2011-10-16T10:10:24.000Z</time>
      </trkpt>
      <trkpt lat="48.75503" lon="1.75513">
        <ele>192.19999694824</ele>
        <time>2011-10-16T10:10:29.000Z</time>
      </trkpt>
      <trkpt lat="48.75517" lon="1.75518">
        <ele>191.80000305176</ele>
        <time>2011-10-16T10:10:36.000Z</time>
      </trkpt>
      <trkpt lat="48.75527" lon="1.75519">
        <ele>191.60000610352</ele>
        <time>2011-10-16T10:10:41.000Z</time>
      </trkpt>
      <trkpt lat="48.75535" lon="1.7552">
        <ele>191.39999389648</ele>
        <time>2011-10-16T10:10:46.000Z</time>
      </trkpt>
      <trkpt lat="48.75552" lon="1.75522">
        <ele>190.80000305176</ele>
        <time>2011-10-16T10:10:52.000Z</time>
      </trkpt>
      <trkpt lat="48.75556" lon="1.75524">
        <ele>190.80000305176</ele>
        <time>2011-10-16T10:10:57.000Z</time>
      </trkpt>
      <trkpt lat="48.75556" lon="1.75529">
        <ele>191</ele>
        <time>2011-10-16T10:11:04.000Z</time>
      </trkpt>
      <trkpt lat="48.75562" lon="1.75533">
        <ele>191</ele>
        <time>2011-10-16T10:11:11.000Z</time>
      </trkpt>
      <trkpt lat="48.7557" lon="1.75534">
        <ele>190.80000305176</ele>
        <time>2011-10-16T10:11:16.000Z</time>
      </trkpt>
      <trkpt lat="48.75576" lon="1.75538">
        <ele>191</ele>
        <time>2011-10-16T10:11:21.000Z</time>
      </trkpt>
      <trkpt lat="48.75583" lon="1.75538">
        <ele>190.80000305176</ele>
        <time>2011-10-16T10:11:25.000Z</time>
      </trkpt>
      <trkpt lat="48.75588" lon="1.75541">
        <ele>190.80000305176</ele>
        <time>2011-10-16T10:11:30.000Z</time>
      </trkpt>
      <trkpt lat="48.7559" lon="1.75542">
        <ele>190.80000305176</ele>
        <time>2011-10-16T10:11:32.000Z</time>
      </trkpt>
      <trkpt lat="48.75594" lon="1.75551">
        <ele>191.19999694824</ele>
        <time>2011-10-16T10:11:39.000Z</time>
      </trkpt>
      <trkpt lat="48.75599" lon="1.75553">
        <ele>191.19999694824</ele>
        <time>2011-10-16T10:11:42.000Z</time>
      </trkpt>
      <trkpt lat="48.75607" lon="1.75557">
        <ele>191.19999694824</ele>
        <time>2011-10-16T10:11:47.000Z</time>
      </trkpt>
      <trkpt lat="48.75615" lon="1.7556">
        <ele>191</ele>
        <time>2011-10-16T10:11:53.000Z</time>
      </trkpt>
      <trkpt lat="48.75623" lon="1.75562">
        <ele>191</ele>
        <time>2011-10-16T10:11:58.000Z</time>
      </trkpt>
      <trkpt lat="48.75627" lon="1.75569">
        <ele>191</ele>
        <time>2011-10-16T10:12:05.000Z</time>
      </trkpt>
      <trkpt lat="48.75623" lon="1.75569">
        <ele>191.19999694824</ele>
        <time>2011-10-16T10:12:12.000Z</time>
      </trkpt>
      <trkpt lat="48.75622" lon="1.7557">
        <ele>191.19999694824</ele>
        <time>2011-10-16T10:12:21.000Z</time>
      </trkpt>
      <trkpt lat="48.75621" lon="1.75572">
        <ele>191.19999694824</ele>
        <time>2011-10-16T10:12:24.000Z</time>
      </trkpt>
      <trkpt lat="48.75616" lon="1.75576">
        <ele>191.60000610352</ele>
        <time>2011-10-16T10:12:25.000Z</time>
      </trkpt>
      <trkpt lat="48.75625" lon="1.75574">
        <ele>191.19999694824</ele>
        <time>2011-10-16T10:12:31.000Z</time>
      </trkpt>
      <trkpt lat="48.75645" lon="1.7555">
        <ele>190.19999694824</ele>
        <time>2011-10-16T10:13:18.000Z</time>
      </trkpt>
      <trkpt lat="48.75646" lon="1.7555">
        <ele>190.19999694824</ele>
        <time>2011-10-16T10:13:20.000Z</time>
      </trkpt>
      <trkpt lat="48.75653" lon="1.75554">
        <ele>190.19999694824</ele>
        <time>2011-10-16T10:13:27.000Z</time>
      </trkpt>
      <trkpt lat="48.75656" lon="1.75554">
        <ele>190.19999694824</ele>
        <time>2011-10-16T10:13:32.000Z</time>
      </trkpt>
      <trkpt lat="48.75658" lon="1.75558">
        <ele>190</ele>
        <time>2011-10-16T10:13:35.000Z</time>
      </trkpt>
      <trkpt lat="48.7566" lon="1.7556">
        <ele>190</ele>
        <time>2011-10-16T10:13:36.000Z</time>
      </trkpt>
      <trkpt lat="48.75662" lon="1.75562">
        <ele>190</ele>
        <time>2011-10-16T10:13:41.000Z</time>
      </trkpt>
      <trkpt lat="48.75658" lon="1.75564">
        <ele>190.19999694824</ele>
        <time>2011-10-16T10:13:46.000Z</time>
      </trkpt>
      <trkpt lat="48.75655" lon="1.75564">
        <ele>190.19999694824</ele>
        <time>2011-10-16T10:13:55.000Z</time>
      </trkpt>
      <trkpt lat="48.75656" lon="1.75563">
        <ele>190.19999694824</ele>
        <time>2011-10-16T10:13:58.000Z</time>
      </trkpt>
      <trkpt lat="48.75656" lon="1.75563">
        <ele>190.19999694824</ele>
        <time>2011-10-16T10:13:59.000Z</time>
      </trkpt>
      <trkpt lat="48.7566" lon="1.75563">
        <ele>190</ele>
        <time>2011-10-16T10:14:08.000Z</time>
      </trkpt>
      <trkpt lat="48.75665" lon="1.7556">
        <ele>190</ele>
        <time>2011-10-16T10:14:15.000Z</time>
      </trkpt>
      <trkpt lat="48.7566" lon="1.75564">
        <ele>190</ele>
        <time>2011-10-16T10:14:20.000Z</time>
      </trkpt>
      <trkpt lat="48.75662" lon="1.7557">
        <ele>190</ele>
        <time>2011-10-16T10:14:24.000Z</time>
      </trkpt>
      <trkpt lat="48.75666" lon="1.75575">
        <ele>190</ele>
        <time>2011-10-16T10:14:29.000Z</time>
      </trkpt>
      <trkpt lat="48.75673" lon="1.75577">
        <ele>189.80000305176</ele>
        <time>2011-10-16T10:14:33.000Z</time>
      </trkpt>
      <trkpt lat="48.75678" lon="1.7558">
        <ele>189.80000305176</ele>
        <time>2011-10-16T10:14:37.000Z</time>
      </trkpt>
      <trkpt lat="48.75685" lon="1.75581">
        <ele>189.80000305176</ele>
        <time>2011-10-16T10:14:40.000Z</time>
      </trkpt>
      <trkpt lat="48.75692" lon="1.75582">
        <ele>189.80000305176</ele>
        <time>2011-10-16T10:14:45.000Z</time>
      </trkpt>
      <trkpt lat="48.75701" lon="1.75585">
        <ele>190</ele>
        <time>2011-10-16T10:14:51.000Z</time>
      </trkpt>
      <trkpt lat="48.75719" lon="1.75588">
        <ele>190</ele>
        <time>2011-10-16T10:14:59.000Z</time>
      </trkpt>
      <trkpt lat="48.75734" lon="1.75588">
        <ele>190</ele>
        <time>2011-10-16T10:15:05.000Z</time>
      </trkpt>
      <trkpt lat="48.75739" lon="1.7559">
        <ele>190</ele>
        <time>2011-10-16T10:15:12.000Z</time>
      </trkpt>
      <trkpt lat="48.75745" lon="1.75593">
        <ele>190</ele>
        <time>2011-10-16T10:15:17.000Z</time>
      </trkpt>
      <trkpt lat="48.75747" lon="1.75598">
        <ele>190</ele>
        <time>2011-10-16T10:15:22.000Z</time>
      </trkpt>
      <trkpt lat="48.75751" lon="1.75601">
        <ele>190</ele>
        <time>2011-10-16T10:15:26.000Z</time>
      </trkpt>
      <trkpt lat="48.75757" lon="1.75604">
        <ele>190</ele>
        <time>2011-10-16T10:15:31.000Z</time>
      </trkpt>
      <trkpt lat="48.75765" lon="1.75609">
        <ele>190</ele>
        <time>2011-10-16T10:15:37.000Z</time>
      </trkpt>
      <trkpt lat="48.75773" lon="1.75613">
        <ele>189.80000305176</ele>
        <time>2011-10-16T10:15:43.000Z</time>
      </trkpt>
      <trkpt lat="48.75784" lon="1.75615">
        <ele>189.80000305176</ele>
        <time>2011-10-16T10:15:49.000Z</time>
      </trkpt>
      <trkpt lat="48.75795" lon="1.75617">
        <ele>189.60000610352</ele>
        <time>2011-10-16T10:15:55.000Z</time>
      </trkpt>
      <trkpt lat="48.75805" lon="1.75621">
        <ele>189.39999389648</ele>
        <time>2011-10-16T10:16:02.000Z</time>
      </trkpt>
      <trkpt lat="48.7582" lon="1.75623">
        <ele>189.19999694824</ele>
        <time>2011-10-16T10:16:09.000Z</time>
      </trkpt>
      <trkpt lat="48.75825" lon="1.75625">
        <ele>189</ele>
        <time>2011-10-16T10:16:14.000Z</time>
      </trkpt>
      <trkpt lat="48.75827" lon="1.75627">
        <ele>189</ele>
        <time>2011-10-16T10:16:17.000Z</time>
      </trkpt>
      <trkpt lat="48.7583" lon="1.75628">
        <ele>189</ele>
        <time>2011-10-16T10:16:20.000Z</time>
      </trkpt>
      <trkpt lat="48.75831" lon="1.75632">
        <ele>189</ele>
        <time>2011-10-16T10:16:23.000Z</time>
      </trkpt>
      <trkpt lat="48.75837" lon="1.75634">
        <ele>188.80000305176</ele>
        <time>2011-10-16T10:16:26.000Z</time>
      </trkpt>
      <trkpt lat="48.75834" lon="1.75638">
        <ele>188.80000305176</ele>
        <time>2011-10-16T10:16:31.000Z</time>
      </trkpt>
      <trkpt lat="48.75839" lon="1.7564">
        <ele>188.60000610352</ele>
        <time>2011-10-16T10:16:37.000Z</time>
      </trkpt>
      <trkpt lat="48.75845" lon="1.7564">
        <ele>188.19999694824</ele>
        <time>2011-10-16T10:16:41.000Z</time>
      </trkpt>
      <trkpt lat="48.75859" lon="1.75641">
        <ele>187.39999389648</ele>
        <time>2011-10-16T10:16:49.000Z</time>
      </trkpt>
      <trkpt lat="48.75872" lon="1.75645">
        <ele>186.80000305176</ele>
        <time>2011-10-16T10:16:56.000Z</time>
      </trkpt>
      <trkpt lat="48.75887" lon="1.75644">
        <ele>186</ele>
        <time>2011-10-16T10:17:03.000Z</time>
      </trkpt>
      <trkpt lat="48.75896" lon="1.75646">
        <ele>185.39999389648</ele>
        <time>2011-10-16T10:17:09.000Z</time>
      </trkpt>
      <trkpt lat="48.75899" lon="1.75646">
        <ele>185.39999389648</ele>
        <time>2011-10-16T10:17:11.000Z</time>
      </trkpt>
      <trkpt lat="48.7591" lon="1.75645">
        <ele>184.80000305176</ele>
        <time>2011-10-16T10:17:18.000Z</time>
      </trkpt>
      <trkpt lat="48.75915" lon="1.75648">
        <ele>184.60000610352</ele>
        <time>2011-10-16T10:17:22.000Z</time>
      </trkpt>
      <trkpt lat="48.75917" lon="1.75649">
        <ele>184.39999389648</ele>
        <time>2011-10-16T10:17:25.000Z</time>
      </trkpt>
      <trkpt lat="48.75927" lon="1.75652">
        <ele>184.19999694824</ele>
        <time>2011-10-16T10:17:31.000Z</time>
      </trkpt>
      <trkpt lat="48.75933" lon="1.75656">
        <ele>184.19999694824</ele>
        <time>2011-10-16T10:17:35.000Z</time>
      </trkpt>
      <trkpt lat="48.75945" lon="1.75658">
        <ele>183.80000305176</ele>
        <time>2011-10-16T10:17:41.000Z</time>
      </trkpt>
      <trkpt lat="48.7595" lon="1.7566">
        <ele>183.60000610352</ele>
        <time>2011-10-16T10:17:44.000Z</time>
      </trkpt>
      <trkpt lat="48.75957" lon="1.75662">
        <ele>183.39999389648</ele>
        <time>2011-10-16T10:17:48.000Z</time>
      </trkpt>
      <trkpt lat="48.75971" lon="1.75665">
        <ele>183</ele>
        <time>2011-10-16T10:17:54.000Z</time>
      </trkpt>
      <trkpt lat="48.7598" lon="1.75668">
        <ele>182.60000610352</ele>
        <time>2011-10-16T10:17:59.000Z</time>
      </trkpt>
      <trkpt lat="48.75987" lon="1.75671">
        <ele>182.60000610352</ele>
        <time>2011-10-16T10:18:04.000Z</time>
      </trkpt>
      <trkpt lat="48.75998" lon="1.75674">
        <ele>182.19999694824</ele>
        <time>2011-10-16T10:18:10.000Z</time>
      </trkpt>
      <trkpt lat="48.7601" lon="1.75678">
        <ele>182.19999694824</ele>
        <time>2011-10-16T10:18:17.000Z</time>
      </trkpt>
      <trkpt lat="48.76017" lon="1.75682">
        <ele>182.19999694824</ele>
        <time>2011-10-16T10:18:23.000Z</time>
      </trkpt>
      <trkpt lat="48.76022" lon="1.75686">
        <ele>182.19999694824</ele>
        <time>2011-10-16T10:18:28.000Z</time>
      </trkpt>
      <trkpt lat="48.76029" lon="1.75688">
        <ele>182</ele>
        <time>2011-10-16T10:18:33.000Z</time>
      </trkpt>
      <trkpt lat="48.76036" lon="1.75691">
        <ele>182</ele>
        <time>2011-10-16T10:18:39.000Z</time>
      </trkpt>
      <trkpt lat="48.76047" lon="1.75694">
        <ele>181.80000305176</ele>
        <time>2011-10-16T10:18:46.000Z</time>
      </trkpt>
      <trkpt lat="48.76054" lon="1.75697">
        <ele>181.60000610352</ele>
        <time>2011-10-16T10:18:51.000Z</time>
      </trkpt>
      <trkpt lat="48.76061" lon="1.75701">
        <ele>181.60000610352</ele>
        <time>2011-10-16T10:18:57.000Z</time>
      </trkpt>
      <trkpt lat="48.7607" lon="1.75703">
        <ele>181.19999694824</ele>
        <time>2011-10-16T10:19:03.000Z</time>
      </trkpt>
      <trkpt lat="48.76074" lon="1.75705">
        <ele>181.19999694824</ele>
        <time>2011-10-16T10:19:06.000Z</time>
      </trkpt>
      <trkpt lat="48.7608" lon="1.75711">
        <ele>181</ele>
        <time>2011-10-16T10:19:11.000Z</time>
      </trkpt>
      <trkpt lat="48.76091" lon="1.75715">
        <ele>181</ele>
        <time>2011-10-16T10:19:19.000Z</time>
      </trkpt>
      <trkpt lat="48.76095" lon="1.75721">
        <ele>181</ele>
        <time>2011-10-16T10:19:24.000Z</time>
      </trkpt>
      <trkpt lat="48.76106" lon="1.75726">
        <ele>181</ele>
        <time>2011-10-16T10:19:31.000Z</time>
      </trkpt>
      <trkpt lat="48.76114" lon="1.75729">
        <ele>181</ele>
        <time>2011-10-16T10:19:37.000Z</time>
      </trkpt>
      <trkpt lat="48.76124" lon="1.75732">
        <ele>181</ele>
        <time>2011-10-16T10:19:44.000Z</time>
      </trkpt>
      <trkpt lat="48.76127" lon="1.75732">
        <ele>181</ele>
        <time>2011-10-16T10:19:46.000Z</time>
      </trkpt>
      <trkpt lat="48.76135" lon="1.75736">
        <ele>181</ele>
        <time>2011-10-16T10:19:52.000Z</time>
      </trkpt>
      <trkpt lat="48.76143" lon="1.7574">
        <ele>181</ele>
        <time>2011-10-16T10:19:57.000Z</time>
      </trkpt>
      <trkpt lat="48.76152" lon="1.75743">
        <ele>181</ele>
        <time>2011-10-16T10:20:03.000Z</time>
      </trkpt>
      <trkpt lat="48.76163" lon="1.75749">
        <ele>181</ele>
        <time>2011-10-16T10:20:10.000Z</time>
      </trkpt>
      <trkpt lat="48.76169" lon="1.7575">
        <ele>181</ele>
        <time>2011-10-16T10:20:14.000Z</time>
      </trkpt>
      <trkpt lat="48.7619" lon="1.7575">
        <ele>182</ele>
        <time>2011-10-16T10:20:22.000Z</time>
      </trkpt>
      <trkpt lat="48.762" lon="1.75755">
        <ele>182.39999389648</ele>
        <time>2011-10-16T10:20:30.000Z</time>
      </trkpt>
      <trkpt lat="48.76205" lon="1.7576">
        <ele>182.60000610352</ele>
        <time>2011-10-16T10:20:35.000Z</time>
      </trkpt>
      <trkpt lat="48.76214" lon="1.75763">
        <ele>183</ele>
        <time>2011-10-16T10:20:41.000Z</time>
      </trkpt>
      <trkpt lat="48.76226" lon="1.75765">
        <ele>183.60000610352</ele>
        <time>2011-10-16T10:20:47.000Z</time>
      </trkpt>
      <trkpt lat="48.76235" lon="1.75767">
        <ele>184</ele>
        <time>2011-10-16T10:20:54.000Z</time>
      </trkpt>
      <trkpt lat="48.7624" lon="1.75769">
        <ele>184.19999694824</ele>
        <time>2011-10-16T10:21:01.000Z</time>
      </trkpt>
      <trkpt lat="48.76244" lon="1.75771">
        <ele>184.39999389648</ele>
        <time>2011-10-16T10:21:05.000Z</time>
      </trkpt>
      <trkpt lat="48.76247" lon="1.75772">
        <ele>184.39999389648</ele>
        <time>2011-10-16T10:21:07.000Z</time>
      </trkpt>
      <trkpt lat="48.76251" lon="1.75781">
        <ele>184.60000610352</ele>
        <time>2011-10-16T10:21:12.000Z</time>
      </trkpt>
      <trkpt lat="48.76252" lon="1.75782">
        <ele>184.60000610352</ele>
        <time>2011-10-16T10:21:13.000Z</time>
      </trkpt>
      <trkpt lat="48.76257" lon="1.75792">
        <ele>184.60000610352</ele>
        <time>2011-10-16T10:21:18.000Z</time>
      </trkpt>
      <trkpt lat="48.76257" lon="1.75805">
        <ele>184.39999389648</ele>
        <time>2011-10-16T10:21:24.000Z</time>
      </trkpt>
      <trkpt lat="48.76261" lon="1.75819">
        <ele>184.39999389648</ele>
        <time>2011-10-16T10:21:31.000Z</time>
      </trkpt>
      <trkpt lat="48.76263" lon="1.75823">
        <ele>184.60000610352</ele>
        <time>2011-10-16T10:21:37.000Z</time>
      </trkpt>
      <trkpt lat="48.76263" lon="1.75826">
        <ele>184.39999389648</ele>
        <time>2011-10-16T10:21:40.000Z</time>
      </trkpt>
      <trkpt lat="48.76262" lon="1.75829">
        <ele>184.39999389648</ele>
        <time>2011-10-16T10:21:42.000Z</time>
      </trkpt>
      <trkpt lat="48.7626" lon="1.75835">
        <ele>184.19999694824</ele>
        <time>2011-10-16T10:21:50.000Z</time>
      </trkpt>
      <trkpt lat="48.76259" lon="1.75836">
        <ele>184.19999694824</ele>
        <time>2011-10-16T10:21:53.000Z</time>
      </trkpt>
      <trkpt lat="48.76265" lon="1.75826">
        <ele>184.60000610352</ele>
        <time>2011-10-16T10:22:43.000Z</time>
      </trkpt>
      <trkpt lat="48.76269" lon="1.75824">
        <ele>184.60000610352</ele>
        <time>2011-10-16T10:22:48.000Z</time>
      </trkpt>
      <trkpt lat="48.76266" lon="1.75828">
        <ele>184.60000610352</ele>
        <time>2011-10-16T10:22:53.000Z</time>
      </trkpt>
      <trkpt lat="48.76268" lon="1.75829">
        <ele>184.60000610352</ele>
        <time>2011-10-16T10:22:54.000Z</time>
      </trkpt>
      <trkpt lat="48.76272" lon="1.75848">
        <ele>184.60000610352</ele>
        <time>2011-10-16T10:23:02.000Z</time>
      </trkpt>
      <trkpt lat="48.76272" lon="1.75851">
        <ele>184.80000305176</ele>
        <time>2011-10-16T10:23:03.000Z</time>
      </trkpt>
      <trkpt lat="48.76275" lon="1.75855">
        <ele>184.80000305176</ele>
        <time>2011-10-16T10:23:05.000Z</time>
      </trkpt>
      <trkpt lat="48.76281" lon="1.75859">
        <ele>185</ele>
        <time>2011-10-16T10:23:09.000Z</time>
      </trkpt>
      <trkpt lat="48.7628" lon="1.75878">
        <ele>185</ele>
        <time>2011-10-16T10:23:16.000Z</time>
      </trkpt>
      <trkpt lat="48.76279" lon="1.75881">
        <ele>185</ele>
        <time>2011-10-16T10:23:17.000Z</time>
      </trkpt>
      <trkpt lat="48.76278" lon="1.75901">
        <ele>185</ele>
        <time>2011-10-16T10:23:25.000Z</time>
      </trkpt>
      <trkpt lat="48.76275" lon="1.75916">
        <ele>184.80000305176</ele>
        <time>2011-10-16T10:23:32.000Z</time>
      </trkpt>
      <trkpt lat="48.76276" lon="1.75928">
        <ele>185.19999694824</ele>
        <time>2011-10-16T10:23:38.000Z</time>
      </trkpt>
      <trkpt lat="48.76277" lon="1.75933">
        <ele>185.39999389648</ele>
        <time>2011-10-16T10:23:40.000Z</time>
      </trkpt>
      <trkpt lat="48.76277" lon="1.75946">
        <ele>186</ele>
        <time>2011-10-16T10:23:45.000Z</time>
      </trkpt>
      <trkpt lat="48.76278" lon="1.75958">
        <ele>186.39999389648</ele>
        <time>2011-10-16T10:23:50.000Z</time>
      </trkpt>
      <trkpt lat="48.76283" lon="1.75969">
        <ele>186.80000305176</ele>
        <time>2011-10-16T10:23:56.000Z</time>
      </trkpt>
      <trkpt lat="48.76284" lon="1.75971">
        <ele>187</ele>
        <time>2011-10-16T10:23:57.000Z</time>
      </trkpt>
      <trkpt lat="48.76285" lon="1.75981">
        <ele>187.19999694824</ele>
        <time>2011-10-16T10:24:02.000Z</time>
      </trkpt>
      <trkpt lat="48.76286" lon="1.76001">
        <ele>188</ele>
        <time>2011-10-16T10:24:12.000Z</time>
      </trkpt>
      <trkpt lat="48.76287" lon="1.76017">
        <ele>188.19999694824</ele>
        <time>2011-10-16T10:24:19.000Z</time>
      </trkpt>
      <trkpt lat="48.76286" lon="1.76032">
        <ele>188.39999389648</ele>
        <time>2011-10-16T10:24:25.000Z</time>
      </trkpt>
      <trkpt lat="48.76292" lon="1.76035">
        <ele>188.60000610352</ele>
        <time>2011-10-16T10:24:29.000Z</time>
      </trkpt>
      <trkpt lat="48.76301" lon="1.76051">
        <ele>188.80000305176</ele>
        <time>2011-10-16T10:24:37.000Z</time>
      </trkpt>
      <trkpt lat="48.76303" lon="1.76064">
        <ele>189.19999694824</ele>
        <time>2011-10-16T10:24:42.000Z</time>
      </trkpt>
      <trkpt lat="48.76304" lon="1.76067">
        <ele>189.19999694824</ele>
        <time>2011-10-16T10:24:43.000Z</time>
      </trkpt>
      <trkpt lat="48.76302" lon="1.76083">
        <ele>189.60000610352</ele>
        <time>2011-10-16T10:24:49.000Z</time>
      </trkpt>
      <trkpt lat="48.76307" lon="1.76094">
        <ele>189.60000610352</ele>
        <time>2011-10-16T10:24:55.000Z</time>
      </trkpt>
      <trkpt lat="48.76313" lon="1.76095">
        <ele>189.80000305176</ele>
        <time>2011-10-16T10:24:58.000Z</time>
      </trkpt>
      <trkpt lat="48.76322" lon="1.76105">
        <ele>189.80000305176</ele>
        <time>2011-10-16T10:25:05.000Z</time>
      </trkpt>
      <trkpt lat="48.76331" lon="1.76113">
        <ele>189.80000305176</ele>
        <time>2011-10-16T10:25:11.000Z</time>
      </trkpt>
      <trkpt lat="48.76328" lon="1.76115">
        <ele>189.80000305176</ele>
        <time>2011-10-16T10:25:13.000Z</time>
      </trkpt>
      <trkpt lat="48.76327" lon="1.76128">
        <ele>190</ele>
        <time>2011-10-16T10:25:17.000Z</time>
      </trkpt>
      <trkpt lat="48.76337" lon="1.7614">
        <ele>189.80000305176</ele>
        <time>2011-10-16T10:25:24.000Z</time>
      </trkpt>
      <trkpt lat="48.76339" lon="1.76151">
        <ele>189.60000610352</ele>
        <time>2011-10-16T10:25:29.000Z</time>
      </trkpt>
      <trkpt lat="48.76341" lon="1.76158">
        <ele>189.60000610352</ele>
        <time>2011-10-16T10:25:33.000Z</time>
      </trkpt>
      <trkpt lat="48.76346" lon="1.76173">
        <ele>189.80000305176</ele>
        <time>2011-10-16T10:25:40.000Z</time>
      </trkpt>
      <trkpt lat="48.76346" lon="1.76189">
        <ele>190.19999694824</ele>
        <time>2011-10-16T10:25:46.000Z</time>
      </trkpt>
      <trkpt lat="48.76349" lon="1.762">
        <ele>190.60000610352</ele>
        <time>2011-10-16T10:25:51.000Z</time>
      </trkpt>
      <trkpt lat="48.76353" lon="1.76205">
        <ele>190.60000610352</ele>
        <time>2011-10-16T10:25:54.000Z</time>
      </trkpt>
      <trkpt lat="48.76352" lon="1.76222">
        <ele>191.39999389648</ele>
        <time>2011-10-16T10:26:00.000Z</time>
      </trkpt>
      <trkpt lat="48.76354" lon="1.76229">
        <ele>191.60000610352</ele>
        <time>2011-10-16T10:26:03.000Z</time>
      </trkpt>
      <trkpt lat="48.76363" lon="1.76234">
        <ele>191.60000610352</ele>
        <time>2011-10-16T10:26:08.000Z</time>
      </trkpt>
      <trkpt lat="48.7637" lon="1.76239">
        <ele>191.60000610352</ele>
        <time>2011-10-16T10:26:12.000Z</time>
      </trkpt>
      <trkpt lat="48.76376" lon="1.76248">
        <ele>191.80000305176</ele>
        <time>2011-10-16T10:26:17.000Z</time>
      </trkpt>
      <trkpt lat="48.76382" lon="1.76263">
        <ele>191.80000305176</ele>
        <time>2011-10-16T10:26:24.000Z</time>
      </trkpt>
      <trkpt lat="48.76385" lon="1.7627">
        <ele>191.80000305176</ele>
        <time>2011-10-16T10:26:27.000Z</time>
      </trkpt>
      <trkpt lat="48.76391" lon="1.76277">
        <ele>191.80000305176</ele>
        <time>2011-10-16T10:26:32.000Z</time>
      </trkpt>
      <trkpt lat="48.76396" lon="1.76284">
        <ele>191.80000305176</ele>
        <time>2011-10-16T10:26:37.000Z</time>
      </trkpt>
      <trkpt lat="48.76401" lon="1.76293">
        <ele>191.60000610352</ele>
        <time>2011-10-16T10:26:42.000Z</time>
      </trkpt>
      <trkpt lat="48.76397" lon="1.76301">
        <ele>191.80000305176</ele>
        <time>2011-10-16T10:26:45.000Z</time>
      </trkpt>
      <trkpt lat="48.76396" lon="1.76303">
        <ele>191.80000305176</ele>
        <time>2011-10-16T10:26:46.000Z</time>
      </trkpt>
      <trkpt lat="48.76396" lon="1.76315">
        <ele>192</ele>
        <time>2011-10-16T10:26:52.000Z</time>
      </trkpt>
      <trkpt lat="48.76397" lon="1.7632">
        <ele>192</ele>
        <time>2011-10-16T10:26:54.000Z</time>
      </trkpt>
      <trkpt lat="48.76402" lon="1.76329">
        <ele>192</ele>
        <time>2011-10-16T10:26:59.000Z</time>
      </trkpt>
      <trkpt lat="48.76407" lon="1.76341">
        <ele>192</ele>
        <time>2011-10-16T10:27:05.000Z</time>
      </trkpt>
      <trkpt lat="48.76411" lon="1.76349">
        <ele>191.80000305176</ele>
        <time>2011-10-16T10:27:09.000Z</time>
      </trkpt>
      <trkpt lat="48.76413" lon="1.76361">
        <ele>191.60000610352</ele>
        <time>2011-10-16T10:27:14.000Z</time>
      </trkpt>
      <trkpt lat="48.76415" lon="1.76372">
        <ele>191.39999389648</ele>
        <time>2011-10-16T10:27:20.000Z</time>
      </trkpt>
      <trkpt lat="48.76407" lon="1.76384">
        <ele>191.39999389648</ele>
        <time>2011-10-16T10:27:24.000Z</time>
      </trkpt>
      <trkpt lat="48.76396" lon="1.76406">
        <ele>191.39999389648</ele>
        <time>2011-10-16T10:27:32.000Z</time>
      </trkpt>
      <trkpt lat="48.7639" lon="1.76428">
        <ele>191.60000610352</ele>
        <time>2011-10-16T10:27:38.000Z</time>
      </trkpt>
      <trkpt lat="48.76381" lon="1.76446">
        <ele>191.80000305176</ele>
        <time>2011-10-16T10:27:44.000Z</time>
      </trkpt>
      <trkpt lat="48.76376" lon="1.76458">
        <ele>192.19999694824</ele>
        <time>2011-10-16T10:27:51.000Z</time>
      </trkpt>
      <trkpt lat="48.76368" lon="1.7647">
        <ele>192.60000610352</ele>
        <time>2011-10-16T10:27:58.000Z</time>
      </trkpt>
      <trkpt lat="48.76361" lon="1.76478">
        <ele>193</ele>
        <time>2011-10-16T10:28:05.000Z</time>
      </trkpt>
      <trkpt lat="48.76357" lon="1.76487">
        <ele>193.39999389648</ele>
        <time>2011-10-16T10:28:10.000Z</time>
      </trkpt>
      <trkpt lat="48.76354" lon="1.76494">
        <ele>193.60000610352</ele>
        <time>2011-10-16T10:28:16.000Z</time>
      </trkpt>
      <trkpt lat="48.76353" lon="1.76496">
        <ele>193.60000610352</ele>
        <time>2011-10-16T10:28:19.000Z</time>
      </trkpt>
      <trkpt lat="48.76349" lon="1.76504">
        <ele>194</ele>
        <time>2011-10-16T10:28:23.000Z</time>
      </trkpt>
      <trkpt lat="48.76342" lon="1.76519">
        <ele>194.39999389648</ele>
        <time>2011-10-16T10:28:30.000Z</time>
      </trkpt>
      <trkpt lat="48.76338" lon="1.76526">
        <ele>194.60000610352</ele>
        <time>2011-10-16T10:28:36.000Z</time>
      </trkpt>
      <trkpt lat="48.76336" lon="1.76531">
        <ele>194.80000305176</ele>
        <time>2011-10-16T10:28:40.000Z</time>
      </trkpt>
      <trkpt lat="48.76336" lon="1.76533">
        <ele>194.80000305176</ele>
        <time>2011-10-16T10:28:41.000Z</time>
      </trkpt>
      <trkpt lat="48.76329" lon="1.76547">
        <ele>194.80000305176</ele>
        <time>2011-10-16T10:28:47.000Z</time>
      </trkpt>
      <trkpt lat="48.76321" lon="1.76561">
        <ele>194.80000305176</ele>
        <time>2011-10-16T10:28:55.000Z</time>
      </trkpt>
      <trkpt lat="48.76316" lon="1.76572">
        <ele>194.60000610352</ele>
        <time>2011-10-16T10:29:02.000Z</time>
      </trkpt>
      <trkpt lat="48.76315" lon="1.76578">
        <ele>194.60000610352</ele>
        <time>2011-10-16T10:29:07.000Z</time>
      </trkpt>
      <trkpt lat="48.76307" lon="1.76592">
        <ele>194.60000610352</ele>
        <time>2011-10-16T10:29:13.000Z</time>
      </trkpt>
      <trkpt lat="48.76304" lon="1.76599">
        <ele>194.60000610352</ele>
        <time>2011-10-16T10:29:16.000Z</time>
      </trkpt>
      <trkpt lat="48.763" lon="1.76609">
        <ele>194.39999389648</ele>
        <time>2011-10-16T10:29:22.000Z</time>
      </trkpt>
      <trkpt lat="48.76296" lon="1.7662">
        <ele>194.39999389648</ele>
        <time>2011-10-16T10:29:29.000Z</time>
      </trkpt>
      <trkpt lat="48.76293" lon="1.76633">
        <ele>194.39999389648</ele>
        <time>2011-10-16T10:29:35.000Z</time>
      </trkpt>
      <trkpt lat="48.76289" lon="1.76643">
        <ele>194.39999389648</ele>
        <time>2011-10-16T10:29:42.000Z</time>
      </trkpt>
      <trkpt lat="48.76284" lon="1.76649">
        <ele>194.39999389648</ele>
        <time>2011-10-16T10:29:46.000Z</time>
      </trkpt>
      <trkpt lat="48.76278" lon="1.76657">
        <ele>194.19999694824</ele>
        <time>2011-10-16T10:29:50.000Z</time>
      </trkpt>
      <trkpt lat="48.76271" lon="1.76673">
        <ele>194.19999694824</ele>
        <time>2011-10-16T10:29:57.000Z</time>
      </trkpt>
      <trkpt lat="48.76266" lon="1.76685">
        <ele>194.19999694824</ele>
        <time>2011-10-16T10:30:04.000Z</time>
      </trkpt>
      <trkpt lat="48.76261" lon="1.76694">
        <ele>194.19999694824</ele>
        <time>2011-10-16T10:30:08.000Z</time>
      </trkpt>
      <trkpt lat="48.76256" lon="1.76706">
        <ele>194.39999389648</ele>
        <time>2011-10-16T10:30:14.000Z</time>
      </trkpt>
      <trkpt lat="48.76255" lon="1.7672">
        <ele>194.60000610352</ele>
        <time>2011-10-16T10:30:21.000Z</time>
      </trkpt>
      <trkpt lat="48.76255" lon="1.76731">
        <ele>194.60000610352</ele>
        <time>2011-10-16T10:30:28.000Z</time>
      </trkpt>
      <trkpt lat="48.76251" lon="1.76744">
        <ele>194.80000305176</ele>
        <time>2011-10-16T10:30:32.000Z</time>
      </trkpt>
      <trkpt lat="48.76243" lon="1.76761">
        <ele>194.39999389648</ele>
        <time>2011-10-16T10:30:40.000Z</time>
      </trkpt>
      <trkpt lat="48.76235" lon="1.76773">
        <ele>194</ele>
        <time>2011-10-16T10:30:47.000Z</time>
      </trkpt>
      <trkpt lat="48.76229" lon="1.76779">
        <ele>193.80000305176</ele>
        <time>2011-10-16T10:30:54.000Z</time>
      </trkpt>
      <trkpt lat="48.76229" lon="1.76788">
        <ele>193.39999389648</ele>
        <time>2011-10-16T10:31:00.000Z</time>
      </trkpt>
      <trkpt lat="48.76223" lon="1.768">
        <ele>193.19999694824</ele>
        <time>2011-10-16T10:31:08.000Z</time>
      </trkpt>
      <trkpt lat="48.76216" lon="1.76808">
        <ele>193</ele>
        <time>2011-10-16T10:31:14.000Z</time>
      </trkpt>
      <trkpt lat="48.76209" lon="1.76826">
        <ele>192.60000610352</ele>
        <time>2011-10-16T10:31:24.000Z</time>
      </trkpt>
      <trkpt lat="48.76203" lon="1.76838">
        <ele>192.39999389648</ele>
        <time>2011-10-16T10:31:32.000Z</time>
      </trkpt>
      <trkpt lat="48.76203" lon="1.76845">
        <ele>192.19999694824</ele>
        <time>2011-10-16T10:31:36.000Z</time>
      </trkpt>
      <trkpt lat="48.76204" lon="1.76852">
        <ele>192</ele>
        <time>2011-10-16T10:31:40.000Z</time>
      </trkpt>
      <trkpt lat="48.76206" lon="1.76858">
        <ele>191.80000305176</ele>
        <time>2011-10-16T10:31:45.000Z</time>
      </trkpt>
      <trkpt lat="48.76208" lon="1.76858">
        <ele>191.60000610352</ele>
        <time>2011-10-16T10:31:52.000Z</time>
      </trkpt>
      <trkpt lat="48.76211" lon="1.76855">
        <ele>191.60000610352</ele>
        <time>2011-10-16T10:31:58.000Z</time>
      </trkpt>
      <trkpt lat="48.76211" lon="1.76855">
        <ele>191.60000610352</ele>
        <time>2011-10-16T10:32:00.000Z</time>
      </trkpt>
      <trkpt lat="48.76208" lon="1.76857">
        <ele>191.80000305176</ele>
        <time>2011-10-16T10:32:04.000Z</time>
      </trkpt>
      <trkpt lat="48.76205" lon="1.76859">
        <ele>191.80000305176</ele>
        <time>2011-10-16T10:32:07.000Z</time>
      </trkpt>
      <trkpt lat="48.76204" lon="1.7686">
        <ele>191.80000305176</ele>
        <time>2011-10-16T10:32:10.000Z</time>
      </trkpt>
      <trkpt lat="48.76198" lon="1.76865">
        <ele>191.80000305176</ele>
        <time>2011-10-16T10:32:28.000Z</time>
      </trkpt>
      <trkpt lat="48.76192" lon="1.76868">
        <ele>192</ele>
        <time>2011-10-16T10:32:35.000Z</time>
      </trkpt>
      <trkpt lat="48.76191" lon="1.7687">
        <ele>192</ele>
        <time>2011-10-16T10:32:40.000Z</time>
      </trkpt>
      <trkpt lat="48.76178" lon="1.76868">
        <ele>192.60000610352</ele>
        <time>2011-10-16T10:33:20.000Z</time>
      </trkpt>
      <trkpt lat="48.76175" lon="1.76862">
        <ele>192.80000305176</ele>
        <time>2011-10-16T10:33:25.000Z</time>
      </trkpt>
      <trkpt lat="48.7617" lon="1.76861">
        <ele>193</ele>
        <time>2011-10-16T10:33:30.000Z</time>
      </trkpt>
      <trkpt lat="48.76167" lon="1.7686">
        <ele>193.19999694824</ele>
        <time>2011-10-16T10:33:32.000Z</time>
      </trkpt>
      <trkpt lat="48.76157" lon="1.76863">
        <ele>193.39999389648</ele>
        <time>2011-10-16T10:33:39.000Z</time>
      </trkpt>
      <trkpt lat="48.76151" lon="1.76864">
        <ele>193.39999389648</ele>
        <time>2011-10-16T10:33:43.000Z</time>
      </trkpt>
      <trkpt lat="48.76147" lon="1.76866">
        <ele>193.39999389648</ele>
        <time>2011-10-16T10:33:48.000Z</time>
      </trkpt>
      <trkpt lat="48.76142" lon="1.7687">
        <ele>193.39999389648</ele>
        <time>2011-10-16T10:33:52.000Z</time>
      </trkpt>
      <trkpt lat="48.7613" lon="1.76874">
        <ele>193.60000610352</ele>
        <time>2011-10-16T10:34:01.000Z</time>
      </trkpt>
      <trkpt lat="48.7612" lon="1.76873">
        <ele>193.80000305176</ele>
        <time>2011-10-16T10:34:09.000Z</time>
      </trkpt>
      <trkpt lat="48.7611" lon="1.76873">
        <ele>194</ele>
        <time>2011-10-16T10:34:17.000Z</time>
      </trkpt>
      <trkpt lat="48.761" lon="1.76875">
        <ele>194.19999694824</ele>
        <time>2011-10-16T10:34:24.000Z</time>
      </trkpt>
      <trkpt lat="48.76087" lon="1.76879">
        <ele>194.19999694824</ele>
        <time>2011-10-16T10:34:33.000Z</time>
      </trkpt>
      <trkpt lat="48.76074" lon="1.76883">
        <ele>194.19999694824</ele>
        <time>2011-10-16T10:34:43.000Z</time>
      </trkpt>
      <trkpt lat="48.76064" lon="1.76883">
        <ele>194</ele>
        <time>2011-10-16T10:34:50.000Z</time>
      </trkpt>
      <trkpt lat="48.7605" lon="1.76884">
        <ele>193.80000305176</ele>
        <time>2011-10-16T10:35:00.000Z</time>
      </trkpt>
      <trkpt lat="48.76042" lon="1.76886">
        <ele>193.60000610352</ele>
        <time>2011-10-16T10:35:07.000Z</time>
      </trkpt>
      <trkpt lat="48.76034" lon="1.7689">
        <ele>193.39999389648</ele>
        <time>2011-10-16T10:35:12.000Z</time>
      </trkpt>
      <trkpt lat="48.76026" lon="1.76895">
        <ele>193.19999694824</ele>
        <time>2011-10-16T10:35:17.000Z</time>
      </trkpt>
      <trkpt lat="48.76016" lon="1.76895">
        <ele>193.19999694824</ele>
        <time>2011-10-16T10:35:24.000Z</time>
      </trkpt>
      <trkpt lat="48.76014" lon="1.76895">
        <ele>193.19999694824</ele>
        <time>2011-10-16T10:35:26.000Z</time>
      </trkpt>
      <trkpt lat="48.76006" lon="1.76896">
        <ele>193</ele>
        <time>2011-10-16T10:35:32.000Z</time>
      </trkpt>
      <trkpt lat="48.76002" lon="1.769">
        <ele>193</ele>
        <time>2011-10-16T10:35:36.000Z</time>
      </trkpt>
      <trkpt lat="48.75986" lon="1.76903">
        <ele>193.19999694824</ele>
        <time>2011-10-16T10:35:47.000Z</time>
      </trkpt>
      <trkpt lat="48.75978" lon="1.76903">
        <ele>193.39999389648</ele>
        <time>2011-10-16T10:35:54.000Z</time>
      </trkpt>
      <trkpt lat="48.75965" lon="1.769">
        <ele>193.60000610352</ele>
        <time>2011-10-16T10:36:03.000Z</time>
      </trkpt>
      <trkpt lat="48.75959" lon="1.76896">
        <ele>193.60000610352</ele>
        <time>2011-10-16T10:36:09.000Z</time>
      </trkpt>
      <trkpt lat="48.75946" lon="1.76893">
        <ele>193.80000305176</ele>
        <time>2011-10-16T10:36:18.000Z</time>
      </trkpt>
      <trkpt lat="48.75934" lon="1.7689">
        <ele>194</ele>
        <time>2011-10-16T10:36:25.000Z</time>
      </trkpt>
      <trkpt lat="48.7592" lon="1.76887">
        <ele>194.19999694824</ele>
        <time>2011-10-16T10:36:35.000Z</time>
      </trkpt>
      <trkpt lat="48.75913" lon="1.76885">
        <ele>194</ele>
        <time>2011-10-16T10:36:40.000Z</time>
      </trkpt>
      <trkpt lat="48.75898" lon="1.76882">
        <ele>193.39999389648</ele>
        <time>2011-10-16T10:36:49.000Z</time>
      </trkpt>
      <trkpt lat="48.75891" lon="1.76879">
        <ele>193.19999694824</ele>
        <time>2011-10-16T10:36:54.000Z</time>
      </trkpt>
      <trkpt lat="48.75882" lon="1.76877">
        <ele>192.80000305176</ele>
        <time>2011-10-16T10:37:00.000Z</time>
      </trkpt>
      <trkpt lat="48.75874" lon="1.76872">
        <ele>192.60000610352</ele>
        <time>2011-10-16T10:37:07.000Z</time>
      </trkpt>
      <trkpt lat="48.75863" lon="1.7687">
        <ele>192.19999694824</ele>
        <time>2011-10-16T10:37:15.000Z</time>
      </trkpt>
      <trkpt lat="48.75852" lon="1.76869">
        <ele>192</ele>
        <time>2011-10-16T10:37:22.000Z</time>
      </trkpt>
      <trkpt lat="48.75841" lon="1.7687">
        <ele>191.60000610352</ele>
        <time>2011-10-16T10:37:30.000Z</time>
      </trkpt>
      <trkpt lat="48.75834" lon="1.76867">
        <ele>191.60000610352</ele>
        <time>2011-10-16T10:37:35.000Z</time>
      </trkpt>
      <trkpt lat="48.75828" lon="1.76865">
        <ele>191.19999694824</ele>
        <time>2011-10-16T10:37:39.000Z</time>
      </trkpt>
      <trkpt lat="48.75821" lon="1.76862">
        <ele>191</ele>
        <time>2011-10-16T10:37:44.000Z</time>
      </trkpt>
      <trkpt lat="48.75816" lon="1.76859">
        <ele>190.80000305176</ele>
        <time>2011-10-16T10:37:48.000Z</time>
      </trkpt>
      <trkpt lat="48.75814" lon="1.76858">
        <ele>190.60000610352</ele>
        <time>2011-10-16T10:37:50.000Z</time>
      </trkpt>
      <trkpt lat="48.75808" lon="1.76858">
        <ele>190.19999694824</ele>
        <time>2011-10-16T10:37:54.000Z</time>
      </trkpt>
      <trkpt lat="48.75796" lon="1.7686">
        <ele>189.60000610352</ele>
        <time>2011-10-16T10:38:01.000Z</time>
      </trkpt>
      <trkpt lat="48.75789" lon="1.76854">
        <ele>189.39999389648</ele>
        <time>2011-10-16T10:38:07.000Z</time>
      </trkpt>
      <trkpt lat="48.75787" lon="1.76851">
        <ele>189.39999389648</ele>
        <time>2011-10-16T10:38:09.000Z</time>
      </trkpt>
      <trkpt lat="48.75781" lon="1.76851">
        <ele>189</ele>
        <time>2011-10-16T10:38:15.000Z</time>
      </trkpt>
      <trkpt lat="48.75774" lon="1.76858">
        <ele>188.60000610352</ele>
        <time>2011-10-16T10:38:22.000Z</time>
      </trkpt>
      <trkpt lat="48.75773" lon="1.76859">
        <ele>188.39999389648</ele>
        <time>2011-10-16T10:38:25.000Z</time>
      </trkpt>
      <trkpt lat="48.75771" lon="1.76859">
        <ele>188.39999389648</ele>
        <time>2011-10-16T10:38:28.000Z</time>
      </trkpt>
      <trkpt lat="48.75767" lon="1.76859">
        <ele>188.19999694824</ele>
        <time>2011-10-16T10:38:31.000Z</time>
      </trkpt>
      <trkpt lat="48.75766" lon="1.76859">
        <ele>188.19999694824</ele>
        <time>2011-10-16T10:38:34.000Z</time>
      </trkpt>
      <trkpt lat="48.75777" lon="1.76877">
        <ele>188.39999389648</ele>
        <time>2011-10-16T10:40:23.000Z</time>
      </trkpt>
      <trkpt lat="48.75778" lon="1.76879">
        <ele>188.39999389648</ele>
        <time>2011-10-16T10:40:24.000Z</time>
      </trkpt>
      <trkpt lat="48.7578" lon="1.76892">
        <ele>188.19999694824</ele>
        <time>2011-10-16T10:40:30.000Z</time>
      </trkpt>
      <trkpt lat="48.75782" lon="1.76898">
        <ele>188.19999694824</ele>
        <time>2011-10-16T10:40:34.000Z</time>
      </trkpt>
      <trkpt lat="48.75787" lon="1.76913">
        <ele>188.19999694824</ele>
        <time>2011-10-16T10:40:42.000Z</time>
      </trkpt>
      <trkpt lat="48.75789" lon="1.76929">
        <ele>188.39999389648</ele>
        <time>2011-10-16T10:40:49.000Z</time>
      </trkpt>
      <trkpt lat="48.75791" lon="1.76939">
        <ele>188.39999389648</ele>
        <time>2011-10-16T10:40:54.000Z</time>
      </trkpt>
      <trkpt lat="48.75791" lon="1.76958">
        <ele>188.60000610352</ele>
        <time>2011-10-16T10:41:03.000Z</time>
      </trkpt>
      <trkpt lat="48.75791" lon="1.76973">
        <ele>188.80000305176</ele>
        <time>2011-10-16T10:41:10.000Z</time>
      </trkpt>
      <trkpt lat="48.75793" lon="1.76989">
        <ele>189</ele>
        <time>2011-10-16T10:41:17.000Z</time>
      </trkpt>
      <trkpt lat="48.75795" lon="1.77008">
        <ele>189.19999694824</ele>
        <time>2011-10-16T10:41:26.000Z</time>
      </trkpt>
      <trkpt lat="48.75797" lon="1.77018">
        <ele>189.39999389648</ele>
        <time>2011-10-16T10:41:32.000Z</time>
      </trkpt>
      <trkpt lat="48.75797" lon="1.77032">
        <ele>189.39999389648</ele>
        <time>2011-10-16T10:41:39.000Z</time>
      </trkpt>
      <trkpt lat="48.75799" lon="1.77047">
        <ele>189.60000610352</ele>
        <time>2011-10-16T10:41:46.000Z</time>
      </trkpt>
      <trkpt lat="48.75801" lon="1.7706">
        <ele>189.80000305176</ele>
        <time>2011-10-16T10:41:51.000Z</time>
      </trkpt>
      <trkpt lat="48.75802" lon="1.77074">
        <ele>190</ele>
        <time>2011-10-16T10:41:57.000Z</time>
      </trkpt>
      <trkpt lat="48.75803" lon="1.7709">
        <ele>190.19999694824</ele>
        <time>2011-10-16T10:42:04.000Z</time>
      </trkpt>
      <trkpt lat="48.75804" lon="1.77098">
        <ele>190.19999694824</ele>
        <time>2011-10-16T10:42:08.000Z</time>
      </trkpt>
      <trkpt lat="48.75803" lon="1.77107">
        <ele>190.19999694824</ele>
        <time>2011-10-16T10:42:12.000Z</time>
      </trkpt>
      <trkpt lat="48.75809" lon="1.77123">
        <ele>190.60000610352</ele>
        <time>2011-10-16T10:42:22.000Z</time>
      </trkpt>
      <trkpt lat="48.75813" lon="1.77142">
        <ele>191</ele>
        <time>2011-10-16T10:42:32.000Z</time>
      </trkpt>
      <trkpt lat="48.75813" lon="1.77144">
        <ele>191</ele>
        <time>2011-10-16T10:42:33.000Z</time>
      </trkpt>
      <trkpt lat="48.75814" lon="1.77155">
        <ele>191.19999694824</ele>
        <time>2011-10-16T10:42:38.000Z</time>
      </trkpt>
      <trkpt lat="48.75815" lon="1.7717">
        <ele>191.39999389648</ele>
        <time>2011-10-16T10:42:45.000Z</time>
      </trkpt>
      <trkpt lat="48.75815" lon="1.77185">
        <ele>191.19999694824</ele>
        <time>2011-10-16T10:42:52.000Z</time>
      </trkpt>
      <trkpt lat="48.75815" lon="1.77199">
        <ele>191</ele>
        <time>2011-10-16T10:42:58.000Z</time>
      </trkpt>
      <trkpt lat="48.75815" lon="1.77212">
        <ele>191</ele>
        <time>2011-10-16T10:43:04.000Z</time>
      </trkpt>
      <trkpt lat="48.75816" lon="1.77215">
        <ele>191</ele>
        <time>2011-10-16T10:43:06.000Z</time>
      </trkpt>
      <trkpt lat="48.75817" lon="1.77226">
        <ele>191</ele>
        <time>2011-10-16T10:43:12.000Z</time>
      </trkpt>
      <trkpt lat="48.75817" lon="1.77233">
        <ele>190.80000305176</ele>
        <time>2011-10-16T10:43:15.000Z</time>
      </trkpt>
      <trkpt lat="48.75819" lon="1.77252">
        <ele>190.80000305176</ele>
        <time>2011-10-16T10:43:24.000Z</time>
      </trkpt>
      <trkpt lat="48.75821" lon="1.77258">
        <ele>190.80000305176</ele>
        <time>2011-10-16T10:43:27.000Z</time>
      </trkpt>
      <trkpt lat="48.75822" lon="1.77268">
        <ele>190.80000305176</ele>
        <time>2011-10-16T10:43:32.000Z</time>
      </trkpt>
      <trkpt lat="48.75822" lon="1.77271">
        <ele>190.80000305176</ele>
        <time>2011-10-16T10:43:33.000Z</time>
      </trkpt>
      <trkpt lat="48.75824" lon="1.77279">
        <ele>190.60000610352</ele>
        <time>2011-10-16T10:43:38.000Z</time>
      </trkpt>
      <trkpt lat="48.75826" lon="1.77291">
        <ele>190.60000610352</ele>
        <time>2011-10-16T10:43:44.000Z</time>
      </trkpt>
      <trkpt lat="48.75828" lon="1.77308">
        <ele>190.19999694824</ele>
        <time>2011-10-16T10:43:51.000Z</time>
      </trkpt>
      <trkpt lat="48.75831" lon="1.77324">
        <ele>190</ele>
        <time>2011-10-16T10:43:58.000Z</time>
      </trkpt>
      <trkpt lat="48.75831" lon="1.77329">
        <ele>190</ele>
        <time>2011-10-16T10:44:00.000Z</time>
      </trkpt>
      <trkpt lat="48.75833" lon="1.7734">
        <ele>190</ele>
        <time>2011-10-16T10:44:05.000Z</time>
      </trkpt>
      <trkpt lat="48.75835" lon="1.77358">
        <ele>190</ele>
        <time>2011-10-16T10:44:13.000Z</time>
      </trkpt>
      <trkpt lat="48.75836" lon="1.7737">
        <ele>190</ele>
        <time>2011-10-16T10:44:19.000Z</time>
      </trkpt>
      <trkpt lat="48.75836" lon="1.77388">
        <ele>190</ele>
        <time>2011-10-16T10:44:26.000Z</time>
      </trkpt>
      <trkpt lat="48.75836" lon="1.7739">
        <ele>190</ele>
        <time>2011-10-16T10:44:27.000Z</time>
      </trkpt>
      <trkpt lat="48.75836" lon="1.77397">
        <ele>190</ele>
        <time>2011-10-16T10:44:30.000Z</time>
      </trkpt>
      <trkpt lat="48.75837" lon="1.77425">
        <ele>190</ele>
        <time>2011-10-16T10:44:41.000Z</time>
      </trkpt>
      <trkpt lat="48.75837" lon="1.77427">
        <ele>190</ele>
        <time>2011-10-16T10:44:42.000Z</time>
      </trkpt>
      <trkpt lat="48.75839" lon="1.77444">
        <ele>190.19999694824</ele>
        <time>2011-10-16T10:44:49.000Z</time>
      </trkpt>
      <trkpt lat="48.75841" lon="1.77461">
        <ele>190.39999389648</ele>
        <time>2011-10-16T10:44:57.000Z</time>
      </trkpt>
      <trkpt lat="48.75844" lon="1.77473">
        <ele>190.39999389648</ele>
        <time>2011-10-16T10:45:03.000Z</time>
      </trkpt>
      <trkpt lat="48.75846" lon="1.77486">
        <ele>190.60000610352</ele>
        <time>2011-10-16T10:45:09.000Z</time>
      </trkpt>
      <trkpt lat="48.75849" lon="1.77495">
        <ele>190.60000610352</ele>
        <time>2011-10-16T10:45:13.000Z</time>
      </trkpt>
      <trkpt lat="48.75849" lon="1.77505">
        <ele>190.80000305176</ele>
        <time>2011-10-16T10:45:18.000Z</time>
      </trkpt>
      <trkpt lat="48.75853" lon="1.77522">
        <ele>191.19999694824</ele>
        <time>2011-10-16T10:45:26.000Z</time>
      </trkpt>
      <trkpt lat="48.75855" lon="1.77537">
        <ele>191.39999389648</ele>
        <time>2011-10-16T10:45:32.000Z</time>
      </trkpt>
      <trkpt lat="48.75856" lon="1.7755">
        <ele>191.80000305176</ele>
        <time>2011-10-16T10:45:39.000Z</time>
      </trkpt>
      <trkpt lat="48.75853" lon="1.77563">
        <ele>192</ele>
        <time>2011-10-16T10:45:44.000Z</time>
      </trkpt>
      <trkpt lat="48.75848" lon="1.77578">
        <ele>192.19999694824</ele>
        <time>2011-10-16T10:45:51.000Z</time>
      </trkpt>
      <trkpt lat="48.75842" lon="1.77594">
        <ele>192</ele>
        <time>2011-10-16T10:45:58.000Z</time>
      </trkpt>
      <trkpt lat="48.75839" lon="1.77599">
        <ele>192</ele>
        <time>2011-10-16T10:46:01.000Z</time>
      </trkpt>
      <trkpt lat="48.75834" lon="1.7761">
        <ele>192</ele>
        <time>2011-10-16T10:46:07.000Z</time>
      </trkpt>
      <trkpt lat="48.75826" lon="1.77628">
        <ele>191.80000305176</ele>
        <time>2011-10-16T10:46:15.000Z</time>
      </trkpt>
      <trkpt lat="48.7582" lon="1.77641">
        <ele>191.60000610352</ele>
        <time>2011-10-16T10:46:21.000Z</time>
      </trkpt>
      <trkpt lat="48.75816" lon="1.77648">
        <ele>191.39999389648</ele>
        <time>2011-10-16T10:46:25.000Z</time>
      </trkpt>
      <trkpt lat="48.75812" lon="1.77658">
        <ele>191.39999389648</ele>
        <time>2011-10-16T10:46:30.000Z</time>
      </trkpt>
      <trkpt lat="48.75809" lon="1.7767">
        <ele>191.39999389648</ele>
        <time>2011-10-16T10:46:37.000Z</time>
      </trkpt>
      <trkpt lat="48.75808" lon="1.77674">
        <ele>191.60000610352</ele>
        <time>2011-10-16T10:46:43.000Z</time>
      </trkpt>
      <trkpt lat="48.75808" lon="1.77675">
        <ele>191.60000610352</ele>
        <time>2011-10-16T10:46:44.000Z</time>
      </trkpt>
      <trkpt lat="48.75792" lon="1.77705">
        <ele>192.39999389648</ele>
        <time>2011-10-16T10:47:18.000Z</time>
      </trkpt>
      <trkpt lat="48.75788" lon="1.77712">
        <ele>192.39999389648</ele>
        <time>2011-10-16T10:47:20.000Z</time>
      </trkpt>
      <trkpt lat="48.75781" lon="1.77726">
        <ele>193</ele>
        <time>2011-10-16T10:47:29.000Z</time>
      </trkpt>
      <trkpt lat="48.7578" lon="1.77731">
        <ele>193.19999694824</ele>
        <time>2011-10-16T10:47:31.000Z</time>
      </trkpt>
      <trkpt lat="48.75776" lon="1.77739">
        <ele>193.39999389648</ele>
        <time>2011-10-16T10:47:36.000Z</time>
      </trkpt>
      <trkpt lat="48.75772" lon="1.77748">
        <ele>193.80000305176</ele>
        <time>2011-10-16T10:47:41.000Z</time>
      </trkpt>
      <trkpt lat="48.75771" lon="1.77749">
        <ele>193.80000305176</ele>
        <time>2011-10-16T10:47:42.000Z</time>
      </trkpt>
      <trkpt lat="48.75768" lon="1.7776">
        <ele>194.19999694824</ele>
        <time>2011-10-16T10:47:49.000Z</time>
      </trkpt>
      <trkpt lat="48.75763" lon="1.7777">
        <ele>194.39999389648</ele>
        <time>2011-10-16T10:47:56.000Z</time>
      </trkpt>
      <trkpt lat="48.7576" lon="1.77781">
        <ele>194.60000610352</ele>
        <time>2011-10-16T10:48:02.000Z</time>
      </trkpt>
      <trkpt lat="48.75752" lon="1.77793">
        <ele>195</ele>
        <time>2011-10-16T10:48:10.000Z</time>
      </trkpt>
      <trkpt lat="48.75745" lon="1.77804">
        <ele>195</ele>
        <time>2011-10-16T10:48:16.000Z</time>
      </trkpt>
      <trkpt lat="48.75739" lon="1.77812">
        <ele>195.19999694824</ele>
        <time>2011-10-16T10:48:21.000Z</time>
      </trkpt>
      <trkpt lat="48.75734" lon="1.77819">
        <ele>195.19999694824</ele>
        <time>2011-10-16T10:48:25.000Z</time>
      </trkpt>
      <trkpt lat="48.75727" lon="1.77832">
        <ele>195.39999389648</ele>
        <time>2011-10-16T10:48:32.000Z</time>
      </trkpt>
      <trkpt lat="48.7572" lon="1.77845">
        <ele>195</ele>
        <time>2011-10-16T10:48:39.000Z</time>
      </trkpt>
      <trkpt lat="48.75713" lon="1.77856">
        <ele>194.60000610352</ele>
        <time>2011-10-16T10:48:46.000Z</time>
      </trkpt>
      <trkpt lat="48.75708" lon="1.77866">
        <ele>194.39999389648</ele>
        <time>2011-10-16T10:48:53.000Z</time>
      </trkpt>
      <trkpt lat="48.75706" lon="1.77868">
        <ele>194.19999694824</ele>
        <time>2011-10-16T10:48:54.000Z</time>
      </trkpt>
      <trkpt lat="48.75696" lon="1.77888">
        <ele>193.80000305176</ele>
        <time>2011-10-16T10:49:02.000Z</time>
      </trkpt>
      <trkpt lat="48.75693" lon="1.77897">
        <ele>193.60000610352</ele>
        <time>2011-10-16T10:49:06.000Z</time>
      </trkpt>
      <trkpt lat="48.75687" lon="1.77904">
        <ele>193.39999389648</ele>
        <time>2011-10-16T10:49:10.000Z</time>
      </trkpt>
      <trkpt lat="48.7568" lon="1.77917">
        <ele>193</ele>
        <time>2011-10-16T10:49:18.000Z</time>
      </trkpt>
      <trkpt lat="48.75673" lon="1.7793">
        <ele>193.19999694824</ele>
        <time>2011-10-16T10:49:26.000Z</time>
      </trkpt>
      <trkpt lat="48.75672" lon="1.77931">
        <ele>193.19999694824</ele>
        <time>2011-10-16T10:49:27.000Z</time>
      </trkpt>
      <trkpt lat="48.7566" lon="1.77954">
        <ele>193.60000610352</ele>
        <time>2011-10-16T10:49:36.000Z</time>
      </trkpt>
      <trkpt lat="48.75652" lon="1.77968">
        <ele>193.80000305176</ele>
        <time>2011-10-16T10:49:43.000Z</time>
      </trkpt>
      <trkpt lat="48.75647" lon="1.77978">
        <ele>194.19999694824</ele>
        <time>2011-10-16T10:49:49.000Z</time>
      </trkpt>
      <trkpt lat="48.75642" lon="1.77984">
        <ele>194.39999389648</ele>
        <time>2011-10-16T10:49:54.000Z</time>
      </trkpt>
      <trkpt lat="48.75635" lon="1.77998">
        <ele>194.60000610352</ele>
        <time>2011-10-16T10:50:03.000Z</time>
      </trkpt>
      <trkpt lat="48.75626" lon="1.78014">
        <ele>195.19999694824</ele>
        <time>2011-10-16T10:50:12.000Z</time>
      </trkpt>
      <trkpt lat="48.7562" lon="1.78025">
        <ele>195.39999389648</ele>
        <time>2011-10-16T10:50:18.000Z</time>
      </trkpt>
      <trkpt lat="48.75611" lon="1.78043">
        <ele>196</ele>
        <time>2011-10-16T10:50:27.000Z</time>
      </trkpt>
      <trkpt lat="48.75605" lon="1.78054">
        <ele>196.19999694824</ele>
        <time>2011-10-16T10:50:33.000Z</time>
      </trkpt>
      <trkpt lat="48.75597" lon="1.78069">
        <ele>196.60000610352</ele>
        <time>2011-10-16T10:50:41.000Z</time>
      </trkpt>
      <trkpt lat="48.7559" lon="1.78084">
        <ele>196.80000305176</ele>
        <time>2011-10-16T10:50:49.000Z</time>
      </trkpt>
      <trkpt lat="48.75582" lon="1.781">
        <ele>196.39999389648</ele>
        <time>2011-10-16T10:50:58.000Z</time>
      </trkpt>
      <trkpt lat="48.75581" lon="1.78103">
        <ele>196.39999389648</ele>
        <time>2011-10-16T10:50:59.000Z</time>
      </trkpt>
      <trkpt lat="48.75576" lon="1.78106">
        <ele>196.19999694824</ele>
        <time>2011-10-16T10:51:05.000Z</time>
      </trkpt>
      <trkpt lat="48.75567" lon="1.78126">
        <ele>195.80000305176</ele>
        <time>2011-10-16T10:51:39.000Z</time>
      </trkpt>
      <trkpt lat="48.75565" lon="1.7813">
        <ele>195.60000610352</ele>
        <time>2011-10-16T10:51:41.000Z</time>
      </trkpt>
      <trkpt lat="48.75558" lon="1.78143">
        <ele>195.39999389648</ele>
        <time>2011-10-16T10:51:50.000Z</time>
      </trkpt>
      <trkpt lat="48.75554" lon="1.78152">
        <ele>195.19999694824</ele>
        <time>2011-10-16T10:51:56.000Z</time>
      </trkpt>
      <trkpt lat="48.75546" lon="1.78166">
        <ele>195</ele>
        <time>2011-10-16T10:52:04.000Z</time>
      </trkpt>
      <trkpt lat="48.7554" lon="1.78179">
        <ele>194.80000305176</ele>
        <time>2011-10-16T10:52:11.000Z</time>
      </trkpt>
      <trkpt lat="48.75538" lon="1.78183">
        <ele>194.80000305176</ele>
        <time>2011-10-16T10:52:13.000Z</time>
      </trkpt>
      <trkpt lat="48.75535" lon="1.7819">
        <ele>194.80000305176</ele>
        <time>2011-10-16T10:52:17.000Z</time>
      </trkpt>
      <trkpt lat="48.75527" lon="1.78203">
        <ele>194.60000610352</ele>
        <time>2011-10-16T10:52:26.000Z</time>
      </trkpt>
      <trkpt lat="48.75522" lon="1.78214">
        <ele>194.39999389648</ele>
        <time>2011-10-16T10:52:32.000Z</time>
      </trkpt>
      <trkpt lat="48.75515" lon="1.78226">
        <ele>194.39999389648</ele>
        <time>2011-10-16T10:52:39.000Z</time>
      </trkpt>
      <trkpt lat="48.75511" lon="1.78236">
        <ele>194.19999694824</ele>
        <time>2011-10-16T10:52:44.000Z</time>
      </trkpt>
      <trkpt lat="48.75504" lon="1.78249">
        <ele>194</ele>
        <time>2011-10-16T10:52:52.000Z</time>
      </trkpt>
      <trkpt lat="48.75498" lon="1.78262">
        <ele>193.60000610352</ele>
        <time>2011-10-16T10:52:59.000Z</time>
      </trkpt>
      <trkpt lat="48.75492" lon="1.78275">
        <ele>193.19999694824</ele>
        <time>2011-10-16T10:53:07.000Z</time>
      </trkpt>
      <trkpt lat="48.75491" lon="1.78277">
        <ele>193.19999694824</ele>
        <time>2011-10-16T10:53:08.000Z</time>
      </trkpt>
      <trkpt lat="48.75487" lon="1.78287">
        <ele>193</ele>
        <time>2011-10-16T10:53:13.000Z</time>
      </trkpt>
      <trkpt lat="48.75483" lon="1.783">
        <ele>192.80000305176</ele>
        <time>2011-10-16T10:53:20.000Z</time>
      </trkpt>
      <trkpt lat="48.75482" lon="1.78302">
        <ele>192.80000305176</ele>
        <time>2011-10-16T10:53:21.000Z</time>
      </trkpt>
      <trkpt lat="48.75477" lon="1.78314">
        <ele>192.80000305176</ele>
        <time>2011-10-16T10:53:28.000Z</time>
      </trkpt>
      <trkpt lat="48.75473" lon="1.78323">
        <ele>192.80000305176</ele>
        <time>2011-10-16T10:53:33.000Z</time>
      </trkpt>
      <trkpt lat="48.75469" lon="1.78339">
        <ele>192.80000305176</ele>
        <time>2011-10-16T10:53:40.000Z</time>
      </trkpt>
      <trkpt lat="48.75464" lon="1.78348">
        <ele>193.19999694824</ele>
        <time>2011-10-16T10:53:45.000Z</time>
      </trkpt>
      <trkpt lat="48.75459" lon="1.7836">
        <ele>193.60000610352</ele>
        <time>2011-10-16T10:53:51.000Z</time>
      </trkpt>
      <trkpt lat="48.75455" lon="1.78369">
        <ele>193.80000305176</ele>
        <time>2011-10-16T10:53:56.000Z</time>
      </trkpt>
      <trkpt lat="48.7545" lon="1.78382">
        <ele>194</ele>
        <time>2011-10-16T10:54:03.000Z</time>
      </trkpt>
      <trkpt lat="48.75446" lon="1.78392">
        <ele>194.19999694824</ele>
        <time>2011-10-16T10:54:09.000Z</time>
      </trkpt>
      <trkpt lat="48.75441" lon="1.78408">
        <ele>194.39999389648</ele>
        <time>2011-10-16T10:54:16.000Z</time>
      </trkpt>
      <trkpt lat="48.75436" lon="1.78419">
        <ele>194.39999389648</ele>
        <time>2011-10-16T10:54:22.000Z</time>
      </trkpt>
      <trkpt lat="48.75431" lon="1.78435">
        <ele>194.19999694824</ele>
        <time>2011-10-16T10:54:30.000Z</time>
      </trkpt>
      <trkpt lat="48.7543" lon="1.78437">
        <ele>194.19999694824</ele>
        <time>2011-10-16T10:54:31.000Z</time>
      </trkpt>
      <trkpt lat="48.75425" lon="1.7845">
        <ele>194</ele>
        <time>2011-10-16T10:54:38.000Z</time>
      </trkpt>
      <trkpt lat="48.75421" lon="1.78463">
        <ele>193.80000305176</ele>
        <time>2011-10-16T10:54:45.000Z</time>
      </trkpt>
      <trkpt lat="48.7542" lon="1.78466">
        <ele>193.60000610352</ele>
        <time>2011-10-16T10:54:46.000Z</time>
      </trkpt>
      <trkpt lat="48.75416" lon="1.7848">
        <ele>193.39999389648</ele>
        <time>2011-10-16T10:54:53.000Z</time>
      </trkpt>
      <trkpt lat="48.7541" lon="1.78494">
        <ele>193.19999694824</ele>
        <time>2011-10-16T10:55:00.000Z</time>
      </trkpt>
      <trkpt lat="48.75406" lon="1.78505">
        <ele>193</ele>
        <time>2011-10-16T10:55:06.000Z</time>
      </trkpt>
      <trkpt lat="48.75401" lon="1.78519">
        <ele>193</ele>
        <time>2011-10-16T10:55:13.000Z</time>
      </trkpt>
      <trkpt lat="48.75396" lon="1.7853">
        <ele>193</ele>
        <time>2011-10-16T10:55:20.000Z</time>
      </trkpt>
      <trkpt lat="48.75389" lon="1.78548">
        <ele>193</ele>
        <time>2011-10-16T10:55:28.000Z</time>
      </trkpt>
      <trkpt lat="48.75388" lon="1.7855">
        <ele>193</ele>
        <time>2011-10-16T10:55:29.000Z</time>
      </trkpt>
      <trkpt lat="48.75386" lon="1.78558">
        <ele>193</ele>
        <time>2011-10-16T10:55:33.000Z</time>
      </trkpt>
      <trkpt lat="48.75383" lon="1.78569">
        <ele>192.80000305176</ele>
        <time>2011-10-16T10:55:38.000Z</time>
      </trkpt>
      <trkpt lat="48.7538" lon="1.78579">
        <ele>192.80000305176</ele>
        <time>2011-10-16T10:55:43.000Z</time>
      </trkpt>
      <trkpt lat="48.75374" lon="1.78594">
        <ele>192.80000305176</ele>
        <time>2011-10-16T10:55:51.000Z</time>
      </trkpt>
      <trkpt lat="48.75368" lon="1.78608">
        <ele>192.60000610352</ele>
        <time>2011-10-16T10:55:59.000Z</time>
      </trkpt>
      <trkpt lat="48.75362" lon="1.78621">
        <ele>192.60000610352</ele>
        <time>2011-10-16T10:56:07.000Z</time>
      </trkpt>
      <trkpt lat="48.7536" lon="1.78627">
        <ele>192.60000610352</ele>
        <time>2011-10-16T10:56:13.000Z</time>
      </trkpt>
      <trkpt lat="48.75359" lon="1.78627">
        <ele>192.60000610352</ele>
        <time>2011-10-16T10:56:14.000Z</time>
      </trkpt>
      <trkpt lat="48.75357" lon="1.78638">
        <ele>192.60000610352</ele>
        <time>2011-10-16T10:56:33.000Z</time>
      </trkpt>
      <trkpt lat="48.75352" lon="1.78649">
        <ele>192.39999389648</ele>
        <time>2011-10-16T10:56:38.000Z</time>
      </trkpt>
      <trkpt lat="48.75346" lon="1.78665">
        <ele>192.39999389648</ele>
        <time>2011-10-16T10:56:47.000Z</time>
      </trkpt>
      <trkpt lat="48.75341" lon="1.7868">
        <ele>192.39999389648</ele>
        <time>2011-10-16T10:56:54.000Z</time>
      </trkpt>
      <trkpt lat="48.75336" lon="1.78696">
        <ele>192.39999389648</ele>
        <time>2011-10-16T10:57:02.000Z</time>
      </trkpt>
      <trkpt lat="48.75332" lon="1.78707">
        <ele>192.39999389648</ele>
        <time>2011-10-16T10:57:09.000Z</time>
      </trkpt>
      <trkpt lat="48.75327" lon="1.78722">
        <ele>192.39999389648</ele>
        <time>2011-10-16T10:57:17.000Z</time>
      </trkpt>
      <trkpt lat="48.75325" lon="1.78726">
        <ele>192.19999694824</ele>
        <time>2011-10-16T10:57:19.000Z</time>
      </trkpt>
      <trkpt lat="48.75322" lon="1.78734">
        <ele>192.19999694824</ele>
        <time>2011-10-16T10:57:23.000Z</time>
      </trkpt>
      <trkpt lat="48.7532" lon="1.78742">
        <ele>192.19999694824</ele>
        <time>2011-10-16T10:57:27.000Z</time>
      </trkpt>
      <trkpt lat="48.75315" lon="1.78754">
        <ele>192</ele>
        <time>2011-10-16T10:57:33.000Z</time>
      </trkpt>
      <trkpt lat="48.75314" lon="1.7876">
        <ele>192</ele>
        <time>2011-10-16T10:57:36.000Z</time>
      </trkpt>
      <trkpt lat="48.75307" lon="1.78773">
        <ele>192.19999694824</ele>
        <time>2011-10-16T10:57:43.000Z</time>
      </trkpt>
      <trkpt lat="48.75306" lon="1.78776">
        <ele>192.19999694824</ele>
        <time>2011-10-16T10:57:45.000Z</time>
      </trkpt>
      <trkpt lat="48.75302" lon="1.78789">
        <ele>192.19999694824</ele>
        <time>2011-10-16T10:57:53.000Z</time>
      </trkpt>
      <trkpt lat="48.75298" lon="1.78801">
        <ele>192.19999694824</ele>
        <time>2011-10-16T10:58:00.000Z</time>
      </trkpt>
      <trkpt lat="48.75293" lon="1.78815">
        <ele>192.39999389648</ele>
        <time>2011-10-16T10:58:07.000Z</time>
      </trkpt>
      <trkpt lat="48.75287" lon="1.78827">
        <ele>192.60000610352</ele>
        <time>2011-10-16T10:58:13.000Z</time>
      </trkpt>
      <trkpt lat="48.75282" lon="1.78845">
        <ele>192.80000305176</ele>
        <time>2011-10-16T10:58:21.000Z</time>
      </trkpt>
      <trkpt lat="48.75276" lon="1.78862">
        <ele>193</ele>
        <time>2011-10-16T10:58:29.000Z</time>
      </trkpt>
      <trkpt lat="48.75271" lon="1.78875">
        <ele>193.19999694824</ele>
        <time>2011-10-16T10:58:36.000Z</time>
      </trkpt>
      <trkpt lat="48.75267" lon="1.78885">
        <ele>193.19999694824</ele>
        <time>2011-10-16T10:58:41.000Z</time>
      </trkpt>
      <trkpt lat="48.75264" lon="1.78893">
        <ele>193.39999389648</ele>
        <time>2011-10-16T10:58:45.000Z</time>
      </trkpt>
      <trkpt lat="48.75264" lon="1.78895">
        <ele>193.39999389648</ele>
        <time>2011-10-16T10:58:46.000Z</time>
      </trkpt>
      <trkpt lat="48.75262" lon="1.78899">
        <ele>193.39999389648</ele>
        <time>2011-10-16T10:58:48.000Z</time>
      </trkpt>
      <trkpt lat="48.75258" lon="1.78907">
        <ele>193.60000610352</ele>
        <time>2011-10-16T10:58:53.000Z</time>
      </trkpt>
      <trkpt lat="48.75255" lon="1.78916">
        <ele>193.80000305176</ele>
        <time>2011-10-16T10:58:58.000Z</time>
      </trkpt>
      <trkpt lat="48.75251" lon="1.78927">
        <ele>193.80000305176</ele>
        <time>2011-10-16T10:59:03.000Z</time>
      </trkpt>
      <trkpt lat="48.75245" lon="1.78944">
        <ele>193.80000305176</ele>
        <time>2011-10-16T10:59:12.000Z</time>
      </trkpt>
      <trkpt lat="48.75239" lon="1.78961">
        <ele>193.80000305176</ele>
        <time>2011-10-16T10:59:21.000Z</time>
      </trkpt>
      <trkpt lat="48.75234" lon="1.78976">
        <ele>193.80000305176</ele>
        <time>2011-10-16T10:59:28.000Z</time>
      </trkpt>
      <trkpt lat="48.7523" lon="1.78987">
        <ele>193.80000305176</ele>
        <time>2011-10-16T10:59:34.000Z</time>
      </trkpt>
      <trkpt lat="48.75225" lon="1.78999">
        <ele>193.80000305176</ele>
        <time>2011-10-16T10:59:40.000Z</time>
      </trkpt>
      <trkpt lat="48.7522" lon="1.79013">
        <ele>193.80000305176</ele>
        <time>2011-10-16T10:59:47.000Z</time>
      </trkpt>
      <trkpt lat="48.75213" lon="1.79032">
        <ele>193.60000610352</ele>
        <time>2011-10-16T10:59:57.000Z</time>
      </trkpt>
      <trkpt lat="48.75209" lon="1.79044">
        <ele>193.60000610352</ele>
        <time>2011-10-16T11:00:03.000Z</time>
      </trkpt>
      <trkpt lat="48.75208" lon="1.79045">
        <ele>193.60000610352</ele>
        <time>2011-10-16T11:00:04.000Z</time>
      </trkpt>
      <trkpt lat="48.75203" lon="1.79059">
        <ele>193.39999389648</ele>
        <time>2011-10-16T11:00:11.000Z</time>
      </trkpt>
      <trkpt lat="48.752" lon="1.79066">
        <ele>193.39999389648</ele>
        <time>2011-10-16T11:00:15.000Z</time>
      </trkpt>
      <trkpt lat="48.75195" lon="1.79076">
        <ele>193.39999389648</ele>
        <time>2011-10-16T11:00:21.000Z</time>
      </trkpt>
      <trkpt lat="48.75189" lon="1.79086">
        <ele>193.19999694824</ele>
        <time>2011-10-16T11:00:27.000Z</time>
      </trkpt>
      <trkpt lat="48.75183" lon="1.79094">
        <ele>193</ele>
        <time>2011-10-16T11:00:33.000Z</time>
      </trkpt>
      <trkpt lat="48.75177" lon="1.79105">
        <ele>192.60000610352</ele>
        <time>2011-10-16T11:00:41.000Z</time>
      </trkpt>
      <trkpt lat="48.75177" lon="1.79114">
        <ele>192.19999694824</ele>
        <time>2011-10-16T11:00:46.000Z</time>
      </trkpt>
      <trkpt lat="48.75167" lon="1.79125">
        <ele>191.80000305176</ele>
        <time>2011-10-16T11:00:54.000Z</time>
      </trkpt>
      <trkpt lat="48.7516" lon="1.79132">
        <ele>192</ele>
        <time>2011-10-16T11:01:01.000Z</time>
      </trkpt>
      <trkpt lat="48.7515" lon="1.79128">
        <ele>192.60000610352</ele>
        <time>2011-10-16T11:01:09.000Z</time>
      </trkpt>
      <trkpt lat="48.75144" lon="1.79124">
        <ele>193</ele>
        <time>2011-10-16T11:01:14.000Z</time>
      </trkpt>
      <trkpt lat="48.75133" lon="1.7912">
        <ele>193.60000610352</ele>
        <time>2011-10-16T11:01:22.000Z</time>
      </trkpt>
      <trkpt lat="48.75122" lon="1.79113">
        <ele>194.39999389648</ele>
        <time>2011-10-16T11:01:30.000Z</time>
      </trkpt>
      <trkpt lat="48.75121" lon="1.79112">
        <ele>194.39999389648</ele>
        <time>2011-10-16T11:01:31.000Z</time>
      </trkpt>
      <trkpt lat="48.75117" lon="1.79109">
        <ele>194.60000610352</ele>
        <time>2011-10-16T11:01:36.000Z</time>
      </trkpt>
      <trkpt lat="48.75106" lon="1.79104">
        <ele>195</ele>
        <time>2011-10-16T11:01:44.000Z</time>
      </trkpt>
      <trkpt lat="48.75092" lon="1.79103">
        <ele>195.60000610352</ele>
        <time>2011-10-16T11:01:54.000Z</time>
      </trkpt>
      <trkpt lat="48.75083" lon="1.79099">
        <ele>195.80000305176</ele>
        <time>2011-10-16T11:02:00.000Z</time>
      </trkpt>
      <trkpt lat="48.75074" lon="1.791">
        <ele>195.60000610352</ele>
        <time>2011-10-16T11:02:06.000Z</time>
      </trkpt>
      <trkpt lat="48.75066" lon="1.79094">
        <ele>195.39999389648</ele>
        <time>2011-10-16T11:02:12.000Z</time>
      </trkpt>
      <trkpt lat="48.75062" lon="1.79094">
        <ele>195.39999389648</ele>
        <time>2011-10-16T11:02:15.000Z</time>
      </trkpt>
      <trkpt lat="48.75052" lon="1.79089">
        <ele>195.19999694824</ele>
        <time>2011-10-16T11:02:22.000Z</time>
      </trkpt>
      <trkpt lat="48.75042" lon="1.79082">
        <ele>195</ele>
        <time>2011-10-16T11:02:29.000Z</time>
      </trkpt>
      <trkpt lat="48.75028" lon="1.79076">
        <ele>194.60000610352</ele>
        <time>2011-10-16T11:02:37.000Z</time>
      </trkpt>
      <trkpt lat="48.75012" lon="1.79069">
        <ele>194.39999389648</ele>
        <time>2011-10-16T11:02:42.000Z</time>
      </trkpt>
      <trkpt lat="48.74987" lon="1.79057">
        <ele>194.19999694824</ele>
        <time>2011-10-16T11:02:48.000Z</time>
      </trkpt>
      <trkpt lat="48.7498" lon="1.79054">
        <ele>194.19999694824</ele>
        <time>2011-10-16T11:02:50.000Z</time>
      </trkpt>
      <trkpt lat="48.74964" lon="1.79048">
        <ele>194</ele>
        <time>2011-10-16T11:02:54.000Z</time>
      </trkpt>
      <trkpt lat="48.74936" lon="1.79031">
        <ele>193.39999389648</ele>
        <time>2011-10-16T11:03:02.000Z</time>
      </trkpt>
      <trkpt lat="48.74923" lon="1.79027">
        <ele>193</ele>
        <time>2011-10-16T11:03:06.000Z</time>
      </trkpt>
      <trkpt lat="48.74901" lon="1.79017">
        <ele>192.80000305176</ele>
        <time>2011-10-16T11:03:12.000Z</time>
      </trkpt>
      <trkpt lat="48.74885" lon="1.79009">
        <ele>192.60000610352</ele>
        <time>2011-10-16T11:03:16.000Z</time>
      </trkpt>
      <trkpt lat="48.74871" lon="1.78998">
        <ele>192.19999694824</ele>
        <time>2011-10-16T11:03:20.000Z</time>
      </trkpt>
      <trkpt lat="48.74855" lon="1.78992">
        <ele>192</ele>
        <time>2011-10-16T11:03:24.000Z</time>
      </trkpt>
      <trkpt lat="48.74841" lon="1.78989">
        <ele>191.80000305176</ele>
        <time>2011-10-16T11:03:28.000Z</time>
      </trkpt>
      <trkpt lat="48.74824" lon="1.78983">
        <ele>191.60000610352</ele>
        <time>2011-10-16T11:03:33.000Z</time>
      </trkpt>
      <trkpt lat="48.74807" lon="1.78974">
        <ele>191.80000305176</ele>
        <time>2011-10-16T11:03:38.000Z</time>
      </trkpt>
      <trkpt lat="48.74796" lon="1.78969">
        <ele>192</ele>
        <time>2011-10-16T11:03:43.000Z</time>
      </trkpt>
      <trkpt lat="48.7479" lon="1.78967">
        <ele>192</ele>
        <time>2011-10-16T11:03:48.000Z</time>
      </trkpt>
      <trkpt lat="48.74781" lon="1.78966">
        <ele>192.19999694824</ele>
        <time>2011-10-16T11:03:52.000Z</time>
      </trkpt>
      <trkpt lat="48.7477" lon="1.78961">
        <ele>192.39999389648</ele>
        <time>2011-10-16T11:03:58.000Z</time>
      </trkpt>
      <trkpt lat="48.74756" lon="1.78955">
        <ele>192.80000305176</ele>
        <time>2011-10-16T11:04:04.000Z</time>
      </trkpt>
      <trkpt lat="48.74742" lon="1.78946">
        <ele>192.60000610352</ele>
        <time>2011-10-16T11:04:10.000Z</time>
      </trkpt>
      <trkpt lat="48.74729" lon="1.78942">
        <ele>192</ele>
        <time>2011-10-16T11:04:15.000Z</time>
      </trkpt>
      <trkpt lat="48.74713" lon="1.78936">
        <ele>191.39999389648</ele>
        <time>2011-10-16T11:04:21.000Z</time>
      </trkpt>
      <trkpt lat="48.74696" lon="1.78926">
        <ele>190.39999389648</ele>
        <time>2011-10-16T11:04:27.000Z</time>
      </trkpt>
      <trkpt lat="48.74681" lon="1.78918">
        <ele>189.60000610352</ele>
        <time>2011-10-16T11:04:32.000Z</time>
      </trkpt>
      <trkpt lat="48.74669" lon="1.78909">
        <ele>189</ele>
        <time>2011-10-16T11:04:38.000Z</time>
      </trkpt>
      <trkpt lat="48.74665" lon="1.78905">
        <ele>189</ele>
        <time>2011-10-16T11:04:41.000Z</time>
      </trkpt>
      <trkpt lat="48.74665" lon="1.78904">
        <ele>189</ele>
        <time>2011-10-16T11:04:44.000Z</time>
      </trkpt>
      <trkpt lat="48.74666" lon="1.78895">
        <ele>189.19999694824</ele>
        <time>2011-10-16T11:04:51.000Z</time>
      </trkpt>
      <trkpt lat="48.74667" lon="1.78894">
        <ele>189.19999694824</ele>
        <time>2011-10-16T11:04:52.000Z</time>
      </trkpt>
      <trkpt lat="48.74667" lon="1.78892">
        <ele>189.19999694824</ele>
        <time>2011-10-16T11:04:53.000Z</time>
      </trkpt>
      <trkpt lat="48.74667" lon="1.78891">
        <ele>189.19999694824</ele>
        <time>2011-10-16T11:04:56.000Z</time>
      </trkpt>
      <trkpt lat="48.74662" lon="1.78887">
        <ele>189</ele>
        <time>2011-10-16T11:05:13.000Z</time>
      </trkpt>
      <trkpt lat="48.74657" lon="1.78879">
        <ele>188.80000305176</ele>
        <time>2011-10-16T11:05:16.000Z</time>
      </trkpt>
      <trkpt lat="48.74652" lon="1.78869">
        <ele>188.60000610352</ele>
        <time>2011-10-16T11:05:22.000Z</time>
      </trkpt>
      <trkpt lat="48.74651" lon="1.78867">
        <ele>188.60000610352</ele>
        <time>2011-10-16T11:05:23.000Z</time>
      </trkpt>
      <trkpt lat="48.74644" lon="1.78855">
        <ele>188.19999694824</ele>
        <time>2011-10-16T11:05:30.000Z</time>
      </trkpt>
      <trkpt lat="48.74642" lon="1.78852">
        <ele>188.19999694824</ele>
        <time>2011-10-16T11:05:32.000Z</time>
      </trkpt>
      <trkpt lat="48.74635" lon="1.78844">
        <ele>187.80000305176</ele>
        <time>2011-10-16T11:05:39.000Z</time>
      </trkpt>
      <trkpt lat="48.74635" lon="1.78839">
        <ele>188</ele>
        <time>2011-10-16T11:05:41.000Z</time>
      </trkpt>
      <trkpt lat="48.74629" lon="1.78822">
        <ele>187.60000610352</ele>
        <time>2011-10-16T11:05:49.000Z</time>
      </trkpt>
      <trkpt lat="48.74623" lon="1.7881">
        <ele>187.19999694824</ele>
        <time>2011-10-16T11:05:56.000Z</time>
      </trkpt>
      <trkpt lat="48.74618" lon="1.78797">
        <ele>187</ele>
        <time>2011-10-16T11:06:02.000Z</time>
      </trkpt>
      <trkpt lat="48.74614" lon="1.78788">
        <ele>186.80000305176</ele>
        <time>2011-10-16T11:06:07.000Z</time>
      </trkpt>
      <trkpt lat="48.74611" lon="1.7878">
        <ele>186.80000305176</ele>
        <time>2011-10-16T11:06:11.000Z</time>
      </trkpt>
      <trkpt lat="48.74602" lon="1.7876">
        <ele>186.60000610352</ele>
        <time>2011-10-16T11:06:21.000Z</time>
      </trkpt>
      <trkpt lat="48.74597" lon="1.78746">
        <ele>186.39999389648</ele>
        <time>2011-10-16T11:06:28.000Z</time>
      </trkpt>
      <trkpt lat="48.7459" lon="1.78733">
        <ele>186.60000610352</ele>
        <time>2011-10-16T11:06:36.000Z</time>
      </trkpt>
      <trkpt lat="48.74587" lon="1.78721">
        <ele>186.80000305176</ele>
        <time>2011-10-16T11:06:42.000Z</time>
      </trkpt>
      <trkpt lat="48.74579" lon="1.78703">
        <ele>186.80000305176</ele>
        <time>2011-10-16T11:06:51.000Z</time>
      </trkpt>
      <trkpt lat="48.7457" lon="1.78684">
        <ele>186.80000305176</ele>
        <time>2011-10-16T11:07:01.000Z</time>
      </trkpt>
      <trkpt lat="48.74563" lon="1.78671">
        <ele>186.60000610352</ele>
        <time>2011-10-16T11:07:08.000Z</time>
      </trkpt>
      <trkpt lat="48.74558" lon="1.78659">
        <ele>186.60000610352</ele>
        <time>2011-10-16T11:07:14.000Z</time>
      </trkpt>
      <trkpt lat="48.74553" lon="1.78645">
        <ele>186.60000610352</ele>
        <time>2011-10-16T11:07:21.000Z</time>
      </trkpt>
      <trkpt lat="48.74545" lon="1.78635">
        <ele>186.39999389648</ele>
        <time>2011-10-16T11:07:28.000Z</time>
      </trkpt>
      <trkpt lat="48.74541" lon="1.78621">
        <ele>186.39999389648</ele>
        <time>2011-10-16T11:07:34.000Z</time>
      </trkpt>
      <trkpt lat="48.74534" lon="1.7861">
        <ele>186.19999694824</ele>
        <time>2011-10-16T11:07:41.000Z</time>
      </trkpt>
      <trkpt lat="48.74533" lon="1.78608">
        <ele>186.19999694824</ele>
        <time>2011-10-16T11:07:42.000Z</time>
      </trkpt>
      <trkpt lat="48.74526" lon="1.78594">
        <ele>186</ele>
        <time>2011-10-16T11:07:49.000Z</time>
      </trkpt>
      <trkpt lat="48.74522" lon="1.78578">
        <ele>185.80000305176</ele>
        <time>2011-10-16T11:07:56.000Z</time>
      </trkpt>
      <trkpt lat="48.74518" lon="1.78569">
        <ele>185.39999389648</ele>
        <time>2011-10-16T11:08:01.000Z</time>
      </trkpt>
      <trkpt lat="48.74516" lon="1.78566">
        <ele>185.39999389648</ele>
        <time>2011-10-16T11:08:03.000Z</time>
      </trkpt>
      <trkpt lat="48.74512" lon="1.78555">
        <ele>185.19999694824</ele>
        <time>2011-10-16T11:08:09.000Z</time>
      </trkpt>
      <trkpt lat="48.7451" lon="1.7855">
        <ele>185</ele>
        <time>2011-10-16T11:08:12.000Z</time>
      </trkpt>
      <trkpt lat="48.74501" lon="1.78532">
        <ele>184.60000610352</ele>
        <time>2011-10-16T11:08:21.000Z</time>
      </trkpt>
      <trkpt lat="48.74496" lon="1.78521">
        <ele>184.60000610352</ele>
        <time>2011-10-16T11:08:27.000Z</time>
      </trkpt>
      <trkpt lat="48.7449" lon="1.78505">
        <ele>185</ele>
        <time>2011-10-16T11:08:34.000Z</time>
      </trkpt>
      <trkpt lat="48.74487" lon="1.78495">
        <ele>185.19999694824</ele>
        <time>2011-10-16T11:08:39.000Z</time>
      </trkpt>
      <trkpt lat="48.74483" lon="1.78485">
        <ele>185.80000305176</ele>
        <time>2011-10-16T11:08:44.000Z</time>
      </trkpt>
      <trkpt lat="48.74476" lon="1.78474">
        <ele>186.39999389648</ele>
        <time>2011-10-16T11:08:50.000Z</time>
      </trkpt>
      <trkpt lat="48.74474" lon="1.78468">
        <ele>186.80000305176</ele>
        <time>2011-10-16T11:08:53.000Z</time>
      </trkpt>
      <trkpt lat="48.74471" lon="1.78456">
        <ele>187.39999389648</ele>
        <time>2011-10-16T11:08:58.000Z</time>
      </trkpt>
      <trkpt lat="48.74467" lon="1.78449">
        <ele>187.80000305176</ele>
        <time>2011-10-16T11:09:02.000Z</time>
      </trkpt>
      <trkpt lat="48.74465" lon="1.78444">
        <ele>188</ele>
        <time>2011-10-16T11:09:05.000Z</time>
      </trkpt>
      <trkpt lat="48.7446" lon="1.78435">
        <ele>188.60000610352</ele>
        <time>2011-10-16T11:09:12.000Z</time>
      </trkpt>
      <trkpt lat="48.74459" lon="1.78429">
        <ele>188.80000305176</ele>
        <time>2011-10-16T11:09:15.000Z</time>
      </trkpt>
      <trkpt lat="48.74459" lon="1.78424">
        <ele>189</ele>
        <time>2011-10-16T11:09:21.000Z</time>
      </trkpt>
      <trkpt lat="48.74459" lon="1.78424">
        <ele>189</ele>
        <time>2011-10-16T11:09:22.000Z</time>
      </trkpt>
      <trkpt lat="48.74466" lon="1.78418">
        <ele>189.19999694824</ele>
        <time>2011-10-16T11:09:30.000Z</time>
      </trkpt>
      <trkpt lat="48.74472" lon="1.78409">
        <ele>189.39999389648</ele>
        <time>2011-10-16T11:09:36.000Z</time>
      </trkpt>
      <trkpt lat="48.74483" lon="1.78397">
        <ele>189.39999389648</ele>
        <time>2011-10-16T11:09:45.000Z</time>
      </trkpt>
      <trkpt lat="48.74493" lon="1.78386">
        <ele>189.39999389648</ele>
        <time>2011-10-16T11:09:54.000Z</time>
      </trkpt>
      <trkpt lat="48.74503" lon="1.78377">
        <ele>189.39999389648</ele>
        <time>2011-10-16T11:10:04.000Z</time>
      </trkpt>
      <trkpt lat="48.74509" lon="1.7837">
        <ele>189.39999389648</ele>
        <time>2011-10-16T11:10:11.000Z</time>
      </trkpt>
      <trkpt lat="48.74516" lon="1.78362">
        <ele>189.39999389648</ele>
        <time>2011-10-16T11:10:17.000Z</time>
      </trkpt>
      <trkpt lat="48.74525" lon="1.78351">
        <ele>189.60000610352</ele>
        <time>2011-10-16T11:10:25.000Z</time>
      </trkpt>
      <trkpt lat="48.74539" lon="1.78336">
        <ele>189.39999389648</ele>
        <time>2011-10-16T11:10:36.000Z</time>
      </trkpt>
      <trkpt lat="48.74553" lon="1.78324">
        <ele>189</ele>
        <time>2011-10-16T11:10:46.000Z</time>
      </trkpt>
      <trkpt lat="48.7456" lon="1.78311">
        <ele>188.60000610352</ele>
        <time>2011-10-16T11:10:54.000Z</time>
      </trkpt>
      <trkpt lat="48.74561" lon="1.7831">
        <ele>188.39999389648</ele>
        <time>2011-10-16T11:10:55.000Z</time>
      </trkpt>
      <trkpt lat="48.74563" lon="1.78301">
        <ele>188.19999694824</ele>
        <time>2011-10-16T11:10:59.000Z</time>
      </trkpt>
      <trkpt lat="48.7456" lon="1.78281">
        <ele>187.60000610352</ele>
        <time>2011-10-16T11:11:09.000Z</time>
      </trkpt>
      <trkpt lat="48.7456" lon="1.78267">
        <ele>187.19999694824</ele>
        <time>2011-10-16T11:11:16.000Z</time>
      </trkpt>
      <trkpt lat="48.7456" lon="1.78265">
        <ele>187.19999694824</ele>
        <time>2011-10-16T11:11:17.000Z</time>
      </trkpt>
      <trkpt lat="48.74561" lon="1.78257">
        <ele>187</ele>
        <time>2011-10-16T11:11:23.000Z</time>
      </trkpt>
      <trkpt lat="48.7456" lon="1.78264">
        <ele>187.19999694824</ele>
        <time>2011-10-16T11:11:37.000Z</time>
      </trkpt>
      <trkpt lat="48.74554" lon="1.78266">
        <ele>187.39999389648</ele>
        <time>2011-10-16T11:11:41.000Z</time>
      </trkpt>
      <trkpt lat="48.74549" lon="1.78268">
        <ele>187.60000610352</ele>
        <time>2011-10-16T11:11:48.000Z</time>
      </trkpt>
      <trkpt lat="48.74542" lon="1.78268">
        <ele>187.80000305176</ele>
        <time>2011-10-16T11:12:16.000Z</time>
      </trkpt>
      <trkpt lat="48.7454" lon="1.78268">
        <ele>187.80000305176</ele>
        <time>2011-10-16T11:12:17.000Z</time>
      </trkpt>
      <trkpt lat="48.74539" lon="1.78265">
        <ele>187.80000305176</ele>
        <time>2011-10-16T11:12:22.000Z</time>
      </trkpt>
      <trkpt lat="48.74541" lon="1.78266">
        <ele>187.80000305176</ele>
        <time>2011-10-16T11:12:24.000Z</time>
      </trkpt>
      <trkpt lat="48.74543" lon="1.78267">
        <ele>187.80000305176</ele>
        <time>2011-10-16T11:12:28.000Z</time>
      </trkpt>
      <trkpt lat="48.74554" lon="1.78268">
        <ele>187.39999389648</ele>
        <time>2011-10-16T11:15:05.000Z</time>
      </trkpt>
      <trkpt lat="48.74556" lon="1.78271">
        <ele>187.39999389648</ele>
        <time>2011-10-16T11:15:06.000Z</time>
      </trkpt>
      <trkpt lat="48.7456" lon="1.78277">
        <ele>187.60000610352</ele>
        <time>2011-10-16T11:15:12.000Z</time>
      </trkpt>
      <trkpt lat="48.74564" lon="1.78286">
        <ele>187.80000305176</ele>
        <time>2011-10-16T11:15:17.000Z</time>
      </trkpt>
      <trkpt lat="48.7457" lon="1.78294">
        <ele>187.80000305176</ele>
        <time>2011-10-16T11:15:24.000Z</time>
      </trkpt>
      <trkpt lat="48.74579" lon="1.78291">
        <ele>187.39999389648</ele>
        <time>2011-10-16T11:15:31.000Z</time>
      </trkpt>
      <trkpt lat="48.74588" lon="1.78287">
        <ele>187.39999389648</ele>
        <time>2011-10-16T11:15:38.000Z</time>
      </trkpt>
      <trkpt lat="48.74594" lon="1.78282">
        <ele>187.19999694824</ele>
        <time>2011-10-16T11:15:43.000Z</time>
      </trkpt>
      <trkpt lat="48.74602" lon="1.78274">
        <ele>187.19999694824</ele>
        <time>2011-10-16T11:15:49.000Z</time>
      </trkpt>
      <trkpt lat="48.74612" lon="1.78264">
        <ele>187</ele>
        <time>2011-10-16T11:15:57.000Z</time>
      </trkpt>
      <trkpt lat="48.74617" lon="1.78259">
        <ele>187</ele>
        <time>2011-10-16T11:16:04.000Z</time>
      </trkpt>
      <trkpt lat="48.74623" lon="1.78253">
        <ele>187</ele>
        <time>2011-10-16T11:16:09.000Z</time>
      </trkpt>
      <trkpt lat="48.74636" lon="1.78239">
        <ele>187.19999694824</ele>
        <time>2011-10-16T11:16:19.000Z</time>
      </trkpt>
      <trkpt lat="48.74649" lon="1.78226">
        <ele>187.60000610352</ele>
        <time>2011-10-16T11:16:29.000Z</time>
      </trkpt>
      <trkpt lat="48.74666" lon="1.78208">
        <ele>187.80000305176</ele>
        <time>2011-10-16T11:16:42.000Z</time>
      </trkpt>
      <trkpt lat="48.74675" lon="1.78198">
        <ele>188.19999694824</ele>
        <time>2011-10-16T11:16:49.000Z</time>
      </trkpt>
      <trkpt lat="48.74685" lon="1.78185">
        <ele>188.60000610352</ele>
        <time>2011-10-16T11:16:56.000Z</time>
      </trkpt>
      <trkpt lat="48.74689" lon="1.78182">
        <ele>188.60000610352</ele>
        <time>2011-10-16T11:16:59.000Z</time>
      </trkpt>
      <trkpt lat="48.74693" lon="1.78175">
        <ele>188.80000305176</ele>
        <time>2011-10-16T11:17:03.000Z</time>
      </trkpt>
      <trkpt lat="48.74699" lon="1.78165">
        <ele>189</ele>
        <time>2011-10-16T11:17:08.000Z</time>
      </trkpt>
      <trkpt lat="48.74712" lon="1.78152">
        <ele>189.39999389648</ele>
        <time>2011-10-16T11:17:18.000Z</time>
      </trkpt>
      <trkpt lat="48.74726" lon="1.78138">
        <ele>189.80000305176</ele>
        <time>2011-10-16T11:17:29.000Z</time>
      </trkpt>
      <trkpt lat="48.74732" lon="1.78132">
        <ele>189.80000305176</ele>
        <time>2011-10-16T11:17:34.000Z</time>
      </trkpt>
      <trkpt lat="48.74745" lon="1.7812">
        <ele>189.80000305176</ele>
        <time>2011-10-16T11:17:44.000Z</time>
      </trkpt>
      <trkpt lat="48.74757" lon="1.78108">
        <ele>189.39999389648</ele>
        <time>2011-10-16T11:17:54.000Z</time>
      </trkpt>
      <trkpt lat="48.74768" lon="1.78097">
        <ele>189.19999694824</ele>
        <time>2011-10-16T11:18:03.000Z</time>
      </trkpt>
      <trkpt lat="48.7478" lon="1.78086">
        <ele>189</ele>
        <time>2011-10-16T11:18:12.000Z</time>
      </trkpt>
      <trkpt lat="48.74785" lon="1.78075">
        <ele>188.80000305176</ele>
        <time>2011-10-16T11:18:19.000Z</time>
      </trkpt>
      <trkpt lat="48.74789" lon="1.78071">
        <ele>188.80000305176</ele>
        <time>2011-10-16T11:18:23.000Z</time>
      </trkpt>
      <trkpt lat="48.74801" lon="1.7806">
        <ele>188.60000610352</ele>
        <time>2011-10-16T11:18:32.000Z</time>
      </trkpt>
      <trkpt lat="48.74809" lon="1.78052">
        <ele>188.60000610352</ele>
        <time>2011-10-16T11:18:38.000Z</time>
      </trkpt>
      <trkpt lat="48.7482" lon="1.7804">
        <ele>188.39999389648</ele>
        <time>2011-10-16T11:18:47.000Z</time>
      </trkpt>
      <trkpt lat="48.74833" lon="1.7803">
        <ele>188.19999694824</ele>
        <time>2011-10-16T11:18:56.000Z</time>
      </trkpt>
      <trkpt lat="48.74838" lon="1.7803">
        <ele>188.39999389648</ele>
        <time>2011-10-16T11:19:00.000Z</time>
      </trkpt>
      <trkpt lat="48.74842" lon="1.78026">
        <ele>188.39999389648</ele>
        <time>2011-10-16T11:19:05.000Z</time>
      </trkpt>
      <trkpt lat="48.74844" lon="1.78024">
        <ele>188.39999389648</ele>
        <time>2011-10-16T11:19:11.000Z</time>
      </trkpt>
      <trkpt lat="48.74844" lon="1.78024">
        <ele>188.39999389648</ele>
        <time>2011-10-16T11:19:12.000Z</time>
      </trkpt>
      <trkpt lat="48.74834" lon="1.7803">
        <ele>188.19999694824</ele>
        <time>2011-10-16T11:20:10.000Z</time>
      </trkpt>
      <trkpt lat="48.7483" lon="1.78034">
        <ele>188.39999389648</ele>
        <time>2011-10-16T11:20:13.000Z</time>
      </trkpt>
      <trkpt lat="48.74813" lon="1.78049">
        <ele>188.39999389648</ele>
        <time>2011-10-16T11:20:20.000Z</time>
      </trkpt>
      <trkpt lat="48.74804" lon="1.78059">
        <ele>188.60000610352</ele>
        <time>2011-10-16T11:20:25.000Z</time>
      </trkpt>
      <trkpt lat="48.74795" lon="1.78068">
        <ele>188.80000305176</ele>
        <time>2011-10-16T11:20:32.000Z</time>
      </trkpt>
      <trkpt lat="48.74787" lon="1.78074">
        <ele>188.80000305176</ele>
        <time>2011-10-16T11:20:37.000Z</time>
      </trkpt>
      <trkpt lat="48.74777" lon="1.78085">
        <ele>189</ele>
        <time>2011-10-16T11:20:43.000Z</time>
      </trkpt>
      <trkpt lat="48.74769" lon="1.78093">
        <ele>189.19999694824</ele>
        <time>2011-10-16T11:20:49.000Z</time>
      </trkpt>
      <trkpt lat="48.7476" lon="1.78103">
        <ele>189.39999389648</ele>
        <time>2011-10-16T11:20:55.000Z</time>
      </trkpt>
      <trkpt lat="48.74751" lon="1.78111">
        <ele>189.60000610352</ele>
        <time>2011-10-16T11:21:01.000Z</time>
      </trkpt>
      <trkpt lat="48.74744" lon="1.78118">
        <ele>189.60000610352</ele>
        <time>2011-10-16T11:21:06.000Z</time>
      </trkpt>
      <trkpt lat="48.74741" lon="1.78128">
        <ele>189.80000305176</ele>
        <time>2011-10-16T11:21:09.000Z</time>
      </trkpt>
      <trkpt lat="48.7473" lon="1.7814">
        <ele>189.80000305176</ele>
        <time>2011-10-16T11:21:14.000Z</time>
      </trkpt>
      <trkpt lat="48.74718" lon="1.78151">
        <ele>189.60000610352</ele>
        <time>2011-10-16T11:21:20.000Z</time>
      </trkpt>
      <trkpt lat="48.74705" lon="1.78165">
        <ele>189.19999694824</ele>
        <time>2011-10-16T11:21:26.000Z</time>
      </trkpt>
      <trkpt lat="48.74695" lon="1.78175">
        <ele>189</ele>
        <time>2011-10-16T11:21:31.000Z</time>
      </trkpt>
      <trkpt lat="48.74692" lon="1.78178">
        <ele>188.80000305176</ele>
        <time>2011-10-16T11:21:33.000Z</time>
      </trkpt>
      <trkpt lat="48.74686" lon="1.78185">
        <ele>188.60000610352</ele>
        <time>2011-10-16T11:21:37.000Z</time>
      </trkpt>
      <trkpt lat="48.7467" lon="1.78201">
        <ele>188</ele>
        <time>2011-10-16T11:21:46.000Z</time>
      </trkpt>
      <trkpt lat="48.74663" lon="1.78209">
        <ele>187.80000305176</ele>
        <time>2011-10-16T11:21:52.000Z</time>
      </trkpt>
      <trkpt lat="48.74653" lon="1.78218">
        <ele>187.60000610352</ele>
        <time>2011-10-16T11:21:59.000Z</time>
      </trkpt>
      <trkpt lat="48.74641" lon="1.78229">
        <ele>187.39999389648</ele>
        <time>2011-10-16T11:22:07.000Z</time>
      </trkpt>
      <trkpt lat="48.74632" lon="1.7824">
        <ele>187.19999694824</ele>
        <time>2011-10-16T11:22:14.000Z</time>
      </trkpt>
      <trkpt lat="48.74624" lon="1.78247">
        <ele>187</ele>
        <time>2011-10-16T11:22:19.000Z</time>
      </trkpt>
      <trkpt lat="48.74615" lon="1.78257">
        <ele>186.80000305176</ele>
        <time>2011-10-16T11:22:27.000Z</time>
      </trkpt>
      <trkpt lat="48.74607" lon="1.78267">
        <ele>187</ele>
        <time>2011-10-16T11:22:34.000Z</time>
      </trkpt>
      <trkpt lat="48.746" lon="1.78278">
        <ele>187.19999694824</ele>
        <time>2011-10-16T11:22:42.000Z</time>
      </trkpt>
      <trkpt lat="48.74588" lon="1.78287">
        <ele>187.39999389648</ele>
        <time>2011-10-16T11:22:51.000Z</time>
      </trkpt>
      <trkpt lat="48.74576" lon="1.78294">
        <ele>187.60000610352</ele>
        <time>2011-10-16T11:22:59.000Z</time>
      </trkpt>
      <trkpt lat="48.74567" lon="1.78303">
        <ele>188.19999694824</ele>
        <time>2011-10-16T11:23:07.000Z</time>
      </trkpt>
      <trkpt lat="48.74562" lon="1.78312">
        <ele>188.60000610352</ele>
        <time>2011-10-16T11:23:12.000Z</time>
      </trkpt>
      <trkpt lat="48.74561" lon="1.78313">
        <ele>188.60000610352</ele>
        <time>2011-10-16T11:23:15.000Z</time>
      </trkpt>
      <trkpt lat="48.74569" lon="1.78311">
        <ele>188.39999389648</ele>
        <time>2011-10-16T11:23:24.000Z</time>
      </trkpt>
      <trkpt lat="48.74574" lon="1.78318">
        <ele>188.60000610352</ele>
        <time>2011-10-16T11:23:27.000Z</time>
      </trkpt>
      <trkpt lat="48.74586" lon="1.78353">
        <ele>189.19999694824</ele>
        <time>2011-10-16T11:23:35.000Z</time>
      </trkpt>
      <trkpt lat="48.74599" lon="1.78385">
        <ele>189.80000305176</ele>
        <time>2011-10-16T11:23:42.000Z</time>
      </trkpt>
      <trkpt lat="48.74604" lon="1.78402">
        <ele>190</ele>
        <time>2011-10-16T11:23:47.000Z</time>
      </trkpt>
      <trkpt lat="48.74607" lon="1.78413">
        <ele>190.19999694824</ele>
        <time>2011-10-16T11:23:52.000Z</time>
      </trkpt>
      <trkpt lat="48.74609" lon="1.78423">
        <ele>190.19999694824</ele>
        <time>2011-10-16T11:24:00.000Z</time>
      </trkpt>
      <trkpt lat="48.74614" lon="1.78416">
        <ele>190.19999694824</ele>
        <time>2011-10-16T11:26:46.000Z</time>
      </trkpt>
      <trkpt lat="48.74607" lon="1.7841">
        <ele>190.19999694824</ele>
        <time>2011-10-16T11:26:50.000Z</time>
      </trkpt>
      <trkpt lat="48.74601" lon="1.78398">
        <ele>189.80000305176</ele>
        <time>2011-10-16T11:26:55.000Z</time>
      </trkpt>
      <trkpt lat="48.74599" lon="1.78393">
        <ele>189.80000305176</ele>
        <time>2011-10-16T11:26:57.000Z</time>
      </trkpt>
      <trkpt lat="48.74595" lon="1.7838">
        <ele>189.60000610352</ele>
        <time>2011-10-16T11:27:02.000Z</time>
      </trkpt>
      <trkpt lat="48.74588" lon="1.78364">
        <ele>189.39999389648</ele>
        <time>2011-10-16T11:27:10.000Z</time>
      </trkpt>
      <trkpt lat="48.74581" lon="1.78348">
        <ele>189</ele>
        <time>2011-10-16T11:27:18.000Z</time>
      </trkpt>
      <trkpt lat="48.74574" lon="1.78329">
        <ele>188.80000305176</ele>
        <time>2011-10-16T11:27:26.000Z</time>
      </trkpt>
      <trkpt lat="48.74569" lon="1.78316">
        <ele>188.60000610352</ele>
        <time>2011-10-16T11:27:32.000Z</time>
      </trkpt>
      <trkpt lat="48.74564" lon="1.78312">
        <ele>188.60000610352</ele>
        <time>2011-10-16T11:27:39.000Z</time>
      </trkpt>
      <trkpt lat="48.74559" lon="1.78321">
        <ele>188.80000305176</ele>
        <time>2011-10-16T11:27:45.000Z</time>
      </trkpt>
      <trkpt lat="48.74551" lon="1.78329">
        <ele>189.19999694824</ele>
        <time>2011-10-16T11:27:52.000Z</time>
      </trkpt>
      <trkpt lat="48.74549" lon="1.78329">
        <ele>189.19999694824</ele>
        <time>2011-10-16T11:27:53.000Z</time>
      </trkpt>
      <trkpt lat="48.7454" lon="1.78336">
        <ele>189.39999389648</ele>
        <time>2011-10-16T11:28:01.000Z</time>
      </trkpt>
      <trkpt lat="48.74529" lon="1.78346">
        <ele>189.60000610352</ele>
        <time>2011-10-16T11:28:08.000Z</time>
      </trkpt>
      <trkpt lat="48.7452" lon="1.78355">
        <ele>189.60000610352</ele>
        <time>2011-10-16T11:28:14.000Z</time>
      </trkpt>
      <trkpt lat="48.74511" lon="1.78364">
        <ele>189.39999389648</ele>
        <time>2011-10-16T11:28:21.000Z</time>
      </trkpt>
      <trkpt lat="48.745" lon="1.78376">
        <ele>189.39999389648</ele>
        <time>2011-10-16T11:28:30.000Z</time>
      </trkpt>
      <trkpt lat="48.74494" lon="1.78382">
        <ele>189.39999389648</ele>
        <time>2011-10-16T11:28:36.000Z</time>
      </trkpt>
      <trkpt lat="48.74487" lon="1.78391">
        <ele>189.39999389648</ele>
        <time>2011-10-16T11:28:44.000Z</time>
      </trkpt>
      <trkpt lat="48.74477" lon="1.784">
        <ele>189.39999389648</ele>
        <time>2011-10-16T11:28:52.000Z</time>
      </trkpt>
      <trkpt lat="48.74466" lon="1.78411">
        <ele>189.39999389648</ele>
        <time>2011-10-16T11:29:01.000Z</time>
      </trkpt>
      <trkpt lat="48.74457" lon="1.7842">
        <ele>189.19999694824</ele>
        <time>2011-10-16T11:29:08.000Z</time>
      </trkpt>
      <trkpt lat="48.74449" lon="1.78429">
        <ele>189</ele>
        <time>2011-10-16T11:29:15.000Z</time>
      </trkpt>
      <trkpt lat="48.74438" lon="1.78439">
        <ele>188.60000610352</ele>
        <time>2011-10-16T11:29:24.000Z</time>
      </trkpt>
      <trkpt lat="48.74437" lon="1.7844">
        <ele>188.60000610352</ele>
        <time>2011-10-16T11:29:25.000Z</time>
      </trkpt>
      <trkpt lat="48.74433" lon="1.78445">
        <ele>188.39999389648</ele>
        <time>2011-10-16T11:29:31.000Z</time>
      </trkpt>
      <trkpt lat="48.74433" lon="1.78445">
        <ele>188.39999389648</ele>
        <time>2011-10-16T11:29:32.000Z</time>
      </trkpt>
      <trkpt lat="48.74422" lon="1.78458">
        <ele>187.80000305176</ele>
        <time>2011-10-16T11:30:24.000Z</time>
      </trkpt>
      <trkpt lat="48.74418" lon="1.78461">
        <ele>187.80000305176</ele>
        <time>2011-10-16T11:30:30.000Z</time>
      </trkpt>
      <trkpt lat="48.74407" lon="1.78482">
        <ele>187.19999694824</ele>
        <time>2011-10-16T11:31:19.000Z</time>
      </trkpt>
      <trkpt lat="48.74398" lon="1.78487">
        <ele>187.39999389648</ele>
        <time>2011-10-16T11:31:25.000Z</time>
      </trkpt>
      <trkpt lat="48.7439" lon="1.78494">
        <ele>187.39999389648</ele>
        <time>2011-10-16T11:31:31.000Z</time>
      </trkpt>
      <trkpt lat="48.7438" lon="1.78503">
        <ele>187.60000610352</ele>
        <time>2011-10-16T11:31:39.000Z</time>
      </trkpt>
      <trkpt lat="48.74371" lon="1.78512">
        <ele>187.60000610352</ele>
        <time>2011-10-16T11:31:45.000Z</time>
      </trkpt>
      <trkpt lat="48.74361" lon="1.78521">
        <ele>187.39999389648</ele>
        <time>2011-10-16T11:31:50.000Z</time>
      </trkpt>
      <trkpt lat="48.74351" lon="1.78531">
        <ele>187.39999389648</ele>
        <time>2011-10-16T11:31:55.000Z</time>
      </trkpt>
      <trkpt lat="48.74336" lon="1.78546">
        <ele>187</ele>
        <time>2011-10-16T11:32:03.000Z</time>
      </trkpt>
      <trkpt lat="48.74327" lon="1.78556">
        <ele>187</ele>
        <time>2011-10-16T11:32:09.000Z</time>
      </trkpt>
      <trkpt lat="48.74314" lon="1.78569">
        <ele>187</ele>
        <time>2011-10-16T11:32:18.000Z</time>
      </trkpt>
      <trkpt lat="48.74301" lon="1.78582">
        <ele>187.39999389648</ele>
        <time>2011-10-16T11:32:28.000Z</time>
      </trkpt>
      <trkpt lat="48.74291" lon="1.7859">
        <ele>187.60000610352</ele>
        <time>2011-10-16T11:32:36.000Z</time>
      </trkpt>
      <trkpt lat="48.74281" lon="1.78599">
        <ele>187.80000305176</ele>
        <time>2011-10-16T11:32:43.000Z</time>
      </trkpt>
      <trkpt lat="48.74264" lon="1.78619">
        <ele>187.60000610352</ele>
        <time>2011-10-16T11:32:54.000Z</time>
      </trkpt>
      <trkpt lat="48.7425" lon="1.78634">
        <ele>187.19999694824</ele>
        <time>2011-10-16T11:33:03.000Z</time>
      </trkpt>
      <trkpt lat="48.74235" lon="1.78651">
        <ele>187</ele>
        <time>2011-10-16T11:33:12.000Z</time>
      </trkpt>
      <trkpt lat="48.74224" lon="1.78663">
        <ele>187.19999694824</ele>
        <time>2011-10-16T11:33:20.000Z</time>
      </trkpt>
      <trkpt lat="48.74208" lon="1.78679">
        <ele>188.19999694824</ele>
        <time>2011-10-16T11:33:31.000Z</time>
      </trkpt>
      <trkpt lat="48.74194" lon="1.78693">
        <ele>189</ele>
        <time>2011-10-16T11:33:40.000Z</time>
      </trkpt>
      <trkpt lat="48.74182" lon="1.78706">
        <ele>189.60000610352</ele>
        <time>2011-10-16T11:33:48.000Z</time>
      </trkpt>
      <trkpt lat="48.74171" lon="1.78718">
        <ele>190.19999694824</ele>
        <time>2011-10-16T11:33:55.000Z</time>
      </trkpt>
      <trkpt lat="48.74169" lon="1.7872">
        <ele>190.39999389648</ele>
        <time>2011-10-16T11:33:57.000Z</time>
      </trkpt>
      <trkpt lat="48.74164" lon="1.78719">
        <ele>190.80000305176</ele>
        <time>2011-10-16T11:34:02.000Z</time>
      </trkpt>
      <trkpt lat="48.74159" lon="1.78702">
        <ele>191.19999694824</ele>
        <time>2011-10-16T11:34:10.000Z</time>
      </trkpt>
      <trkpt lat="48.74155" lon="1.78684">
        <ele>191.60000610352</ele>
        <time>2011-10-16T11:34:18.000Z</time>
      </trkpt>
      <trkpt lat="48.74149" lon="1.78656">
        <ele>192.19999694824</ele>
        <time>2011-10-16T11:34:26.000Z</time>
      </trkpt>
      <trkpt lat="48.74143" lon="1.78623">
        <ele>192.19999694824</ele>
        <time>2011-10-16T11:34:32.000Z</time>
      </trkpt>
      <trkpt lat="48.74134" lon="1.78577">
        <ele>192</ele>
        <time>2011-10-16T11:34:38.000Z</time>
      </trkpt>
      <trkpt lat="48.74125" lon="1.78536">
        <ele>191.60000610352</ele>
        <time>2011-10-16T11:34:43.000Z</time>
      </trkpt>
      <trkpt lat="48.74112" lon="1.78464">
        <ele>191.19999694824</ele>
        <time>2011-10-16T11:34:51.000Z</time>
      </trkpt>
      <trkpt lat="48.74101" lon="1.7841">
        <ele>191.39999389648</ele>
        <time>2011-10-16T11:34:57.000Z</time>
      </trkpt>
      <trkpt lat="48.74095" lon="1.78378">
        <ele>191.19999694824</ele>
        <time>2011-10-16T11:35:01.000Z</time>
      </trkpt>
      <trkpt lat="48.74085" lon="1.78331">
        <ele>191</ele>
        <time>2011-10-16T11:35:07.000Z</time>
      </trkpt>
      <trkpt lat="48.74083" lon="1.78323">
        <ele>191</ele>
        <time>2011-10-16T11:35:08.000Z</time>
      </trkpt>
      <trkpt lat="48.74076" lon="1.7828">
        <ele>191.39999389648</ele>
        <time>2011-10-16T11:35:13.000Z</time>
      </trkpt>
      <trkpt lat="48.74069" lon="1.78238">
        <ele>191.39999389648</ele>
        <time>2011-10-16T11:35:18.000Z</time>
      </trkpt>
      <trkpt lat="48.74062" lon="1.78205">
        <ele>190.39999389648</ele>
        <time>2011-10-16T11:35:24.000Z</time>
      </trkpt>
      <trkpt lat="48.74057" lon="1.7818">
        <ele>189.80000305176</ele>
        <time>2011-10-16T11:35:30.000Z</time>
      </trkpt>
      <trkpt lat="48.74051" lon="1.78151">
        <ele>189</ele>
        <time>2011-10-16T11:35:36.000Z</time>
      </trkpt>
      <trkpt lat="48.74043" lon="1.78115">
        <ele>187.80000305176</ele>
        <time>2011-10-16T11:35:43.000Z</time>
      </trkpt>
      <trkpt lat="48.74038" lon="1.78088">
        <ele>187</ele>
        <time>2011-10-16T11:35:48.000Z</time>
      </trkpt>
      <trkpt lat="48.7403" lon="1.78048">
        <ele>186</ele>
        <time>2011-10-16T11:35:56.000Z</time>
      </trkpt>
      <trkpt lat="48.74021" lon="1.78002">
        <ele>184.60000610352</ele>
        <time>2011-10-16T11:36:04.000Z</time>
      </trkpt>
      <trkpt lat="48.74012" lon="1.77955">
        <ele>183.39999389648</ele>
        <time>2011-10-16T11:36:12.000Z</time>
      </trkpt>
      <trkpt lat="48.74001" lon="1.77901">
        <ele>182.19999694824</ele>
        <time>2011-10-16T11:36:22.000Z</time>
      </trkpt>
      <trkpt lat="48.73992" lon="1.77853">
        <ele>182.19999694824</ele>
        <time>2011-10-16T11:36:30.000Z</time>
      </trkpt>
      <trkpt lat="48.73981" lon="1.77799">
        <ele>181.60000610352</ele>
        <time>2011-10-16T11:36:39.000Z</time>
      </trkpt>
      <trkpt lat="48.73976" lon="1.77773">
        <ele>181.39999389648</ele>
        <time>2011-10-16T11:36:45.000Z</time>
      </trkpt>
      <trkpt lat="48.73974" lon="1.7776">
        <ele>181.19999694824</ele>
        <time>2011-10-16T11:36:50.000Z</time>
      </trkpt>
      <trkpt lat="48.73972" lon="1.77747">
        <ele>181</ele>
        <time>2011-10-16T11:36:57.000Z</time>
      </trkpt>
      <trkpt lat="48.7397" lon="1.77739">
        <ele>180.39999389648</ele>
        <time>2011-10-16T11:37:01.000Z</time>
      </trkpt>
      <trkpt lat="48.73967" lon="1.77723">
        <ele>179.39999389648</ele>
        <time>2011-10-16T11:37:08.000Z</time>
      </trkpt>
      <trkpt lat="48.73964" lon="1.77706">
        <ele>178.39999389648</ele>
        <time>2011-10-16T11:37:16.000Z</time>
      </trkpt>
      <trkpt lat="48.73962" lon="1.77689">
        <ele>177.60000610352</ele>
        <time>2011-10-16T11:37:24.000Z</time>
      </trkpt>
      <trkpt lat="48.73958" lon="1.77673">
        <ele>176.80000305176</ele>
        <time>2011-10-16T11:37:31.000Z</time>
      </trkpt>
      <trkpt lat="48.73957" lon="1.77671">
        <ele>176.60000610352</ele>
        <time>2011-10-16T11:37:32.000Z</time>
      </trkpt>
      <trkpt lat="48.73957" lon="1.77668">
        <ele>176.39999389648</ele>
        <time>2011-10-16T11:37:38.000Z</time>
      </trkpt>
      <trkpt lat="48.73958" lon="1.77656">
        <ele>175.60000610352</ele>
        <time>2011-10-16T11:37:51.000Z</time>
      </trkpt>
      <trkpt lat="48.73953" lon="1.77644">
        <ele>175</ele>
        <time>2011-10-16T11:37:57.000Z</time>
      </trkpt>
      <trkpt lat="48.7394" lon="1.77627">
        <ele>174.19999694824</ele>
        <time>2011-10-16T11:38:07.000Z</time>
      </trkpt>
      <trkpt lat="48.7393" lon="1.77617">
        <ele>173.80000305176</ele>
        <time>2011-10-16T11:38:14.000Z</time>
      </trkpt>
      <trkpt lat="48.73922" lon="1.77611">
        <ele>173.80000305176</ele>
        <time>2011-10-16T11:38:20.000Z</time>
      </trkpt>
      <trkpt lat="48.73911" lon="1.77605">
        <ele>172.80000305176</ele>
        <time>2011-10-16T11:38:28.000Z</time>
      </trkpt>
      <trkpt lat="48.739" lon="1.77601">
        <ele>171.39999389648</ele>
        <time>2011-10-16T11:38:35.000Z</time>
      </trkpt>
      <trkpt lat="48.73889" lon="1.77596">
        <ele>170</ele>
        <time>2011-10-16T11:38:42.000Z</time>
      </trkpt>
      <trkpt lat="48.73886" lon="1.77588">
        <ele>169.19999694824</ele>
        <time>2011-10-16T11:38:46.000Z</time>
      </trkpt>
      <trkpt lat="48.73876" lon="1.7758">
        <ele>167.80000305176</ele>
        <time>2011-10-16T11:38:53.000Z</time>
      </trkpt>
      <trkpt lat="48.73867" lon="1.77574">
        <ele>166.80000305176</ele>
        <time>2011-10-16T11:38:59.000Z</time>
      </trkpt>
      <trkpt lat="48.73864" lon="1.7757">
        <ele>166.39999389648</ele>
        <time>2011-10-16T11:39:01.000Z</time>
      </trkpt>
      <trkpt lat="48.73867" lon="1.77558">
        <ele>166.19999694824</ele>
        <time>2011-10-16T11:39:07.000Z</time>
      </trkpt>
      <trkpt lat="48.73867" lon="1.77558">
        <ele>166.19999694824</ele>
        <time>2011-10-16T11:39:09.000Z</time>
      </trkpt>
      <trkpt lat="48.73869" lon="1.77552">
        <ele>166.19999694824</ele>
        <time>2011-10-16T11:39:13.000Z</time>
      </trkpt>
      <trkpt lat="48.7387" lon="1.7755">
        <ele>166</ele>
        <time>2011-10-16T11:39:14.000Z</time>
      </trkpt>
      <trkpt lat="48.73873" lon="1.77539">
        <ele>166</ele>
        <time>2011-10-16T11:39:18.000Z</time>
      </trkpt>
      <trkpt lat="48.73875" lon="1.77529">
        <ele>165.60000610352</ele>
        <time>2011-10-16T11:39:23.000Z</time>
      </trkpt>
      <trkpt lat="48.73878" lon="1.7752">
        <ele>165.39999389648</ele>
        <time>2011-10-16T11:39:30.000Z</time>
      </trkpt>
      <trkpt lat="48.73876" lon="1.77514">
        <ele>165</ele>
        <time>2011-10-16T11:39:36.000Z</time>
      </trkpt>
      <trkpt lat="48.73877" lon="1.77505">
        <ele>164.80000305176</ele>
        <time>2011-10-16T11:39:44.000Z</time>
      </trkpt>
      <trkpt lat="48.73871" lon="1.77489">
        <ele>164.39999389648</ele>
        <time>2011-10-16T11:39:50.000Z</time>
      </trkpt>
      <trkpt lat="48.73864" lon="1.77481">
        <ele>164.19999694824</ele>
        <time>2011-10-16T11:39:56.000Z</time>
      </trkpt>
      <trkpt lat="48.73863" lon="1.7748">
        <ele>164.19999694824</ele>
        <time>2011-10-16T11:39:57.000Z</time>
      </trkpt>
      <trkpt lat="48.73863" lon="1.77479">
        <ele>164.19999694824</ele>
        <time>2011-10-16T11:40:00.000Z</time>
      </trkpt>
      <trkpt lat="48.73877" lon="1.77474">
        <ele>165.19999694824</ele>
        <time>2011-10-16T11:40:33.000Z</time>
      </trkpt>
      <trkpt lat="48.73879" lon="1.77469">
        <ele>165.39999389648</ele>
        <time>2011-10-16T11:40:39.000Z</time>
      </trkpt>
      <trkpt lat="48.73877" lon="1.77465">
        <ele>165.39999389648</ele>
        <time>2011-10-16T11:40:44.000Z</time>
      </trkpt>
      <trkpt lat="48.73874" lon="1.77458">
        <ele>165.39999389648</ele>
        <time>2011-10-16T11:40:49.000Z</time>
      </trkpt>
      <trkpt lat="48.73867" lon="1.7745">
        <ele>165.19999694824</ele>
        <time>2011-10-16T11:40:56.000Z</time>
      </trkpt>
      <trkpt lat="48.73865" lon="1.77448">
        <ele>165.19999694824</ele>
        <time>2011-10-16T11:40:58.000Z</time>
      </trkpt>
      <trkpt lat="48.73858" lon="1.77445">
        <ele>165</ele>
        <time>2011-10-16T11:41:02.000Z</time>
      </trkpt>
      <trkpt lat="48.73851" lon="1.7743">
        <ele>165.19999694824</ele>
        <time>2011-10-16T11:41:10.000Z</time>
      </trkpt>
      <trkpt lat="48.73845" lon="1.77416">
        <ele>165.39999389648</ele>
        <time>2011-10-16T11:41:17.000Z</time>
      </trkpt>
      <trkpt lat="48.73835" lon="1.77405">
        <ele>165.39999389648</ele>
        <time>2011-10-16T11:41:25.000Z</time>
      </trkpt>
      <trkpt lat="48.73824" lon="1.77396">
        <ele>166.39999389648</ele>
        <time>2011-10-16T11:41:33.000Z</time>
      </trkpt>
      <trkpt lat="48.73819" lon="1.77383">
        <ele>167.19999694824</ele>
        <time>2011-10-16T11:41:41.000Z</time>
      </trkpt>
      <trkpt lat="48.73819" lon="1.77378">
        <ele>167.39999389648</ele>
        <time>2011-10-16T11:41:47.000Z</time>
      </trkpt>
      <trkpt lat="48.73812" lon="1.77375">
        <ele>168</ele>
        <time>2011-10-16T11:41:53.000Z</time>
      </trkpt>
      <trkpt lat="48.73811" lon="1.77375">
        <ele>168</ele>
        <time>2011-10-16T11:41:54.000Z</time>
      </trkpt>
      <trkpt lat="48.73801" lon="1.7738">
        <ele>168.60000610352</ele>
        <time>2011-10-16T11:42:02.000Z</time>
      </trkpt>
      <trkpt lat="48.73795" lon="1.77379">
        <ele>169</ele>
        <time>2011-10-16T11:42:09.000Z</time>
      </trkpt>
      <trkpt lat="48.73793" lon="1.77378">
        <ele>169.19999694824</ele>
        <time>2011-10-16T11:42:13.000Z</time>
      </trkpt>
      <trkpt lat="48.73809" lon="1.77366">
        <ele>168.60000610352</ele>
        <time>2011-10-16T11:42:55.000Z</time>
      </trkpt>
      <trkpt lat="48.73817" lon="1.77368">
        <ele>167.80000305176</ele>
        <time>2011-10-16T11:43:01.000Z</time>
      </trkpt>
      <trkpt lat="48.73825" lon="1.77363">
        <ele>167.39999389648</ele>
        <time>2011-10-16T11:43:07.000Z</time>
      </trkpt>
      <trkpt lat="48.73831" lon="1.77357">
        <ele>167.19999694824</ele>
        <time>2011-10-16T11:43:12.000Z</time>
      </trkpt>
      <trkpt lat="48.73834" lon="1.77347">
        <ele>167.39999389648</ele>
        <time>2011-10-16T11:43:17.000Z</time>
      </trkpt>
      <trkpt lat="48.73843" lon="1.77331">
        <ele>167.39999389648</ele>
        <time>2011-10-16T11:43:26.000Z</time>
      </trkpt>
      <trkpt lat="48.73848" lon="1.77323">
        <ele>167.19999694824</ele>
        <time>2011-10-16T11:43:32.000Z</time>
      </trkpt>
      <trkpt lat="48.73855" lon="1.77309">
        <ele>166.60000610352</ele>
        <time>2011-10-16T11:43:40.000Z</time>
      </trkpt>
      <trkpt lat="48.73858" lon="1.77301">
        <ele>166.39999389648</ele>
        <time>2011-10-16T11:43:47.000Z</time>
      </trkpt>
      <trkpt lat="48.73856" lon="1.77301">
        <ele>166.60000610352</ele>
        <time>2011-10-16T11:43:58.000Z</time>
      </trkpt>
      <trkpt lat="48.73848" lon="1.77317">
        <ele>167.19999694824</ele>
        <time>2011-10-16T11:44:04.000Z</time>
      </trkpt>
      <trkpt lat="48.73844" lon="1.77325">
        <ele>167.39999389648</ele>
        <time>2011-10-16T11:44:09.000Z</time>
      </trkpt>
      <trkpt lat="48.73843" lon="1.77335">
        <ele>167.39999389648</ele>
        <time>2011-10-16T11:44:13.000Z</time>
      </trkpt>
      <trkpt lat="48.73837" lon="1.77348">
        <ele>167.19999694824</ele>
        <time>2011-10-16T11:44:20.000Z</time>
      </trkpt>
      <trkpt lat="48.73836" lon="1.77352">
        <ele>167.19999694824</ele>
        <time>2011-10-16T11:44:25.000Z</time>
      </trkpt>
      <trkpt lat="48.73842" lon="1.77323">
        <ele>167.39999389648</ele>
        <time>2011-10-16T11:46:08.000Z</time>
      </trkpt>
      <trkpt lat="48.73848" lon="1.7731">
        <ele>167.19999694824</ele>
        <time>2011-10-16T11:46:14.000Z</time>
      </trkpt>
      <trkpt lat="48.73857" lon="1.77297">
        <ele>166.60000610352</ele>
        <time>2011-10-16T11:46:22.000Z</time>
      </trkpt>
      <trkpt lat="48.73864" lon="1.77286">
        <ele>166</ele>
        <time>2011-10-16T11:46:28.000Z</time>
      </trkpt>
      <trkpt lat="48.73874" lon="1.77269">
        <ele>165.19999694824</ele>
        <time>2011-10-16T11:46:37.000Z</time>
      </trkpt>
      <trkpt lat="48.73882" lon="1.77255">
        <ele>164.39999389648</ele>
        <time>2011-10-16T11:46:45.000Z</time>
      </trkpt>
      <trkpt lat="48.73885" lon="1.7725">
        <ele>164.19999694824</ele>
        <time>2011-10-16T11:46:48.000Z</time>
      </trkpt>
      <trkpt lat="48.7389" lon="1.7724">
        <ele>164</ele>
        <time>2011-10-16T11:46:54.000Z</time>
      </trkpt>
      <trkpt lat="48.73889" lon="1.77234">
        <ele>164</ele>
        <time>2011-10-16T11:46:57.000Z</time>
      </trkpt>
      <trkpt lat="48.73883" lon="1.77227">
        <ele>164.60000610352</ele>
        <time>2011-10-16T11:47:00.000Z</time>
      </trkpt>
      <trkpt lat="48.73865" lon="1.77213">
        <ele>166</ele>
        <time>2011-10-16T11:47:06.000Z</time>
      </trkpt>
      <trkpt lat="48.73855" lon="1.77205">
        <ele>167</ele>
        <time>2011-10-16T11:47:10.000Z</time>
      </trkpt>
      <trkpt lat="48.73838" lon="1.77199">
        <ele>168.19999694824</ele>
        <time>2011-10-16T11:47:15.000Z</time>
      </trkpt>
      <trkpt lat="48.73822" lon="1.77191">
        <ele>169.19999694824</ele>
        <time>2011-10-16T11:47:20.000Z</time>
      </trkpt>
      <trkpt lat="48.73808" lon="1.77181">
        <ele>170</ele>
        <time>2011-10-16T11:47:25.000Z</time>
      </trkpt>
      <trkpt lat="48.73795" lon="1.77175">
        <ele>170.80000305176</ele>
        <time>2011-10-16T11:47:30.000Z</time>
      </trkpt>
      <trkpt lat="48.73775" lon="1.77168">
        <ele>171.80000305176</ele>
        <time>2011-10-16T11:47:36.000Z</time>
      </trkpt>
      <trkpt lat="48.73762" lon="1.77161">
        <ele>172.19999694824</ele>
        <time>2011-10-16T11:47:41.000Z</time>
      </trkpt>
      <trkpt lat="48.73762" lon="1.77161">
        <ele>172.39999389648</ele>
        <time>2011-10-16T11:47:44.000Z</time>
      </trkpt>
      <trkpt lat="48.7376" lon="1.7716">
        <ele>172.39999389648</ele>
        <time>2011-10-16T11:47:56.000Z</time>
      </trkpt>
      <trkpt lat="48.73749" lon="1.77156">
        <ele>172.80000305176</ele>
        <time>2011-10-16T11:47:59.000Z</time>
      </trkpt>
      <trkpt lat="48.73729" lon="1.77149">
        <ele>173.39999389648</ele>
        <time>2011-10-16T11:48:05.000Z</time>
      </trkpt>
      <trkpt lat="48.73713" lon="1.77142">
        <ele>174</ele>
        <time>2011-10-16T11:48:11.000Z</time>
      </trkpt>
      <trkpt lat="48.73707" lon="1.77139">
        <ele>174.39999389648</ele>
        <time>2011-10-16T11:48:16.000Z</time>
      </trkpt>
      <trkpt lat="48.73699" lon="1.77139">
        <ele>174.60000610352</ele>
        <time>2011-10-16T11:48:22.000Z</time>
      </trkpt>
      <trkpt lat="48.7369" lon="1.77136">
        <ele>175</ele>
        <time>2011-10-16T11:48:28.000Z</time>
      </trkpt>
      <trkpt lat="48.73684" lon="1.77135">
        <ele>175.19999694824</ele>
        <time>2011-10-16T11:48:33.000Z</time>
      </trkpt>
      <trkpt lat="48.73674" lon="1.77129">
        <ele>175.60000610352</ele>
        <time>2011-10-16T11:48:41.000Z</time>
      </trkpt>
      <trkpt lat="48.73664" lon="1.77121">
        <ele>176</ele>
        <time>2011-10-16T11:48:48.000Z</time>
      </trkpt>
      <trkpt lat="48.73652" lon="1.77112">
        <ele>176.60000610352</ele>
        <time>2011-10-16T11:48:56.000Z</time>
      </trkpt>
      <trkpt lat="48.7364" lon="1.77109">
        <ele>177</ele>
        <time>2011-10-16T11:49:03.000Z</time>
      </trkpt>
      <trkpt lat="48.73632" lon="1.77105">
        <ele>177.39999389648</ele>
        <time>2011-10-16T11:49:10.000Z</time>
      </trkpt>
      <trkpt lat="48.73626" lon="1.77101">
        <ele>177.80000305176</ele>
        <time>2011-10-16T11:49:16.000Z</time>
      </trkpt>
      <trkpt lat="48.73617" lon="1.77097">
        <ele>178.19999694824</ele>
        <time>2011-10-16T11:49:23.000Z</time>
      </trkpt>
      <trkpt lat="48.73607" lon="1.77092">
        <ele>178.60000610352</ele>
        <time>2011-10-16T11:49:30.000Z</time>
      </trkpt>
      <trkpt lat="48.73601" lon="1.77088">
        <ele>179</ele>
        <time>2011-10-16T11:49:36.000Z</time>
      </trkpt>
      <trkpt lat="48.73594" lon="1.77083">
        <ele>179.39999389648</ele>
        <time>2011-10-16T11:49:41.000Z</time>
      </trkpt>
      <trkpt lat="48.73583" lon="1.77079">
        <ele>180</ele>
        <time>2011-10-16T11:49:48.000Z</time>
      </trkpt>
      <trkpt lat="48.73575" lon="1.77075">
        <ele>180</ele>
        <time>2011-10-16T11:49:54.000Z</time>
      </trkpt>
      <trkpt lat="48.73564" lon="1.77073">
        <ele>180.19999694824</ele>
        <time>2011-10-16T11:50:01.000Z</time>
      </trkpt>
      <trkpt lat="48.73556" lon="1.77066">
        <ele>180.19999694824</ele>
        <time>2011-10-16T11:50:07.000Z</time>
      </trkpt>
      <trkpt lat="48.73546" lon="1.77056">
        <ele>180.39999389648</ele>
        <time>2011-10-16T11:50:15.000Z</time>
      </trkpt>
      <trkpt lat="48.73536" lon="1.77049">
        <ele>180.80000305176</ele>
        <time>2011-10-16T11:50:23.000Z</time>
      </trkpt>
      <trkpt lat="48.73527" lon="1.77043">
        <ele>181</ele>
        <time>2011-10-16T11:50:31.000Z</time>
      </trkpt>
      <trkpt lat="48.73525" lon="1.77041">
        <ele>181</ele>
        <time>2011-10-16T11:50:33.000Z</time>
      </trkpt>
      <trkpt lat="48.7351" lon="1.77035">
        <ele>181.19999694824</ele>
        <time>2011-10-16T11:50:42.000Z</time>
      </trkpt>
      <trkpt lat="48.73498" lon="1.77027">
        <ele>181.60000610352</ele>
        <time>2011-10-16T11:50:49.000Z</time>
      </trkpt>
      <trkpt lat="48.73487" lon="1.77025">
        <ele>181.80000305176</ele>
        <time>2011-10-16T11:50:55.000Z</time>
      </trkpt>
      <trkpt lat="48.73477" lon="1.77024">
        <ele>182</ele>
        <time>2011-10-16T11:51:02.000Z</time>
      </trkpt>
      <trkpt lat="48.73468" lon="1.7702">
        <ele>182.19999694824</ele>
        <time>2011-10-16T11:51:08.000Z</time>
      </trkpt>
      <trkpt lat="48.73466" lon="1.77018">
        <ele>182.39999389648</ele>
        <time>2011-10-16T11:51:10.000Z</time>
      </trkpt>
      <trkpt lat="48.73458" lon="1.77013">
        <ele>182.60000610352</ele>
        <time>2011-10-16T11:51:17.000Z</time>
      </trkpt>
      <trkpt lat="48.73449" lon="1.77006">
        <ele>183</ele>
        <time>2011-10-16T11:51:24.000Z</time>
      </trkpt>
      <trkpt lat="48.73437" lon="1.77001">
        <ele>183.39999389648</ele>
        <time>2011-10-16T11:51:29.000Z</time>
      </trkpt>
      <trkpt lat="48.73424" lon="1.76995">
        <ele>184</ele>
        <time>2011-10-16T11:51:34.000Z</time>
      </trkpt>
      <trkpt lat="48.73419" lon="1.76991">
        <ele>184.19999694824</ele>
        <time>2011-10-16T11:51:39.000Z</time>
      </trkpt>
      <trkpt lat="48.73417" lon="1.76988">
        <ele>184.39999389648</ele>
        <time>2011-10-16T11:51:41.000Z</time>
      </trkpt>
      <trkpt lat="48.73419" lon="1.76979">
        <ele>184.60000610352</ele>
        <time>2011-10-16T11:51:46.000Z</time>
      </trkpt>
      <trkpt lat="48.73422" lon="1.76975">
        <ele>184.60000610352</ele>
        <time>2011-10-16T11:51:48.000Z</time>
      </trkpt>
      <trkpt lat="48.73431" lon="1.76962">
        <ele>184.80000305176</ele>
        <time>2011-10-16T11:51:55.000Z</time>
      </trkpt>
      <trkpt lat="48.73442" lon="1.76945">
        <ele>184.80000305176</ele>
        <time>2011-10-16T11:52:02.000Z</time>
      </trkpt>
      <trkpt lat="48.73453" lon="1.76924">
        <ele>185</ele>
        <time>2011-10-16T11:52:07.000Z</time>
      </trkpt>
      <trkpt lat="48.73465" lon="1.76906">
        <ele>184.60000610352</ele>
        <time>2011-10-16T11:52:12.000Z</time>
      </trkpt>
      <trkpt lat="48.73477" lon="1.76886">
        <ele>184.39999389648</ele>
        <time>2011-10-16T11:52:17.000Z</time>
      </trkpt>
      <trkpt lat="48.73495" lon="1.7686">
        <ele>183.80000305176</ele>
        <time>2011-10-16T11:52:23.000Z</time>
      </trkpt>
      <trkpt lat="48.73515" lon="1.76831">
        <ele>183.39999389648</ele>
        <time>2011-10-16T11:52:30.000Z</time>
      </trkpt>
      <trkpt lat="48.73525" lon="1.76814">
        <ele>183.19999694824</ele>
        <time>2011-10-16T11:52:34.000Z</time>
      </trkpt>
      <trkpt lat="48.73546" lon="1.76782">
        <ele>182.80000305176</ele>
        <time>2011-10-16T11:52:41.000Z</time>
      </trkpt>
      <trkpt lat="48.73563" lon="1.76758">
        <ele>182.60000610352</ele>
        <time>2011-10-16T11:52:46.000Z</time>
      </trkpt>
      <trkpt lat="48.73578" lon="1.76734">
        <ele>182.80000305176</ele>
        <time>2011-10-16T11:52:51.000Z</time>
      </trkpt>
      <trkpt lat="48.73584" lon="1.76725">
        <ele>183.19999694824</ele>
        <time>2011-10-16T11:52:53.000Z</time>
      </trkpt>
      <trkpt lat="48.7359" lon="1.76715">
        <ele>183.39999389648</ele>
        <time>2011-10-16T11:52:55.000Z</time>
      </trkpt>
      <trkpt lat="48.73601" lon="1.76703">
        <ele>183.60000610352</ele>
        <time>2011-10-16T11:52:58.000Z</time>
      </trkpt>
      <trkpt lat="48.73617" lon="1.76681">
        <ele>184.19999694824</ele>
        <time>2011-10-16T11:53:03.000Z</time>
      </trkpt>
      <trkpt lat="48.73622" lon="1.76672">
        <ele>184.39999389648</ele>
        <time>2011-10-16T11:53:05.000Z</time>
      </trkpt>
      <trkpt lat="48.73642" lon="1.76645">
        <ele>183.80000305176</ele>
        <time>2011-10-16T11:53:12.000Z</time>
      </trkpt>
      <trkpt lat="48.73651" lon="1.76631">
        <ele>183.39999389648</ele>
        <time>2011-10-16T11:53:15.000Z</time>
      </trkpt>
      <trkpt lat="48.73657" lon="1.76622">
        <ele>183.19999694824</ele>
        <time>2011-10-16T11:53:17.000Z</time>
      </trkpt>
      <trkpt lat="48.7367" lon="1.76603">
        <ele>182.80000305176</ele>
        <time>2011-10-16T11:53:21.000Z</time>
      </trkpt>
      <trkpt lat="48.73678" lon="1.76595">
        <ele>182.60000610352</ele>
        <time>2011-10-16T11:53:23.000Z</time>
      </trkpt>
      <trkpt lat="48.73689" lon="1.7657">
        <ele>182.60000610352</ele>
        <time>2011-10-16T11:53:27.000Z</time>
      </trkpt>
      <trkpt lat="48.73711" lon="1.76538">
        <ele>183</ele>
        <time>2011-10-16T11:53:34.000Z</time>
      </trkpt>
      <trkpt lat="48.73721" lon="1.76523">
        <ele>183.19999694824</ele>
        <time>2011-10-16T11:53:38.000Z</time>
      </trkpt>
      <trkpt lat="48.73738" lon="1.76502">
        <ele>183.80000305176</ele>
        <time>2011-10-16T11:53:44.000Z</time>
      </trkpt>
      <trkpt lat="48.7374" lon="1.76498">
        <ele>184</ele>
        <time>2011-10-16T11:53:45.000Z</time>
      </trkpt>
      <trkpt lat="48.73759" lon="1.7647">
        <ele>184.39999389648</ele>
        <time>2011-10-16T11:53:52.000Z</time>
      </trkpt>
      <trkpt lat="48.73771" lon="1.7645">
        <ele>184.60000610352</ele>
        <time>2011-10-16T11:53:57.000Z</time>
      </trkpt>
      <trkpt lat="48.73773" lon="1.76446">
        <ele>184.80000305176</ele>
        <time>2011-10-16T11:53:58.000Z</time>
      </trkpt>
      <trkpt lat="48.73778" lon="1.76436">
        <ele>184.80000305176</ele>
        <time>2011-10-16T11:54:05.000Z</time>
      </trkpt>
      <trkpt lat="48.73777" lon="1.76434">
        <ele>184.80000305176</ele>
        <time>2011-10-16T11:54:10.000Z</time>
      </trkpt>
      <trkpt lat="48.73781" lon="1.76423">
        <ele>185</ele>
        <time>2011-10-16T11:54:35.000Z</time>
      </trkpt>
      <trkpt lat="48.73785" lon="1.76417">
        <ele>185</ele>
        <time>2011-10-16T11:54:40.000Z</time>
      </trkpt>
      <trkpt lat="48.73791" lon="1.76409">
        <ele>184.80000305176</ele>
        <time>2011-10-16T11:54:47.000Z</time>
      </trkpt>
      <trkpt lat="48.73798" lon="1.76397">
        <ele>184.60000610352</ele>
        <time>2011-10-16T11:54:54.000Z</time>
      </trkpt>
      <trkpt lat="48.73799" lon="1.76395">
        <ele>184.60000610352</ele>
        <time>2011-10-16T11:54:56.000Z</time>
      </trkpt>
      <trkpt lat="48.73799" lon="1.76391">
        <ele>184.39999389648</ele>
        <time>2011-10-16T11:55:03.000Z</time>
      </trkpt>
      <trkpt lat="48.73799" lon="1.7639">
        <ele>184.39999389648</ele>
        <time>2011-10-16T11:55:04.000Z</time>
      </trkpt>
      <trkpt lat="48.73812" lon="1.76391">
        <ele>184</ele>
        <time>2011-10-16T11:57:57.000Z</time>
      </trkpt>
      <trkpt lat="48.73824" lon="1.76387">
        <ele>183.60000610352</ele>
        <time>2011-10-16T11:58:00.000Z</time>
      </trkpt>
      <trkpt lat="48.73831" lon="1.76384">
        <ele>183.19999694824</ele>
        <time>2011-10-16T11:58:03.000Z</time>
      </trkpt>
      <trkpt lat="48.73832" lon="1.76383">
        <ele>183.19999694824</ele>
        <time>2011-10-16T11:58:06.000Z</time>
      </trkpt>
      <trkpt lat="48.73828" lon="1.76377">
        <ele>183.19999694824</ele>
        <time>2011-10-16T11:58:12.000Z</time>
      </trkpt>
      <trkpt lat="48.73823" lon="1.76367">
        <ele>183.19999694824</ele>
        <time>2011-10-16T11:58:16.000Z</time>
      </trkpt>
      <trkpt lat="48.73818" lon="1.76351">
        <ele>183.19999694824</ele>
        <time>2011-10-16T11:58:21.000Z</time>
      </trkpt>
      <trkpt lat="48.73813" lon="1.76336">
        <ele>183.19999694824</ele>
        <time>2011-10-16T11:58:25.000Z</time>
      </trkpt>
      <trkpt lat="48.73817" lon="1.76319">
        <ele>183</ele>
        <time>2011-10-16T11:58:33.000Z</time>
      </trkpt>
      <trkpt lat="48.73821" lon="1.763">
        <ele>183</ele>
        <time>2011-10-16T11:58:40.000Z</time>
      </trkpt>
      <trkpt lat="48.73825" lon="1.76284">
        <ele>183</ele>
        <time>2011-10-16T11:58:47.000Z</time>
      </trkpt>
      <trkpt lat="48.73827" lon="1.7628">
        <ele>183</ele>
        <time>2011-10-16T11:58:49.000Z</time>
      </trkpt>
      <trkpt lat="48.73832" lon="1.76263">
        <ele>182.80000305176</ele>
        <time>2011-10-16T11:58:56.000Z</time>
      </trkpt>
      <trkpt lat="48.73833" lon="1.76255">
        <ele>182.80000305176</ele>
        <time>2011-10-16T11:58:59.000Z</time>
      </trkpt>
      <trkpt lat="48.73836" lon="1.76237">
        <ele>183.19999694824</ele>
        <time>2011-10-16T11:59:06.000Z</time>
      </trkpt>
      <trkpt lat="48.73839" lon="1.76222">
        <ele>183.39999389648</ele>
        <time>2011-10-16T11:59:12.000Z</time>
      </trkpt>
      <trkpt lat="48.73843" lon="1.76206">
        <ele>183.60000610352</ele>
        <time>2011-10-16T11:59:18.000Z</time>
      </trkpt>
      <trkpt lat="48.73846" lon="1.76189">
        <ele>183.80000305176</ele>
        <time>2011-10-16T11:59:24.000Z</time>
      </trkpt>
      <trkpt lat="48.73851" lon="1.76168">
        <ele>184</ele>
        <time>2011-10-16T11:59:32.000Z</time>
      </trkpt>
      <trkpt lat="48.73855" lon="1.76147">
        <ele>184.39999389648</ele>
        <time>2011-10-16T11:59:40.000Z</time>
      </trkpt>
      <trkpt lat="48.73857" lon="1.76133">
        <ele>184.60000610352</ele>
        <time>2011-10-16T11:59:45.000Z</time>
      </trkpt>
      <trkpt lat="48.73861" lon="1.7611">
        <ele>185.19999694824</ele>
        <time>2011-10-16T11:59:49.000Z</time>
      </trkpt>
      <trkpt lat="48.73869" lon="1.76073">
        <ele>185.80000305176</ele>
        <time>2011-10-16T11:59:53.000Z</time>
      </trkpt>
      <trkpt lat="48.73883" lon="1.76013">
        <ele>186</ele>
        <time>2011-10-16T11:59:59.000Z</time>
      </trkpt>
      <trkpt lat="48.73897" lon="1.7595">
        <ele>184.80000305176</ele>
        <time>2011-10-16T12:00:05.000Z</time>
      </trkpt>
      <trkpt lat="48.73904" lon="1.75925">
        <ele>184.19999694824</ele>
        <time>2011-10-16T12:00:07.000Z</time>
      </trkpt>
      <trkpt lat="48.73915" lon="1.75866">
        <ele>183.80000305176</ele>
        <time>2011-10-16T12:00:13.000Z</time>
      </trkpt>
      <trkpt lat="48.73917" lon="1.75856">
        <ele>183.80000305176</ele>
        <time>2011-10-16T12:00:14.000Z</time>
      </trkpt>
      <trkpt lat="48.7392" lon="1.75835">
        <ele>183.80000305176</ele>
        <time>2011-10-16T12:00:16.000Z</time>
      </trkpt>
      <trkpt lat="48.73925" lon="1.75816">
        <ele>183.19999694824</ele>
        <time>2011-10-16T12:00:18.000Z</time>
      </trkpt>
      <trkpt lat="48.73929" lon="1.75798">
        <ele>182.60000610352</ele>
        <time>2011-10-16T12:00:20.000Z</time>
      </trkpt>
      <trkpt lat="48.73936" lon="1.75752">
        <ele>181.19999694824</ele>
        <time>2011-10-16T12:00:25.000Z</time>
      </trkpt>
      <trkpt lat="48.73947" lon="1.75707">
        <ele>181</ele>
        <time>2011-10-16T12:00:30.000Z</time>
      </trkpt>
      <trkpt lat="48.73953" lon="1.75655">
        <ele>180.80000305176</ele>
        <time>2011-10-16T12:00:35.000Z</time>
      </trkpt>
      <trkpt lat="48.73951" lon="1.75635">
        <ele>181</ele>
        <time>2011-10-16T12:00:39.000Z</time>
      </trkpt>
      <trkpt lat="48.73948" lon="1.75631">
        <ele>181.19999694824</ele>
        <time>2011-10-16T12:00:40.000Z</time>
      </trkpt>
      <trkpt lat="48.73925" lon="1.75618">
        <ele>182.39999389648</ele>
        <time>2011-10-16T12:00:46.000Z</time>
      </trkpt>
      <trkpt lat="48.73913" lon="1.75614">
        <ele>183</ele>
        <time>2011-10-16T12:00:49.000Z</time>
      </trkpt>
      <trkpt lat="48.73883" lon="1.75607">
        <ele>183.39999389648</ele>
        <time>2011-10-16T12:00:56.000Z</time>
      </trkpt>
      <trkpt lat="48.73861" lon="1.75599">
        <ele>183.60000610352</ele>
        <time>2011-10-16T12:01:01.000Z</time>
      </trkpt>
      <trkpt lat="48.73835" lon="1.75589">
        <ele>183.80000305176</ele>
        <time>2011-10-16T12:01:07.000Z</time>
      </trkpt>
      <trkpt lat="48.73809" lon="1.75582">
        <ele>183.60000610352</ele>
        <time>2011-10-16T12:01:13.000Z</time>
      </trkpt>
      <trkpt lat="48.73799" lon="1.75579">
        <ele>183.39999389648</ele>
        <time>2011-10-16T12:01:15.000Z</time>
      </trkpt>
      <trkpt lat="48.73784" lon="1.75574">
        <ele>183.39999389648</ele>
        <time>2011-10-16T12:01:19.000Z</time>
      </trkpt>
      <trkpt lat="48.73772" lon="1.75571">
        <ele>183.19999694824</ele>
        <time>2011-10-16T12:01:22.000Z</time>
      </trkpt>
      <trkpt lat="48.73748" lon="1.75563">
        <ele>183.19999694824</ele>
        <time>2011-10-16T12:01:28.000Z</time>
      </trkpt>
      <trkpt lat="48.73744" lon="1.7556">
        <ele>183.19999694824</ele>
        <time>2011-10-16T12:01:30.000Z</time>
      </trkpt>
      <trkpt lat="48.73733" lon="1.75557">
        <ele>183.39999389648</ele>
        <time>2011-10-16T12:01:35.000Z</time>
      </trkpt>
      <trkpt lat="48.73725" lon="1.75555">
        <ele>183.60000610352</ele>
        <time>2011-10-16T12:01:40.000Z</time>
      </trkpt>
      <trkpt lat="48.73718" lon="1.75554">
        <ele>183.80000305176</ele>
        <time>2011-10-16T12:01:45.000Z</time>
      </trkpt>
      <trkpt lat="48.73709" lon="1.75551">
        <ele>184</ele>
        <time>2011-10-16T12:01:51.000Z</time>
      </trkpt>
      <trkpt lat="48.73701" lon="1.75549">
        <ele>184.19999694824</ele>
        <time>2011-10-16T12:01:55.000Z</time>
      </trkpt>
      <trkpt lat="48.7369" lon="1.75545">
        <ele>184.39999389648</ele>
        <time>2011-10-16T12:02:01.000Z</time>
      </trkpt>
      <trkpt lat="48.73681" lon="1.75541">
        <ele>184.60000610352</ele>
        <time>2011-10-16T12:02:06.000Z</time>
      </trkpt>
      <trkpt lat="48.73671" lon="1.75537">
        <ele>185</ele>
        <time>2011-10-16T12:02:12.000Z</time>
      </trkpt>
      <trkpt lat="48.73659" lon="1.75535">
        <ele>185.19999694824</ele>
        <time>2011-10-16T12:02:19.000Z</time>
      </trkpt>
      <trkpt lat="48.73646" lon="1.75535">
        <ele>185.39999389648</ele>
        <time>2011-10-16T12:02:27.000Z</time>
      </trkpt>
      <trkpt lat="48.73637" lon="1.75537">
        <ele>185.60000610352</ele>
        <time>2011-10-16T12:02:32.000Z</time>
      </trkpt>
      <trkpt lat="48.73625" lon="1.75541">
        <ele>185.80000305176</ele>
        <time>2011-10-16T12:02:39.000Z</time>
      </trkpt>
      <trkpt lat="48.73611" lon="1.75545">
        <ele>186.39999389648</ele>
        <time>2011-10-16T12:02:48.000Z</time>
      </trkpt>
      <trkpt lat="48.73599" lon="1.75549">
        <ele>187</ele>
        <time>2011-10-16T12:02:55.000Z</time>
      </trkpt>
      <trkpt lat="48.73591" lon="1.75552">
        <ele>187.39999389648</ele>
        <time>2011-10-16T12:03:01.000Z</time>
      </trkpt>
      <trkpt lat="48.73584" lon="1.75555">
        <ele>187.80000305176</ele>
        <time>2011-10-16T12:03:06.000Z</time>
      </trkpt>
      <trkpt lat="48.73577" lon="1.75558">
        <ele>188</ele>
        <time>2011-10-16T12:03:10.000Z</time>
      </trkpt>
      <trkpt lat="48.73565" lon="1.75564">
        <ele>188</ele>
        <time>2011-10-16T12:03:17.000Z</time>
      </trkpt>
      <trkpt lat="48.73554" lon="1.7557">
        <ele>188.19999694824</ele>
        <time>2011-10-16T12:03:23.000Z</time>
      </trkpt>
      <trkpt lat="48.73543" lon="1.75577">
        <ele>188.19999694824</ele>
        <time>2011-10-16T12:03:30.000Z</time>
      </trkpt>
      <trkpt lat="48.73538" lon="1.7558">
        <ele>188.19999694824</ele>
        <time>2011-10-16T12:03:35.000Z</time>
      </trkpt>
      <trkpt lat="48.73538" lon="1.7558">
        <ele>188.19999694824</ele>
        <time>2011-10-16T12:03:36.000Z</time>
      </trkpt>
      <trkpt lat="48.73535" lon="1.75579">
        <ele>188</ele>
        <time>2011-10-16T12:03:42.000Z</time>
      </trkpt>
      <trkpt lat="48.73534" lon="1.75581">
        <ele>188</ele>
        <time>2011-10-16T12:03:45.000Z</time>
      </trkpt>
      <trkpt lat="48.73521" lon="1.75598">
        <ele>187.80000305176</ele>
        <time>2011-10-16T12:04:07.000Z</time>
      </trkpt>
      <trkpt lat="48.73512" lon="1.75604">
        <ele>187.60000610352</ele>
        <time>2011-10-16T12:04:13.000Z</time>
      </trkpt>
      <trkpt lat="48.73508" lon="1.75608">
        <ele>187.39999389648</ele>
        <time>2011-10-16T12:04:17.000Z</time>
      </trkpt>
      <trkpt lat="48.73502" lon="1.75612">
        <ele>187.39999389648</ele>
        <time>2011-10-16T12:04:22.000Z</time>
      </trkpt>
      <trkpt lat="48.73499" lon="1.75614">
        <ele>187.19999694824</ele>
        <time>2011-10-16T12:04:24.000Z</time>
      </trkpt>
      <trkpt lat="48.7349" lon="1.75623">
        <ele>187.19999694824</ele>
        <time>2011-10-16T12:04:30.000Z</time>
      </trkpt>
      <trkpt lat="48.73485" lon="1.75628">
        <ele>187.19999694824</ele>
        <time>2011-10-16T12:04:35.000Z</time>
      </trkpt>
      <trkpt lat="48.7348" lon="1.75633">
        <ele>187.19999694824</ele>
        <time>2011-10-16T12:04:39.000Z</time>
      </trkpt>
      <trkpt lat="48.73473" lon="1.75639">
        <ele>187.19999694824</ele>
        <time>2011-10-16T12:04:44.000Z</time>
      </trkpt>
      <trkpt lat="48.73469" lon="1.75642">
        <ele>187.19999694824</ele>
        <time>2011-10-16T12:04:47.000Z</time>
      </trkpt>
      <trkpt lat="48.7346" lon="1.75649">
        <ele>187.19999694824</ele>
        <time>2011-10-16T12:04:53.000Z</time>
      </trkpt>
      <trkpt lat="48.73453" lon="1.75654">
        <ele>187.19999694824</ele>
        <time>2011-10-16T12:04:58.000Z</time>
      </trkpt>
      <trkpt lat="48.73447" lon="1.75659">
        <ele>187.19999694824</ele>
        <time>2011-10-16T12:05:04.000Z</time>
      </trkpt>
      <trkpt lat="48.73435" lon="1.75664">
        <ele>187</ele>
        <time>2011-10-16T12:05:10.000Z</time>
      </trkpt>
      <trkpt lat="48.73426" lon="1.75671">
        <ele>187</ele>
        <time>2011-10-16T12:05:17.000Z</time>
      </trkpt>
      <trkpt lat="48.73425" lon="1.75673">
        <ele>187</ele>
        <time>2011-10-16T12:05:18.000Z</time>
      </trkpt>
      <trkpt lat="48.73419" lon="1.75677">
        <ele>186.80000305176</ele>
        <time>2011-10-16T12:05:23.000Z</time>
      </trkpt>
      <trkpt lat="48.73413" lon="1.75681">
        <ele>186.60000610352</ele>
        <time>2011-10-16T12:05:27.000Z</time>
      </trkpt>
      <trkpt lat="48.73412" lon="1.75682">
        <ele>186.60000610352</ele>
        <time>2011-10-16T12:05:28.000Z</time>
      </trkpt>
      <trkpt lat="48.73405" lon="1.75686">
        <ele>186.60000610352</ele>
        <time>2011-10-16T12:05:33.000Z</time>
      </trkpt>
      <trkpt lat="48.73402" lon="1.75687">
        <ele>186.39999389648</ele>
        <time>2011-10-16T12:05:35.000Z</time>
      </trkpt>
      <trkpt lat="48.73396" lon="1.75694">
        <ele>186.39999389648</ele>
        <time>2011-10-16T12:05:41.000Z</time>
      </trkpt>
      <trkpt lat="48.73393" lon="1.75698">
        <ele>186.19999694824</ele>
        <time>2011-10-16T12:05:44.000Z</time>
      </trkpt>
      <trkpt lat="48.73387" lon="1.75703">
        <ele>186.19999694824</ele>
        <time>2011-10-16T12:05:55.000Z</time>
      </trkpt>
      <trkpt lat="48.73383" lon="1.75705">
        <ele>186</ele>
        <time>2011-10-16T12:05:59.000Z</time>
      </trkpt>
      <trkpt lat="48.73377" lon="1.75709">
        <ele>186</ele>
        <time>2011-10-16T12:06:04.000Z</time>
      </trkpt>
      <trkpt lat="48.73371" lon="1.75713">
        <ele>185.80000305176</ele>
        <time>2011-10-16T12:06:09.000Z</time>
      </trkpt>
      <trkpt lat="48.73365" lon="1.75717">
        <ele>185.60000610352</ele>
        <time>2011-10-16T12:06:14.000Z</time>
      </trkpt>
      <trkpt lat="48.73364" lon="1.75717">
        <ele>185.60000610352</ele>
        <time>2011-10-16T12:06:15.000Z</time>
      </trkpt>
      <trkpt lat="48.73356" lon="1.75723">
        <ele>185.39999389648</ele>
        <time>2011-10-16T12:06:22.000Z</time>
      </trkpt>
      <trkpt lat="48.73352" lon="1.75727">
        <ele>185.39999389648</ele>
        <time>2011-10-16T12:06:25.000Z</time>
      </trkpt>
      <trkpt lat="48.73343" lon="1.75735">
        <ele>185.19999694824</ele>
        <time>2011-10-16T12:06:32.000Z</time>
      </trkpt>
      <trkpt lat="48.73335" lon="1.75741">
        <ele>185</ele>
        <time>2011-10-16T12:06:38.000Z</time>
      </trkpt>
      <trkpt lat="48.73327" lon="1.75746">
        <ele>184.80000305176</ele>
        <time>2011-10-16T12:06:44.000Z</time>
      </trkpt>
      <trkpt lat="48.73318" lon="1.7575">
        <ele>184.80000305176</ele>
        <time>2011-10-16T12:06:50.000Z</time>
      </trkpt>
      <trkpt lat="48.73315" lon="1.75751">
        <ele>184.60000610352</ele>
        <time>2011-10-16T12:06:52.000Z</time>
      </trkpt>
      <trkpt lat="48.73307" lon="1.75755">
        <ele>184.39999389648</ele>
        <time>2011-10-16T12:06:58.000Z</time>
      </trkpt>
      <trkpt lat="48.73303" lon="1.75758">
        <ele>184.39999389648</ele>
        <time>2011-10-16T12:07:01.000Z</time>
      </trkpt>
      <trkpt lat="48.733" lon="1.75759">
        <ele>184.19999694824</ele>
        <time>2011-10-16T12:07:03.000Z</time>
      </trkpt>
      <trkpt lat="48.73296" lon="1.75764">
        <ele>184.19999694824</ele>
        <time>2011-10-16T12:07:08.000Z</time>
      </trkpt>
      <trkpt lat="48.73292" lon="1.75767">
        <ele>184</ele>
        <time>2011-10-16T12:07:11.000Z</time>
      </trkpt>
      <trkpt lat="48.73281" lon="1.75775">
        <ele>183.60000610352</ele>
        <time>2011-10-16T12:07:20.000Z</time>
      </trkpt>
      <trkpt lat="48.73271" lon="1.75781">
        <ele>183.39999389648</ele>
        <time>2011-10-16T12:07:27.000Z</time>
      </trkpt>
      <trkpt lat="48.73266" lon="1.75784">
        <ele>183.19999694824</ele>
        <time>2011-10-16T12:07:31.000Z</time>
      </trkpt>
      <trkpt lat="48.73256" lon="1.7579">
        <ele>183</ele>
        <time>2011-10-16T12:07:38.000Z</time>
      </trkpt>
      <trkpt lat="48.73249" lon="1.75795">
        <ele>182.80000305176</ele>
        <time>2011-10-16T12:07:43.000Z</time>
      </trkpt>
      <trkpt lat="48.73243" lon="1.75796">
        <ele>182.80000305176</ele>
        <time>2011-10-16T12:07:47.000Z</time>
      </trkpt>
      <trkpt lat="48.73234" lon="1.75803">
        <ele>182.60000610352</ele>
        <time>2011-10-16T12:07:55.000Z</time>
      </trkpt>
      <trkpt lat="48.73224" lon="1.75808">
        <ele>182.60000610352</ele>
        <time>2011-10-16T12:08:02.000Z</time>
      </trkpt>
      <trkpt lat="48.73223" lon="1.75808">
        <ele>182.60000610352</ele>
        <time>2011-10-16T12:08:03.000Z</time>
      </trkpt>
      <trkpt lat="48.73218" lon="1.75812">
        <ele>182.60000610352</ele>
        <time>2011-10-16T12:08:08.000Z</time>
      </trkpt>
      <trkpt lat="48.73214" lon="1.75814">
        <ele>182.39999389648</ele>
        <time>2011-10-16T12:08:11.000Z</time>
      </trkpt>
      <trkpt lat="48.73211" lon="1.75816">
        <ele>182.39999389648</ele>
        <time>2011-10-16T12:08:14.000Z</time>
      </trkpt>
      <trkpt lat="48.73205" lon="1.75821">
        <ele>182.60000610352</ele>
        <time>2011-10-16T12:08:19.000Z</time>
      </trkpt>
      <trkpt lat="48.73194" lon="1.7583">
        <ele>182.60000610352</ele>
        <time>2011-10-16T12:08:28.000Z</time>
      </trkpt>
      <trkpt lat="48.73188" lon="1.75838">
        <ele>182.80000305176</ele>
        <time>2011-10-16T12:08:33.000Z</time>
      </trkpt>
      <trkpt lat="48.73179" lon="1.75846">
        <ele>183</ele>
        <time>2011-10-16T12:08:40.000Z</time>
      </trkpt>
      <trkpt lat="48.73175" lon="1.75854">
        <ele>183.19999694824</ele>
        <time>2011-10-16T12:08:47.000Z</time>
      </trkpt>
      <trkpt lat="48.73175" lon="1.75855">
        <ele>183.19999694824</ele>
        <time>2011-10-16T12:08:48.000Z</time>
      </trkpt>
      <trkpt lat="48.73175" lon="1.7586">
        <ele>183.39999389648</ele>
        <time>2011-10-16T12:08:51.000Z</time>
      </trkpt>
      <trkpt lat="48.73177" lon="1.75868">
        <ele>183.60000610352</ele>
        <time>2011-10-16T12:08:56.000Z</time>
      </trkpt>
      <trkpt lat="48.73181" lon="1.75871">
        <ele>183.60000610352</ele>
        <time>2011-10-16T12:09:01.000Z</time>
      </trkpt>
      <trkpt lat="48.73191" lon="1.75879">
        <ele>183.60000610352</ele>
        <time>2011-10-16T12:09:09.000Z</time>
      </trkpt>
      <trkpt lat="48.73203" lon="1.75885">
        <ele>183.39999389648</ele>
        <time>2011-10-16T12:09:19.000Z</time>
      </trkpt>
      <trkpt lat="48.73214" lon="1.7589">
        <ele>183.39999389648</ele>
        <time>2011-10-16T12:09:28.000Z</time>
      </trkpt>
      <trkpt lat="48.73223" lon="1.75896">
        <ele>183.19999694824</ele>
        <time>2011-10-16T12:09:35.000Z</time>
      </trkpt>
      <trkpt lat="48.73227" lon="1.759">
        <ele>183.19999694824</ele>
        <time>2011-10-16T12:09:39.000Z</time>
      </trkpt>
      <trkpt lat="48.73231" lon="1.75908">
        <ele>183.19999694824</ele>
        <time>2011-10-16T12:09:45.000Z</time>
      </trkpt>
      <trkpt lat="48.73236" lon="1.75918">
        <ele>183.19999694824</ele>
        <time>2011-10-16T12:09:52.000Z</time>
      </trkpt>
      <trkpt lat="48.73238" lon="1.7592">
        <ele>183.19999694824</ele>
        <time>2011-10-16T12:09:54.000Z</time>
      </trkpt>
      <trkpt lat="48.73241" lon="1.7592">
        <ele>183.19999694824</ele>
        <time>2011-10-16T12:09:58.000Z</time>
      </trkpt>
      <trkpt lat="48.73246" lon="1.75919">
        <ele>183</ele>
        <time>2011-10-16T12:10:05.000Z</time>
      </trkpt>
      <trkpt lat="48.7325" lon="1.75926">
        <ele>183</ele>
        <time>2011-10-16T12:10:11.000Z</time>
      </trkpt>
      <trkpt lat="48.73251" lon="1.75927">
        <ele>183</ele>
        <time>2011-10-16T12:10:12.000Z</time>
      </trkpt>
      <trkpt lat="48.73253" lon="1.75933">
        <ele>183</ele>
        <time>2011-10-16T12:10:16.000Z</time>
      </trkpt>
      <trkpt lat="48.73251" lon="1.75934">
        <ele>183.19999694824</ele>
        <time>2011-10-16T12:10:20.000Z</time>
      </trkpt>
      <trkpt lat="48.72928" lon="1.73863">
        <ele>135.80000305176</ele>
        <time>2011-10-16T14:54:49.000Z</time>
      </trkpt>
      <trkpt lat="48.72928" lon="1.73863">
        <ele>135.80000305176</ele>
        <time>2011-10-16T14:54:49.000Z</time>
      </trkpt>
      <trkpt lat="48.72916" lon="1.73851">
        <ele>135.39999389648</ele>
        <time>2011-10-16T14:54:58.000Z</time>
      </trkpt>
      <trkpt lat="48.72907" lon="1.73841">
        <ele>135</ele>
        <time>2011-10-16T14:55:06.000Z</time>
      </trkpt>
      <trkpt lat="48.72895" lon="1.73828">
        <ele>134.80000305176</ele>
        <time>2011-10-16T14:55:16.000Z</time>
      </trkpt>
      <trkpt lat="48.72886" lon="1.7382">
        <ele>134.60000610352</ele>
        <time>2011-10-16T14:55:23.000Z</time>
      </trkpt>
      <trkpt lat="48.72873" lon="1.73808">
        <ele>134.39999389648</ele>
        <time>2011-10-16T14:55:33.000Z</time>
      </trkpt>
      <trkpt lat="48.72858" lon="1.73793">
        <ele>134</ele>
        <time>2011-10-16T14:55:45.000Z</time>
      </trkpt>
      <trkpt lat="48.72848" lon="1.73783">
        <ele>133.80000305176</ele>
        <time>2011-10-16T14:55:53.000Z</time>
      </trkpt>
      <trkpt lat="48.72842" lon="1.73774">
        <ele>133.60000610352</ele>
        <time>2011-10-16T14:55:59.000Z</time>
      </trkpt>
      <trkpt lat="48.72832" lon="1.73764">
        <ele>133.19999694824</ele>
        <time>2011-10-16T14:56:07.000Z</time>
      </trkpt>
      <trkpt lat="48.72822" lon="1.73753">
        <ele>132.80000305176</ele>
        <time>2011-10-16T14:56:15.000Z</time>
      </trkpt>
      <trkpt lat="48.72811" lon="1.73742">
        <ele>132.39999389648</ele>
        <time>2011-10-16T14:56:24.000Z</time>
      </trkpt>
      <trkpt lat="48.728" lon="1.73732">
        <ele>132</ele>
        <time>2011-10-16T14:56:32.000Z</time>
      </trkpt>
      <trkpt lat="48.72791" lon="1.73721">
        <ele>131.60000610352</ele>
        <time>2011-10-16T14:56:40.000Z</time>
      </trkpt>
      <trkpt lat="48.7278" lon="1.73709">
        <ele>131.39999389648</ele>
        <time>2011-10-16T14:56:49.000Z</time>
      </trkpt>
      <trkpt lat="48.7277" lon="1.73699">
        <ele>131.19999694824</ele>
        <time>2011-10-16T14:56:57.000Z</time>
      </trkpt>
      <trkpt lat="48.72758" lon="1.73687">
        <ele>131</ele>
        <time>2011-10-16T14:57:07.000Z</time>
      </trkpt>
      <trkpt lat="48.7275" lon="1.73681">
        <ele>131</ele>
        <time>2011-10-16T14:57:12.000Z</time>
      </trkpt>
      <trkpt lat="48.72746" lon="1.73676">
        <ele>131</ele>
        <time>2011-10-16T14:57:16.000Z</time>
      </trkpt>
      <trkpt lat="48.72737" lon="1.73669">
        <ele>130.80000305176</ele>
        <time>2011-10-16T14:57:23.000Z</time>
      </trkpt>
      <trkpt lat="48.72727" lon="1.73662">
        <ele>130.39999389648</ele>
        <time>2011-10-16T14:57:30.000Z</time>
      </trkpt>
      <trkpt lat="48.7272" lon="1.73653">
        <ele>130.19999694824</ele>
        <time>2011-10-16T14:57:36.000Z</time>
      </trkpt>
      <trkpt lat="48.72711" lon="1.73641">
        <ele>129.60000610352</ele>
        <time>2011-10-16T14:57:44.000Z</time>
      </trkpt>
      <trkpt lat="48.72706" lon="1.7363">
        <ele>129.19999694824</ele>
        <time>2011-10-16T14:57:50.000Z</time>
      </trkpt>
      <trkpt lat="48.72694" lon="1.7362">
        <ele>129</ele>
        <time>2011-10-16T14:58:00.000Z</time>
      </trkpt>
      <trkpt lat="48.72693" lon="1.73621">
        <ele>129</ele>
        <time>2011-10-16T14:58:03.000Z</time>
      </trkpt>
      <trkpt lat="48.72686" lon="1.73615">
        <ele>128.80000305176</ele>
        <time>2011-10-16T14:58:45.000Z</time>
      </trkpt>
      <trkpt lat="48.72678" lon="1.73604">
        <ele>128.39999389648</ele>
        <time>2011-10-16T14:58:51.000Z</time>
      </trkpt>
      <trkpt lat="48.7267" lon="1.73598">
        <ele>128.19999694824</ele>
        <time>2011-10-16T14:58:57.000Z</time>
      </trkpt>
      <trkpt lat="48.7266" lon="1.73587">
        <ele>128</ele>
        <time>2011-10-16T14:59:05.000Z</time>
      </trkpt>
      <trkpt lat="48.7265" lon="1.73574">
        <ele>127.80000305176</ele>
        <time>2011-10-16T14:59:13.000Z</time>
      </trkpt>
      <trkpt lat="48.72636" lon="1.73566">
        <ele>127.80000305176</ele>
        <time>2011-10-16T14:59:22.000Z</time>
      </trkpt>
      <trkpt lat="48.72626" lon="1.73554">
        <ele>127.80000305176</ele>
        <time>2011-10-16T14:59:30.000Z</time>
      </trkpt>
      <trkpt lat="48.72613" lon="1.7354">
        <ele>127.59999847412</ele>
        <time>2011-10-16T14:59:40.000Z</time>
      </trkpt>
      <trkpt lat="48.72603" lon="1.73528">
        <ele>127.40000152588</ele>
        <time>2011-10-16T14:59:49.000Z</time>
      </trkpt>
      <trkpt lat="48.72594" lon="1.73519">
        <ele>127.19999694824</ele>
        <time>2011-10-16T14:59:56.000Z</time>
      </trkpt>
      <trkpt lat="48.72585" lon="1.73507">
        <ele>127</ele>
        <time>2011-10-16T15:00:04.000Z</time>
      </trkpt>
      <trkpt lat="48.72571" lon="1.73495">
        <ele>127.19999694824</ele>
        <time>2011-10-16T15:00:14.000Z</time>
      </trkpt>
      <trkpt lat="48.7257" lon="1.73495">
        <ele>127.40000152588</ele>
        <time>2011-10-16T15:00:15.000Z</time>
      </trkpt>
      <trkpt lat="48.72564" lon="1.73489">
        <ele>127.59999847412</ele>
        <time>2011-10-16T15:00:20.000Z</time>
      </trkpt>
      <trkpt lat="48.72554" lon="1.73476">
        <ele>128</ele>
        <time>2011-10-16T15:00:28.000Z</time>
      </trkpt>
      <trkpt lat="48.72545" lon="1.73466">
        <ele>128.19999694824</ele>
        <time>2011-10-16T15:00:35.000Z</time>
      </trkpt>
      <trkpt lat="48.72536" lon="1.73461">
        <ele>128.39999389648</ele>
        <time>2011-10-16T15:00:42.000Z</time>
      </trkpt>
      <trkpt lat="48.72525" lon="1.73457">
        <ele>128.60000610352</ele>
        <time>2011-10-16T15:00:49.000Z</time>
      </trkpt>
      <trkpt lat="48.72515" lon="1.73453">
        <ele>128.80000305176</ele>
        <time>2011-10-16T15:00:56.000Z</time>
      </trkpt>
      <trkpt lat="48.72505" lon="1.73451">
        <ele>128.80000305176</ele>
        <time>2011-10-16T15:01:03.000Z</time>
      </trkpt>
      <trkpt lat="48.72495" lon="1.73449">
        <ele>128.80000305176</ele>
        <time>2011-10-16T15:01:09.000Z</time>
      </trkpt>
      <trkpt lat="48.72483" lon="1.73448">
        <ele>128.19999694824</ele>
        <time>2011-10-16T15:01:17.000Z</time>
      </trkpt>
      <trkpt lat="48.72468" lon="1.73446">
        <ele>127.80000305176</ele>
        <time>2011-10-16T15:01:26.000Z</time>
      </trkpt>
      <trkpt lat="48.72454" lon="1.73444">
        <ele>127.19999694824</ele>
        <time>2011-10-16T15:01:36.000Z</time>
      </trkpt>
      <trkpt lat="48.72442" lon="1.73441">
        <ele>126.80000305176</ele>
        <time>2011-10-16T15:01:44.000Z</time>
      </trkpt>
      <trkpt lat="48.72427" lon="1.73436">
        <ele>126.19999694824</ele>
        <time>2011-10-16T15:01:54.000Z</time>
      </trkpt>
      <trkpt lat="48.72415" lon="1.73433">
        <ele>126</ele>
        <time>2011-10-16T15:02:02.000Z</time>
      </trkpt>
      <trkpt lat="48.72404" lon="1.7343">
        <ele>126.19999694824</ele>
        <time>2011-10-16T15:02:09.000Z</time>
      </trkpt>
      <trkpt lat="48.72393" lon="1.73428">
        <ele>126.40000152588</ele>
        <time>2011-10-16T15:02:16.000Z</time>
      </trkpt>
      <trkpt lat="48.72381" lon="1.73426">
        <ele>126.80000305176</ele>
        <time>2011-10-16T15:02:24.000Z</time>
      </trkpt>
      <trkpt lat="48.72368" lon="1.7342">
        <ele>127</ele>
        <time>2011-10-16T15:02:31.000Z</time>
      </trkpt>
      <trkpt lat="48.72354" lon="1.73416">
        <ele>127.40000152588</ele>
        <time>2011-10-16T15:02:40.000Z</time>
      </trkpt>
      <trkpt lat="48.7234" lon="1.73415">
        <ele>127.80000305176</ele>
        <time>2011-10-16T15:02:49.000Z</time>
      </trkpt>
      <trkpt lat="48.72327" lon="1.73415">
        <ele>127.80000305176</ele>
        <time>2011-10-16T15:02:57.000Z</time>
      </trkpt>
      <trkpt lat="48.72318" lon="1.7341">
        <ele>127.80000305176</ele>
        <time>2011-10-16T15:03:04.000Z</time>
      </trkpt>
      <trkpt lat="48.7231" lon="1.73412">
        <ele>127.80000305176</ele>
        <time>2011-10-16T15:03:10.000Z</time>
      </trkpt>
      <trkpt lat="48.72302" lon="1.73408">
        <ele>127.80000305176</ele>
        <time>2011-10-16T15:03:15.000Z</time>
      </trkpt>
      <trkpt lat="48.72289" lon="1.73403">
        <ele>127.80000305176</ele>
        <time>2011-10-16T15:03:24.000Z</time>
      </trkpt>
      <trkpt lat="48.72279" lon="1.73403">
        <ele>127.80000305176</ele>
        <time>2011-10-16T15:03:31.000Z</time>
      </trkpt>
      <trkpt lat="48.72276" lon="1.73401">
        <ele>127.80000305176</ele>
        <time>2011-10-16T15:03:33.000Z</time>
      </trkpt>
      <trkpt lat="48.72264" lon="1.73399">
        <ele>127.80000305176</ele>
        <time>2011-10-16T15:03:41.000Z</time>
      </trkpt>
      <trkpt lat="48.72253" lon="1.73396">
        <ele>127.80000305176</ele>
        <time>2011-10-16T15:03:47.000Z</time>
      </trkpt>
      <trkpt lat="48.72252" lon="1.73395">
        <ele>127.80000305176</ele>
        <time>2011-10-16T15:03:48.000Z</time>
      </trkpt>
      <trkpt lat="48.72243" lon="1.73394">
        <ele>127.80000305176</ele>
        <time>2011-10-16T15:03:54.000Z</time>
      </trkpt>
      <trkpt lat="48.72237" lon="1.73395">
        <ele>127.59999847412</ele>
        <time>2011-10-16T15:03:58.000Z</time>
      </trkpt>
      <trkpt lat="48.72229" lon="1.73397">
        <ele>127.59999847412</ele>
        <time>2011-10-16T15:04:04.000Z</time>
      </trkpt>
      <trkpt lat="48.72221" lon="1.73397">
        <ele>127.40000152588</ele>
        <time>2011-10-16T15:04:10.000Z</time>
      </trkpt>
      <trkpt lat="48.72212" lon="1.73397">
        <ele>127.19999694824</ele>
        <time>2011-10-16T15:04:17.000Z</time>
      </trkpt>
      <trkpt lat="48.7221" lon="1.73396">
        <ele>127.19999694824</ele>
        <time>2011-10-16T15:04:20.000Z</time>
      </trkpt>
      <trkpt lat="48.72205" lon="1.73395">
        <ele>127</ele>
        <time>2011-10-16T15:04:25.000Z</time>
      </trkpt>
      <trkpt lat="48.72198" lon="1.73396">
        <ele>127</ele>
        <time>2011-10-16T15:04:31.000Z</time>
      </trkpt>
      <trkpt lat="48.72188" lon="1.734">
        <ele>126.80000305176</ele>
        <time>2011-10-16T15:04:37.000Z</time>
      </trkpt>
      <trkpt lat="48.72174" lon="1.73402">
        <ele>126.59999847412</ele>
        <time>2011-10-16T15:04:46.000Z</time>
      </trkpt>
      <trkpt lat="48.72164" lon="1.73404">
        <ele>126.80000305176</ele>
        <time>2011-10-16T15:04:52.000Z</time>
      </trkpt>
      <trkpt lat="48.72152" lon="1.73407">
        <ele>127.19999694824</ele>
        <time>2011-10-16T15:04:59.000Z</time>
      </trkpt>
      <trkpt lat="48.72145" lon="1.73409">
        <ele>127.40000152588</ele>
        <time>2011-10-16T15:05:05.000Z</time>
      </trkpt>
      <trkpt lat="48.72141" lon="1.73408">
        <ele>127.59999847412</ele>
        <time>2011-10-16T15:05:09.000Z</time>
      </trkpt>
      <trkpt lat="48.72132" lon="1.73411">
        <ele>128</ele>
        <time>2011-10-16T15:05:15.000Z</time>
      </trkpt>
      <trkpt lat="48.72126" lon="1.73411">
        <ele>128.19999694824</ele>
        <time>2011-10-16T15:05:18.000Z</time>
      </trkpt>
      <trkpt lat="48.7212" lon="1.73412">
        <ele>128.39999389648</ele>
        <time>2011-10-16T15:05:23.000Z</time>
      </trkpt>
      <trkpt lat="48.7211" lon="1.73415">
        <ele>129</ele>
        <time>2011-10-16T15:05:30.000Z</time>
      </trkpt>
      <trkpt lat="48.72101" lon="1.73416">
        <ele>129.19999694824</ele>
        <time>2011-10-16T15:05:36.000Z</time>
      </trkpt>
      <trkpt lat="48.7209" lon="1.73417">
        <ele>129.60000610352</ele>
        <time>2011-10-16T15:05:43.000Z</time>
      </trkpt>
      <trkpt lat="48.72082" lon="1.73419">
        <ele>129.80000305176</ele>
        <time>2011-10-16T15:05:48.000Z</time>
      </trkpt>
      <trkpt lat="48.72076" lon="1.7342">
        <ele>129.80000305176</ele>
        <time>2011-10-16T15:05:53.000Z</time>
      </trkpt>
      <trkpt lat="48.72069" lon="1.73422">
        <ele>129.80000305176</ele>
        <time>2011-10-16T15:05:59.000Z</time>
      </trkpt>
      <trkpt lat="48.72059" lon="1.7342">
        <ele>129.80000305176</ele>
        <time>2011-10-16T15:06:06.000Z</time>
      </trkpt>
      <trkpt lat="48.72046" lon="1.73423">
        <ele>130</ele>
        <time>2011-10-16T15:06:14.000Z</time>
      </trkpt>
      <trkpt lat="48.72032" lon="1.73428">
        <ele>130</ele>
        <time>2011-10-16T15:06:23.000Z</time>
      </trkpt>
      <trkpt lat="48.72021" lon="1.73429">
        <ele>130</ele>
        <time>2011-10-16T15:06:30.000Z</time>
      </trkpt>
      <trkpt lat="48.72009" lon="1.73432">
        <ele>130.19999694824</ele>
        <time>2011-10-16T15:06:37.000Z</time>
      </trkpt>
      <trkpt lat="48.71999" lon="1.73435">
        <ele>130.39999389648</ele>
        <time>2011-10-16T15:06:43.000Z</time>
      </trkpt>
      <trkpt lat="48.71988" lon="1.73438">
        <ele>130.39999389648</ele>
        <time>2011-10-16T15:06:51.000Z</time>
      </trkpt>
      <trkpt lat="48.71977" lon="1.73442">
        <ele>130.39999389648</ele>
        <time>2011-10-16T15:06:59.000Z</time>
      </trkpt>
      <trkpt lat="48.71974" lon="1.73443">
        <ele>130.60000610352</ele>
        <time>2011-10-16T15:07:01.000Z</time>
      </trkpt>
      <trkpt lat="48.71962" lon="1.7345">
        <ele>130.60000610352</ele>
        <time>2011-10-16T15:07:09.000Z</time>
      </trkpt>
      <trkpt lat="48.71954" lon="1.73451">
        <ele>130.80000305176</ele>
        <time>2011-10-16T15:07:14.000Z</time>
      </trkpt>
      <trkpt lat="48.71942" lon="1.73454">
        <ele>130.80000305176</ele>
        <time>2011-10-16T15:07:21.000Z</time>
      </trkpt>
      <trkpt lat="48.71932" lon="1.73454">
        <ele>130.80000305176</ele>
        <time>2011-10-16T15:07:28.000Z</time>
      </trkpt>
      <trkpt lat="48.7192" lon="1.73458">
        <ele>130.80000305176</ele>
        <time>2011-10-16T15:07:36.000Z</time>
      </trkpt>
      <trkpt lat="48.71909" lon="1.73459">
        <ele>131.19999694824</ele>
        <time>2011-10-16T15:07:44.000Z</time>
      </trkpt>
      <trkpt lat="48.71899" lon="1.73462">
        <ele>131.39999389648</ele>
        <time>2011-10-16T15:07:51.000Z</time>
      </trkpt>
      <trkpt lat="48.7189" lon="1.73465">
        <ele>131.80000305176</ele>
        <time>2011-10-16T15:07:57.000Z</time>
      </trkpt>
      <trkpt lat="48.7188" lon="1.73467">
        <ele>132</ele>
        <time>2011-10-16T15:08:04.000Z</time>
      </trkpt>
      <trkpt lat="48.71871" lon="1.73468">
        <ele>132.19999694824</ele>
        <time>2011-10-16T15:08:10.000Z</time>
      </trkpt>
      <trkpt lat="48.71864" lon="1.73469">
        <ele>132.39999389648</ele>
        <time>2011-10-16T15:08:15.000Z</time>
      </trkpt>
      <trkpt lat="48.71854" lon="1.73471">
        <ele>132.80000305176</ele>
        <time>2011-10-16T15:08:22.000Z</time>
      </trkpt>
      <trkpt lat="48.71843" lon="1.73472">
        <ele>133</ele>
        <time>2011-10-16T15:08:28.000Z</time>
      </trkpt>
      <trkpt lat="48.71835" lon="1.73473">
        <ele>133.19999694824</ele>
        <time>2011-10-16T15:08:33.000Z</time>
      </trkpt>
      <trkpt lat="48.71821" lon="1.73476">
        <ele>133.80000305176</ele>
        <time>2011-10-16T15:08:41.000Z</time>
      </trkpt>
      <trkpt lat="48.71808" lon="1.73479">
        <ele>134.39999389648</ele>
        <time>2011-10-16T15:08:49.000Z</time>
      </trkpt>
      <trkpt lat="48.71793" lon="1.73482">
        <ele>135.19999694824</ele>
        <time>2011-10-16T15:08:58.000Z</time>
      </trkpt>
      <trkpt lat="48.71784" lon="1.73485">
        <ele>135.60000610352</ele>
        <time>2011-10-16T15:09:05.000Z</time>
      </trkpt>
      <trkpt lat="48.71772" lon="1.73489">
        <ele>136</ele>
        <time>2011-10-16T15:09:12.000Z</time>
      </trkpt>
      <trkpt lat="48.71759" lon="1.73493">
        <ele>136.60000610352</ele>
        <time>2011-10-16T15:09:21.000Z</time>
      </trkpt>
      <trkpt lat="48.71746" lon="1.73496">
        <ele>137</ele>
        <time>2011-10-16T15:09:29.000Z</time>
      </trkpt>
      <trkpt lat="48.71735" lon="1.735">
        <ele>137.39999389648</ele>
        <time>2011-10-16T15:09:37.000Z</time>
      </trkpt>
      <trkpt lat="48.71729" lon="1.73502">
        <ele>137.60000610352</ele>
        <time>2011-10-16T15:09:43.000Z</time>
      </trkpt>
      <trkpt lat="48.71718" lon="1.73503">
        <ele>138.19999694824</ele>
        <time>2011-10-16T15:09:51.000Z</time>
      </trkpt>
      <trkpt lat="48.71705" lon="1.73506">
        <ele>138.60000610352</ele>
        <time>2011-10-16T15:10:00.000Z</time>
      </trkpt>
      <trkpt lat="48.71695" lon="1.73508">
        <ele>139</ele>
        <time>2011-10-16T15:10:07.000Z</time>
      </trkpt>
      <trkpt lat="48.71684" lon="1.73511">
        <ele>139.39999389648</ele>
        <time>2011-10-16T15:10:15.000Z</time>
      </trkpt>
      <trkpt lat="48.71671" lon="1.73512">
        <ele>139.80000305176</ele>
        <time>2011-10-16T15:10:25.000Z</time>
      </trkpt>
      <trkpt lat="48.71664" lon="1.73512">
        <ele>140</ele>
        <time>2011-10-16T15:10:31.000Z</time>
      </trkpt>
      <trkpt lat="48.71654" lon="1.73515">
        <ele>140.60000610352</ele>
        <time>2011-10-16T15:10:39.000Z</time>
      </trkpt>
      <trkpt lat="48.71641" lon="1.73519">
        <ele>141.19999694824</ele>
        <time>2011-10-16T15:10:48.000Z</time>
      </trkpt>
      <trkpt lat="48.7164" lon="1.73519">
        <ele>141.19999694824</ele>
        <time>2011-10-16T15:10:49.000Z</time>
      </trkpt>
      <trkpt lat="48.71634" lon="1.73521">
        <ele>141.60000610352</ele>
        <time>2011-10-16T15:10:54.000Z</time>
      </trkpt>
      <trkpt lat="48.71628" lon="1.73523">
        <ele>141.80000305176</ele>
        <time>2011-10-16T15:10:58.000Z</time>
      </trkpt>
      <trkpt lat="48.71617" lon="1.73526">
        <ele>142.39999389648</ele>
        <time>2011-10-16T15:11:05.000Z</time>
      </trkpt>
      <trkpt lat="48.71607" lon="1.73529">
        <ele>143</ele>
        <time>2011-10-16T15:11:13.000Z</time>
      </trkpt>
      <trkpt lat="48.71593" lon="1.73531">
        <ele>143.80000305176</ele>
        <time>2011-10-16T15:11:23.000Z</time>
      </trkpt>
      <trkpt lat="48.7158" lon="1.73533">
        <ele>144.60000610352</ele>
        <time>2011-10-16T15:11:32.000Z</time>
      </trkpt>
      <trkpt lat="48.71569" lon="1.73537">
        <ele>145.80000305176</ele>
        <time>2011-10-16T15:11:40.000Z</time>
      </trkpt>
      <trkpt lat="48.71559" lon="1.73541">
        <ele>147</ele>
        <time>2011-10-16T15:11:47.000Z</time>
      </trkpt>
      <trkpt lat="48.71544" lon="1.73547">
        <ele>148.80000305176</ele>
        <time>2011-10-16T15:11:57.000Z</time>
      </trkpt>
      <trkpt lat="48.71526" lon="1.73553">
        <ele>150.80000305176</ele>
        <time>2011-10-16T15:12:09.000Z</time>
      </trkpt>
      <trkpt lat="48.71514" lon="1.73556">
        <ele>152.19999694824</ele>
        <time>2011-10-16T15:12:18.000Z</time>
      </trkpt>
      <trkpt lat="48.71501" lon="1.73558">
        <ele>154</ele>
        <time>2011-10-16T15:12:29.000Z</time>
      </trkpt>
      <trkpt lat="48.71492" lon="1.73561">
        <ele>155</ele>
        <time>2011-10-16T15:12:36.000Z</time>
      </trkpt>
      <trkpt lat="48.71483" lon="1.73562">
        <ele>156</ele>
        <time>2011-10-16T15:12:43.000Z</time>
      </trkpt>
      <trkpt lat="48.71468" lon="1.73562">
        <ele>157.60000610352</ele>
        <time>2011-10-16T15:12:53.000Z</time>
      </trkpt>
      <trkpt lat="48.71457" lon="1.73567">
        <ele>158.60000610352</ele>
        <time>2011-10-16T15:13:01.000Z</time>
      </trkpt>
      <trkpt lat="48.71454" lon="1.7357">
        <ele>159</ele>
        <time>2011-10-16T15:13:04.000Z</time>
      </trkpt>
      <trkpt lat="48.71439" lon="1.73574">
        <ele>160.19999694824</ele>
        <time>2011-10-16T15:13:14.000Z</time>
      </trkpt>
      <trkpt lat="48.71431" lon="1.73576">
        <ele>161</ele>
        <time>2011-10-16T15:13:21.000Z</time>
      </trkpt>
      <trkpt lat="48.71426" lon="1.73576">
        <ele>161.39999389648</ele>
        <time>2011-10-16T15:13:25.000Z</time>
      </trkpt>
      <trkpt lat="48.71416" lon="1.73582">
        <ele>162</ele>
        <time>2011-10-16T15:13:32.000Z</time>
      </trkpt>
      <trkpt lat="48.71415" lon="1.73582">
        <ele>162.19999694824</ele>
        <time>2011-10-16T15:13:33.000Z</time>
      </trkpt>
      <trkpt lat="48.71406" lon="1.73587">
        <ele>162.80000305176</ele>
        <time>2011-10-16T15:13:40.000Z</time>
      </trkpt>
      <trkpt lat="48.71401" lon="1.73586">
        <ele>163.39999389648</ele>
        <time>2011-10-16T15:13:43.000Z</time>
      </trkpt>
      <trkpt lat="48.7139" lon="1.73581">
        <ele>164.80000305176</ele>
        <time>2011-10-16T15:13:50.000Z</time>
      </trkpt>
      <trkpt lat="48.71382" lon="1.73574">
        <ele>166.19999694824</ele>
        <time>2011-10-16T15:13:57.000Z</time>
      </trkpt>
      <trkpt lat="48.7138" lon="1.73571">
        <ele>166.60000610352</ele>
        <time>2011-10-16T15:13:59.000Z</time>
      </trkpt>
      <trkpt lat="48.71368" lon="1.73561">
        <ele>168.60000610352</ele>
        <time>2011-10-16T15:14:09.000Z</time>
      </trkpt>
      <trkpt lat="48.71359" lon="1.73551">
        <ele>170.19999694824</ele>
        <time>2011-10-16T15:14:17.000Z</time>
      </trkpt>
      <trkpt lat="48.71348" lon="1.7354">
        <ele>172.19999694824</ele>
        <time>2011-10-16T15:14:25.000Z</time>
      </trkpt>
      <trkpt lat="48.7134" lon="1.73532">
        <ele>173.80000305176</ele>
        <time>2011-10-16T15:14:31.000Z</time>
      </trkpt>
      <trkpt lat="48.71331" lon="1.73531">
        <ele>174.80000305176</ele>
        <time>2011-10-16T15:14:37.000Z</time>
      </trkpt>
      <trkpt lat="48.71325" lon="1.73535">
        <ele>175.39999389648</ele>
        <time>2011-10-16T15:14:42.000Z</time>
      </trkpt>
      <trkpt lat="48.71316" lon="1.73541">
        <ele>175.80000305176</ele>
        <time>2011-10-16T15:14:50.000Z</time>
      </trkpt>
      <trkpt lat="48.71308" lon="1.73544">
        <ele>176.80000305176</ele>
        <time>2011-10-16T15:14:57.000Z</time>
      </trkpt>
      <trkpt lat="48.71302" lon="1.73557">
        <ele>177</ele>
        <time>2011-10-16T15:15:03.000Z</time>
      </trkpt>
      <trkpt lat="48.71302" lon="1.73561">
        <ele>176.80000305176</ele>
        <time>2011-10-16T15:15:05.000Z</time>
      </trkpt>
      <trkpt lat="48.71302" lon="1.73567">
        <ele>176.60000610352</ele>
        <time>2011-10-16T15:15:09.000Z</time>
      </trkpt>
      <trkpt lat="48.71295" lon="1.73584">
        <ele>177.19999694824</ele>
        <time>2011-10-16T15:15:18.000Z</time>
      </trkpt>
      <trkpt lat="48.71286" lon="1.73594">
        <ele>178.60000610352</ele>
        <time>2011-10-16T15:15:26.000Z</time>
      </trkpt>
      <trkpt lat="48.71279" lon="1.73603">
        <ele>179.60000610352</ele>
        <time>2011-10-16T15:15:33.000Z</time>
      </trkpt>
      <trkpt lat="48.71269" lon="1.7361">
        <ele>181</ele>
        <time>2011-10-16T15:15:40.000Z</time>
      </trkpt>
      <trkpt lat="48.71258" lon="1.73615">
        <ele>182.80000305176</ele>
        <time>2011-10-16T15:15:48.000Z</time>
      </trkpt>
      <trkpt lat="48.71246" lon="1.73617">
        <ele>184</ele>
        <time>2011-10-16T15:15:56.000Z</time>
      </trkpt>
      <trkpt lat="48.71234" lon="1.73615">
        <ele>183.60000610352</ele>
        <time>2011-10-16T15:16:03.000Z</time>
      </trkpt>
      <trkpt lat="48.71222" lon="1.73614">
        <ele>183</ele>
        <time>2011-10-16T15:16:11.000Z</time>
      </trkpt>
      <trkpt lat="48.71211" lon="1.73612">
        <ele>182.60000610352</ele>
        <time>2011-10-16T15:16:18.000Z</time>
      </trkpt>
      <trkpt lat="48.712" lon="1.73608">
        <ele>182.19999694824</ele>
        <time>2011-10-16T15:16:25.000Z</time>
      </trkpt>
      <trkpt lat="48.71192" lon="1.73617">
        <ele>182</ele>
        <time>2011-10-16T15:16:32.000Z</time>
      </trkpt>
      <trkpt lat="48.71184" lon="1.73628">
        <ele>182</ele>
        <time>2011-10-16T15:16:39.000Z</time>
      </trkpt>
      <trkpt lat="48.71182" lon="1.7363">
        <ele>182</ele>
        <time>2011-10-16T15:16:41.000Z</time>
      </trkpt>
      <trkpt lat="48.71177" lon="1.73634">
        <ele>182</ele>
        <time>2011-10-16T15:16:45.000Z</time>
      </trkpt>
      <trkpt lat="48.71166" lon="1.73645">
        <ele>182</ele>
        <time>2011-10-16T15:16:54.000Z</time>
      </trkpt>
      <trkpt lat="48.71157" lon="1.73655">
        <ele>182</ele>
        <time>2011-10-16T15:17:02.000Z</time>
      </trkpt>
      <trkpt lat="48.71147" lon="1.73667">
        <ele>182</ele>
        <time>2011-10-16T15:17:10.000Z</time>
      </trkpt>
      <trkpt lat="48.71139" lon="1.73676">
        <ele>181.80000305176</ele>
        <time>2011-10-16T15:17:16.000Z</time>
      </trkpt>
      <trkpt lat="48.7113" lon="1.73685">
        <ele>181.60000610352</ele>
        <time>2011-10-16T15:17:23.000Z</time>
      </trkpt>
      <trkpt lat="48.7112" lon="1.73697">
        <ele>181.60000610352</ele>
        <time>2011-10-16T15:17:31.000Z</time>
      </trkpt>
      <trkpt lat="48.7111" lon="1.73707">
        <ele>181.60000610352</ele>
        <time>2011-10-16T15:17:39.000Z</time>
      </trkpt>
      <trkpt lat="48.711" lon="1.73716">
        <ele>181.60000610352</ele>
        <time>2011-10-16T15:17:47.000Z</time>
      </trkpt>
      <trkpt lat="48.7109" lon="1.73726">
        <ele>182</ele>
        <time>2011-10-16T15:17:55.000Z</time>
      </trkpt>
      <trkpt lat="48.71082" lon="1.73738">
        <ele>182.19999694824</ele>
        <time>2011-10-16T15:18:02.000Z</time>
      </trkpt>
      <trkpt lat="48.71073" lon="1.73745">
        <ele>182.39999389648</ele>
        <time>2011-10-16T15:18:09.000Z</time>
      </trkpt>
      <trkpt lat="48.71062" lon="1.73753">
        <ele>182.39999389648</ele>
        <time>2011-10-16T15:18:17.000Z</time>
      </trkpt>
      <trkpt lat="48.71053" lon="1.73762">
        <ele>182.19999694824</ele>
        <time>2011-10-16T15:18:25.000Z</time>
      </trkpt>
      <trkpt lat="48.71041" lon="1.73774">
        <ele>182</ele>
        <time>2011-10-16T15:18:35.000Z</time>
      </trkpt>
      <trkpt lat="48.71034" lon="1.73784">
        <ele>182</ele>
        <time>2011-10-16T15:18:42.000Z</time>
      </trkpt>
      <trkpt lat="48.71025" lon="1.73795">
        <ele>182.19999694824</ele>
        <time>2011-10-16T15:18:49.000Z</time>
      </trkpt>
      <trkpt lat="48.71016" lon="1.73802">
        <ele>182.19999694824</ele>
        <time>2011-10-16T15:18:57.000Z</time>
      </trkpt>
      <trkpt lat="48.71007" lon="1.73816">
        <ele>182.39999389648</ele>
        <time>2011-10-16T15:19:05.000Z</time>
      </trkpt>
      <trkpt lat="48.71002" lon="1.73829">
        <ele>182.80000305176</ele>
        <time>2011-10-16T15:19:12.000Z</time>
      </trkpt>
      <trkpt lat="48.70998" lon="1.73847">
        <ele>183.19999694824</ele>
        <time>2011-10-16T15:19:21.000Z</time>
      </trkpt>
      <trkpt lat="48.70992" lon="1.73869">
        <ele>183.39999389648</ele>
        <time>2011-10-16T15:19:32.000Z</time>
      </trkpt>
      <trkpt lat="48.70987" lon="1.73884">
        <ele>183.80000305176</ele>
        <time>2011-10-16T15:19:40.000Z</time>
      </trkpt>
      <trkpt lat="48.70986" lon="1.73894">
        <ele>184</ele>
        <time>2011-10-16T15:19:45.000Z</time>
      </trkpt>
      <trkpt lat="48.70984" lon="1.73903">
        <ele>184.19999694824</ele>
        <time>2011-10-16T15:19:49.000Z</time>
      </trkpt>
      <trkpt lat="48.70978" lon="1.73931">
        <ele>184</ele>
        <time>2011-10-16T15:20:02.000Z</time>
      </trkpt>
      <trkpt lat="48.70973" lon="1.73953">
        <ele>183.39999389648</ele>
        <time>2011-10-16T15:20:12.000Z</time>
      </trkpt>
      <trkpt lat="48.70969" lon="1.73974">
        <ele>182.80000305176</ele>
        <time>2011-10-16T15:20:21.000Z</time>
      </trkpt>
      <trkpt lat="48.70964" lon="1.73998">
        <ele>182.39999389648</ele>
        <time>2011-10-16T15:20:31.000Z</time>
      </trkpt>
      <trkpt lat="48.70962" lon="1.74013">
        <ele>182.39999389648</ele>
        <time>2011-10-16T15:20:38.000Z</time>
      </trkpt>
      <trkpt lat="48.70961" lon="1.74014">
        <ele>182.39999389648</ele>
        <time>2011-10-16T15:20:39.000Z</time>
      </trkpt>
      <trkpt lat="48.70958" lon="1.74028">
        <ele>182.39999389648</ele>
        <time>2011-10-16T15:20:45.000Z</time>
      </trkpt>
      <trkpt lat="48.70953" lon="1.74041">
        <ele>182.39999389648</ele>
        <time>2011-10-16T15:20:51.000Z</time>
      </trkpt>
      <trkpt lat="48.70949" lon="1.74059">
        <ele>182.60000610352</ele>
        <time>2011-10-16T15:20:58.000Z</time>
      </trkpt>
      <trkpt lat="48.70945" lon="1.74073">
        <ele>182.60000610352</ele>
        <time>2011-10-16T15:21:05.000Z</time>
      </trkpt>
      <trkpt lat="48.7094" lon="1.74088">
        <ele>182.60000610352</ele>
        <time>2011-10-16T15:21:12.000Z</time>
      </trkpt>
      <trkpt lat="48.70936" lon="1.74106">
        <ele>182.60000610352</ele>
        <time>2011-10-16T15:21:20.000Z</time>
      </trkpt>
      <trkpt lat="48.70933" lon="1.74117">
        <ele>182.60000610352</ele>
        <time>2011-10-16T15:21:26.000Z</time>
      </trkpt>
      <trkpt lat="48.7093" lon="1.74133">
        <ele>182.60000610352</ele>
        <time>2011-10-16T15:21:34.000Z</time>
      </trkpt>
      <trkpt lat="48.70926" lon="1.74151">
        <ele>182.60000610352</ele>
        <time>2011-10-16T15:21:43.000Z</time>
      </trkpt>
      <trkpt lat="48.70923" lon="1.74172">
        <ele>182.60000610352</ele>
        <time>2011-10-16T15:21:52.000Z</time>
      </trkpt>
      <trkpt lat="48.7092" lon="1.74185">
        <ele>182.39999389648</ele>
        <time>2011-10-16T15:21:59.000Z</time>
      </trkpt>
      <trkpt lat="48.70919" lon="1.74187">
        <ele>182.39999389648</ele>
        <time>2011-10-16T15:22:00.000Z</time>
      </trkpt>
      <trkpt lat="48.70916" lon="1.74205">
        <ele>182</ele>
        <time>2011-10-16T15:22:08.000Z</time>
      </trkpt>
      <trkpt lat="48.70913" lon="1.74224">
        <ele>181.39999389648</ele>
        <time>2011-10-16T15:22:16.000Z</time>
      </trkpt>
      <trkpt lat="48.70908" lon="1.74244">
        <ele>181</ele>
        <time>2011-10-16T15:22:27.000Z</time>
      </trkpt>
      <trkpt lat="48.70904" lon="1.74258">
        <ele>180.19999694824</ele>
        <time>2011-10-16T15:22:35.000Z</time>
      </trkpt>
      <trkpt lat="48.70897" lon="1.74268">
        <ele>179.80000305176</ele>
        <time>2011-10-16T15:22:42.000Z</time>
      </trkpt>
      <trkpt lat="48.70891" lon="1.74278">
        <ele>179.19999694824</ele>
        <time>2011-10-16T15:22:49.000Z</time>
      </trkpt>
      <trkpt lat="48.7089" lon="1.74281">
        <ele>179</ele>
        <time>2011-10-16T15:22:51.000Z</time>
      </trkpt>
      <trkpt lat="48.70882" lon="1.74297">
        <ele>178.19999694824</ele>
        <time>2011-10-16T15:23:00.000Z</time>
      </trkpt>
      <trkpt lat="48.7088" lon="1.74299">
        <ele>178</ele>
        <time>2011-10-16T15:23:04.000Z</time>
      </trkpt>
      <trkpt lat="48.70877" lon="1.74304">
        <ele>177.80000305176</ele>
        <time>2011-10-16T15:23:09.000Z</time>
      </trkpt>
      <trkpt lat="48.70868" lon="1.74319">
        <ele>177.19999694824</ele>
        <time>2011-10-16T15:23:16.000Z</time>
      </trkpt>
      <trkpt lat="48.70859" lon="1.74337">
        <ele>176.60000610352</ele>
        <time>2011-10-16T15:23:26.000Z</time>
      </trkpt>
      <trkpt lat="48.70856" lon="1.74344">
        <ele>176.60000610352</ele>
        <time>2011-10-16T15:23:30.000Z</time>
      </trkpt>
      <trkpt lat="48.70855" lon="1.74357">
        <ele>176.39999389648</ele>
        <time>2011-10-16T15:23:37.000Z</time>
      </trkpt>
      <trkpt lat="48.70855" lon="1.74357">
        <ele>176.39999389648</ele>
        <time>2011-10-16T15:23:39.000Z</time>
      </trkpt>
      <trkpt lat="48.70847" lon="1.74365">
        <ele>176.39999389648</ele>
        <time>2011-10-16T15:23:53.000Z</time>
      </trkpt>
      <trkpt lat="48.70838" lon="1.74377">
        <ele>176.39999389648</ele>
        <time>2011-10-16T15:24:00.000Z</time>
      </trkpt>
      <trkpt lat="48.70834" lon="1.74382">
        <ele>176.39999389648</ele>
        <time>2011-10-16T15:24:04.000Z</time>
      </trkpt>
      <trkpt lat="48.70826" lon="1.74393">
        <ele>176.39999389648</ele>
        <time>2011-10-16T15:24:10.000Z</time>
      </trkpt>
      <trkpt lat="48.70821" lon="1.744">
        <ele>176.39999389648</ele>
        <time>2011-10-16T15:24:14.000Z</time>
      </trkpt>
      <trkpt lat="48.70814" lon="1.74403">
        <ele>176.60000610352</ele>
        <time>2011-10-16T15:24:19.000Z</time>
      </trkpt>
      <trkpt lat="48.70804" lon="1.7441">
        <ele>176.80000305176</ele>
        <time>2011-10-16T15:24:27.000Z</time>
      </trkpt>
      <trkpt lat="48.70793" lon="1.74418">
        <ele>176.80000305176</ele>
        <time>2011-10-16T15:24:36.000Z</time>
      </trkpt>
      <trkpt lat="48.70785" lon="1.74421">
        <ele>177</ele>
        <time>2011-10-16T15:24:42.000Z</time>
      </trkpt>
      <trkpt lat="48.70775" lon="1.74427">
        <ele>177.19999694824</ele>
        <time>2011-10-16T15:24:49.000Z</time>
      </trkpt>
      <trkpt lat="48.70768" lon="1.74432">
        <ele>177.39999389648</ele>
        <time>2011-10-16T15:24:54.000Z</time>
      </trkpt>
      <trkpt lat="48.70766" lon="1.74433">
        <ele>177.39999389648</ele>
        <time>2011-10-16T15:24:58.000Z</time>
      </trkpt>
      <trkpt lat="48.70759" lon="1.74441">
        <ele>177.39999389648</ele>
        <time>2011-10-16T15:25:57.000Z</time>
      </trkpt>
      <trkpt lat="48.70748" lon="1.74448">
        <ele>177.60000610352</ele>
        <time>2011-10-16T15:26:04.000Z</time>
      </trkpt>
      <trkpt lat="48.70741" lon="1.74453">
        <ele>177.80000305176</ele>
        <time>2011-10-16T15:26:10.000Z</time>
      </trkpt>
      <trkpt lat="48.70736" lon="1.74456">
        <ele>178</ele>
        <time>2011-10-16T15:26:15.000Z</time>
      </trkpt>
      <trkpt lat="48.70732" lon="1.74466">
        <ele>178</ele>
        <time>2011-10-16T15:26:21.000Z</time>
      </trkpt>
      <trkpt lat="48.70734" lon="1.74472">
        <ele>177.80000305176</ele>
        <time>2011-10-16T15:26:25.000Z</time>
      </trkpt>
      <trkpt lat="48.70742" lon="1.74482">
        <ele>177.39999389648</ele>
        <time>2011-10-16T15:26:34.000Z</time>
      </trkpt>
      <trkpt lat="48.70751" lon="1.74493">
        <ele>177</ele>
        <time>2011-10-16T15:26:43.000Z</time>
      </trkpt>
      <trkpt lat="48.70752" lon="1.74503">
        <ele>176.80000305176</ele>
        <time>2011-10-16T15:26:48.000Z</time>
      </trkpt>
      <trkpt lat="48.70757" lon="1.74509">
        <ele>176.80000305176</ele>
        <time>2011-10-16T15:26:53.000Z</time>
      </trkpt>
      <trkpt lat="48.70758" lon="1.74509">
        <ele>176.80000305176</ele>
        <time>2011-10-16T15:26:56.000Z</time>
      </trkpt>
      <trkpt lat="48.70769" lon="1.74522">
        <ele>176.60000610352</ele>
        <time>2011-10-16T15:27:30.000Z</time>
      </trkpt>
      <trkpt lat="48.70773" lon="1.74528">
        <ele>176.60000610352</ele>
        <time>2011-10-16T15:27:33.000Z</time>
      </trkpt>
      <trkpt lat="48.70782" lon="1.74539">
        <ele>176.60000610352</ele>
        <time>2011-10-16T15:27:41.000Z</time>
      </trkpt>
      <trkpt lat="48.70789" lon="1.74546">
        <ele>176.39999389648</ele>
        <time>2011-10-16T15:27:47.000Z</time>
      </trkpt>
      <trkpt lat="48.70798" lon="1.74559">
        <ele>176.39999389648</ele>
        <time>2011-10-16T15:27:56.000Z</time>
      </trkpt>
      <trkpt lat="48.70806" lon="1.74569">
        <ele>176.19999694824</ele>
        <time>2011-10-16T15:28:03.000Z</time>
      </trkpt>
      <trkpt lat="48.70812" lon="1.74577">
        <ele>176.19999694824</ele>
        <time>2011-10-16T15:28:08.000Z</time>
      </trkpt>
      <trkpt lat="48.70821" lon="1.74588">
        <ele>176</ele>
        <time>2011-10-16T15:28:15.000Z</time>
      </trkpt>
      <trkpt lat="48.70828" lon="1.74599">
        <ele>176</ele>
        <time>2011-10-16T15:28:21.000Z</time>
      </trkpt>
      <trkpt lat="48.70837" lon="1.74611">
        <ele>175.80000305176</ele>
        <time>2011-10-16T15:28:29.000Z</time>
      </trkpt>
      <trkpt lat="48.70844" lon="1.74619">
        <ele>175.80000305176</ele>
        <time>2011-10-16T15:28:35.000Z</time>
      </trkpt>
      <trkpt lat="48.70854" lon="1.74632">
        <ele>175.80000305176</ele>
        <time>2011-10-16T15:28:43.000Z</time>
      </trkpt>
      <trkpt lat="48.70862" lon="1.74643">
        <ele>175.80000305176</ele>
        <time>2011-10-16T15:28:50.000Z</time>
      </trkpt>
      <trkpt lat="48.70873" lon="1.74657">
        <ele>175.80000305176</ele>
        <time>2011-10-16T15:28:59.000Z</time>
      </trkpt>
      <trkpt lat="48.70885" lon="1.74672">
        <ele>176</ele>
        <time>2011-10-16T15:29:09.000Z</time>
      </trkpt>
      <trkpt lat="48.70894" lon="1.74684">
        <ele>176.39999389648</ele>
        <time>2011-10-16T15:29:17.000Z</time>
      </trkpt>
      <trkpt lat="48.70901" lon="1.74694">
        <ele>176.60000610352</ele>
        <time>2011-10-16T15:29:23.000Z</time>
      </trkpt>
      <trkpt lat="48.7091" lon="1.74705">
        <ele>176.80000305176</ele>
        <time>2011-10-16T15:29:30.000Z</time>
      </trkpt>
      <trkpt lat="48.70917" lon="1.74715">
        <ele>177</ele>
        <time>2011-10-16T15:29:36.000Z</time>
      </trkpt>
      <trkpt lat="48.7092" lon="1.74718">
        <ele>177.19999694824</ele>
        <time>2011-10-16T15:29:38.000Z</time>
      </trkpt>
      <trkpt lat="48.70926" lon="1.74728">
        <ele>177.39999389648</ele>
        <time>2011-10-16T15:29:44.000Z</time>
      </trkpt>
      <trkpt lat="48.70937" lon="1.74744">
        <ele>177.80000305176</ele>
        <time>2011-10-16T15:29:53.000Z</time>
      </trkpt>
      <trkpt lat="48.70945" lon="1.74755">
        <ele>178</ele>
        <time>2011-10-16T15:30:00.000Z</time>
      </trkpt>
      <trkpt lat="48.70958" lon="1.7477">
        <ele>178</ele>
        <time>2011-10-16T15:30:10.000Z</time>
      </trkpt>
      <trkpt lat="48.70966" lon="1.74781">
        <ele>178.19999694824</ele>
        <time>2011-10-16T15:30:17.000Z</time>
      </trkpt>
      <trkpt lat="48.70974" lon="1.7479">
        <ele>178.19999694824</ele>
        <time>2011-10-16T15:30:23.000Z</time>
      </trkpt>
      <trkpt lat="48.70979" lon="1.74799">
        <ele>178.39999389648</ele>
        <time>2011-10-16T15:30:29.000Z</time>
      </trkpt>
      <trkpt lat="48.70982" lon="1.74804">
        <ele>178.39999389648</ele>
        <time>2011-10-16T15:30:33.000Z</time>
      </trkpt>
      <trkpt lat="48.70983" lon="1.74805">
        <ele>178.39999389648</ele>
        <time>2011-10-16T15:30:36.000Z</time>
      </trkpt>
      <trkpt lat="48.70985" lon="1.74805">
        <ele>178.39999389648</ele>
        <time>2011-10-16T15:30:39.000Z</time>
      </trkpt>
      <trkpt lat="48.70988" lon="1.74803">
        <ele>178.39999389648</ele>
        <time>2011-10-16T15:30:45.000Z</time>
      </trkpt>
      <trkpt lat="48.70988" lon="1.74803">
        <ele>178.39999389648</ele>
        <time>2011-10-16T15:30:48.000Z</time>
      </trkpt>
      <trkpt lat="48.71009" lon="1.7483">
        <ele>178.39999389648</ele>
        <time>2011-10-16T15:31:59.000Z</time>
      </trkpt>
      <trkpt lat="48.71012" lon="1.74833">
        <ele>178.19999694824</ele>
        <time>2011-10-16T15:32:04.000Z</time>
      </trkpt>
      <trkpt lat="48.71014" lon="1.74831">
        <ele>178</ele>
        <time>2011-10-16T15:32:10.000Z</time>
      </trkpt>
      <trkpt lat="48.71019" lon="1.74841">
        <ele>177.80000305176</ele>
        <time>2011-10-16T15:32:39.000Z</time>
      </trkpt>
      <trkpt lat="48.71016" lon="1.74849">
        <ele>178</ele>
        <time>2011-10-16T15:32:41.000Z</time>
      </trkpt>
      <trkpt lat="48.7101" lon="1.7486">
        <ele>178.39999389648</ele>
        <time>2011-10-16T15:32:46.000Z</time>
      </trkpt>
      <trkpt lat="48.71006" lon="1.74867">
        <ele>178.60000610352</ele>
        <time>2011-10-16T15:32:50.000Z</time>
      </trkpt>
      <trkpt lat="48.71003" lon="1.7487">
        <ele>178.80000305176</ele>
        <time>2011-10-16T15:32:52.000Z</time>
      </trkpt>
      <trkpt lat="48.70992" lon="1.74883">
        <ele>178.60000610352</ele>
        <time>2011-10-16T15:33:00.000Z</time>
      </trkpt>
      <trkpt lat="48.70988" lon="1.74887">
        <ele>178.39999389648</ele>
        <time>2011-10-16T15:33:03.000Z</time>
      </trkpt>
      <trkpt lat="48.70983" lon="1.74895">
        <ele>178.19999694824</ele>
        <time>2011-10-16T15:33:08.000Z</time>
      </trkpt>
      <trkpt lat="48.70981" lon="1.74897">
        <ele>178.19999694824</ele>
        <time>2011-10-16T15:33:09.000Z</time>
      </trkpt>
      <trkpt lat="48.70979" lon="1.749">
        <ele>178</ele>
        <time>2011-10-16T15:33:11.000Z</time>
      </trkpt>
      <trkpt lat="48.70971" lon="1.74908">
        <ele>177.60000610352</ele>
        <time>2011-10-16T15:33:16.000Z</time>
      </trkpt>
      <trkpt lat="48.70964" lon="1.74917">
        <ele>177.19999694824</ele>
        <time>2011-10-16T15:33:21.000Z</time>
      </trkpt>
      <trkpt lat="48.70963" lon="1.74919">
        <ele>177</ele>
        <time>2011-10-16T15:33:22.000Z</time>
      </trkpt>
      <trkpt lat="48.7096" lon="1.74923">
        <ele>177</ele>
        <time>2011-10-16T15:33:24.000Z</time>
      </trkpt>
      <trkpt lat="48.70952" lon="1.74933">
        <ele>176.60000610352</ele>
        <time>2011-10-16T15:33:30.000Z</time>
      </trkpt>
      <trkpt lat="48.70946" lon="1.74941">
        <ele>176.19999694824</ele>
        <time>2011-10-16T15:33:35.000Z</time>
      </trkpt>
      <trkpt lat="48.70942" lon="1.74947">
        <ele>176</ele>
        <time>2011-10-16T15:33:38.000Z</time>
      </trkpt>
      <trkpt lat="48.7094" lon="1.74948">
        <ele>176</ele>
        <time>2011-10-16T15:33:39.000Z</time>
      </trkpt>
      <trkpt lat="48.70936" lon="1.74953">
        <ele>175.80000305176</ele>
        <time>2011-10-16T15:33:43.000Z</time>
      </trkpt>
      <trkpt lat="48.70931" lon="1.74963">
        <ele>175.60000610352</ele>
        <time>2011-10-16T15:33:48.000Z</time>
      </trkpt>
      <trkpt lat="48.70924" lon="1.74977">
        <ele>175.19999694824</ele>
        <time>2011-10-16T15:33:57.000Z</time>
      </trkpt>
      <trkpt lat="48.70917" lon="1.7499">
        <ele>175</ele>
        <time>2011-10-16T15:34:05.000Z</time>
      </trkpt>
      <trkpt lat="48.70916" lon="1.7499">
        <ele>174.80000305176</ele>
        <time>2011-10-16T15:34:10.000Z</time>
      </trkpt>
      <trkpt lat="48.70916" lon="1.7499">
        <ele>174.80000305176</ele>
        <time>2011-10-16T15:34:11.000Z</time>
      </trkpt>
      <trkpt lat="48.70915" lon="1.74997">
        <ele>174.80000305176</ele>
        <time>2011-10-16T15:34:55.000Z</time>
      </trkpt>
      <trkpt lat="48.70911" lon="1.75007">
        <ele>174.80000305176</ele>
        <time>2011-10-16T15:35:00.000Z</time>
      </trkpt>
      <trkpt lat="48.70906" lon="1.75017">
        <ele>174.60000610352</ele>
        <time>2011-10-16T15:35:06.000Z</time>
      </trkpt>
      <trkpt lat="48.70903" lon="1.75026">
        <ele>174.60000610352</ele>
        <time>2011-10-16T15:35:11.000Z</time>
      </trkpt>
      <trkpt lat="48.70898" lon="1.75034">
        <ele>174.39999389648</ele>
        <time>2011-10-16T15:35:15.000Z</time>
      </trkpt>
      <trkpt lat="48.70893" lon="1.75045">
        <ele>174.39999389648</ele>
        <time>2011-10-16T15:35:21.000Z</time>
      </trkpt>
      <trkpt lat="48.70888" lon="1.75053">
        <ele>174.19999694824</ele>
        <time>2011-10-16T15:35:26.000Z</time>
      </trkpt>
      <trkpt lat="48.70882" lon="1.75065">
        <ele>174.19999694824</ele>
        <time>2011-10-16T15:35:33.000Z</time>
      </trkpt>
      <trkpt lat="48.70877" lon="1.75077">
        <ele>174</ele>
        <time>2011-10-16T15:35:39.000Z</time>
      </trkpt>
      <trkpt lat="48.70872" lon="1.75089">
        <ele>174</ele>
        <time>2011-10-16T15:35:45.000Z</time>
      </trkpt>
      <trkpt lat="48.70867" lon="1.75097">
        <ele>174</ele>
        <time>2011-10-16T15:35:50.000Z</time>
      </trkpt>
      <trkpt lat="48.70865" lon="1.75106">
        <ele>174</ele>
        <time>2011-10-16T15:35:55.000Z</time>
      </trkpt>
      <trkpt lat="48.70863" lon="1.75108">
        <ele>174</ele>
        <time>2011-10-16T15:35:56.000Z</time>
      </trkpt>
      <trkpt lat="48.7086" lon="1.75116">
        <ele>174</ele>
        <time>2011-10-16T15:36:01.000Z</time>
      </trkpt>
      <trkpt lat="48.70857" lon="1.75123">
        <ele>174</ele>
        <time>2011-10-16T15:36:04.000Z</time>
      </trkpt>
      <trkpt lat="48.70852" lon="1.75133">
        <ele>174</ele>
        <time>2011-10-16T15:36:09.000Z</time>
      </trkpt>
      <trkpt lat="48.7085" lon="1.75138">
        <ele>174</ele>
        <time>2011-10-16T15:36:12.000Z</time>
      </trkpt>
      <trkpt lat="48.70843" lon="1.75154">
        <ele>174</ele>
        <time>2011-10-16T15:36:20.000Z</time>
      </trkpt>
      <trkpt lat="48.70839" lon="1.75163">
        <ele>174</ele>
        <time>2011-10-16T15:36:26.000Z</time>
      </trkpt>
      <trkpt lat="48.70833" lon="1.75176">
        <ele>173.80000305176</ele>
        <time>2011-10-16T15:36:33.000Z</time>
      </trkpt>
      <trkpt lat="48.70828" lon="1.75189">
        <ele>173.80000305176</ele>
        <time>2011-10-16T15:36:39.000Z</time>
      </trkpt>
      <trkpt lat="48.70822" lon="1.75202">
        <ele>173.80000305176</ele>
        <time>2011-10-16T15:36:46.000Z</time>
      </trkpt>
      <trkpt lat="48.70816" lon="1.75216">
        <ele>173.60000610352</ele>
        <time>2011-10-16T15:36:53.000Z</time>
      </trkpt>
      <trkpt lat="48.70815" lon="1.7522">
        <ele>173.60000610352</ele>
        <time>2011-10-16T15:36:55.000Z</time>
      </trkpt>
      <trkpt lat="48.70813" lon="1.75232">
        <ele>173.60000610352</ele>
        <time>2011-10-16T15:37:02.000Z</time>
      </trkpt>
      <trkpt lat="48.70811" lon="1.75237">
        <ele>173.60000610352</ele>
        <time>2011-10-16T15:37:05.000Z</time>
      </trkpt>
      <trkpt lat="48.70805" lon="1.75247">
        <ele>173.60000610352</ele>
        <time>2011-10-16T15:37:11.000Z</time>
      </trkpt>
      <trkpt lat="48.70801" lon="1.75259">
        <ele>173.60000610352</ele>
        <time>2011-10-16T15:37:17.000Z</time>
      </trkpt>
      <trkpt lat="48.70798" lon="1.75268">
        <ele>173.39999389648</ele>
        <time>2011-10-16T15:37:21.000Z</time>
      </trkpt>
      <trkpt lat="48.70792" lon="1.75281">
        <ele>173.39999389648</ele>
        <time>2011-10-16T15:37:28.000Z</time>
      </trkpt>
      <trkpt lat="48.70789" lon="1.7529">
        <ele>173.39999389648</ele>
        <time>2011-10-16T15:37:33.000Z</time>
      </trkpt>
      <trkpt lat="48.70785" lon="1.75299">
        <ele>173.39999389648</ele>
        <time>2011-10-16T15:37:39.000Z</time>
      </trkpt>
      <trkpt lat="48.70783" lon="1.75303">
        <ele>173.39999389648</ele>
        <time>2011-10-16T15:37:41.000Z</time>
      </trkpt>
      <trkpt lat="48.7078" lon="1.75315">
        <ele>173.19999694824</ele>
        <time>2011-10-16T15:37:47.000Z</time>
      </trkpt>
      <trkpt lat="48.70775" lon="1.75328">
        <ele>173.19999694824</ele>
        <time>2011-10-16T15:37:54.000Z</time>
      </trkpt>
      <trkpt lat="48.70769" lon="1.75342">
        <ele>173</ele>
        <time>2011-10-16T15:38:01.000Z</time>
      </trkpt>
      <trkpt lat="48.70763" lon="1.75354">
        <ele>172.80000305176</ele>
        <time>2011-10-16T15:38:07.000Z</time>
      </trkpt>
      <trkpt lat="48.70759" lon="1.75365">
        <ele>172.60000610352</ele>
        <time>2011-10-16T15:38:13.000Z</time>
      </trkpt>
      <trkpt lat="48.70756" lon="1.75369">
        <ele>172.60000610352</ele>
        <time>2011-10-16T15:38:16.000Z</time>
      </trkpt>
      <trkpt lat="48.70753" lon="1.75378">
        <ele>172.39999389648</ele>
        <time>2011-10-16T15:38:22.000Z</time>
      </trkpt>
      <trkpt lat="48.70749" lon="1.75383">
        <ele>172.19999694824</ele>
        <time>2011-10-16T15:38:26.000Z</time>
      </trkpt>
      <trkpt lat="48.70745" lon="1.75392">
        <ele>172.19999694824</ele>
        <time>2011-10-16T15:38:31.000Z</time>
      </trkpt>
      <trkpt lat="48.70741" lon="1.75403">
        <ele>172</ele>
        <time>2011-10-16T15:38:38.000Z</time>
      </trkpt>
      <trkpt lat="48.70737" lon="1.75414">
        <ele>171.80000305176</ele>
        <time>2011-10-16T15:38:43.000Z</time>
      </trkpt>
      <trkpt lat="48.70734" lon="1.75425">
        <ele>171.60000610352</ele>
        <time>2011-10-16T15:38:49.000Z</time>
      </trkpt>
      <trkpt lat="48.70731" lon="1.75431">
        <ele>171.60000610352</ele>
        <time>2011-10-16T15:38:52.000Z</time>
      </trkpt>
      <trkpt lat="48.70726" lon="1.75445">
        <ele>171.60000610352</ele>
        <time>2011-10-16T15:38:59.000Z</time>
      </trkpt>
      <trkpt lat="48.70722" lon="1.75454">
        <ele>171.60000610352</ele>
        <time>2011-10-16T15:39:04.000Z</time>
      </trkpt>
      <trkpt lat="48.70721" lon="1.75456">
        <ele>171.60000610352</ele>
        <time>2011-10-16T15:39:05.000Z</time>
      </trkpt>
      <trkpt lat="48.70714" lon="1.75474">
        <ele>171.60000610352</ele>
        <time>2011-10-16T15:39:14.000Z</time>
      </trkpt>
      <trkpt lat="48.70708" lon="1.75487">
        <ele>171.80000305176</ele>
        <time>2011-10-16T15:39:21.000Z</time>
      </trkpt>
      <trkpt lat="48.70704" lon="1.75497">
        <ele>172</ele>
        <time>2011-10-16T15:39:26.000Z</time>
      </trkpt>
      <trkpt lat="48.707" lon="1.75504">
        <ele>172.19999694824</ele>
        <time>2011-10-16T15:39:31.000Z</time>
      </trkpt>
      <trkpt lat="48.70697" lon="1.75509">
        <ele>172.39999389648</ele>
        <time>2011-10-16T15:39:34.000Z</time>
      </trkpt>
      <trkpt lat="48.70695" lon="1.75515">
        <ele>172.60000610352</ele>
        <time>2011-10-16T15:39:38.000Z</time>
      </trkpt>
      <trkpt lat="48.70692" lon="1.75522">
        <ele>172.80000305176</ele>
        <time>2011-10-16T15:39:42.000Z</time>
      </trkpt>
      <trkpt lat="48.70686" lon="1.75533">
        <ele>173.19999694824</ele>
        <time>2011-10-16T15:39:48.000Z</time>
      </trkpt>
      <trkpt lat="48.70684" lon="1.7554">
        <ele>173.39999389648</ele>
        <time>2011-10-16T15:39:52.000Z</time>
      </trkpt>
      <trkpt lat="48.7068" lon="1.75549">
        <ele>173.60000610352</ele>
        <time>2011-10-16T15:39:57.000Z</time>
      </trkpt>
      <trkpt lat="48.70672" lon="1.75564">
        <ele>174.19999694824</ele>
        <time>2011-10-16T15:40:04.000Z</time>
      </trkpt>
      <trkpt lat="48.70669" lon="1.7557">
        <ele>174.39999389648</ele>
        <time>2011-10-16T15:40:07.000Z</time>
      </trkpt>
      <trkpt lat="48.70666" lon="1.75579">
        <ele>174.80000305176</ele>
        <time>2011-10-16T15:40:12.000Z</time>
      </trkpt>
      <trkpt lat="48.70664" lon="1.75582">
        <ele>175.19999694824</ele>
        <time>2011-10-16T15:40:14.000Z</time>
      </trkpt>
      <trkpt lat="48.70659" lon="1.7559">
        <ele>175.60000610352</ele>
        <time>2011-10-16T15:40:20.000Z</time>
      </trkpt>
      <trkpt lat="48.70656" lon="1.75595">
        <ele>176</ele>
        <time>2011-10-16T15:40:25.000Z</time>
      </trkpt>
      <trkpt lat="48.70655" lon="1.75597">
        <ele>176</ele>
        <time>2011-10-16T15:40:26.000Z</time>
      </trkpt>
      <trkpt lat="48.70651" lon="1.75607">
        <ele>176.60000610352</ele>
        <time>2011-10-16T15:40:32.000Z</time>
      </trkpt>
      <trkpt lat="48.70649" lon="1.75611">
        <ele>176.80000305176</ele>
        <time>2011-10-16T15:40:35.000Z</time>
      </trkpt>
      <trkpt lat="48.70644" lon="1.7562">
        <ele>177.19999694824</ele>
        <time>2011-10-16T15:40:40.000Z</time>
      </trkpt>
      <trkpt lat="48.70644" lon="1.75622">
        <ele>177.39999389648</ele>
        <time>2011-10-16T15:40:41.000Z</time>
      </trkpt>
      <trkpt lat="48.70641" lon="1.7563">
        <ele>177.60000610352</ele>
        <time>2011-10-16T15:40:46.000Z</time>
      </trkpt>
      <trkpt lat="48.7064" lon="1.7564">
        <ele>177.80000305176</ele>
        <time>2011-10-16T15:40:52.000Z</time>
      </trkpt>
      <trkpt lat="48.70641" lon="1.75649">
        <ele>177.80000305176</ele>
        <time>2011-10-16T15:40:56.000Z</time>
      </trkpt>
      <trkpt lat="48.70646" lon="1.75655">
        <ele>177.39999389648</ele>
        <time>2011-10-16T15:41:00.000Z</time>
      </trkpt>
      <trkpt lat="48.70649" lon="1.75661">
        <ele>177</ele>
        <time>2011-10-16T15:41:04.000Z</time>
      </trkpt>
      <trkpt lat="48.70651" lon="1.75665">
        <ele>176.80000305176</ele>
        <time>2011-10-16T15:41:07.000Z</time>
      </trkpt>
      <trkpt lat="48.70654" lon="1.75675">
        <ele>176.19999694824</ele>
        <time>2011-10-16T15:41:12.000Z</time>
      </trkpt>
      <trkpt lat="48.70655" lon="1.75677">
        <ele>176</ele>
        <time>2011-10-16T15:41:14.000Z</time>
      </trkpt>
      <trkpt lat="48.70659" lon="1.75682">
        <ele>175.60000610352</ele>
        <time>2011-10-16T15:41:18.000Z</time>
      </trkpt>
      <trkpt lat="48.70666" lon="1.75691">
        <ele>174.60000610352</ele>
        <time>2011-10-16T15:41:25.000Z</time>
      </trkpt>
      <trkpt lat="48.70672" lon="1.75695">
        <ele>174.39999389648</ele>
        <time>2011-10-16T15:41:31.000Z</time>
      </trkpt>
      <trkpt lat="48.70674" lon="1.75699">
        <ele>174.39999389648</ele>
        <time>2011-10-16T15:41:33.000Z</time>
      </trkpt>
      <trkpt lat="48.7068" lon="1.75707">
        <ele>174.19999694824</ele>
        <time>2011-10-16T15:41:39.000Z</time>
      </trkpt>
      <trkpt lat="48.7068" lon="1.75708">
        <ele>174.19999694824</ele>
        <time>2011-10-16T15:41:40.000Z</time>
      </trkpt>
      <trkpt lat="48.70687" lon="1.75717">
        <ele>174.19999694824</ele>
        <time>2011-10-16T15:41:46.000Z</time>
      </trkpt>
      <trkpt lat="48.70688" lon="1.75718">
        <ele>174</ele>
        <time>2011-10-16T15:41:47.000Z</time>
      </trkpt>
      <trkpt lat="48.70694" lon="1.7573">
        <ele>174</ele>
        <time>2011-10-16T15:41:54.000Z</time>
      </trkpt>
      <trkpt lat="48.70696" lon="1.75732">
        <ele>174</ele>
        <time>2011-10-16T15:41:56.000Z</time>
      </trkpt>
      <trkpt lat="48.70702" lon="1.75737">
        <ele>174</ele>
        <time>2011-10-16T15:42:02.000Z</time>
      </trkpt>
      <trkpt lat="48.70708" lon="1.75742">
        <ele>174</ele>
        <time>2011-10-16T15:42:06.000Z</time>
      </trkpt>
      <trkpt lat="48.70711" lon="1.75747">
        <ele>173.80000305176</ele>
        <time>2011-10-16T15:42:09.000Z</time>
      </trkpt>
      <trkpt lat="48.70715" lon="1.75754">
        <ele>173.80000305176</ele>
        <time>2011-10-16T15:42:13.000Z</time>
      </trkpt>
      <trkpt lat="48.70721" lon="1.75761">
        <ele>173.80000305176</ele>
        <time>2011-10-16T15:42:19.000Z</time>
      </trkpt>
      <trkpt lat="48.70723" lon="1.75764">
        <ele>173.60000610352</ele>
        <time>2011-10-16T15:42:21.000Z</time>
      </trkpt>
      <trkpt lat="48.70726" lon="1.7577">
        <ele>173.60000610352</ele>
        <time>2011-10-16T15:42:24.000Z</time>
      </trkpt>
      <trkpt lat="48.70727" lon="1.75773">
        <ele>173.60000610352</ele>
        <time>2011-10-16T15:42:28.000Z</time>
      </trkpt>
      <trkpt lat="48.70732" lon="1.75779">
        <ele>173.39999389648</ele>
        <time>2011-10-16T15:42:34.000Z</time>
      </trkpt>
      <trkpt lat="48.70744" lon="1.75794">
        <ele>173.39999389648</ele>
        <time>2011-10-16T15:42:43.000Z</time>
      </trkpt>
      <trkpt lat="48.70749" lon="1.75799">
        <ele>173.19999694824</ele>
        <time>2011-10-16T15:42:47.000Z</time>
      </trkpt>
      <trkpt lat="48.7075" lon="1.75801">
        <ele>173.19999694824</ele>
        <time>2011-10-16T15:42:48.000Z</time>
      </trkpt>
      <trkpt lat="48.70752" lon="1.75809">
        <ele>173.19999694824</ele>
        <time>2011-10-16T15:42:53.000Z</time>
      </trkpt>
      <trkpt lat="48.70757" lon="1.75817">
        <ele>173</ele>
        <time>2011-10-16T15:42:58.000Z</time>
      </trkpt>
      <trkpt lat="48.70763" lon="1.75823">
        <ele>172.80000305176</ele>
        <time>2011-10-16T15:43:02.000Z</time>
      </trkpt>
      <trkpt lat="48.70768" lon="1.75828">
        <ele>172.80000305176</ele>
        <time>2011-10-16T15:43:06.000Z</time>
      </trkpt>
      <trkpt lat="48.70771" lon="1.75834">
        <ele>172.60000610352</ele>
        <time>2011-10-16T15:43:11.000Z</time>
      </trkpt>
      <trkpt lat="48.70776" lon="1.75841">
        <ele>172.60000610352</ele>
        <time>2011-10-16T15:43:16.000Z</time>
      </trkpt>
      <trkpt lat="48.70781" lon="1.75846">
        <ele>172.60000610352</ele>
        <time>2011-10-16T15:43:21.000Z</time>
      </trkpt>
      <trkpt lat="48.70787" lon="1.75851">
        <ele>172.60000610352</ele>
        <time>2011-10-16T15:43:26.000Z</time>
      </trkpt>
      <trkpt lat="48.7079" lon="1.75853">
        <ele>172.60000610352</ele>
        <time>2011-10-16T15:43:28.000Z</time>
      </trkpt>
      <trkpt lat="48.70795" lon="1.75857">
        <ele>172.60000610352</ele>
        <time>2011-10-16T15:43:32.000Z</time>
      </trkpt>
      <trkpt lat="48.70798" lon="1.7586">
        <ele>172.60000610352</ele>
        <time>2011-10-16T15:43:37.000Z</time>
      </trkpt>
      <trkpt lat="48.70804" lon="1.75865">
        <ele>172.80000305176</ele>
        <time>2011-10-16T15:43:42.000Z</time>
      </trkpt>
      <trkpt lat="48.70805" lon="1.75866">
        <ele>172.80000305176</ele>
        <time>2011-10-16T15:43:46.000Z</time>
      </trkpt>
      <trkpt lat="48.70808" lon="1.7587">
        <ele>172.80000305176</ele>
        <time>2011-10-16T15:43:57.000Z</time>
      </trkpt>
      <trkpt lat="48.70816" lon="1.75877">
        <ele>173</ele>
        <time>2011-10-16T15:44:03.000Z</time>
      </trkpt>
      <trkpt lat="48.70821" lon="1.75882">
        <ele>173</ele>
        <time>2011-10-16T15:44:08.000Z</time>
      </trkpt>
      <trkpt lat="48.70829" lon="1.75887">
        <ele>173.19999694824</ele>
        <time>2011-10-16T15:44:15.000Z</time>
      </trkpt>
      <trkpt lat="48.70838" lon="1.75894">
        <ele>173.39999389648</ele>
        <time>2011-10-16T15:44:22.000Z</time>
      </trkpt>
      <trkpt lat="48.70839" lon="1.75895">
        <ele>173.39999389648</ele>
        <time>2011-10-16T15:44:23.000Z</time>
      </trkpt>
      <trkpt lat="48.70844" lon="1.75902">
        <ele>173.80000305176</ele>
        <time>2011-10-16T15:44:28.000Z</time>
      </trkpt>
      <trkpt lat="48.70845" lon="1.75903">
        <ele>173.80000305176</ele>
        <time>2011-10-16T15:44:31.000Z</time>
      </trkpt>
    </trkseg>
  </trk>
</gpx>